<?xml version='1.0' encoding='UTF-8'?><gpx version="1.1" creator="JPX - https://github.com/jenetics/jpx" xmlns="http://www.topografix.com/GPX/1/1"><trk><trkseg><trkpt lat="45.5573204330472" lon="10.0804398381869"><ele>155.0</ele><time>2026-03-24T14:29:08.691Z</time></trkpt><trkpt lat="45.557571843676016" lon="10.0805612262851"><ele>155.0</ele><time>2026-03-24T14:29:16.383Z</time></trkpt><trkpt lat="45.55764734043625" lon="10.080603763543591"><ele>155.0</ele><time>2026-03-24T14:29:19.383Z</time></trkpt><trkpt lat="45.557715041895406" lon="10.080639184616153"><ele>155.0</ele><time>2026-03-24T14:29:23Z</time></trkpt><trkpt lat="45.557784249584714" lon="10.080614805714118"><ele>155.0</ele><time>2026-03-24T14:29:27Z</time></trkpt><trkpt lat="45.55783931126982" lon="10.080556017194418"><ele>155.0</ele><time>2026-03-24T14:29:30Z</time></trkpt><trkpt lat="45.557893304142965" lon="10.08048394823025"><ele>155.0</ele><time>2026-03-24T14:29:32Z</time></trkpt><trkpt lat="45.557945489292955" lon="10.080397506046927"><ele>155.0</ele><time>2026-03-24T14:29:34Z</time></trkpt><trkpt lat="45.558001703647115" lon="10.080316196599618"><ele>155.0</ele><time>2026-03-24T14:29:36Z</time></trkpt><trkpt lat="45.558051513449755" lon="10.08023483719854"><ele>155.0</ele><time>2026-03-24T14:29:38Z</time></trkpt><trkpt lat="45.558108329734395" lon="10.080153913773179"><ele>154.8</ele><time>2026-03-24T14:29:40Z</time></trkpt><trkpt lat="45.55816892910258" lon="10.080053506666209"><ele>154.6</ele><time>2026-03-24T14:29:42Z</time></trkpt><trkpt lat="45.558235390466784" lon="10.079956329490274"><ele>154.4</ele><time>2026-03-24T14:29:44Z</time></trkpt><trkpt lat="45.55830202939421" lon="10.07984849941784"><ele>154.2</ele><time>2026-03-24T14:29:46Z</time></trkpt><trkpt lat="45.55836487212766" lon="10.079748856640151"><ele>154.0</ele><time>2026-03-24T14:29:48Z</time></trkpt><trkpt lat="45.558440744357554" lon="10.079634512843102"><ele>154.0</ele><time>2026-03-24T14:29:50Z</time></trkpt><trkpt lat="45.55849154487543" lon="10.079507252998631"><ele>154.0</ele><time>2026-03-24T14:29:52Z</time></trkpt><trkpt lat="45.5585565770468" lon="10.079382120437396"><ele>154.0</ele><time>2026-03-24T14:29:53.999Z</time></trkpt><trkpt lat="45.55861306888411" lon="10.07925265605682"><ele>154.0</ele><time>2026-03-24T14:29:55.999Z</time></trkpt><trkpt lat="45.558673195421896" lon="10.079134267373123"><ele>154.0</ele><time>2026-03-24T14:29:57.999Z</time></trkpt><trkpt lat="45.558756955967205" lon="10.079042089218538"><ele>154.0</ele><time>2026-03-24T14:29:59.999Z</time></trkpt><trkpt lat="45.55884508743448" lon="10.078956269132847"><ele>154.0</ele><time>2026-03-24T14:30:01.999Z</time></trkpt><trkpt lat="45.558928085556424" lon="10.078861655465388"><ele>154.0</ele><time>2026-03-24T14:30:03.999Z</time></trkpt><trkpt lat="45.55901260374364" lon="10.078777543177345"><ele>154.0</ele><time>2026-03-24T14:30:05.999Z</time></trkpt><trkpt lat="45.559100687121685" lon="10.078683317377342"><ele>154.0</ele><time>2026-03-24T14:30:07.999Z</time></trkpt><trkpt lat="45.55918971277443" lon="10.078584393111742"><ele>154.0</ele><time>2026-03-24T14:30:09.999Z</time></trkpt><trkpt lat="45.55928241787747" lon="10.078495414459363"><ele>154.0</ele><time>2026-03-24T14:30:11.999Z</time></trkpt><trkpt lat="45.5593707977983" lon="10.078394611302208"><ele>154.0</ele><time>2026-03-24T14:30:13.999Z</time></trkpt><trkpt lat="45.55945220590767" lon="10.078280421046134"><ele>154.0</ele><time>2026-03-24T14:30:15.999Z</time></trkpt><trkpt lat="45.559528495821404" lon="10.078162583137681"><ele>154.0</ele><time>2026-03-24T14:30:17.999Z</time></trkpt><trkpt lat="45.5596010511377" lon="10.078051372117507"><ele>154.0</ele><time>2026-03-24T14:30:19.999Z</time></trkpt><trkpt lat="45.559667178032264" lon="10.077954924897377"><ele>154.0</ele><time>2026-03-24T14:30:21.999Z</time></trkpt><trkpt lat="45.55972886440872" lon="10.07786546474792"><ele>154.0</ele><time>2026-03-24T14:30:23.999Z</time></trkpt><trkpt lat="45.55978917421999" lon="10.077766206568992"><ele>154.0</ele><time>2026-03-24T14:30:25.999Z</time></trkpt><trkpt lat="45.5598483446623" lon="10.07767373690931"><ele>154.0</ele><time>2026-03-24T14:30:27.999Z</time></trkpt><trkpt lat="45.55993407112366" lon="10.07764416151771"><ele>154.0</ele><time>2026-03-24T14:30:29.999Z</time></trkpt><trkpt lat="45.5600144868511" lon="10.077723848824606"><ele>154.0</ele><time>2026-03-24T14:30:31.999Z</time></trkpt><trkpt lat="45.56010070997329" lon="10.077802120571604"><ele>154.0</ele><time>2026-03-24T14:30:33.999Z</time></trkpt><trkpt lat="45.56019369742141" lon="10.077876689501034"><ele>154.0</ele><time>2026-03-24T14:30:35.999Z</time></trkpt><trkpt lat="45.56029074206285" lon="10.077951898020707"><ele>154.2</ele><time>2026-03-24T14:30:37.999Z</time></trkpt><trkpt lat="45.5603890519015" lon="10.078030347922036"><ele>154.4</ele><time>2026-03-24T14:30:39.999Z</time></trkpt><trkpt lat="45.56048993983884" lon="10.078108420315044"><ele>154.6</ele><time>2026-03-24T14:30:41.999Z</time></trkpt><trkpt lat="45.560587626868575" lon="10.078184030013071"><ele>154.8</ele><time>2026-03-24T14:30:43.999Z</time></trkpt><trkpt lat="45.56068310171399" lon="10.078254625043703"><ele>155.0</ele><time>2026-03-24T14:30:45.999Z</time></trkpt><trkpt lat="45.56078470214559" lon="10.078331162182263"><ele>155.0</ele><time>2026-03-24T14:30:47.999Z</time></trkpt><trkpt lat="45.56088693509417" lon="10.078410112233971"><ele>155.0</ele><time>2026-03-24T14:30:49.999Z</time></trkpt><trkpt lat="45.56098753849466" lon="10.078488294559795"><ele>155.0</ele><time>2026-03-24T14:30:51.999Z</time></trkpt><trkpt lat="45.56108326680714" lon="10.07856441018665"><ele>155.0</ele><time>2026-03-24T14:30:53.998Z</time></trkpt><trkpt lat="45.5611791397797" lon="10.078640935979704"><ele>155.4</ele><time>2026-03-24T14:30:55.998Z</time></trkpt><trkpt lat="45.5612752097788" lon="10.078713624613107"><ele>155.8</ele><time>2026-03-24T14:30:57.998Z</time></trkpt><trkpt lat="45.56136670380752" lon="10.078783468632574"><ele>156.2</ele><time>2026-03-24T14:30:59.998Z</time></trkpt><trkpt lat="45.56146066705807" lon="10.078840610500322"><ele>156.6</ele><time>2026-03-24T14:31:01.998Z</time></trkpt><trkpt lat="45.561559802673905" lon="10.078885598250181"><ele>157.0</ele><time>2026-03-24T14:31:03.998Z</time></trkpt><trkpt lat="45.561659889675475" lon="10.078930200669287"><ele>157.0</ele><time>2026-03-24T14:31:05.998Z</time></trkpt><trkpt lat="45.56175773157683" lon="10.078979265960696"><ele>157.0</ele><time>2026-03-24T14:31:07.998Z</time></trkpt><trkpt lat="45.56185427723298" lon="10.079042669746437"><ele>157.0</ele><time>2026-03-24T14:31:09.998Z</time></trkpt><trkpt lat="45.56195724377165" lon="10.079082333854684"><ele>157.0</ele><time>2026-03-24T14:31:11.998Z</time></trkpt><trkpt lat="45.56206235831045" lon="10.079123789015963"><ele>157.0</ele><time>2026-03-24T14:31:13.998Z</time></trkpt><trkpt lat="45.56216783859825" lon="10.079173975840742"><ele>156.6</ele><time>2026-03-24T14:31:15.998Z</time></trkpt><trkpt lat="45.562269612570645" lon="10.079226574471917"><ele>156.2</ele><time>2026-03-24T14:31:17.998Z</time></trkpt><trkpt lat="45.56236965903062" lon="10.07927528552775"><ele>155.8</ele><time>2026-03-24T14:31:19.998Z</time></trkpt><trkpt lat="45.56247607835733" lon="10.07933039879291"><ele>155.4</ele><time>2026-03-24T14:31:21.998Z</time></trkpt><trkpt lat="45.56258368374905" lon="10.079375187903434"><ele>155.0</ele><time>2026-03-24T14:31:23.998Z</time></trkpt><trkpt lat="45.56269561221823" lon="10.079411110066028"><ele>155.0</ele><time>2026-03-24T14:31:25.998Z</time></trkpt><trkpt lat="45.56280904452389" lon="10.07945824167855"><ele>155.0</ele><time>2026-03-24T14:31:28Z</time></trkpt><trkpt lat="45.56291506827356" lon="10.079549977064787"><ele>155.0</ele><time>2026-03-24T14:31:30Z</time></trkpt><trkpt lat="45.56302710562461" lon="10.079632291301827"><ele>155.0</ele><time>2026-03-24T14:31:32Z</time></trkpt><trkpt lat="45.5631363396726" lon="10.079713887229563"><ele>155.0</ele><time>2026-03-24T14:31:34Z</time></trkpt><trkpt lat="45.56324665268227" lon="10.079806175116296"><ele>155.0</ele><time>2026-03-24T14:31:36Z</time></trkpt><trkpt lat="45.563306254185456" lon="10.079853751960838"><ele>155.0</ele><time>2026-03-24T14:31:37Z</time></trkpt><trkpt lat="45.56337285579184" lon="10.079906842055262"><ele>155.0</ele><time>2026-03-24T14:31:38Z</time></trkpt><trkpt lat="45.563437563511414" lon="10.079962303240608"><ele>155.0</ele><time>2026-03-24T14:31:39Z</time></trkpt><trkpt lat="45.56349385782049" lon="10.080015639013473"><ele>155.0</ele><time>2026-03-24T14:31:40Z</time></trkpt><trkpt lat="45.56355174745545" lon="10.080063254819295"><ele>155.0</ele><time>2026-03-24T14:31:41Z</time></trkpt><trkpt lat="45.56362734494878" lon="10.08010889792444"><ele>155.0</ele><time>2026-03-24T14:31:42Z</time></trkpt><trkpt lat="45.56369208741366" lon="10.080159869787959"><ele>155.0</ele><time>2026-03-24T14:31:43Z</time></trkpt><trkpt lat="45.56377876263103" lon="10.080252206865998"><ele>155.0</ele><time>2026-03-24T14:31:45Z</time></trkpt><trkpt lat="45.56387775534645" lon="10.080348955246391"><ele>155.0</ele><time>2026-03-24T14:31:47Z</time></trkpt><trkpt lat="45.56397520892623" lon="10.080417860532176"><ele>155.4</ele><time>2026-03-24T14:31:49Z</time></trkpt><trkpt lat="45.564067046639046" lon="10.080482924683992"><ele>155.8</ele><time>2026-03-24T14:31:51Z</time></trkpt><trkpt lat="45.56416380928519" lon="10.080562389298365"><ele>156.2</ele><time>2026-03-24T14:31:53Z</time></trkpt><trkpt lat="45.5642609699543" lon="10.080648904318318"><ele>156.6</ele><time>2026-03-24T14:31:54.999Z</time></trkpt><trkpt lat="45.56436409519568" lon="10.08072927147637"><ele>157.0</ele><time>2026-03-24T14:31:56.999Z</time></trkpt><trkpt lat="45.56447210669051" lon="10.080804045335906"><ele>157.0</ele><time>2026-03-24T14:31:58.999Z</time></trkpt><trkpt lat="45.5645852093738" lon="10.080865657116131"><ele>157.0</ele><time>2026-03-24T14:32:00.999Z</time></trkpt><trkpt lat="45.56470057423159" lon="10.080914262220121"><ele>157.0</ele><time>2026-03-24T14:32:02.999Z</time></trkpt><trkpt lat="45.564818070135075" lon="10.0809557206679"><ele>157.0</ele><time>2026-03-24T14:32:04.999Z</time></trkpt><trkpt lat="45.564881016300646" lon="10.08096430335467"><ele>157.0</ele><time>2026-03-24T14:32:05.999Z</time></trkpt><trkpt lat="45.564997230781266" lon="10.080993038572279"><ele>157.0</ele><time>2026-03-24T14:32:07.999Z</time></trkpt><trkpt lat="45.565113008516235" lon="10.081026572074682"><ele>157.0</ele><time>2026-03-24T14:32:09.999Z</time></trkpt><trkpt lat="45.56523345075906" lon="10.081045908945214"><ele>157.0</ele><time>2026-03-24T14:32:11.999Z</time></trkpt><trkpt lat="45.56534196909535" lon="10.081050072848328"><ele>157.0</ele><time>2026-03-24T14:32:13.999Z</time></trkpt><trkpt lat="45.56545326926957" lon="10.081048370600206"><ele>157.0</ele><time>2026-03-24T14:32:15.999Z</time></trkpt><trkpt lat="45.5655643321156" lon="10.081049041925427"><ele>157.0</ele><time>2026-03-24T14:32:17.999Z</time></trkpt><trkpt lat="45.56567860982961" lon="10.081063741204385"><ele>157.0</ele><time>2026-03-24T14:32:19.999Z</time></trkpt><trkpt lat="45.56574149322145" lon="10.081072337732712"><ele>157.0</ele><time>2026-03-24T14:32:20.999Z</time></trkpt><trkpt lat="45.565860476757294" lon="10.081087121047098"><ele>157.0</ele><time>2026-03-24T14:32:22.999Z</time></trkpt><trkpt lat="45.56598481840901" lon="10.081101237658068"><ele>157.0</ele><time>2026-03-24T14:32:24.999Z</time></trkpt><trkpt lat="45.56610379037854" lon="10.081117232710316"><ele>157.0</ele><time>2026-03-24T14:32:26.999Z</time></trkpt><trkpt lat="45.56622257481154" lon="10.081128098652552"><ele>157.0</ele><time>2026-03-24T14:32:28.999Z</time></trkpt><trkpt lat="45.56633853221429" lon="10.081141883336729"><ele>157.0</ele><time>2026-03-24T14:32:30.999Z</time></trkpt><trkpt lat="45.56644832548913" lon="10.081158881311412"><ele>157.25</ele><time>2026-03-24T14:32:32.999Z</time></trkpt><trkpt lat="45.566564738384464" lon="10.081166839020907"><ele>157.5</ele><time>2026-03-24T14:32:34.999Z</time></trkpt><trkpt lat="45.56667763860813" lon="10.08118853895984"><ele>157.75</ele><time>2026-03-24T14:32:36.999Z</time></trkpt><trkpt lat="45.56678728835843" lon="10.081201865437873"><ele>158.0</ele><time>2026-03-24T14:32:38.999Z</time></trkpt><trkpt lat="45.56689980048125" lon="10.081209735260405"><ele>158.0</ele><time>2026-03-24T14:32:40.999Z</time></trkpt><trkpt lat="45.56701235000342" lon="10.08122418002214"><ele>158.0</ele><time>2026-03-24T14:32:42.999Z</time></trkpt><trkpt lat="45.5671280111934" lon="10.081244792817424"><ele>158.0</ele><time>2026-03-24T14:32:44.999Z</time></trkpt><trkpt lat="45.56724299863616" lon="10.081254093097085"><ele>158.0</ele><time>2026-03-24T14:32:46.999Z</time></trkpt><trkpt lat="45.567356459301706" lon="10.081263150093422"><ele>158.0</ele><time>2026-03-24T14:32:48.999Z</time></trkpt><trkpt lat="45.56746819718429" lon="10.081270540949642"><ele>158.0</ele><time>2026-03-24T14:32:50.999Z</time></trkpt><trkpt lat="45.56756855685639" lon="10.081283438565292"><ele>158.0</ele><time>2026-03-24T14:32:52.998Z</time></trkpt><trkpt lat="45.567625947468734" lon="10.081336404009566"><ele>158.0</ele><time>2026-03-24T14:32:54.998Z</time></trkpt><trkpt lat="45.567652159081305" lon="10.081435491379882"><ele>158.0</ele><time>2026-03-24T14:32:56.998Z</time></trkpt><trkpt lat="45.56765266731697" lon="10.081560471073075"><ele>158.0</ele><time>2026-03-24T14:32:58.998Z</time></trkpt><trkpt lat="45.56766912623467" lon="10.081697614005996"><ele>157.8</ele><time>2026-03-24T14:33:00.998Z</time></trkpt><trkpt lat="45.56768117460476" lon="10.081843366666135"><ele>157.60000000000002</ele><time>2026-03-24T14:33:02.998Z</time></trkpt><trkpt lat="45.56769172108375" lon="10.08199861821415"><ele>157.39999999999998</ele><time>2026-03-24T14:33:04.998Z</time></trkpt><trkpt lat="45.56770230768636" lon="10.082166944232256"><ele>157.2</ele><time>2026-03-24T14:33:06.998Z</time></trkpt><trkpt lat="45.567721285778475" lon="10.082332968799896"><ele>157.0</ele><time>2026-03-24T14:33:08.998Z</time></trkpt><trkpt lat="45.56773584665268" lon="10.082495938114553"><ele>157.0</ele><time>2026-03-24T14:33:10.998Z</time></trkpt><trkpt lat="45.567754122904475" lon="10.082653779029865"><ele>157.0</ele><time>2026-03-24T14:33:12.998Z</time></trkpt><trkpt lat="45.567772312164095" lon="10.082816292593492"><ele>157.0</ele><time>2026-03-24T14:33:14.998Z</time></trkpt><trkpt lat="45.56778951558837" lon="10.082985659487646"><ele>157.0</ele><time>2026-03-24T14:33:16.998Z</time></trkpt><trkpt lat="45.56781252199564" lon="10.083161444852067"><ele>157.0</ele><time>2026-03-24T14:33:18.998Z</time></trkpt><trkpt lat="45.56782422897559" lon="10.083251400396053"><ele>157.0</ele><time>2026-03-24T14:33:19.998Z</time></trkpt><trkpt lat="45.56783477219135" lon="10.083343384154723"><ele>157.0</ele><time>2026-03-24T14:33:20.998Z</time></trkpt><trkpt lat="45.56784350985098" lon="10.08343495578775"><ele>157.0</ele><time>2026-03-24T14:33:21.998Z</time></trkpt><trkpt lat="45.56786480068048" lon="10.083609926824114"><ele>157.0</ele><time>2026-03-24T14:33:23.998Z</time></trkpt><trkpt lat="45.56789012635286" lon="10.08378956658234"><ele>157.0</ele><time>2026-03-24T14:33:25.998Z</time></trkpt><trkpt lat="45.56790126949652" lon="10.083879455116378"><ele>156.6</ele><time>2026-03-24T14:33:26.998Z</time></trkpt><trkpt lat="45.567926835817346" lon="10.084051578791748"><ele>156.2</ele><time>2026-03-24T14:33:28.998Z</time></trkpt><trkpt lat="45.56794772687471" lon="10.084226293999201"><ele>155.8</ele><time>2026-03-24T14:33:30.998Z</time></trkpt><trkpt lat="45.567956804626135" lon="10.084319744186754"><ele>155.4</ele><time>2026-03-24T14:33:31.998Z</time></trkpt><trkpt lat="45.56797382557267" lon="10.084493935717411"><ele>155.0</ele><time>2026-03-24T14:33:34Z</time></trkpt><trkpt lat="45.56799824852673" lon="10.084670582898129"><ele>155.0</ele><time>2026-03-24T14:33:36Z</time></trkpt><trkpt lat="45.56800862788411" lon="10.084761220747144"><ele>155.0</ele><time>2026-03-24T14:33:37Z</time></trkpt><trkpt lat="45.568031893602765" lon="10.084938915678379"><ele>155.0</ele><time>2026-03-24T14:33:39Z</time></trkpt><trkpt lat="45.56804346579407" lon="10.085027543000336"><ele>155.0</ele><time>2026-03-24T14:33:40Z</time></trkpt><trkpt lat="45.56805562162737" lon="10.085119353682051"><ele>155.0</ele><time>2026-03-24T14:33:41Z</time></trkpt><trkpt lat="45.568066618710326" lon="10.085209791108806"><ele>155.0</ele><time>2026-03-24T14:33:42Z</time></trkpt><trkpt lat="45.568096893515545" lon="10.08538538791442"><ele>154.83333333333331</ele><time>2026-03-24T14:33:44Z</time></trkpt><trkpt lat="45.5681506543002" lon="10.085543134462062"><ele>154.66666666666666</ele><time>2026-03-24T14:33:46Z</time></trkpt><trkpt lat="45.56816224879626" lon="10.08570880042746"><ele>154.5</ele><time>2026-03-24T14:33:48Z</time></trkpt><trkpt lat="45.56815826964222" lon="10.085806037262326"><ele>154.33333333333334</ele><time>2026-03-24T14:33:49Z</time></trkpt><trkpt lat="45.568158555271566" lon="10.085901005019418"><ele>154.16666666666669</ele><time>2026-03-24T14:33:50Z</time></trkpt><trkpt lat="45.568159592900955" lon="10.085991727797106"><ele>154.0</ele><time>2026-03-24T14:33:51Z</time></trkpt><trkpt lat="45.5681693109468" lon="10.086166260544974"><ele>154.0</ele><time>2026-03-24T14:33:53Z</time></trkpt><trkpt lat="45.568183899378624" lon="10.086344664763995"><ele>154.0</ele><time>2026-03-24T14:33:55Z</time></trkpt><trkpt lat="45.56818806416668" lon="10.086436731515818"><ele>154.0</ele><time>2026-03-24T14:33:56Z</time></trkpt><trkpt lat="45.568194784213816" lon="10.086527066039647"><ele>154.0</ele><time>2026-03-24T14:33:57Z</time></trkpt><trkpt lat="45.568199130861935" lon="10.086617685214582"><ele>154.0</ele><time>2026-03-24T14:33:58Z</time></trkpt><trkpt lat="45.56821031836591" lon="10.086793547149709"><ele>154.0</ele><time>2026-03-24T14:33:59.999Z</time></trkpt><trkpt lat="45.56821772275353" lon="10.086886930119556"><ele>153.83333333333334</ele><time>2026-03-24T14:34:00.999Z</time></trkpt><trkpt lat="45.568235461044566" lon="10.087065145894133"><ele>153.66666666666669</ele><time>2026-03-24T14:34:02.999Z</time></trkpt><trkpt lat="45.568244029424655" lon="10.087154904226757"><ele>153.5</ele><time>2026-03-24T14:34:03.999Z</time></trkpt><trkpt lat="45.56826079901308" lon="10.0873309447798"><ele>153.33333333333334</ele><time>2026-03-24T14:34:05.999Z</time></trkpt><trkpt lat="45.56827128754399" lon="10.087421050702472"><ele>153.16666666666666</ele><time>2026-03-24T14:34:06.999Z</time></trkpt><trkpt lat="45.56828189543421" lon="10.087510630140386"><ele>153.0</ele><time>2026-03-24T14:34:07.999Z</time></trkpt><trkpt lat="45.56829253663391" lon="10.087600648539512"><ele>152.5</ele><time>2026-03-24T14:34:08.999Z</time></trkpt><trkpt lat="45.56830214150888" lon="10.087690458425854"><ele>152.0</ele><time>2026-03-24T14:34:09.999Z</time></trkpt><trkpt lat="45.56831160307544" lon="10.087779431028158"><ele>151.5</ele><time>2026-03-24T14:34:10.999Z</time></trkpt><trkpt lat="45.56833037023912" lon="10.087960853797034"><ele>151.0</ele><time>2026-03-24T14:34:12.999Z</time></trkpt><trkpt lat="45.56833584808233" lon="10.088052025473447"><ele>150.5</ele><time>2026-03-24T14:34:13.999Z</time></trkpt><trkpt lat="45.568340293207406" lon="10.088142401194862"><ele>150.0</ele><time>2026-03-24T14:34:14.999Z</time></trkpt><trkpt lat="45.56835539743637" lon="10.08832214707275"><ele>149.5</ele><time>2026-03-24T14:34:16.999Z</time></trkpt><trkpt lat="45.568365894249595" lon="10.088413221911425"><ele>149.0</ele><time>2026-03-24T14:34:17.999Z</time></trkpt><trkpt lat="45.568380242444455" lon="10.088589687079388"><ele>148.5</ele><time>2026-03-24T14:34:19.999Z</time></trkpt><trkpt lat="45.56838706445532" lon="10.088681155269807"><ele>148.0</ele><time>2026-03-24T14:34:20.999Z</time></trkpt><trkpt lat="45.568395993581476" lon="10.0887712787449"><ele>147.5</ele><time>2026-03-24T14:34:21.999Z</time></trkpt><trkpt lat="45.5684108259487" lon="10.088946377511672"><ele>147.0</ele><time>2026-03-24T14:34:23.999Z</time></trkpt><trkpt lat="45.56842398987702" lon="10.089125040792188"><ele>147.0</ele><time>2026-03-24T14:34:25.999Z</time></trkpt><trkpt lat="45.56842715423208" lon="10.089303594087129"><ele>147.0</ele><time>2026-03-24T14:34:27.999Z</time></trkpt><trkpt lat="45.56842851843718" lon="10.089393638080567"><ele>147.0</ele><time>2026-03-24T14:34:28.999Z</time></trkpt><trkpt lat="45.56842784629247" lon="10.08948646957974"><ele>147.0</ele><time>2026-03-24T14:34:29.999Z</time></trkpt><trkpt lat="45.568424056627606" lon="10.089576283088032"><ele>147.0</ele><time>2026-03-24T14:34:30.999Z</time></trkpt><trkpt lat="45.56842093203124" lon="10.089756374544777"><ele>147.0</ele><time>2026-03-24T14:34:32.999Z</time></trkpt><trkpt lat="45.56841993406359" lon="10.089848570176784"><ele>147.16666666666666</ele><time>2026-03-24T14:34:33.999Z</time></trkpt><trkpt lat="45.56841702417363" lon="10.089939300238804"><ele>147.33333333333334</ele><time>2026-03-24T14:34:34.999Z</time></trkpt><trkpt lat="45.56841439181787" lon="10.090118366664878"><ele>147.5</ele><time>2026-03-24T14:34:36.999Z</time></trkpt><trkpt lat="45.56841569064451" lon="10.090297122786163"><ele>147.66666666666669</ele><time>2026-03-24T14:34:38.999Z</time></trkpt><trkpt lat="45.56841425005264" lon="10.090387401410686"><ele>147.83333333333334</ele><time>2026-03-24T14:34:39.999Z</time></trkpt><trkpt lat="45.56841043103256" lon="10.090478110649638"><ele>148.0</ele><time>2026-03-24T14:34:40.999Z</time></trkpt><trkpt lat="45.56840483216607" lon="10.090568401440603"><ele>148.0</ele><time>2026-03-24T14:34:41.999Z</time></trkpt><trkpt lat="45.56837858368058" lon="10.090743393981631"><ele>148.0</ele><time>2026-03-24T14:34:43.999Z</time></trkpt><trkpt lat="45.568359469470664" lon="10.090831681232078"><ele>148.0</ele><time>2026-03-24T14:34:44.999Z</time></trkpt><trkpt lat="45.56833942735897" lon="10.090917544176724"><ele>148.0</ele><time>2026-03-24T14:34:45.999Z</time></trkpt><trkpt lat="45.5683192996653" lon="10.091004644129068"><ele>148.0</ele><time>2026-03-24T14:34:46.999Z</time></trkpt><trkpt lat="45.56829911088583" lon="10.091092934088481"><ele>148.0</ele><time>2026-03-24T14:34:47.999Z</time></trkpt><trkpt lat="45.56827684936532" lon="10.091178956438279"><ele>148.0</ele><time>2026-03-24T14:34:48.999Z</time></trkpt><trkpt lat="45.56823696682163" lon="10.091351773441849"><ele>147.71428571428572</ele><time>2026-03-24T14:34:50.999Z</time></trkpt><trkpt lat="45.56821624192747" lon="10.091437904800332"><ele>147.42857142857142</ele><time>2026-03-24T14:34:51.999Z</time></trkpt><trkpt lat="45.56819456320172" lon="10.09152302412297"><ele>147.14285714285714</ele><time>2026-03-24T14:34:52.999Z</time></trkpt><trkpt lat="45.56817101523567" lon="10.091607127519312"><ele>146.85714285714286</ele><time>2026-03-24T14:34:53.999Z</time></trkpt><trkpt lat="45.56814483914495" lon="10.091692551527657"><ele>146.57142857142858</ele><time>2026-03-24T14:34:54.999Z</time></trkpt><trkpt lat="45.568102234893" lon="10.091861905139199"><ele>146.28571428571428</ele><time>2026-03-24T14:34:56.998Z</time></trkpt><trkpt lat="45.56808393030714" lon="10.091948448713062"><ele>146.0</ele><time>2026-03-24T14:34:57.998Z</time></trkpt><trkpt lat="45.56806440056835" lon="10.092034289805918"><ele>145.42857142857142</ele><time>2026-03-24T14:34:58.998Z</time></trkpt><trkpt lat="45.56804394365348" lon="10.092120955012616"><ele>144.85714285714286</ele><time>2026-03-24T14:34:59.998Z</time></trkpt><trkpt lat="45.56801898647911" lon="10.092204651001374"><ele>144.28571428571428</ele><time>2026-03-24T14:35:00.998Z</time></trkpt><trkpt lat="45.56799602150943" lon="10.092288660231997"><ele>143.71428571428572</ele><time>2026-03-24T14:35:01.998Z</time></trkpt><trkpt lat="45.56795383207952" lon="10.092459139218084"><ele>143.14285714285714</ele><time>2026-03-24T14:35:03.998Z</time></trkpt><trkpt lat="45.56793297785444" lon="10.092544673890382"><ele>142.57142857142856</ele><time>2026-03-24T14:35:04.998Z</time></trkpt><trkpt lat="45.56791178913485" lon="10.092631586577404"><ele>142.0</ele><time>2026-03-24T14:35:05.998Z</time></trkpt><trkpt lat="45.56786815820412" lon="10.092799353207646"><ele>141.625</ele><time>2026-03-24T14:35:07.998Z</time></trkpt><trkpt lat="45.56784617723858" lon="10.092885705299802"><ele>141.25</ele><time>2026-03-24T14:35:08.998Z</time></trkpt><trkpt lat="45.56782667780896" lon="10.092973127152163"><ele>140.875</ele><time>2026-03-24T14:35:09.998Z</time></trkpt><trkpt lat="45.567805172392355" lon="10.09305884416981"><ele>140.5</ele><time>2026-03-24T14:35:10.998Z</time></trkpt><trkpt lat="45.5677836410033" lon="10.093143567522114"><ele>140.125</ele><time>2026-03-24T14:35:11.998Z</time></trkpt><trkpt lat="45.56776161649884" lon="10.093229536692204"><ele>139.75</ele><time>2026-03-24T14:35:12.998Z</time></trkpt><trkpt lat="45.56774098837546" lon="10.093314713653985"><ele>139.375</ele><time>2026-03-24T14:35:13.998Z</time></trkpt><trkpt lat="45.5677200869266" lon="10.09340001145781"><ele>139.0</ele><time>2026-03-24T14:35:14.998Z</time></trkpt><trkpt lat="45.567675409895365" lon="10.09357012364687"><ele>139.0</ele><time>2026-03-24T14:35:16.998Z</time></trkpt><trkpt lat="45.56765430619186" lon="10.09365593866626"><ele>139.0</ele><time>2026-03-24T14:35:17.998Z</time></trkpt><trkpt lat="45.56763253176193" lon="10.093742571377843"><ele>139.0</ele><time>2026-03-24T14:35:18.998Z</time></trkpt><trkpt lat="45.56759323480357" lon="10.093914252457138"><ele>139.0</ele><time>2026-03-24T14:35:20.998Z</time></trkpt><trkpt lat="45.56757059250591" lon="10.093999210306507"><ele>139.0</ele><time>2026-03-24T14:35:21.998Z</time></trkpt><trkpt lat="45.56752271895119" lon="10.094164014485512"><ele>139.0</ele><time>2026-03-24T14:35:23.998Z</time></trkpt><trkpt lat="45.56747313660828" lon="10.094324898871431"><ele>139.66666666666669</ele><time>2026-03-24T14:35:25.998Z</time></trkpt><trkpt lat="45.56741941680909" lon="10.094477119035277"><ele>140.33333333333334</ele><time>2026-03-24T14:35:27.998Z</time></trkpt><trkpt lat="45.56739156435101" lon="10.09458010764923"><ele>141.0</ele><time>2026-03-24T14:35:29.998Z</time></trkpt><trkpt lat="45.567401688836114" lon="10.094674489336217"><ele>141.66666666666666</ele><time>2026-03-24T14:35:31.998Z</time></trkpt><trkpt lat="45.567488272062015" lon="10.094717529048824"><ele>142.33333333333331</ele><time>2026-03-24T14:35:33.998Z</time></trkpt><trkpt lat="45.56756942720989" lon="10.094761352802902"><ele>143.0</ele><time>2026-03-24T14:35:35.998Z</time></trkpt><trkpt lat="45.56765416176399" lon="10.094812353687935"><ele>143.0</ele><time>2026-03-24T14:35:37.998Z</time></trkpt><trkpt lat="45.56773640576528" lon="10.094873791122883"><ele>143.0</ele><time>2026-03-24T14:35:39.999Z</time></trkpt><trkpt lat="45.56782340747958" lon="10.09492910092913"><ele>143.0</ele><time>2026-03-24T14:35:41.999Z</time></trkpt><trkpt lat="45.56791054637936" lon="10.09498819260149"><ele>143.0</ele><time>2026-03-24T14:35:43.999Z</time></trkpt><trkpt lat="45.56799432701307" lon="10.095051797501545"><ele>143.0</ele><time>2026-03-24T14:35:46Z</time></trkpt><trkpt lat="45.56807427975092" lon="10.095127321682247"><ele>142.4</ele><time>2026-03-24T14:35:48Z</time></trkpt><trkpt lat="45.5681236420754" lon="10.095249481870997"><ele>141.8</ele><time>2026-03-24T14:35:50Z</time></trkpt><trkpt lat="45.568127122386684" lon="10.095387903468485"><ele>141.2</ele><time>2026-03-24T14:35:52Z</time></trkpt><trkpt lat="45.568102404628426" lon="10.09552589356804"><ele>140.6</ele><time>2026-03-24T14:35:54Z</time></trkpt><trkpt lat="45.568073609531794" lon="10.09566254972181"><ele>140.0</ele><time>2026-03-24T14:35:55.999Z</time></trkpt><trkpt lat="45.56804578677017" lon="10.09580848043132"><ele>142.5</ele><time>2026-03-24T14:35:57.999Z</time></trkpt><trkpt lat="45.568017313712424" lon="10.095961934830134"><ele>145.0</ele><time>2026-03-24T14:35:59.999Z</time></trkpt><trkpt lat="45.567986245974964" lon="10.09612015411713"><ele>147.5</ele><time>2026-03-24T14:36:01.999Z</time></trkpt><trkpt lat="45.56795631258862" lon="10.096281397657899"><ele>150.0</ele><time>2026-03-24T14:36:03.999Z</time></trkpt><trkpt lat="45.56792550660218" lon="10.096445959045166"><ele>150.0</ele><time>2026-03-24T14:36:05.999Z</time></trkpt><trkpt lat="45.56789827677039" lon="10.096615120891185"><ele>150.0</ele><time>2026-03-24T14:36:07.999Z</time></trkpt><trkpt lat="45.56787334908463" lon="10.096791038733391"><ele>150.0</ele><time>2026-03-24T14:36:09.999Z</time></trkpt><trkpt lat="45.5678454535381" lon="10.096965993412802"><ele>150.0</ele><time>2026-03-24T14:36:11.999Z</time></trkpt><trkpt lat="45.5678115208199" lon="10.097136370903945"><ele>149.99999999999997</ele><time>2026-03-24T14:36:13.999Z</time></trkpt><trkpt lat="45.56778023491059" lon="10.097310747996195"><ele>150.0</ele><time>2026-03-24T14:36:15.999Z</time></trkpt><trkpt lat="45.56775776271879" lon="10.097395821989746"><ele>150.0</ele><time>2026-03-24T14:36:16.999Z</time></trkpt><trkpt lat="45.56773252791949" lon="10.097479100735045"><ele>150.0</ele><time>2026-03-24T14:36:17.999Z</time></trkpt><trkpt lat="45.56770908222006" lon="10.097564282670206"><ele>150.0</ele><time>2026-03-24T14:36:18.999Z</time></trkpt><trkpt lat="45.567687678008326" lon="10.097649490494769"><ele>149.99999999999997</ele><time>2026-03-24T14:36:19.999Z</time></trkpt><trkpt lat="45.56766562860445" lon="10.097734027993717"><ele>150.0</ele><time>2026-03-24T14:36:20.999Z</time></trkpt><trkpt lat="45.567642902992795" lon="10.097820176959178"><ele>150.0</ele><time>2026-03-24T14:36:21.999Z</time></trkpt><trkpt lat="45.56761973610179" lon="10.097905764606208"><ele>150.0</ele><time>2026-03-24T14:36:22.999Z</time></trkpt><trkpt lat="45.56757272425306" lon="10.09807190354949"><ele>150.0</ele><time>2026-03-24T14:36:24.999Z</time></trkpt><trkpt lat="45.567521270255156" lon="10.098234957471911"><ele>150.0</ele><time>2026-03-24T14:36:26.999Z</time></trkpt><trkpt lat="45.567466473194905" lon="10.098387971335963"><ele>150.0</ele><time>2026-03-24T14:36:28.999Z</time></trkpt><trkpt lat="45.56740465696017" lon="10.098540358729007"><ele>150.0</ele><time>2026-03-24T14:36:30.999Z</time></trkpt><trkpt lat="45.56734509872475" lon="10.098694072349335"><ele>150.0</ele><time>2026-03-24T14:36:32.999Z</time></trkpt><trkpt lat="45.5672762387148" lon="10.098841611371958"><ele>150.0</ele><time>2026-03-24T14:36:34.999Z</time></trkpt><trkpt lat="45.5671986523976" lon="10.098980981781246"><ele>150.0</ele><time>2026-03-24T14:36:36.999Z</time></trkpt><trkpt lat="45.56715970398492" lon="10.099055927381386"><ele>150.0</ele><time>2026-03-24T14:36:37.999Z</time></trkpt><trkpt lat="45.567121297673644" lon="10.099127379878977"><ele>149.8</ele><time>2026-03-24T14:36:38.999Z</time></trkpt><trkpt lat="45.56704860908744" lon="10.099269312149982"><ele>149.6</ele><time>2026-03-24T14:36:40.999Z</time></trkpt><trkpt lat="45.56698890493632" lon="10.099417622529783"><ele>149.4</ele><time>2026-03-24T14:36:42.999Z</time></trkpt><trkpt lat="45.56695922067593" lon="10.099503450077467"><ele>149.2</ele><time>2026-03-24T14:36:43.999Z</time></trkpt><trkpt lat="45.566931888852324" lon="10.09958445613072"><ele>149.0</ele><time>2026-03-24T14:36:44.999Z</time></trkpt><trkpt lat="45.566874390749405" lon="10.09974024708694"><ele>148.4</ele><time>2026-03-24T14:36:46.999Z</time></trkpt><trkpt lat="45.566812218624705" lon="10.099895606756668"><ele>147.8</ele><time>2026-03-24T14:36:48.999Z</time></trkpt><trkpt lat="45.566780887425594" lon="10.09997403599054"><ele>147.2</ele><time>2026-03-24T14:36:49.999Z</time></trkpt><trkpt lat="45.566714175090134" lon="10.100124876646547"><ele>146.6</ele><time>2026-03-24T14:36:51.999Z</time></trkpt><trkpt lat="45.566647644002586" lon="10.10026443441678"><ele>146.0</ele><time>2026-03-24T14:36:53.999Z</time></trkpt><trkpt lat="45.56657821429802" lon="10.100407060532126"><ele>145.8</ele><time>2026-03-24T14:36:55.999Z</time></trkpt><trkpt lat="45.566513080567184" lon="10.100550539006521"><ele>145.6</ele><time>2026-03-24T14:36:57.999Z</time></trkpt><trkpt lat="45.566450359128595" lon="10.100694948552892"><ele>145.4</ele><time>2026-03-24T14:36:59.999Z</time></trkpt><trkpt lat="45.56642142116291" lon="10.10077622475692"><ele>145.2</ele><time>2026-03-24T14:37:00.999Z</time></trkpt><trkpt lat="45.56637393176723" lon="10.100940590361398"><ele>145.0</ele><time>2026-03-24T14:37:02.998Z</time></trkpt><trkpt lat="45.56635454218732" lon="10.101027154106207"><ele>145.4</ele><time>2026-03-24T14:37:03.998Z</time></trkpt><trkpt lat="45.56632267649555" lon="10.101201559510603"><ele>145.8</ele><time>2026-03-24T14:37:05.998Z</time></trkpt><trkpt lat="45.56629398470357" lon="10.101376049751739"><ele>146.2</ele><time>2026-03-24T14:37:07.998Z</time></trkpt><trkpt lat="45.56627905891316" lon="10.101467787415517"><ele>146.6</ele><time>2026-03-24T14:37:08.998Z</time></trkpt><trkpt lat="45.566247880897514" lon="10.101640036376766"><ele>147.0</ele><time>2026-03-24T14:37:10.998Z</time></trkpt><trkpt lat="45.56623281725093" lon="10.101727900329886"><ele>147.0</ele><time>2026-03-24T14:37:11.998Z</time></trkpt><trkpt lat="45.56621783161044" lon="10.101816678734087"><ele>147.0</ele><time>2026-03-24T14:37:12.998Z</time></trkpt><trkpt lat="45.56620063656532" lon="10.101903589097736"><ele>147.0</ele><time>2026-03-24T14:37:13.998Z</time></trkpt><trkpt lat="45.56618545939374" lon="10.101991065873326"><ele>147.0</ele><time>2026-03-24T14:37:14.998Z</time></trkpt><trkpt lat="45.56615750659049" lon="10.1021682775454"><ele>147.0</ele><time>2026-03-24T14:37:16.998Z</time></trkpt><trkpt lat="45.56614266748762" lon="10.102256127856934"><ele>147.0</ele><time>2026-03-24T14:37:17.998Z</time></trkpt><trkpt lat="45.56612776684091" lon="10.102344166327706"><ele>147.0</ele><time>2026-03-24T14:37:18.998Z</time></trkpt><trkpt lat="45.56611456425089" lon="10.102435018403538"><ele>147.0</ele><time>2026-03-24T14:37:19.998Z</time></trkpt><trkpt lat="45.56609243046583" lon="10.102613398476471"><ele>147.0</ele><time>2026-03-24T14:37:21.998Z</time></trkpt><trkpt lat="45.5660755061101" lon="10.102791889411847"><ele>147.0</ele><time>2026-03-24T14:37:23.998Z</time></trkpt><trkpt lat="45.566069510298284" lon="10.102969237767658"><ele>147.0</ele><time>2026-03-24T14:37:25.998Z</time></trkpt><trkpt lat="45.56606960908458" lon="10.103060211391817"><ele>147.0</ele><time>2026-03-24T14:37:26.998Z</time></trkpt><trkpt lat="45.56607147855692" lon="10.103152140913853"><ele>147.2</ele><time>2026-03-24T14:37:27.998Z</time></trkpt><trkpt lat="45.56608026248935" lon="10.103329619622627"><ele>147.39999999999998</ele><time>2026-03-24T14:37:29.998Z</time></trkpt><trkpt lat="45.56608573458051" lon="10.10342066948891"><ele>147.60000000000002</ele><time>2026-03-24T14:37:30.998Z</time></trkpt><trkpt lat="45.566095018871515" lon="10.10359638853406"><ele>147.8</ele><time>2026-03-24T14:37:32.998Z</time></trkpt><trkpt lat="45.56609966438303" lon="10.10369020410223"><ele>148.0</ele><time>2026-03-24T14:37:33.998Z</time></trkpt><trkpt lat="45.56611104925498" lon="10.10386394058117"><ele>148.0</ele><time>2026-03-24T14:37:35.998Z</time></trkpt><trkpt lat="45.56611650806901" lon="10.103953954712571"><ele>148.0</ele><time>2026-03-24T14:37:36.998Z</time></trkpt><trkpt lat="45.56611881068192" lon="10.104045626877797"><ele>148.0</ele><time>2026-03-24T14:37:37.998Z</time></trkpt><trkpt lat="45.5661265137705" lon="10.10422035625068"><ele>148.0</ele><time>2026-03-24T14:37:39.998Z</time></trkpt><trkpt lat="45.56612922628935" lon="10.104311790446086"><ele>148.0</ele><time>2026-03-24T14:37:40.998Z</time></trkpt><trkpt lat="45.56612676061371" lon="10.104403592535736"><ele>148.0</ele><time>2026-03-24T14:37:41.998Z</time></trkpt><trkpt lat="45.566112242879946" lon="10.104581384383573"><ele>147.8</ele><time>2026-03-24T14:37:43.999Z</time></trkpt><trkpt lat="45.56609359023525" lon="10.104759820038892"><ele>147.60000000000002</ele><time>2026-03-24T14:37:45.999Z</time></trkpt><trkpt lat="45.566074218505165" lon="10.104931640241333"><ele>147.39999999999998</ele><time>2026-03-24T14:37:47.999Z</time></trkpt><trkpt lat="45.56606579363366" lon="10.105021717457866"><ele>147.2</ele><time>2026-03-24T14:37:48.999Z</time></trkpt><trkpt lat="45.56605104765499" lon="10.105199553712515"><ele>147.0</ele><time>2026-03-24T14:37:50.999Z</time></trkpt><trkpt lat="45.56603839375231" lon="10.105368088237865"><ele>147.0</ele><time>2026-03-24T14:37:52.999Z</time></trkpt><trkpt lat="45.56602502692143" lon="10.105540344807531"><ele>147.0</ele><time>2026-03-24T14:37:54.999Z</time></trkpt><trkpt lat="45.56601175112387" lon="10.105631559489746"><ele>147.0</ele><time>2026-03-24T14:37:55.999Z</time></trkpt><trkpt lat="45.565986032624735" lon="10.10580267757914"><ele>147.0</ele><time>2026-03-24T14:37:57.999Z</time></trkpt><trkpt lat="45.56597302014867" lon="10.105891263572168"><ele>147.0</ele><time>2026-03-24T14:37:58.999Z</time></trkpt><trkpt lat="45.565937313922454" lon="10.106066209472324"><ele>146.79999999999998</ele><time>2026-03-24T14:38:00.999Z</time></trkpt><trkpt lat="45.56589638040884" lon="10.106235827695288"><ele>146.6</ele><time>2026-03-24T14:38:02.999Z</time></trkpt><trkpt lat="45.56587812159096" lon="10.10632508641112"><ele>146.39999999999998</ele><time>2026-03-24T14:38:03.999Z</time></trkpt><trkpt lat="45.56586253514892" lon="10.106502427849996"><ele>146.2</ele><time>2026-03-24T14:38:05.999Z</time></trkpt><trkpt lat="45.56585783959007" lon="10.106684285187578"><ele>146.0</ele><time>2026-03-24T14:38:07.999Z</time></trkpt><trkpt lat="45.565852050012616" lon="10.10686193781442"><ele>146.0</ele><time>2026-03-24T14:38:09.999Z</time></trkpt><trkpt lat="45.56584702147992" lon="10.10704106300401"><ele>146.0</ele><time>2026-03-24T14:38:11.999Z</time></trkpt><trkpt lat="45.56584095675107" lon="10.107131276145488"><ele>146.0</ele><time>2026-03-24T14:38:12.999Z</time></trkpt><trkpt lat="45.56583567042737" lon="10.107222751044356"><ele>146.0</ele><time>2026-03-24T14:38:13.999Z</time></trkpt><trkpt lat="45.565829214007586" lon="10.107315149468397"><ele>146.0</ele><time>2026-03-24T14:38:14.999Z</time></trkpt><trkpt lat="45.565820961284636" lon="10.10740757809908"><ele>146.0</ele><time>2026-03-24T14:38:15.999Z</time></trkpt><trkpt lat="45.56580246151233" lon="10.107580389073279"><ele>145.66666666666666</ele><time>2026-03-24T14:38:17.999Z</time></trkpt><trkpt lat="45.56579487310758" lon="10.10767418674838"><ele>145.33333333333331</ele><time>2026-03-24T14:38:18.999Z</time></trkpt><trkpt lat="45.56578547353368" lon="10.107849997764077"><ele>145.0</ele><time>2026-03-24T14:38:20.999Z</time></trkpt><trkpt lat="45.565787915190874" lon="10.107941827697218"><ele>144.66666666666666</ele><time>2026-03-24T14:38:21.999Z</time></trkpt><trkpt lat="45.5657915437517" lon="10.108032181871375"><ele>144.33333333333334</ele><time>2026-03-24T14:38:22.999Z</time></trkpt><trkpt lat="45.56580474258795" lon="10.108208872916741"><ele>144.0</ele><time>2026-03-24T14:38:24.999Z</time></trkpt><trkpt lat="45.565812435998595" lon="10.108299835053918"><ele>144.0</ele><time>2026-03-24T14:38:25.999Z</time></trkpt><trkpt lat="45.565823469600474" lon="10.108477592256401"><ele>144.0</ele><time>2026-03-24T14:38:27.999Z</time></trkpt><trkpt lat="45.565829769821214" lon="10.108570101858344"><ele>144.0</ele><time>2026-03-24T14:38:28.999Z</time></trkpt><trkpt lat="45.565837833072" lon="10.108661996774794"><ele>144.0</ele><time>2026-03-24T14:38:29.999Z</time></trkpt><trkpt lat="45.56585195752481" lon="10.108834286285745"><ele>144.0</ele><time>2026-03-24T14:38:31.999Z</time></trkpt><trkpt lat="45.56586670710491" lon="10.109013445294524"><ele>144.25</ele><time>2026-03-24T14:38:33.999Z</time></trkpt><trkpt lat="45.56588133231184" lon="10.109189078737032"><ele>144.5</ele><time>2026-03-24T14:38:35.999Z</time></trkpt><trkpt lat="45.56589544998906" lon="10.109373291852629"><ele>144.75</ele><time>2026-03-24T14:38:37.999Z</time></trkpt><trkpt lat="45.5659114695936" lon="10.109550176907398"><ele>145.0</ele><time>2026-03-24T14:38:39.999Z</time></trkpt><trkpt lat="45.565921311737135" lon="10.109721992722307"><ele>145.0</ele><time>2026-03-24T14:38:41.999Z</time></trkpt><trkpt lat="45.56592882768217" lon="10.109898428197319"><ele>145.0</ele><time>2026-03-24T14:38:43.999Z</time></trkpt><trkpt lat="45.56594255525351" lon="10.110077485145467"><ele>145.0</ele><time>2026-03-24T14:38:45.999Z</time></trkpt><trkpt lat="45.56594480379759" lon="10.11025599643312"><ele>145.0</ele><time>2026-03-24T14:38:47.999Z</time></trkpt><trkpt lat="45.56594783710758" lon="10.11043365805327"><ele>144.8</ele><time>2026-03-24T14:38:49.999Z</time></trkpt><trkpt lat="45.565958799464966" lon="10.110610031366193"><ele>144.6</ele><time>2026-03-24T14:38:51.999Z</time></trkpt><trkpt lat="45.565967361113614" lon="10.110787910915038"><ele>144.4</ele><time>2026-03-24T14:38:53.999Z</time></trkpt><trkpt lat="45.56597149242015" lon="10.11096054145709"><ele>144.2</ele><time>2026-03-24T14:38:55.999Z</time></trkpt><trkpt lat="45.565978485143965" lon="10.111054417206295"><ele>144.0</ele><time>2026-03-24T14:38:56.999Z</time></trkpt><trkpt lat="45.565990913882" lon="10.111234093040938"><ele>144.0</ele><time>2026-03-24T14:38:58.999Z</time></trkpt><trkpt lat="45.56601331400643" lon="10.111406427189856"><ele>144.0</ele><time>2026-03-24T14:39:00.999Z</time></trkpt><trkpt lat="45.56603762684235" lon="10.111574673353795"><ele>144.0</ele><time>2026-03-24T14:39:02.999Z</time></trkpt><trkpt lat="45.56606646710171" lon="10.111742919960289"><ele>144.0</ele><time>2026-03-24T14:39:04.998Z</time></trkpt><trkpt lat="45.5660923183449" lon="10.111913161295481"><ele>144.2</ele><time>2026-03-24T14:39:06.998Z</time></trkpt><trkpt lat="45.56612299561186" lon="10.11207886409133"><ele>144.4</ele><time>2026-03-24T14:39:08.998Z</time></trkpt><trkpt lat="45.56614117705024" lon="10.112258233248998"><ele>144.6</ele><time>2026-03-24T14:39:10.998Z</time></trkpt><trkpt lat="45.56612761244677" lon="10.11234699474827"><ele>144.8</ele><time>2026-03-24T14:39:11.998Z</time></trkpt><trkpt lat="45.566084980898935" lon="10.112510500494716"><ele>145.0</ele><time>2026-03-24T14:39:13.998Z</time></trkpt><trkpt lat="45.56603651020057" lon="10.112680437596163"><ele>145.2</ele><time>2026-03-24T14:39:15.998Z</time></trkpt><trkpt lat="45.56599306460709" lon="10.11284977843724"><ele>145.4</ele><time>2026-03-24T14:39:17.998Z</time></trkpt><trkpt lat="45.56597226649617" lon="10.113028443262492"><ele>145.6</ele><time>2026-03-24T14:39:19.998Z</time></trkpt><trkpt lat="45.56595340152731" lon="10.113207250639045"><ele>145.8</ele><time>2026-03-24T14:39:21.998Z</time></trkpt><trkpt lat="45.56593699241675" lon="10.113298971670208"><ele>146.0</ele><time>2026-03-24T14:39:22.998Z</time></trkpt><trkpt lat="45.56592333872836" lon="10.113389413609434"><ele>146.0</ele><time>2026-03-24T14:39:23.998Z</time></trkpt><trkpt lat="45.56589161912738" lon="10.113565193361529"><ele>146.0</ele><time>2026-03-24T14:39:25.998Z</time></trkpt><trkpt lat="45.565857652581215" lon="10.113735336186531"><ele>146.0</ele><time>2026-03-24T14:39:27.998Z</time></trkpt><trkpt lat="45.565826733415896" lon="10.113820191958466"><ele>146.0</ele><time>2026-03-24T14:39:28.998Z</time></trkpt><trkpt lat="45.56577779896206" lon="10.113881639633464"><ele>146.0</ele><time>2026-03-24T14:39:29.998Z</time></trkpt><trkpt lat="45.56568415274019" lon="10.11399282747016"><ele>146.0</ele><time>2026-03-24T14:39:31.998Z</time></trkpt><trkpt lat="45.565639630581046" lon="10.114058295355935"><ele>146.0</ele><time>2026-03-24T14:39:32.998Z</time></trkpt><trkpt lat="45.56559744919169" lon="10.114130875689888"><ele>146.0</ele><time>2026-03-24T14:39:33.998Z</time></trkpt><trkpt lat="45.56552010145191" lon="10.114270573606222"><ele>146.0</ele><time>2026-03-24T14:39:35.998Z</time></trkpt><trkpt lat="45.56547843443408" lon="10.114342560516933"><ele>146.0</ele><time>2026-03-24T14:39:36.998Z</time></trkpt><trkpt lat="45.56541311329416" lon="10.114469419126644"><ele>146.0</ele><time>2026-03-24T14:39:38.998Z</time></trkpt><trkpt lat="45.5653772655285" lon="10.11455344438634"><ele>146.0</ele><time>2026-03-24T14:39:39.998Z</time></trkpt><trkpt lat="45.56530663867623" lon="10.11469732027584"><ele>146.0</ele><time>2026-03-24T14:39:41.998Z</time></trkpt><trkpt lat="45.56526731755982" lon="10.11476907185109"><ele>146.0</ele><time>2026-03-24T14:39:42.998Z</time></trkpt><trkpt lat="45.56521926926971" lon="10.114913278760413"><ele>146.0</ele><time>2026-03-24T14:39:44.998Z</time></trkpt><trkpt lat="45.56518888086578" lon="10.115000766877381"><ele>146.0</ele><time>2026-03-24T14:39:45.998Z</time></trkpt><trkpt lat="45.56513414908247" lon="10.115156205572333"><ele>145.8</ele><time>2026-03-24T14:39:47.998Z</time></trkpt><trkpt lat="45.565072347306895" lon="10.115332342348491"><ele>145.6</ele><time>2026-03-24T14:39:49.999Z</time></trkpt><trkpt lat="45.5650226901006" lon="10.115463980205906"><ele>145.4</ele><time>2026-03-24T14:39:51.999Z</time></trkpt><trkpt lat="45.56497169348114" lon="10.115584419897699"><ele>145.2</ele><time>2026-03-24T14:39:53.999Z</time></trkpt><trkpt lat="45.564924309050014" lon="10.115685018220741"><ele>145.0</ele><time>2026-03-24T14:39:56.999Z</time></trkpt><trkpt lat="45.56487627624848" lon="10.115757269663069"><ele>145.0</ele><time>2026-03-24T14:40:42.999Z</time></trkpt><trkpt lat="45.56480363860731" lon="10.11584525394684"><ele>145.0</ele><time>2026-03-24T14:40:45.999Z</time></trkpt><trkpt lat="45.564742777952375" lon="10.115946477955536"><ele>145.0</ele><time>2026-03-24T14:40:48.999Z</time></trkpt><trkpt lat="45.56470427414695" lon="10.116046051103094"><ele>145.0</ele><time>2026-03-24T14:40:50.999Z</time></trkpt><trkpt lat="45.56465014357686" lon="10.116154266662466"><ele>145.0</ele><time>2026-03-24T14:40:52.999Z</time></trkpt><trkpt lat="45.56459393811653" lon="10.11626568944728"><ele>145.0</ele><time>2026-03-24T14:40:54.999Z</time></trkpt><trkpt lat="45.56453321231076" lon="10.116388760322673"><ele>145.0</ele><time>2026-03-24T14:40:56.999Z</time></trkpt><trkpt lat="45.564471033618034" lon="10.116512576230903"><ele>145.0</ele><time>2026-03-24T14:40:58.999Z</time></trkpt><trkpt lat="45.56440373491599" lon="10.116642622244068"><ele>145.0</ele><time>2026-03-24T14:41:00.999Z</time></trkpt><trkpt lat="45.56433890389937" lon="10.116783453851802"><ele>145.0</ele><time>2026-03-24T14:41:02.999Z</time></trkpt><trkpt lat="45.56427048513632" lon="10.116926512608497"><ele>144.6</ele><time>2026-03-24T14:41:04.999Z</time></trkpt><trkpt lat="45.564199217374394" lon="10.117069711013787"><ele>144.2</ele><time>2026-03-24T14:41:06.999Z</time></trkpt><trkpt lat="45.56412603981574" lon="10.11721371327861"><ele>143.8</ele><time>2026-03-24T14:41:08.999Z</time></trkpt><trkpt lat="45.564087186631504" lon="10.11728960349767"><ele>143.4</ele><time>2026-03-24T14:41:09.999Z</time></trkpt><trkpt lat="45.56399294143564" lon="10.11739653308604"><ele>143.0</ele><time>2026-03-24T14:41:11.999Z</time></trkpt><trkpt lat="45.56389824608114" lon="10.11749389076455"><ele>143.0</ele><time>2026-03-24T14:41:13.998Z</time></trkpt><trkpt lat="45.563854410681444" lon="10.117560666881538"><ele>143.0</ele><time>2026-03-24T14:41:14.998Z</time></trkpt><trkpt lat="45.56379006933637" lon="10.117645140948362"><ele>143.0</ele><time>2026-03-24T14:41:16.998Z</time></trkpt><trkpt lat="45.56375184153179" lon="10.117745490508288"><ele>143.0</ele><time>2026-03-24T14:41:18.998Z</time></trkpt><trkpt lat="45.563742085059005" lon="10.117879027252922"><ele>143.0</ele><time>2026-03-24T14:41:20.998Z</time></trkpt><trkpt lat="45.5636973273225" lon="10.11799666158136"><ele>143.0</ele><time>2026-03-24T14:41:22.998Z</time></trkpt><trkpt lat="45.56364961691877" lon="10.11812460175248"><ele>142.8</ele><time>2026-03-24T14:41:24.998Z</time></trkpt><trkpt lat="45.563606731418375" lon="10.118266705230651"><ele>142.60000000000002</ele><time>2026-03-24T14:41:26.998Z</time></trkpt><trkpt lat="45.5635547455526" lon="10.118415806999563"><ele>142.39999999999998</ele><time>2026-03-24T14:41:28.998Z</time></trkpt><trkpt lat="45.56351419964421" lon="10.118575679968716"><ele>142.2</ele><time>2026-03-24T14:41:30.998Z</time></trkpt><trkpt lat="45.563494302802184" lon="10.118661906665547"><ele>142.0</ele><time>2026-03-24T14:41:31.998Z</time></trkpt><trkpt lat="45.56344843940411" lon="10.118826748449965"><ele>142.0</ele><time>2026-03-24T14:41:33.998Z</time></trkpt><trkpt lat="45.56340396896498" lon="10.118989775053574"><ele>142.0</ele><time>2026-03-24T14:41:35.998Z</time></trkpt><trkpt lat="45.56336136949772" lon="10.119154701131286"><ele>142.0</ele><time>2026-03-24T14:41:37.998Z</time></trkpt><trkpt lat="45.563331510041145" lon="10.119236564351018"><ele>142.0</ele><time>2026-03-24T14:41:38.998Z</time></trkpt><trkpt lat="45.56326735469765" lon="10.119387577361096"><ele>142.0</ele><time>2026-03-24T14:41:40.998Z</time></trkpt><trkpt lat="45.56323324030535" lon="10.119463746815859"><ele>141.66666666666669</ele><time>2026-03-24T14:41:41.998Z</time></trkpt><trkpt lat="45.56320020953648" lon="10.119542910230066"><ele>141.33333333333334</ele><time>2026-03-24T14:41:42.998Z</time></trkpt><trkpt lat="45.5631393885128" lon="10.11969052199406"><ele>141.0</ele><time>2026-03-24T14:41:44.998Z</time></trkpt><trkpt lat="45.56308558157165" lon="10.119842078910967"><ele>140.66666666666666</ele><time>2026-03-24T14:41:46.998Z</time></trkpt><trkpt lat="45.5630563961814" lon="10.119922872153545"><ele>140.33333333333331</ele><time>2026-03-24T14:41:47.998Z</time></trkpt><trkpt lat="45.56302647554724" lon="10.120003248534037"><ele>140.0</ele><time>2026-03-24T14:41:48.998Z</time></trkpt><trkpt lat="45.56296652387912" lon="10.120155795373297"><ele>140.0</ele><time>2026-03-24T14:41:50.998Z</time></trkpt><trkpt lat="45.56290719243452" lon="10.120312251221577"><ele>140.0</ele><time>2026-03-24T14:41:52.998Z</time></trkpt><trkpt lat="45.56284822336745" lon="10.12047099904894"><ele>140.0</ele><time>2026-03-24T14:41:54.998Z</time></trkpt><trkpt lat="45.56281823268047" lon="10.120551259283559"><ele>140.0</ele><time>2026-03-24T14:41:56Z</time></trkpt><trkpt lat="45.56275738730241" lon="10.12070735822238"><ele>140.0</ele><time>2026-03-24T14:41:58Z</time></trkpt><trkpt lat="45.56269320366557" lon="10.12085616192379"><ele>139.75</ele><time>2026-03-24T14:42:00Z</time></trkpt><trkpt lat="45.56262991102122" lon="10.121006447201692"><ele>139.5</ele><time>2026-03-24T14:42:02Z</time></trkpt><trkpt lat="45.56256176510129" lon="10.121152611899099"><ele>139.25</ele><time>2026-03-24T14:42:04Z</time></trkpt><trkpt lat="45.562488896412134" lon="10.121292292074333"><ele>139.0</ele><time>2026-03-24T14:42:06Z</time></trkpt><trkpt lat="45.56241040141933" lon="10.121424347479673"><ele>139.0</ele><time>2026-03-24T14:42:08Z</time></trkpt><trkpt lat="45.56232888520195" lon="10.121539479742701"><ele>139.0</ele><time>2026-03-24T14:42:10Z</time></trkpt><trkpt lat="45.56224440156744" lon="10.12166224553568"><ele>139.0</ele><time>2026-03-24T14:42:12Z</time></trkpt><trkpt lat="45.5621620067084" lon="10.121779028483129"><ele>139.0</ele><time>2026-03-24T14:42:14Z</time></trkpt><trkpt lat="45.56208874820776" lon="10.121885811935256"><ele>138.75</ele><time>2026-03-24T14:42:16Z</time></trkpt><trkpt lat="45.56200995088736" lon="10.121990117653386"><ele>138.5</ele><time>2026-03-24T14:42:17.999Z</time></trkpt><trkpt lat="45.56192990526762" lon="10.122110748704166"><ele>138.25</ele><time>2026-03-24T14:42:19.999Z</time></trkpt><trkpt lat="45.56184688878416" lon="10.122230238981581"><ele>138.0</ele><time>2026-03-24T14:42:21.999Z</time></trkpt><trkpt lat="45.56176976718818" lon="10.122347823640355"><ele>137.8</ele><time>2026-03-24T14:42:23.999Z</time></trkpt><trkpt lat="45.561682053307976" lon="10.122476342102729"><ele>137.60000000000002</ele><time>2026-03-24T14:42:25.999Z</time></trkpt><trkpt lat="45.561637875998265" lon="10.122540927252906"><ele>137.39999999999998</ele><time>2026-03-24T14:42:26.999Z</time></trkpt><trkpt lat="45.561546663318495" lon="10.122659610263703"><ele>137.2</ele><time>2026-03-24T14:42:28.999Z</time></trkpt><trkpt lat="45.56145347535099" lon="10.122777950094195"><ele>137.0</ele><time>2026-03-24T14:42:30.999Z</time></trkpt><trkpt lat="45.56135340909593" lon="10.122872802608331"><ele>137.0</ele><time>2026-03-24T14:42:32.999Z</time></trkpt><trkpt lat="45.56125611672822" lon="10.12297536837888"><ele>137.0</ele><time>2026-03-24T14:42:34.999Z</time></trkpt><trkpt lat="45.56115965541549" lon="10.123075575702243"><ele>137.0</ele><time>2026-03-24T14:42:36.999Z</time></trkpt><trkpt lat="45.561069468045005" lon="10.123182764922174"><ele>137.0</ele><time>2026-03-24T14:42:38.999Z</time></trkpt><trkpt lat="45.56097822946523" lon="10.123286265808389"><ele>137.0</ele><time>2026-03-24T14:42:40.999Z</time></trkpt><trkpt lat="45.560888470321885" lon="10.123390056397689"><ele>137.0</ele><time>2026-03-24T14:42:42.999Z</time></trkpt><trkpt lat="45.560802842424096" lon="10.123500846276718"><ele>137.0</ele><time>2026-03-24T14:42:44.999Z</time></trkpt><trkpt lat="45.56071690290279" lon="10.12360322425963"><ele>137.0</ele><time>2026-03-24T14:42:46.999Z</time></trkpt><trkpt lat="45.560634309682406" lon="10.123709442346556"><ele>137.0</ele><time>2026-03-24T14:42:48.999Z</time></trkpt><trkpt lat="45.56055217133532" lon="10.123815207836312"><ele>137.0</ele><time>2026-03-24T14:42:50.999Z</time></trkpt><trkpt lat="45.560456313301664" lon="10.123905787390205"><ele>137.0</ele><time>2026-03-24T14:42:52.999Z</time></trkpt><trkpt lat="45.56036735242749" lon="10.124014525170686"><ele>137.0</ele><time>2026-03-24T14:42:54.999Z</time></trkpt><trkpt lat="45.560286391514445" lon="10.124126625804736"><ele>136.79999999999998</ele><time>2026-03-24T14:42:56.999Z</time></trkpt><trkpt lat="45.56020637688178" lon="10.124237330592674"><ele>136.6</ele><time>2026-03-24T14:42:58.999Z</time></trkpt><trkpt lat="45.56012930526074" lon="10.124354986938958"><ele>136.39999999999998</ele><time>2026-03-24T14:43:00.999Z</time></trkpt><trkpt lat="45.56005077858381" lon="10.124466924089653"><ele>136.2</ele><time>2026-03-24T14:43:02.999Z</time></trkpt><trkpt lat="45.55997119029599" lon="10.124579283920967"><ele>136.0</ele><time>2026-03-24T14:43:04.999Z</time></trkpt><trkpt lat="45.559899523664946" lon="10.124701922799272"><ele>136.0</ele><time>2026-03-24T14:43:06.999Z</time></trkpt><trkpt lat="45.559826011841395" lon="10.124814473332256"><ele>136.0</ele><time>2026-03-24T14:43:08.999Z</time></trkpt><trkpt lat="45.55975083707457" lon="10.124924562883795"><ele>136.0</ele><time>2026-03-24T14:43:10.999Z</time></trkpt><trkpt lat="45.55966665012235" lon="10.125028145663265"><ele>136.0</ele><time>2026-03-24T14:43:12.999Z</time></trkpt><trkpt lat="45.55958741471572" lon="10.125134891056613"><ele>136.0</ele><time>2026-03-24T14:43:14.999Z</time></trkpt><trkpt lat="45.55950950386821" lon="10.125247204089295"><ele>136.0</ele><time>2026-03-24T14:43:16.999Z</time></trkpt><trkpt lat="45.55943765825478" lon="10.12536443230372"><ele>136.0</ele><time>2026-03-24T14:43:18.999Z</time></trkpt><trkpt lat="45.559366107935446" lon="10.125481516014075"><ele>136.0</ele><time>2026-03-24T14:43:20.999Z</time></trkpt><trkpt lat="45.55929608766203" lon="10.12559182341077"><ele>136.0</ele><time>2026-03-24T14:43:22.999Z</time></trkpt><trkpt lat="45.55923281703008" lon="10.125700733527037"><ele>136.0</ele><time>2026-03-24T14:43:24.998Z</time></trkpt><trkpt lat="45.559180916208284" lon="10.125809147225205"><ele>136.0</ele><time>2026-03-24T14:43:26.998Z</time></trkpt><trkpt lat="45.55913731670802" lon="10.125910652842766"><ele>136.0</ele><time>2026-03-24T14:43:28.998Z</time></trkpt><trkpt lat="45.559094416830185" lon="10.126027395757069"><ele>136.0</ele><time>2026-03-24T14:43:30.998Z</time></trkpt><trkpt lat="45.559040743811046" lon="10.126165942993381"><ele>136.0</ele><time>2026-03-24T14:43:32.998Z</time></trkpt><trkpt lat="45.55898031715293" lon="10.12631955069264"><ele>136.0</ele><time>2026-03-24T14:43:34.998Z</time></trkpt><trkpt lat="45.55894820795621" lon="10.126400385192428"><ele>136.0</ele><time>2026-03-24T14:43:35.998Z</time></trkpt><trkpt lat="45.55891384499913" lon="10.12648181150495"><ele>136.0</ele><time>2026-03-24T14:43:36.998Z</time></trkpt><trkpt lat="45.558850804444226" lon="10.126638087649388"><ele>136.0</ele><time>2026-03-24T14:43:38.998Z</time></trkpt><trkpt lat="45.558820144295105" lon="10.126717222561735"><ele>136.0</ele><time>2026-03-24T14:43:39.998Z</time></trkpt><trkpt lat="45.558765894725774" lon="10.126875564183917"><ele>136.0</ele><time>2026-03-24T14:43:41.998Z</time></trkpt><trkpt lat="45.55873169767743" lon="10.126952330148796"><ele>136.0</ele><time>2026-03-24T14:43:42.998Z</time></trkpt><trkpt lat="45.558664132158306" lon="10.12710136709164"><ele>136.0</ele><time>2026-03-24T14:43:44.998Z</time></trkpt><trkpt lat="45.558593347107006" lon="10.127248580970884"><ele>136.0</ele><time>2026-03-24T14:43:46.998Z</time></trkpt><trkpt lat="45.558503977139154" lon="10.127365304632649"><ele>136.0</ele><time>2026-03-24T14:43:48.998Z</time></trkpt><trkpt lat="45.5584210747774" lon="10.127477491649685"><ele>136.0</ele><time>2026-03-24T14:43:50.998Z</time></trkpt><trkpt lat="45.55834386681845" lon="10.127594773602922"><ele>136.0</ele><time>2026-03-24T14:43:52.998Z</time></trkpt><trkpt lat="45.55826958960861" lon="10.127716246824388"><ele>136.0</ele><time>2026-03-24T14:43:54.998Z</time></trkpt><trkpt lat="45.55820350418582" lon="10.127845656409812"><ele>136.0</ele><time>2026-03-24T14:43:56.998Z</time></trkpt><trkpt lat="45.55814980334491" lon="10.127986547675869"><ele>136.0</ele><time>2026-03-24T14:43:58.998Z</time></trkpt><trkpt lat="45.55811305641798" lon="10.128133868952977"><ele>136.0</ele><time>2026-03-24T14:44:00.998Z</time></trkpt><trkpt lat="45.5580621147537" lon="10.12826553455278"><ele>136.0</ele><time>2026-03-24T14:44:03Z</time></trkpt><trkpt lat="45.558057995800745" lon="10.128367458430924"><ele>136.0</ele><time>2026-03-24T14:44:04Z</time></trkpt><trkpt lat="45.558048325438826" lon="10.128456480237192"><ele>136.0</ele><time>2026-03-24T14:44:05Z</time></trkpt><trkpt lat="45.5580231872308" lon="10.128628234825872"><ele>136.0</ele><time>2026-03-24T14:44:07Z</time></trkpt><trkpt lat="45.558002328273275" lon="10.128799040245312"><ele>136.0</ele><time>2026-03-24T14:44:09Z</time></trkpt><trkpt lat="45.55799127161427" lon="10.128961654195713"><ele>135.4</ele><time>2026-03-24T14:44:11Z</time></trkpt><trkpt lat="45.557982485954945" lon="10.129124597327516"><ele>134.8</ele><time>2026-03-24T14:44:12.999Z</time></trkpt><trkpt lat="45.55797849608611" lon="10.12927567528178"><ele>134.20000000000002</ele><time>2026-03-24T14:44:15Z</time></trkpt><trkpt lat="45.557938727179334" lon="10.129436389237915"><ele>133.6</ele><time>2026-03-24T14:44:16.999Z</time></trkpt><trkpt lat="45.55790476088127" lon="10.129515495655228"><ele>133.0</ele><time>2026-03-24T14:44:17.999Z</time></trkpt><trkpt lat="45.557862547972576" lon="10.129587107872023"><ele>133.0</ele><time>2026-03-24T14:44:18.999Z</time></trkpt><trkpt lat="45.55782121658477" lon="10.129660865837955"><ele>133.0</ele><time>2026-03-24T14:44:19.999Z</time></trkpt><trkpt lat="45.557783521395685" lon="10.1297361069512"><ele>133.0</ele><time>2026-03-24T14:44:20.999Z</time></trkpt><trkpt lat="45.55775184213085" lon="10.12982015464238"><ele>133.0</ele><time>2026-03-24T14:44:21.999Z</time></trkpt><trkpt lat="45.55772371528102" lon="10.129901774608483"><ele>133.0</ele><time>2026-03-24T14:44:22.999Z</time></trkpt><trkpt lat="45.55769995423305" lon="10.129986340072977"><ele>133.0</ele><time>2026-03-24T14:44:23.999Z</time></trkpt><trkpt lat="45.55765965861322" lon="10.130155334526805"><ele>133.25</ele><time>2026-03-24T14:44:25.999Z</time></trkpt><trkpt lat="45.557607896023356" lon="10.130315836442282"><ele>133.5</ele><time>2026-03-24T14:44:27.999Z</time></trkpt><trkpt lat="45.55754897824462" lon="10.130467816002806"><ele>133.75</ele><time>2026-03-24T14:44:29.999Z</time></trkpt><trkpt lat="45.557491011386986" lon="10.130618804490451"><ele>134.0</ele><time>2026-03-24T14:44:31.999Z</time></trkpt><trkpt lat="45.557432302176025" lon="10.130767975053985"><ele>133.6</ele><time>2026-03-24T14:44:33.999Z</time></trkpt><trkpt lat="45.55737087780138" lon="10.130918147073146"><ele>133.2</ele><time>2026-03-24T14:44:35.999Z</time></trkpt><trkpt lat="45.557305054522985" lon="10.131067940542078"><ele>132.79999999999998</ele><time>2026-03-24T14:44:37.999Z</time></trkpt><trkpt lat="45.55726980937288" lon="10.131145629217585"><ele>132.4</ele><time>2026-03-24T14:44:38.999Z</time></trkpt><trkpt lat="45.55720918370812" lon="10.131300786074625"><ele>132.0</ele><time>2026-03-24T14:44:40.999Z</time></trkpt><trkpt lat="45.55717589860897" lon="10.131377403370756"><ele>132.0</ele><time>2026-03-24T14:44:41.999Z</time></trkpt><trkpt lat="45.55712067382013" lon="10.13153419930017"><ele>132.0</ele><time>2026-03-24T14:44:43.999Z</time></trkpt><trkpt lat="45.55706504416139" lon="10.131689612794604"><ele>132.0</ele><time>2026-03-24T14:44:45.999Z</time></trkpt><trkpt lat="45.557016750340125" lon="10.131851302536617"><ele>132.0</ele><time>2026-03-24T14:44:47.999Z</time></trkpt><trkpt lat="45.55697610257415" lon="10.132014436757888"><ele>131.6</ele><time>2026-03-24T14:44:49.999Z</time></trkpt><trkpt lat="45.55696516474749" lon="10.132104504332448"><ele>131.2</ele><time>2026-03-24T14:44:50.999Z</time></trkpt><trkpt lat="45.5569566099013" lon="10.132278929365587"><ele>130.8</ele><time>2026-03-24T14:44:52.999Z</time></trkpt><trkpt lat="45.556964119095795" lon="10.132458028992081"><ele>130.4</ele><time>2026-03-24T14:44:54.999Z</time></trkpt><trkpt lat="45.55696018124296" lon="10.1326384519854"><ele>130.0</ele><time>2026-03-24T14:44:56.999Z</time></trkpt><trkpt lat="45.5569438696145" lon="10.132817437612697"><ele>130.0</ele><time>2026-03-24T14:44:58.999Z</time></trkpt><trkpt lat="45.55692972662432" lon="10.132906090410977"><ele>130.0</ele><time>2026-03-24T14:44:59.999Z</time></trkpt><trkpt lat="45.55689493669963" lon="10.133066946226801"><ele>130.0</ele><time>2026-03-24T14:45:01.999Z</time></trkpt><trkpt lat="45.556853757561534" lon="10.133228396325274"><ele>130.0</ele><time>2026-03-24T14:45:03.999Z</time></trkpt><trkpt lat="45.55680132407616" lon="10.133382985578272"><ele>130.0</ele><time>2026-03-24T14:45:05.999Z</time></trkpt><trkpt lat="45.55674206663659" lon="10.133530612148187"><ele>130.25</ele><time>2026-03-24T14:45:07.999Z</time></trkpt><trkpt lat="45.5566768924996" lon="10.133674325574917"><ele>130.5</ele><time>2026-03-24T14:45:09.999Z</time></trkpt><trkpt lat="45.55662084427062" lon="10.133825504360884"><ele>130.75</ele><time>2026-03-24T14:45:11.999Z</time></trkpt><trkpt lat="45.55657062354748" lon="10.133978591972598"><ele>131.0</ele><time>2026-03-24T14:45:13.999Z</time></trkpt><trkpt lat="45.55652409414841" lon="10.134130949880207"><ele>130.5</ele><time>2026-03-24T14:45:15.999Z</time></trkpt><trkpt lat="45.556478905739716" lon="10.134284430273622"><ele>130.0</ele><time>2026-03-24T14:45:17.999Z</time></trkpt><trkpt lat="45.55643618034883" lon="10.134447695434545"><ele>129.5</ele><time>2026-03-24T14:45:19.999Z</time></trkpt><trkpt lat="45.556392170481345" lon="10.134613785136265"><ele>129.0</ele><time>2026-03-24T14:45:21.999Z</time></trkpt><trkpt lat="45.55636029390996" lon="10.13478213808964"><ele>129.0</ele><time>2026-03-24T14:45:23.999Z</time></trkpt><trkpt lat="45.556350333410734" lon="10.134958736597174"><ele>129.0</ele><time>2026-03-24T14:45:25.998Z</time></trkpt><trkpt lat="45.55634102859983" lon="10.135130615472004"><ele>129.0</ele><time>2026-03-24T14:45:27.998Z</time></trkpt><trkpt lat="45.556341385529905" lon="10.135304818731715"><ele>129.0</ele><time>2026-03-24T14:45:29.998Z</time></trkpt><trkpt lat="45.55634983912199" lon="10.135474688625495"><ele>129.0</ele><time>2026-03-24T14:45:31.998Z</time></trkpt><trkpt lat="45.556360341784774" lon="10.135649251442958"><ele>129.0</ele><time>2026-03-24T14:45:33.998Z</time></trkpt><trkpt lat="45.55637292813701" lon="10.135823329737663"><ele>129.0</ele><time>2026-03-24T14:45:35.998Z</time></trkpt><trkpt lat="45.556384628034046" lon="10.13599932733663"><ele>129.0</ele><time>2026-03-24T14:45:37.998Z</time></trkpt><trkpt lat="45.55639171805312" lon="10.13608975692641"><ele>129.0</ele><time>2026-03-24T14:45:38.998Z</time></trkpt><trkpt lat="45.55639680635306" lon="10.136182209449231"><ele>129.4</ele><time>2026-03-24T14:45:39.998Z</time></trkpt><trkpt lat="45.55639913655277" lon="10.136274505718335"><ele>129.8</ele><time>2026-03-24T14:45:40.998Z</time></trkpt><trkpt lat="45.556397249792425" lon="10.136449265934427"><ele>130.2</ele><time>2026-03-24T14:45:42.998Z</time></trkpt><trkpt lat="45.55639121444821" lon="10.136621483936961"><ele>130.6</ele><time>2026-03-24T14:45:44.998Z</time></trkpt><trkpt lat="45.556380680931646" lon="10.136797037741259"><ele>131.0</ele><time>2026-03-24T14:45:46.998Z</time></trkpt><trkpt lat="45.556367348197384" lon="10.136956694696662"><ele>131.0</ele><time>2026-03-24T14:45:48.998Z</time></trkpt><trkpt lat="45.55635788609479" lon="10.13704656128897"><ele>131.0</ele><time>2026-03-24T14:45:49.998Z</time></trkpt><trkpt lat="45.55634797212353" lon="10.137136386218843"><ele>131.0</ele><time>2026-03-24T14:45:50.998Z</time></trkpt><trkpt lat="45.556330072782465" lon="10.137301373507395"><ele>131.0</ele><time>2026-03-24T14:45:52.998Z</time></trkpt><trkpt lat="45.55632200958693" lon="10.137465614534387"><ele>131.0</ele><time>2026-03-24T14:45:54.998Z</time></trkpt><trkpt lat="45.5563104583534" lon="10.13762661295187"><ele>130.8</ele><time>2026-03-24T14:45:56.998Z</time></trkpt><trkpt lat="45.556300212955115" lon="10.137782235094694"><ele>130.6</ele><time>2026-03-24T14:45:58.998Z</time></trkpt><trkpt lat="45.55628491681196" lon="10.137926651664772"><ele>130.4</ele><time>2026-03-24T14:46:00.998Z</time></trkpt><trkpt lat="45.556279606561745" lon="10.138068892936959"><ele>130.2</ele><time>2026-03-24T14:46:02.998Z</time></trkpt><trkpt lat="45.556265626229546" lon="10.138210407177144"><ele>130.0</ele><time>2026-03-24T14:46:04.998Z</time></trkpt><trkpt lat="45.556260939915894" lon="10.138365336175085"><ele>130.0</ele><time>2026-03-24T14:46:06.998Z</time></trkpt><trkpt lat="45.556246674196295" lon="10.138521966235274"><ele>130.0</ele><time>2026-03-24T14:46:08.999Z</time></trkpt><trkpt lat="45.55622667543733" lon="10.138680954732"><ele>130.0</ele><time>2026-03-24T14:46:10.999Z</time></trkpt><trkpt lat="45.556201772795035" lon="10.138839717899945"><ele>130.0</ele><time>2026-03-24T14:46:12.999Z</time></trkpt><trkpt lat="45.556161254157" lon="10.138993348414424"><ele>130.0</ele><time>2026-03-24T14:46:14.999Z</time></trkpt><trkpt lat="45.55610918351051" lon="10.139139227105645"><ele>130.0</ele><time>2026-03-24T14:46:16.999Z</time></trkpt><trkpt lat="45.556055126621196" lon="10.139282528832739"><ele>130.0</ele><time>2026-03-24T14:46:18.999Z</time></trkpt><trkpt lat="45.55599348625668" lon="10.139423140560933"><ele>130.0</ele><time>2026-03-24T14:46:20.999Z</time></trkpt><trkpt lat="45.55593488808632" lon="10.139567448522307"><ele>130.0</ele><time>2026-03-24T14:46:22.999Z</time></trkpt><trkpt lat="45.55587092072581" lon="10.139711404059991"><ele>130.0</ele><time>2026-03-24T14:46:24.999Z</time></trkpt><trkpt lat="45.55579904655883" lon="10.139843592912415"><ele>130.0</ele><time>2026-03-24T14:46:26.999Z</time></trkpt><trkpt lat="45.55576500923083" lon="10.139925578153411"><ele>130.0</ele><time>2026-03-24T14:46:27.999Z</time></trkpt><trkpt lat="45.55570405647999" lon="10.140071332877742"><ele>130.0</ele><time>2026-03-24T14:46:29.999Z</time></trkpt><trkpt lat="45.555642257509746" lon="10.140190608158525"><ele>130.2</ele><time>2026-03-24T14:46:31.999Z</time></trkpt><trkpt lat="45.55559412818844" lon="10.140331741590717"><ele>130.4</ele><time>2026-03-24T14:46:33.999Z</time></trkpt><trkpt lat="45.555543240034424" lon="10.140477288042655"><ele>130.6</ele><time>2026-03-24T14:46:35.999Z</time></trkpt><trkpt lat="45.555491287354315" lon="10.140597763778572"><ele>130.8</ele><time>2026-03-24T14:46:37.999Z</time></trkpt><trkpt lat="45.55544081596762" lon="10.140719386176308"><ele>131.0</ele><time>2026-03-24T14:46:39.999Z</time></trkpt><trkpt lat="45.55539563250629" lon="10.140828451626561"><ele>131.0</ele><time>2026-03-24T14:46:41.999Z</time></trkpt><trkpt lat="45.55535409786408" lon="10.140935473891034"><ele>131.0</ele><time>2026-03-24T14:46:43.999Z</time></trkpt><trkpt lat="45.555313433460945" lon="10.14105228038877"><ele>131.0</ele><time>2026-03-24T14:46:45.999Z</time></trkpt><trkpt lat="45.555265285114544" lon="10.141163761831018"><ele>131.0</ele><time>2026-03-24T14:46:47.999Z</time></trkpt><trkpt lat="45.555214802207786" lon="10.141277634322607"><ele>131.0</ele><time>2026-03-24T14:46:49.999Z</time></trkpt><trkpt lat="45.55516770788842" lon="10.14138770511403"><ele>131.0</ele><time>2026-03-24T14:46:51.999Z</time></trkpt><trkpt lat="45.55512543530594" lon="10.14149827900943"><ele>131.0</ele><time>2026-03-24T14:46:53.999Z</time></trkpt><trkpt lat="45.55508494257172" lon="10.141596486451125"><ele>131.0</ele><time>2026-03-24T14:46:55.999Z</time></trkpt><trkpt lat="45.55504401163283" lon="10.141695831986391"><ele>131.0</ele><time>2026-03-24T14:46:57.999Z</time></trkpt><trkpt lat="45.55500260885237" lon="10.141801698480323"><ele>131.0</ele><time>2026-03-24T14:46:59.999Z</time></trkpt><trkpt lat="45.554956578484735" lon="10.141910181770518"><ele>131.0</ele><time>2026-03-24T14:47:01.999Z</time></trkpt><trkpt lat="45.55490805274891" lon="10.142023306274286"><ele>131.0</ele><time>2026-03-24T14:47:03.999Z</time></trkpt><trkpt lat="45.55485953253612" lon="10.142145960980637"><ele>131.0</ele><time>2026-03-24T14:47:05.999Z</time></trkpt><trkpt lat="45.55481014205949" lon="10.142267757101333"><ele>131.0</ele><time>2026-03-24T14:47:07.999Z</time></trkpt><trkpt lat="45.55476136536015" lon="10.142386994668614"><ele>131.0</ele><time>2026-03-24T14:47:09.999Z</time></trkpt><trkpt lat="45.55471744648893" lon="10.142504801403916"><ele>131.0</ele><time>2026-03-24T14:47:11.999Z</time></trkpt><trkpt lat="45.554669404854025" lon="10.142605653100736"><ele>131.0</ele><time>2026-03-24T14:47:13.999Z</time></trkpt><trkpt lat="45.55462677932325" lon="10.14269845639092"><ele>131.0</ele><time>2026-03-24T14:47:15.999Z</time></trkpt><trkpt lat="45.5545695396493" lon="10.142767794591958"><ele>131.0</ele><time>2026-03-24T14:47:17.999Z</time></trkpt><trkpt lat="45.55450361223889" lon="10.142826427682824"><ele>131.0</ele><time>2026-03-24T14:47:19.999Z</time></trkpt><trkpt lat="45.55443843282337" lon="10.142896061791717"><ele>131.0</ele><time>2026-03-24T14:47:21.999Z</time></trkpt><trkpt lat="45.55436065264698" lon="10.14296438589713"><ele>131.0</ele><time>2026-03-24T14:47:23.999Z</time></trkpt><trkpt lat="45.55426468701031" lon="10.143005185808924"><ele>131.0</ele><time>2026-03-24T14:47:25.999Z</time></trkpt><trkpt lat="45.55416452494534" lon="10.142951234331626"><ele>131.0</ele><time>2026-03-24T14:47:27.999Z</time></trkpt><trkpt lat="45.5540672466623" lon="10.142910247054727"><ele>131.0</ele><time>2026-03-24T14:47:29.998Z</time></trkpt><trkpt lat="45.55397387168523" lon="10.142906873999271"><ele>131.0</ele><time>2026-03-24T14:47:31.998Z</time></trkpt><trkpt lat="45.553892095309315" lon="10.142933492064904"><ele>131.0</ele><time>2026-03-24T14:47:33.998Z</time></trkpt><trkpt lat="45.55382301114479" lon="10.14299392707896"><ele>131.0</ele><time>2026-03-24T14:47:35.998Z</time></trkpt><trkpt lat="45.55377020647245" lon="10.143074487191463"><ele>131.0</ele><time>2026-03-24T14:47:37.998Z</time></trkpt><trkpt lat="45.553741252399554" lon="10.143160465790517"><ele>131.0</ele><time>2026-03-24T14:47:39.998Z</time></trkpt><trkpt lat="45.553720835398885" lon="10.14326146010689"><ele>131.0</ele><time>2026-03-24T14:47:42.998Z</time></trkpt><trkpt lat="45.55368242253266" lon="10.143336001089756"><ele>131.0</ele><time>2026-03-24T14:47:45.998Z</time></trkpt><trkpt lat="45.553631762274065" lon="10.14340462786297"><ele>131.0</ele><time>2026-03-24T14:47:48.998Z</time></trkpt><trkpt lat="45.55359349249807" lon="10.14351728972406"><ele>131.0</ele><time>2026-03-24T14:47:51.998Z</time></trkpt><trkpt lat="45.55358389897997" lon="10.143615526060493"><ele>130.5</ele><time>2026-03-24T14:47:53.998Z</time></trkpt><trkpt lat="45.55358835207995" lon="10.143729178303941"><ele>130.0</ele><time>2026-03-24T14:47:55.998Z</time></trkpt><trkpt lat="45.553614405176525" lon="10.143843721813298"><ele>129.5</ele><time>2026-03-24T14:47:57.998Z</time></trkpt><trkpt lat="45.55365642028138" lon="10.14395145626388"><ele>129.0</ele><time>2026-03-24T14:47:59.998Z</time></trkpt><trkpt lat="45.55370245446783" lon="10.144063001744538"><ele>128.5</ele><time>2026-03-24T14:48:01.998Z</time></trkpt><trkpt lat="45.5537378393468" lon="10.144178612942358"><ele>128.0</ele><time>2026-03-24T14:48:03.998Z</time></trkpt><trkpt lat="45.55373943384504" lon="10.144303440226976"><ele>128.0</ele><time>2026-03-24T14:48:05.998Z</time></trkpt><trkpt lat="45.5537132889547" lon="10.144437008246875"><ele>128.0</ele><time>2026-03-24T14:48:07.998Z</time></trkpt><trkpt lat="45.55366359001673" lon="10.144567947890973"><ele>128.0</ele><time>2026-03-24T14:48:09.998Z</time></trkpt><trkpt lat="45.55360497701952" lon="10.144702373057113"><ele>128.0</ele><time>2026-03-24T14:48:11.998Z</time></trkpt><trkpt lat="45.55353775988049" lon="10.144832769317603"><ele>128.0</ele><time>2026-03-24T14:48:13.999Z</time></trkpt><trkpt lat="45.55346769661655" lon="10.144956780034587"><ele>128.20000000000002</ele><time>2026-03-24T14:48:15.999Z</time></trkpt><trkpt lat="45.55339936788433" lon="10.145082282934201"><ele>128.4</ele><time>2026-03-24T14:48:17.999Z</time></trkpt><trkpt lat="45.553328434215395" lon="10.14520581037379"><ele>128.60000000000002</ele><time>2026-03-24T14:48:19.999Z</time></trkpt><trkpt lat="45.553257282402186" lon="10.145325710481192"><ele>128.8</ele><time>2026-03-24T14:48:21.999Z</time></trkpt><trkpt lat="45.553187027273395" lon="10.14545005309628"><ele>129.0</ele><time>2026-03-24T14:48:23.999Z</time></trkpt><trkpt lat="45.55311496192292" lon="10.145576641163828"><ele>129.0</ele><time>2026-03-24T14:48:25.999Z</time></trkpt><trkpt lat="45.55304043217387" lon="10.145703971226366"><ele>129.0</ele><time>2026-03-24T14:48:27.999Z</time></trkpt><trkpt lat="45.55296619967621" lon="10.145826692836707"><ele>129.0</ele><time>2026-03-24T14:48:29.999Z</time></trkpt><trkpt lat="45.552896581742885" lon="10.145950007449661"><ele>129.0</ele><time>2026-03-24T14:48:31.999Z</time></trkpt><trkpt lat="45.552828108676195" lon="10.146067097280122"><ele>129.0</ele><time>2026-03-24T14:48:33.999Z</time></trkpt><trkpt lat="45.55275964638381" lon="10.14618167021154"><ele>129.0</ele><time>2026-03-24T14:48:35.999Z</time></trkpt><trkpt lat="45.55269007091351" lon="10.146299319316878"><ele>129.0</ele><time>2026-03-24T14:48:37.999Z</time></trkpt><trkpt lat="45.552618600363154" lon="10.14642251863823"><ele>129.0</ele><time>2026-03-24T14:48:39.999Z</time></trkpt><trkpt lat="45.552548243304926" lon="10.146543202880622"><ele>129.0</ele><time>2026-03-24T14:48:41.999Z</time></trkpt><trkpt lat="45.55247852898823" lon="10.146665464888265"><ele>129.0</ele><time>2026-03-24T14:48:43.999Z</time></trkpt><trkpt lat="45.552410833116205" lon="10.146781492869135"><ele>129.0</ele><time>2026-03-24T14:48:45.999Z</time></trkpt><trkpt lat="45.552344720016485" lon="10.146899083166897"><ele>129.0</ele><time>2026-03-24T14:48:47.999Z</time></trkpt><trkpt lat="45.55227767064245" lon="10.147015702724385"><ele>129.0</ele><time>2026-03-24T14:48:49.999Z</time></trkpt><trkpt lat="45.55220894613512" lon="10.147131968983647"><ele>129.0</ele><time>2026-03-24T14:48:51.999Z</time></trkpt><trkpt lat="45.55214242656305" lon="10.14724535778742"><ele>129.0</ele><time>2026-03-24T14:48:53.999Z</time></trkpt><trkpt lat="45.552077801775596" lon="10.147360462503658"><ele>128.0</ele><time>2026-03-24T14:48:55.999Z</time></trkpt><trkpt lat="45.5520139933862" lon="10.14747297283161"><ele>127.0</ele><time>2026-03-24T14:48:57.999Z</time></trkpt><trkpt lat="45.55194585554935" lon="10.147584234309692"><ele>126.0</ele><time>2026-03-24T14:48:59.999Z</time></trkpt><trkpt lat="45.551878507352164" lon="10.147700898602128"><ele>125.0</ele><time>2026-03-24T14:49:01.999Z</time></trkpt><trkpt lat="45.55180801864526" lon="10.14781184932671"><ele>124.0</ele><time>2026-03-24T14:49:03.999Z</time></trkpt><trkpt lat="45.55173114510599" lon="10.147916227805355"><ele>124.0</ele><time>2026-03-24T14:49:05.999Z</time></trkpt><trkpt lat="45.55164697214045" lon="10.148006031110747"><ele>124.0</ele><time>2026-03-24T14:49:07.999Z</time></trkpt><trkpt lat="45.551544148055186" lon="10.148043037591837"><ele>124.0</ele><time>2026-03-24T14:49:09.999Z</time></trkpt><trkpt lat="45.55144241474773" lon="10.148079628856905"><ele>124.0</ele><time>2026-03-24T14:49:11.999Z</time></trkpt><trkpt lat="45.55135907378301" lon="10.148175879824747"><ele>124.0</ele><time>2026-03-24T14:49:13.999Z</time></trkpt><trkpt lat="45.551314678276015" lon="10.148279273606821"><ele>124.2</ele><time>2026-03-24T14:49:15.999Z</time></trkpt><trkpt lat="45.551312240364986" lon="10.148378019711378"><ele>124.4</ele><time>2026-03-24T14:49:17.999Z</time></trkpt><trkpt lat="45.551343915395364" lon="10.148491068442445"><ele>124.6</ele><time>2026-03-24T14:49:19.999Z</time></trkpt><trkpt lat="45.551410062077466" lon="10.148588604994552"><ele>124.8</ele><time>2026-03-24T14:49:21.999Z</time></trkpt><trkpt lat="45.55151062877951" lon="10.14862947113238"><ele>125.0</ele><time>2026-03-24T14:49:23.999Z</time></trkpt><trkpt lat="45.5516192174049" lon="10.148612393431966"><ele>125.0</ele><time>2026-03-24T14:49:25.999Z</time></trkpt><trkpt lat="45.55172487122938" lon="10.148586074805511"><ele>125.0</ele><time>2026-03-24T14:49:27.999Z</time></trkpt><trkpt lat="45.55183868194131" lon="10.148602038596794"><ele>125.0</ele><time>2026-03-24T14:49:29.999Z</time></trkpt><trkpt lat="45.55195918985248" lon="10.148602556936067"><ele>125.0</ele><time>2026-03-24T14:49:31.999Z</time></trkpt><trkpt lat="45.55208359649846" lon="10.14858207003481"><ele>125.4</ele><time>2026-03-24T14:49:33.999Z</time></trkpt><trkpt lat="45.55214631727022" lon="10.148559993898889"><ele>125.8</ele><time>2026-03-24T14:49:34.998Z</time></trkpt><trkpt lat="45.552264919801054" lon="10.148522391682123"><ele>126.19999999999999</ele><time>2026-03-24T14:49:36.998Z</time></trkpt><trkpt lat="45.55238190489002" lon="10.148479200475938"><ele>126.6</ele><time>2026-03-24T14:49:38.998Z</time></trkpt><trkpt lat="45.55249973737476" lon="10.148443509723753"><ele>127.0</ele><time>2026-03-24T14:49:40.998Z</time></trkpt><trkpt lat="45.55262205494396" lon="10.148411382519447"><ele>127.0</ele><time>2026-03-24T14:49:42.998Z</time></trkpt><trkpt lat="45.55274586685172" lon="10.14840459295555"><ele>127.0</ele><time>2026-03-24T14:49:44.998Z</time></trkpt><trkpt lat="45.55286700961585" lon="10.148410035220863"><ele>127.0</ele><time>2026-03-24T14:49:46.998Z</time></trkpt><trkpt lat="45.55298375380706" lon="10.14842915260989"><ele>127.0</ele><time>2026-03-24T14:49:48.998Z</time></trkpt><trkpt lat="45.553098000464956" lon="10.148467006132622"><ele>127.25</ele><time>2026-03-24T14:49:50.998Z</time></trkpt><trkpt lat="45.55320922828538" lon="10.148513188522765"><ele>127.5</ele><time>2026-03-24T14:49:52.998Z</time></trkpt><trkpt lat="45.553323026801785" lon="10.148555843441576"><ele>127.75</ele><time>2026-03-24T14:49:54.998Z</time></trkpt><trkpt lat="45.553444749287905" lon="10.148556491615604"><ele>128.0</ele><time>2026-03-24T14:49:56.998Z</time></trkpt><trkpt lat="45.55355966784553" lon="10.148523861802758"><ele>128.0</ele><time>2026-03-24T14:49:58.998Z</time></trkpt><trkpt lat="45.55366422866175" lon="10.148478180958024"><ele>128.0</ele><time>2026-03-24T14:50:00.998Z</time></trkpt><trkpt lat="45.55376980208419" lon="10.14843503815302"><ele>128.0</ele><time>2026-03-24T14:50:02.998Z</time></trkpt><trkpt lat="45.553891319829745" lon="10.148387384816276"><ele>128.0</ele><time>2026-03-24T14:50:04.998Z</time></trkpt><trkpt lat="45.553957591678824" lon="10.14836434794466"><ele>128.0</ele><time>2026-03-24T14:50:05.998Z</time></trkpt><trkpt lat="45.55402064660517" lon="10.14835419953737"><ele>128.0</ele><time>2026-03-24T14:50:06.998Z</time></trkpt><trkpt lat="45.55408519399401" lon="10.148361643241742"><ele>128.0</ele><time>2026-03-24T14:50:07.998Z</time></trkpt><trkpt lat="45.5542054971355" lon="10.148411566808702"><ele>128.0</ele><time>2026-03-24T14:50:09.998Z</time></trkpt><trkpt lat="45.55432266361432" lon="10.148464557183864"><ele>128.0</ele><time>2026-03-24T14:50:11.998Z</time></trkpt><trkpt lat="45.55444015687266" lon="10.148512960912774"><ele>128.0</ele><time>2026-03-24T14:50:13.998Z</time></trkpt><trkpt lat="45.55455733405767" lon="10.148561952389876"><ele>128.0</ele><time>2026-03-24T14:50:15.998Z</time></trkpt><trkpt lat="45.55467723388198" lon="10.148606075350266"><ele>128.0</ele><time>2026-03-24T14:50:17.998Z</time></trkpt><trkpt lat="45.554796962321696" lon="10.148653821187526"><ele>128.0</ele><time>2026-03-24T14:50:19.999Z</time></trkpt><trkpt lat="45.554917489955" lon="10.148699630345156"><ele>128.0</ele><time>2026-03-24T14:50:21.999Z</time></trkpt><trkpt lat="45.5550356644378" lon="10.148747004147346"><ele>128.0</ele><time>2026-03-24T14:50:23.999Z</time></trkpt><trkpt lat="45.55509692631143" lon="10.148771368372847"><ele>128.0</ele><time>2026-03-24T14:50:24.999Z</time></trkpt><trkpt lat="45.555215289817646" lon="10.148815004569277"><ele>128.0</ele><time>2026-03-24T14:50:26.999Z</time></trkpt><trkpt lat="45.555332227827186" lon="10.148861168860615"><ele>128.0</ele><time>2026-03-24T14:50:28.999Z</time></trkpt><trkpt lat="45.55545036542659" lon="10.148909421424078"><ele>128.0</ele><time>2026-03-24T14:50:30.999Z</time></trkpt><trkpt lat="45.555565708835225" lon="10.148953555751932"><ele>128.5</ele><time>2026-03-24T14:50:32.999Z</time></trkpt><trkpt lat="45.555684504562144" lon="10.14899973932752"><ele>129.0</ele><time>2026-03-24T14:50:34.999Z</time></trkpt><trkpt lat="45.55580037729757" lon="10.149046506287506"><ele>129.5</ele><time>2026-03-24T14:50:36.999Z</time></trkpt><trkpt lat="45.555916090725205" lon="10.149092821611642"><ele>130.0</ele><time>2026-03-24T14:50:38.999Z</time></trkpt><trkpt lat="45.556030742965156" lon="10.149138626528158"><ele>130.25</ele><time>2026-03-24T14:50:40.999Z</time></trkpt><trkpt lat="45.55614673707676" lon="10.149183867890626"><ele>130.5</ele><time>2026-03-24T14:50:42.999Z</time></trkpt><trkpt lat="45.556261193773565" lon="10.149231156872933"><ele>130.75</ele><time>2026-03-24T14:50:44.999Z</time></trkpt><trkpt lat="45.55637109735576" lon="10.14927251569543"><ele>131.0</ele><time>2026-03-24T14:50:46.999Z</time></trkpt><trkpt lat="45.55648363659062" lon="10.149312943028399"><ele>130.5</ele><time>2026-03-24T14:50:48.999Z</time></trkpt><trkpt lat="45.55659922470853" lon="10.149357614344826"><ele>130.0</ele><time>2026-03-24T14:50:50.999Z</time></trkpt><trkpt lat="45.55671356491111" lon="10.149403567544955"><ele>129.5</ele><time>2026-03-24T14:50:52.999Z</time></trkpt><trkpt lat="45.556829310016056" lon="10.149447963553364"><ele>129.0</ele><time>2026-03-24T14:50:54.999Z</time></trkpt><trkpt lat="45.55694527492841" lon="10.149488688324224"><ele>129.0</ele><time>2026-03-24T14:50:56.999Z</time></trkpt><trkpt lat="45.55703839024348" lon="10.149592110479118"><ele>129.0</ele><time>2026-03-24T14:50:58.999Z</time></trkpt><trkpt lat="45.55704519718322" lon="10.149685150243359"><ele>129.0</ele><time>2026-03-24T14:50:59.999Z</time></trkpt><trkpt lat="45.55702659902879" lon="10.149778300612986"><ele>129.0</ele><time>2026-03-24T14:51:00.999Z</time></trkpt><trkpt lat="45.556985128474786" lon="10.14994143291562"><ele>129.0</ele><time>2026-03-24T14:51:02.999Z</time></trkpt><trkpt lat="45.55694844011089" lon="10.150105682371153"><ele>129.2</ele><time>2026-03-24T14:51:04.999Z</time></trkpt><trkpt lat="45.55693229424944" lon="10.150193686666476"><ele>129.4</ele><time>2026-03-24T14:51:05.999Z</time></trkpt><trkpt lat="45.5568995111642" lon="10.150362994634689"><ele>129.6</ele><time>2026-03-24T14:51:07.999Z</time></trkpt><trkpt lat="45.55686468869071" lon="10.15052933255271"><ele>129.8</ele><time>2026-03-24T14:51:09.999Z</time></trkpt><trkpt lat="45.55683403809677" lon="10.150694792172184"><ele>130.0</ele><time>2026-03-24T14:51:11.999Z</time></trkpt><trkpt lat="45.556800074790765" lon="10.150863476848594"><ele>130.2</ele><time>2026-03-24T14:51:13.999Z</time></trkpt><trkpt lat="45.556784387099036" lon="10.150950887791089"><ele>130.4</ele><time>2026-03-24T14:51:14.999Z</time></trkpt><trkpt lat="45.55675101864182" lon="10.151114991130948"><ele>130.6</ele><time>2026-03-24T14:51:16.999Z</time></trkpt><trkpt lat="45.556736149761726" lon="10.151204711981888"><ele>130.8</ele><time>2026-03-24T14:51:17.999Z</time></trkpt><trkpt lat="45.556707913299086" lon="10.15138367186956"><ele>131.0</ele><time>2026-03-24T14:51:19.999Z</time></trkpt><trkpt lat="45.556669226748056" lon="10.151528174920614"><ele>130.75</ele><time>2026-03-24T14:51:21.999Z</time></trkpt><trkpt lat="45.5566365558894" lon="10.151693000523233"><ele>130.5</ele><time>2026-03-24T14:51:23.999Z</time></trkpt><trkpt lat="45.55660750086863" lon="10.15185438821335"><ele>130.25</ele><time>2026-03-24T14:51:25.999Z</time></trkpt><trkpt lat="45.556576015885014" lon="10.15200905522222"><ele>130.0</ele><time>2026-03-24T14:51:27.999Z</time></trkpt><trkpt lat="45.556543972759435" lon="10.152175735362157"><ele>130.0</ele><time>2026-03-24T14:51:29.999Z</time></trkpt><trkpt lat="45.55651413007476" lon="10.15234503924749"><ele>130.0</ele><time>2026-03-24T14:51:31.999Z</time></trkpt><trkpt lat="45.55648422128461" lon="10.152512547249707"><ele>130.0</ele><time>2026-03-24T14:51:33.999Z</time></trkpt><trkpt lat="45.556445941112486" lon="10.15267112544883"><ele>130.0</ele><time>2026-03-24T14:51:35.999Z</time></trkpt><trkpt lat="45.55641515497273" lon="10.152832316261332"><ele>129.6</ele><time>2026-03-24T14:51:37.998Z</time></trkpt><trkpt lat="45.556384240448615" lon="10.152993013242527"><ele>129.2</ele><time>2026-03-24T14:51:39.998Z</time></trkpt><trkpt lat="45.556352149429905" lon="10.153135954647212"><ele>128.8</ele><time>2026-03-24T14:51:41.998Z</time></trkpt><trkpt lat="45.5563309077941" lon="10.153292257247353"><ele>128.4</ele><time>2026-03-24T14:51:43.998Z</time></trkpt><trkpt lat="45.556303291594936" lon="10.153451839778556"><ele>128.0</ele><time>2026-03-24T14:51:45.998Z</time></trkpt><trkpt lat="45.556267093267245" lon="10.153606628018824"><ele>127.80000000000001</ele><time>2026-03-24T14:51:47.998Z</time></trkpt><trkpt lat="45.556234940991544" lon="10.153772443680277"><ele>127.60000000000001</ele><time>2026-03-24T14:51:49.998Z</time></trkpt><trkpt lat="45.55620376070637" lon="10.153924255231471"><ele>127.39999999999999</ele><time>2026-03-24T14:51:51.998Z</time></trkpt><trkpt lat="45.55617945620985" lon="10.154050298629784"><ele>127.19999999999999</ele><time>2026-03-24T14:51:53.998Z</time></trkpt><trkpt lat="45.5561634379168" lon="10.154149948388593"><ele>127.0</ele><time>2026-03-24T14:51:55.998Z</time></trkpt><trkpt lat="45.55613279219517" lon="10.154238281856852"><ele>127.16666666666667</ele><time>2026-03-24T14:51:59.998Z</time></trkpt><trkpt lat="45.55618185408337" lon="10.154324868936012"><ele>127.33333333333334</ele><time>2026-03-24T14:52:02.998Z</time></trkpt><trkpt lat="45.556260652310705" lon="10.154353590622636"><ele>127.5</ele><time>2026-03-24T14:52:04.998Z</time></trkpt><trkpt lat="45.55633967772436" lon="10.154384614008677"><ele>127.66666666666666</ele><time>2026-03-24T14:52:06.998Z</time></trkpt><trkpt lat="45.55642344111476" lon="10.154412223741833"><ele>127.83333333333333</ele><time>2026-03-24T14:52:08.998Z</time></trkpt><trkpt lat="45.556511061056945" lon="10.154445741783263"><ele>128.0</ele><time>2026-03-24T14:52:10.998Z</time></trkpt><trkpt lat="45.55659817768362" lon="10.154477364612543"><ele>128.0</ele><time>2026-03-24T14:52:12.998Z</time></trkpt><trkpt lat="45.55668937542562" lon="10.154505428113772"><ele>128.0</ele><time>2026-03-24T14:52:14.998Z</time></trkpt><trkpt lat="45.55678372192647" lon="10.154541804186595"><ele>128.0</ele><time>2026-03-24T14:52:16.998Z</time></trkpt><trkpt lat="45.55687872927193" lon="10.154574247292684"><ele>128.0</ele><time>2026-03-24T14:52:18.998Z</time></trkpt><trkpt lat="45.55697542810603" lon="10.15461161491843"><ele>128.0</ele><time>2026-03-24T14:52:20.998Z</time></trkpt><trkpt lat="45.55706737865661" lon="10.154665375619834"><ele>128.20000000000002</ele><time>2026-03-24T14:52:22.998Z</time></trkpt><trkpt lat="45.55716747325035" lon="10.154708055725372"><ele>128.4</ele><time>2026-03-24T14:52:24.998Z</time></trkpt><trkpt lat="45.557264474441816" lon="10.154744730292157"><ele>128.60000000000002</ele><time>2026-03-24T14:52:26.999Z</time></trkpt><trkpt lat="45.55736664072636" lon="10.154780994832656"><ele>128.8</ele><time>2026-03-24T14:52:28.999Z</time></trkpt><trkpt lat="45.557472882490664" lon="10.154817515796958"><ele>129.0</ele><time>2026-03-24T14:52:30.999Z</time></trkpt><trkpt lat="45.557577363681915" lon="10.154853549597716"><ele>129.0</ele><time>2026-03-24T14:52:32.999Z</time></trkpt><trkpt lat="45.557684829993" lon="10.154886192691809"><ele>129.0</ele><time>2026-03-24T14:52:34.999Z</time></trkpt><trkpt lat="45.5577921169447" lon="10.154924392322359"><ele>129.0</ele><time>2026-03-24T14:52:36.999Z</time></trkpt><trkpt lat="45.557895313052896" lon="10.154963676074269"><ele>129.0</ele><time>2026-03-24T14:52:38.999Z</time></trkpt><trkpt lat="45.55800330387063" lon="10.155005856937578"><ele>129.0</ele><time>2026-03-24T14:52:40.999Z</time></trkpt><trkpt lat="45.55811018025925" lon="10.155044986430077"><ele>129.33333333333334</ele><time>2026-03-24T14:52:42.999Z</time></trkpt><trkpt lat="45.55821418681702" lon="10.155081626928585"><ele>129.66666666666666</ele><time>2026-03-24T14:52:44.999Z</time></trkpt><trkpt lat="45.55831260425408" lon="10.155114472218239"><ele>130.0</ele><time>2026-03-24T14:52:46.999Z</time></trkpt><trkpt lat="45.55839785668122" lon="10.1551513880854"><ele>130.33333333333331</ele><time>2026-03-24T14:52:48.999Z</time></trkpt><trkpt lat="45.55846887308903" lon="10.15516715890689"><ele>130.66666666666666</ele><time>2026-03-24T14:52:50.999Z</time></trkpt><trkpt lat="45.55853270791468" lon="10.155205441342058"><ele>131.0</ele><time>2026-03-24T14:52:52.999Z</time></trkpt><trkpt lat="45.55860641226607" lon="10.155246123954573"><ele>131.0</ele><time>2026-03-24T14:52:54.999Z</time></trkpt><trkpt lat="45.55868641868396" lon="10.155277875215903"><ele>131.0</ele><time>2026-03-24T14:52:56.999Z</time></trkpt><trkpt lat="45.55877245878607" lon="10.155310823846499"><ele>131.0</ele><time>2026-03-24T14:52:58.999Z</time></trkpt><trkpt lat="45.55885821310042" lon="10.155339936651213"><ele>131.0</ele><time>2026-03-24T14:53:00.999Z</time></trkpt><trkpt lat="45.55894800797905" lon="10.155364257097686"><ele>131.0</ele><time>2026-03-24T14:53:02.999Z</time></trkpt><trkpt lat="45.559034863168016" lon="10.155399231782026"><ele>131.0</ele><time>2026-03-24T14:53:04.999Z</time></trkpt><trkpt lat="45.559120908827815" lon="10.155431028794407"><ele>131.16666666666666</ele><time>2026-03-24T14:53:06.999Z</time></trkpt><trkpt lat="45.55920826494767" lon="10.15545890195514"><ele>131.33333333333331</ele><time>2026-03-24T14:53:08.999Z</time></trkpt><trkpt lat="45.5592939401113" lon="10.155492788634287"><ele>131.5</ele><time>2026-03-24T14:53:10.999Z</time></trkpt><trkpt lat="45.55936777344416" lon="10.155573320326237"><ele>131.66666666666666</ele><time>2026-03-24T14:53:12.999Z</time></trkpt><trkpt lat="45.55939543385865" lon="10.155695576690364"><ele>131.83333333333334</ele><time>2026-03-24T14:53:14.999Z</time></trkpt><trkpt lat="45.559399253477274" lon="10.155799173371332"><ele>132.0</ele><time>2026-03-24T14:53:16.999Z</time></trkpt><trkpt lat="45.55945434884417" lon="10.155842696684072"><ele>131.83333333333334</ele><time>2026-03-24T14:53:18.999Z</time></trkpt><trkpt lat="45.55952475412894" lon="10.155869915493822"><ele>131.66666666666666</ele><time>2026-03-24T14:53:20.999Z</time></trkpt><trkpt lat="45.55957636351904" lon="10.155939059128764"><ele>131.5</ele><time>2026-03-24T14:53:22.999Z</time></trkpt><trkpt lat="45.55963276820774" lon="10.155882127112255"><ele>131.33333333333331</ele><time>2026-03-24T14:53:24.999Z</time></trkpt><trkpt lat="45.55968111678396" lon="10.15580196510655"><ele>131.16666666666666</ele><time>2026-03-24T14:53:26.999Z</time></trkpt><trkpt lat="45.559749209945196" lon="10.155748185078757"><ele>131.0</ele><time>2026-03-24T14:53:28.999Z</time></trkpt><trkpt lat="45.559830182578764" lon="10.155709781006534"><ele>131.0</ele><time>2026-03-24T14:53:30.999Z</time></trkpt><trkpt lat="45.55991808673572" lon="10.155711165079612"><ele>131.0</ele><time>2026-03-24T14:53:32.999Z</time></trkpt><trkpt lat="45.56000391262952" lon="10.155744215259496"><ele>131.0</ele><time>2026-03-24T14:53:34.999Z</time></trkpt><trkpt lat="45.560095749908584" lon="10.15579385256979"><ele>131.0</ele><time>2026-03-24T14:53:36.999Z</time></trkpt><trkpt lat="45.56019289936001" lon="10.155833386858186"><ele>131.0</ele><time>2026-03-24T14:53:38.999Z</time></trkpt><trkpt lat="45.56029339693428" lon="10.155860277968703"><ele>131.2</ele><time>2026-03-24T14:53:40.999Z</time></trkpt><trkpt lat="45.56039368934359" lon="10.15589736292906"><ele>131.39999999999998</ele><time>2026-03-24T14:53:42.999Z</time></trkpt><trkpt lat="45.56049553216112" lon="10.155930026586958"><ele>131.6</ele><time>2026-03-24T14:53:44.999Z</time></trkpt><trkpt lat="45.560593460790315" lon="10.155962731728"><ele>131.79999999999998</ele><time>2026-03-24T14:53:46.999Z</time></trkpt><trkpt lat="45.56069897145557" lon="10.155998489302046"><ele>132.0</ele><time>2026-03-24T14:53:48.999Z</time></trkpt><trkpt lat="45.560798162768556" lon="10.156036599620311"><ele>132.0</ele><time>2026-03-24T14:53:50.999Z</time></trkpt><trkpt lat="45.560899675497645" lon="10.156072167240053"><ele>132.0</ele><time>2026-03-24T14:53:52.998Z</time></trkpt><trkpt lat="45.56099878370875" lon="10.156110092229293"><ele>132.0</ele><time>2026-03-24T14:53:54.998Z</time></trkpt><trkpt lat="45.56109844562212" lon="10.156143156435668"><ele>132.0</ele><time>2026-03-24T14:53:56.998Z</time></trkpt><trkpt lat="45.56120113658283" lon="10.156174849389386"><ele>132.0</ele><time>2026-03-24T14:53:58.998Z</time></trkpt><trkpt lat="45.56129761326597" lon="10.156209499110451"><ele>132.2</ele><time>2026-03-24T14:54:00.998Z</time></trkpt><trkpt lat="45.56139322936577" lon="10.156240210065562"><ele>132.39999999999998</ele><time>2026-03-24T14:54:02.998Z</time></trkpt><trkpt lat="45.561490343078916" lon="10.15627581800241"><ele>132.60000000000002</ele><time>2026-03-24T14:54:04.998Z</time></trkpt><trkpt lat="45.56159421672974" lon="10.15630655536448"><ele>132.8</ele><time>2026-03-24T14:54:06.998Z</time></trkpt><trkpt lat="45.56169782325923" lon="10.156336256411578"><ele>133.0</ele><time>2026-03-24T14:54:08.998Z</time></trkpt><trkpt lat="45.56180187730889" lon="10.156372468154247"><ele>133.0</ele><time>2026-03-24T14:54:10.998Z</time></trkpt><trkpt lat="45.561908009803695" lon="10.156403429292835"><ele>133.0</ele><time>2026-03-24T14:54:12.998Z</time></trkpt><trkpt lat="45.562017198027206" lon="10.156433523800684"><ele>133.0</ele><time>2026-03-24T14:54:14.998Z</time></trkpt><trkpt lat="45.56212294111024" lon="10.156477794270694"><ele>133.0</ele><time>2026-03-24T14:54:16.998Z</time></trkpt><trkpt lat="45.562231130873734" lon="10.156515671726979"><ele>133.0</ele><time>2026-03-24T14:54:18.998Z</time></trkpt><trkpt lat="45.56234129715473" lon="10.15654616134911"><ele>133.0</ele><time>2026-03-24T14:54:20.998Z</time></trkpt><trkpt lat="45.562452373108364" lon="10.156579864045549"><ele>133.0</ele><time>2026-03-24T14:54:22.998Z</time></trkpt><trkpt lat="45.56256117902245" lon="10.156612078712453"><ele>133.0</ele><time>2026-03-24T14:54:24.998Z</time></trkpt><trkpt lat="45.56267186989377" lon="10.156650971878225"><ele>133.0</ele><time>2026-03-24T14:54:26.998Z</time></trkpt><trkpt lat="45.56277431832177" lon="10.156687187336868"><ele>133.0</ele><time>2026-03-24T14:54:28.998Z</time></trkpt><trkpt lat="45.56287201262579" lon="10.156709732422907"><ele>133.20000000000002</ele><time>2026-03-24T14:54:30.998Z</time></trkpt><trkpt lat="45.56296935148755" lon="10.156737793329572"><ele>133.4</ele><time>2026-03-24T14:54:32.999Z</time></trkpt><trkpt lat="45.56307310069866" lon="10.156764050810342"><ele>133.60000000000002</ele><time>2026-03-24T14:54:34.999Z</time></trkpt><trkpt lat="45.56317708440723" lon="10.15679532266421"><ele>133.8</ele><time>2026-03-24T14:54:36.999Z</time></trkpt><trkpt lat="45.56327851968214" lon="10.156826923911858"><ele>134.0</ele><time>2026-03-24T14:54:38.999Z</time></trkpt><trkpt lat="45.56338393032692" lon="10.156852894136529"><ele>134.0</ele><time>2026-03-24T14:54:40.999Z</time></trkpt><trkpt lat="45.563493470713325" lon="10.156891992396394"><ele>134.0</ele><time>2026-03-24T14:54:42.999Z</time></trkpt><trkpt lat="45.56360247815732" lon="10.156926238934703"><ele>134.0</ele><time>2026-03-24T14:54:44.999Z</time></trkpt><trkpt lat="45.563710549639126" lon="10.156956647962675"><ele>134.0</ele><time>2026-03-24T14:54:46.999Z</time></trkpt><trkpt lat="45.56381573215189" lon="10.156989601902804"><ele>134.0</ele><time>2026-03-24T14:54:48.999Z</time></trkpt><trkpt lat="45.56392232375515" lon="10.157018921144944"><ele>134.0</ele><time>2026-03-24T14:54:50.999Z</time></trkpt><trkpt lat="45.56402951086546" lon="10.157051475289537"><ele>134.0</ele><time>2026-03-24T14:54:52.999Z</time></trkpt><trkpt lat="45.564132555926456" lon="10.157086291971062"><ele>134.0</ele><time>2026-03-24T14:54:54.999Z</time></trkpt><trkpt lat="45.5642412826335" lon="10.1571176363202"><ele>134.0</ele><time>2026-03-24T14:54:56.999Z</time></trkpt><trkpt lat="45.56434634862236" lon="10.157151323092348"><ele>134.0</ele><time>2026-03-24T14:54:58.999Z</time></trkpt><trkpt lat="45.564453173583644" lon="10.157179383185113"><ele>134.0</ele><time>2026-03-24T14:55:00.999Z</time></trkpt><trkpt lat="45.564563898094725" lon="10.157208012524471"><ele>134.0</ele><time>2026-03-24T14:55:02.999Z</time></trkpt><trkpt lat="45.5646769281196" lon="10.15723807567613"><ele>134.0</ele><time>2026-03-24T14:55:04.999Z</time></trkpt><trkpt lat="45.5647835281371" lon="10.157259140320205"><ele>134.0</ele><time>2026-03-24T14:55:06.999Z</time></trkpt><trkpt lat="45.564892923567896" lon="10.15728256802442"><ele>134.0</ele><time>2026-03-24T14:55:08.999Z</time></trkpt><trkpt lat="45.565003080121606" lon="10.157297314613272"><ele>134.0</ele><time>2026-03-24T14:55:10.999Z</time></trkpt><trkpt lat="45.56510769902406" lon="10.157301926975716"><ele>134.0</ele><time>2026-03-24T14:55:12.999Z</time></trkpt><trkpt lat="45.565212003018104" lon="10.157313192907981"><ele>134.0</ele><time>2026-03-24T14:55:14.999Z</time></trkpt><trkpt lat="45.56531436960463" lon="10.157322140712937"><ele>134.0</ele><time>2026-03-24T14:55:16.999Z</time></trkpt><trkpt lat="45.565420624488496" lon="10.157329608555324"><ele>134.0</ele><time>2026-03-24T14:55:18.999Z</time></trkpt><trkpt lat="45.56552403329072" lon="10.157340604872925"><ele>133.8</ele><time>2026-03-24T14:55:20.999Z</time></trkpt><trkpt lat="45.56562918106427" lon="10.157351614883506"><ele>133.60000000000002</ele><time>2026-03-24T14:55:22.999Z</time></trkpt><trkpt lat="45.56573525212375" lon="10.157362458701602"><ele>133.4</ele><time>2026-03-24T14:55:24.999Z</time></trkpt><trkpt lat="45.56583904945749" lon="10.157366611025127"><ele>133.20000000000002</ele><time>2026-03-24T14:55:26.999Z</time></trkpt><trkpt lat="45.56594168148903" lon="10.157374790458313"><ele>133.0</ele><time>2026-03-24T14:55:28.999Z</time></trkpt><trkpt lat="45.56604393800385" lon="10.157377210605715"><ele>133.0</ele><time>2026-03-24T14:55:30.999Z</time></trkpt><trkpt lat="45.566146478107505" lon="10.157373983298534"><ele>133.0</ele><time>2026-03-24T14:55:33Z</time></trkpt><trkpt lat="45.56625250754615" lon="10.157382843408236"><ele>133.0</ele><time>2026-03-24T14:55:35Z</time></trkpt><trkpt lat="45.56635640614957" lon="10.15740450146065"><ele>133.0</ele><time>2026-03-24T14:55:37Z</time></trkpt><trkpt lat="45.56646561909616" lon="10.157413641711214"><ele>133.0</ele><time>2026-03-24T14:55:39Z</time></trkpt><trkpt lat="45.56657496823007" lon="10.157418616925336"><ele>133.20000000000002</ele><time>2026-03-24T14:55:41Z</time></trkpt><trkpt lat="45.566685682137376" lon="10.15742660540002"><ele>133.4</ele><time>2026-03-24T14:55:43Z</time></trkpt><trkpt lat="45.566794899430846" lon="10.157435149512487"><ele>133.60000000000002</ele><time>2026-03-24T14:55:45Z</time></trkpt><trkpt lat="45.56690168983318" lon="10.157441931358285"><ele>133.8</ele><time>2026-03-24T14:55:47Z</time></trkpt><trkpt lat="45.56701322729651" lon="10.157444981299829"><ele>134.0</ele><time>2026-03-24T14:55:49Z</time></trkpt><trkpt lat="45.56712160602742" lon="10.157449450592852"><ele>134.2</ele><time>2026-03-24T14:55:51Z</time></trkpt><trkpt lat="45.567223163222096" lon="10.157460004725786"><ele>134.4</ele><time>2026-03-24T14:55:53Z</time></trkpt><trkpt lat="45.56731642987594" lon="10.15746918540237"><ele>134.6</ele><time>2026-03-24T14:55:55Z</time></trkpt><trkpt lat="45.56740974946348" lon="10.157472752010246"><ele>134.8</ele><time>2026-03-24T14:55:57Z</time></trkpt><trkpt lat="45.56750242943534" lon="10.157481748231929"><ele>135.0</ele><time>2026-03-24T14:55:59Z</time></trkpt><trkpt lat="45.567594777391314" lon="10.157503543931425"><ele>135.0</ele><time>2026-03-24T14:56:01Z</time></trkpt><trkpt lat="45.56768806576117" lon="10.157510646405923"><ele>135.0</ele><time>2026-03-24T14:56:03Z</time></trkpt><trkpt lat="45.567782652328624" lon="10.15751721635997"><ele>135.0</ele><time>2026-03-24T14:56:04.999Z</time></trkpt><trkpt lat="45.56787685984224" lon="10.157525419294792"><ele>135.0</ele><time>2026-03-24T14:56:06.999Z</time></trkpt><trkpt lat="45.56797047012533" lon="10.157523802648699"><ele>135.0</ele><time>2026-03-24T14:56:08.999Z</time></trkpt><trkpt lat="45.568057939437494" lon="10.157532306256241"><ele>134.6</ele><time>2026-03-24T14:56:10.999Z</time></trkpt><trkpt lat="45.56814504087989" lon="10.157567974595372"><ele>134.2</ele><time>2026-03-24T14:56:12.999Z</time></trkpt><trkpt lat="45.56823614022172" lon="10.15756545723702"><ele>133.8</ele><time>2026-03-24T14:56:14.999Z</time></trkpt><trkpt lat="45.568330196476346" lon="10.157559364161253"><ele>133.4</ele><time>2026-03-24T14:56:16.999Z</time></trkpt><trkpt lat="45.56842782008632" lon="10.157550980404917"><ele>133.0</ele><time>2026-03-24T14:56:18.999Z</time></trkpt><trkpt lat="45.56852535998441" lon="10.15756312094775"><ele>133.0</ele><time>2026-03-24T14:56:20.999Z</time></trkpt><trkpt lat="45.568623068920395" lon="10.157569290503483"><ele>133.0</ele><time>2026-03-24T14:56:22.999Z</time></trkpt><trkpt lat="45.56872058451119" lon="10.157572232605782"><ele>133.0</ele><time>2026-03-24T14:56:24.999Z</time></trkpt><trkpt lat="45.56881717824063" lon="10.157567611920047"><ele>133.0</ele><time>2026-03-24T14:56:26.999Z</time></trkpt><trkpt lat="45.56891677730708" lon="10.157577352661468"><ele>133.0</ele><time>2026-03-24T14:56:28.999Z</time></trkpt><trkpt lat="45.5690129243615" lon="10.157594611351117"><ele>133.6</ele><time>2026-03-24T14:56:30.999Z</time></trkpt><trkpt lat="45.56910872568923" lon="10.157598016557547"><ele>134.20000000000002</ele><time>2026-03-24T14:56:32.999Z</time></trkpt><trkpt lat="45.56921118278845" lon="10.157603479923011"><ele>134.8</ele><time>2026-03-24T14:56:34.999Z</time></trkpt><trkpt lat="45.56930959031594" lon="10.157613481692646"><ele>135.4</ele><time>2026-03-24T14:56:36.999Z</time></trkpt><trkpt lat="45.569404925112664" lon="10.157622486472558"><ele>136.0</ele><time>2026-03-24T14:56:39Z</time></trkpt><trkpt lat="45.56950536733327" lon="10.157624217580182"><ele>136.0</ele><time>2026-03-24T14:56:41Z</time></trkpt><trkpt lat="45.56959977648865" lon="10.157624771869493"><ele>136.0</ele><time>2026-03-24T14:56:43Z</time></trkpt><trkpt lat="45.56970136831499" lon="10.157623134612665"><ele>136.0</ele><time>2026-03-24T14:56:45Z</time></trkpt><trkpt lat="45.56980296315261" lon="10.157634634171842"><ele>136.0</ele><time>2026-03-24T14:56:47Z</time></trkpt><trkpt lat="45.56989903712041" lon="10.157631127590651"><ele>136.0</ele><time>2026-03-24T14:56:49Z</time></trkpt><trkpt lat="45.56999533445986" lon="10.157616611255955"><ele>136.0</ele><time>2026-03-24T14:56:51Z</time></trkpt><trkpt lat="45.57009386039709" lon="10.157602323404475"><ele>136.0</ele><time>2026-03-24T14:56:53Z</time></trkpt><trkpt lat="45.57019178787516" lon="10.157585617578317"><ele>136.0</ele><time>2026-03-24T14:56:55Z</time></trkpt><trkpt lat="45.57028903048284" lon="10.157564953736856"><ele>136.0</ele><time>2026-03-24T14:56:57Z</time></trkpt><trkpt lat="45.57038561323115" lon="10.157541823038292"><ele>136.0</ele><time>2026-03-24T14:56:59Z</time></trkpt><trkpt lat="45.57048456333026" lon="10.157520611004216"><ele>135.6</ele><time>2026-03-24T14:57:01Z</time></trkpt><trkpt lat="45.570582877827505" lon="10.157501965047738"><ele>135.2</ele><time>2026-03-24T14:57:03Z</time></trkpt><trkpt lat="45.57068228289396" lon="10.157474428142981"><ele>134.8</ele><time>2026-03-24T14:57:05Z</time></trkpt><trkpt lat="45.57078133724313" lon="10.157455287260541"><ele>134.4</ele><time>2026-03-24T14:57:07Z</time></trkpt><trkpt lat="45.57087784105164" lon="10.157431106202527"><ele>134.0</ele><time>2026-03-24T14:57:09Z</time></trkpt><trkpt lat="45.57097443801045" lon="10.157407234340006"><ele>134.0</ele><time>2026-03-24T14:57:11Z</time></trkpt><trkpt lat="45.57107290864375" lon="10.157388414393587"><ele>134.0</ele><time>2026-03-24T14:57:13Z</time></trkpt><trkpt lat="45.57116955222784" lon="10.157370458523033"><ele>134.0</ele><time>2026-03-24T14:57:15Z</time></trkpt><trkpt lat="45.57126132323761" lon="10.157353424397092"><ele>134.0</ele><time>2026-03-24T14:57:17Z</time></trkpt><trkpt lat="45.57134142370579" lon="10.157336155842629"><ele>134.0</ele><time>2026-03-24T14:57:19Z</time></trkpt><trkpt lat="45.57141844343813" lon="10.157311914311846"><ele>134.0</ele><time>2026-03-24T14:57:21Z</time></trkpt><trkpt lat="45.57150564654935" lon="10.157291492905017"><ele>134.6</ele><time>2026-03-24T14:57:23Z</time></trkpt><trkpt lat="45.571596946839755" lon="10.157274531364122"><ele>135.2</ele><time>2026-03-24T14:57:25Z</time></trkpt><trkpt lat="45.57168766224053" lon="10.157252844313467"><ele>135.79999999999998</ele><time>2026-03-24T14:57:27Z</time></trkpt><trkpt lat="45.571781664796006" lon="10.157231801832367"><ele>136.4</ele><time>2026-03-24T14:57:29Z</time></trkpt><trkpt lat="45.5718749659885" lon="10.157213854732776"><ele>137.0</ele><time>2026-03-24T14:57:31Z</time></trkpt><trkpt lat="45.571969696052854" lon="10.15719516858567"><ele>137.33333333333331</ele><time>2026-03-24T14:57:33Z</time></trkpt><trkpt lat="45.572055223772466" lon="10.15718414550168"><ele>137.66666666666666</ele><time>2026-03-24T14:57:35Z</time></trkpt><trkpt lat="45.572133012804805" lon="10.157163359205146"><ele>138.0</ele><time>2026-03-24T14:57:37Z</time></trkpt><trkpt lat="45.57222146560819" lon="10.15715009129098"><ele>138.33333333333334</ele><time>2026-03-24T14:57:39Z</time></trkpt><trkpt lat="45.572310500253636" lon="10.157137330997426"><ele>138.66666666666669</ele><time>2026-03-24T14:57:41Z</time></trkpt><trkpt lat="45.572401920844534" lon="10.157119440733002"><ele>139.0</ele><time>2026-03-24T14:57:43Z</time></trkpt><trkpt lat="45.57249420300206" lon="10.157103930350685"><ele>139.0</ele><time>2026-03-24T14:57:45Z</time></trkpt><trkpt lat="45.57258655792459" lon="10.157090631909169"><ele>139.0</ele><time>2026-03-24T14:57:47Z</time></trkpt><trkpt lat="45.57268080897464" lon="10.157071382270367"><ele>139.0</ele><time>2026-03-24T14:57:49Z</time></trkpt><trkpt lat="45.5727760111288" lon="10.157058252462596"><ele>139.0</ele><time>2026-03-24T14:57:51Z</time></trkpt><trkpt lat="45.5728691566602" lon="10.157045146240469"><ele>139.0</ele><time>2026-03-24T14:57:53Z</time></trkpt><trkpt lat="45.57296377466825" lon="10.157017414255193"><ele>139.4</ele><time>2026-03-24T14:57:55Z</time></trkpt><trkpt lat="45.57305975384362" lon="10.15699522669464"><ele>139.8</ele><time>2026-03-24T14:57:57Z</time></trkpt><trkpt lat="45.573160114999276" lon="10.156985584690352"><ele>140.2</ele><time>2026-03-24T14:57:59Z</time></trkpt><trkpt lat="45.57326141122786" lon="10.156972454805603"><ele>140.6</ele><time>2026-03-24T14:58:01Z</time></trkpt><trkpt lat="45.57336428539631" lon="10.156957070684381"><ele>141.0</ele><time>2026-03-24T14:58:03Z</time></trkpt><trkpt lat="45.57346598059782" lon="10.15694488880895"><ele>141.0</ele><time>2026-03-24T14:58:05Z</time></trkpt><trkpt lat="45.57357042012676" lon="10.15693240032701"><ele>141.0</ele><time>2026-03-24T14:58:07Z</time></trkpt><trkpt lat="45.57367775250151" lon="10.156910516916833"><ele>141.0</ele><time>2026-03-24T14:58:09Z</time></trkpt><trkpt lat="45.573782810688535" lon="10.156889388452418"><ele>141.0</ele><time>2026-03-24T14:58:11Z</time></trkpt><trkpt lat="45.57389335254176" lon="10.156875651205898"><ele>141.0</ele><time>2026-03-24T14:58:13Z</time></trkpt><trkpt lat="45.574004499844534" lon="10.15686145654469"><ele>141.0</ele><time>2026-03-24T14:58:14.999Z</time></trkpt><trkpt lat="45.57411230907969" lon="10.156841156453789"><ele>141.0</ele><time>2026-03-24T14:58:16.999Z</time></trkpt><trkpt lat="45.57422494981913" lon="10.156830229559656"><ele>141.0</ele><time>2026-03-24T14:58:18.999Z</time></trkpt><trkpt lat="45.5743389110983" lon="10.156813649230527"><ele>141.0</ele><time>2026-03-24T14:58:20.999Z</time></trkpt><trkpt lat="45.57445043634507" lon="10.156800587494082"><ele>141.0</ele><time>2026-03-24T14:58:22.999Z</time></trkpt><trkpt lat="45.57456188870489" lon="10.15679071089216"><ele>141.4</ele><time>2026-03-24T14:58:24.999Z</time></trkpt><trkpt lat="45.574675973139406" lon="10.156778838823625"><ele>141.8</ele><time>2026-03-24T14:58:26.999Z</time></trkpt><trkpt lat="45.574787237587294" lon="10.156768443609709"><ele>142.20000000000002</ele><time>2026-03-24T14:58:28.999Z</time></trkpt><trkpt lat="45.57489687821554" lon="10.156759583806695"><ele>142.6</ele><time>2026-03-24T14:58:30.999Z</time></trkpt><trkpt lat="45.57500695068118" lon="10.156746252568484"><ele>143.0</ele><time>2026-03-24T14:58:32.999Z</time></trkpt><trkpt lat="45.57511591949192" lon="10.156736330195725"><ele>143.0</ele><time>2026-03-24T14:58:34.999Z</time></trkpt><trkpt lat="45.575226912762105" lon="10.156727720700164"><ele>143.0</ele><time>2026-03-24T14:58:36.999Z</time></trkpt><trkpt lat="45.575335090252025" lon="10.156716150753272"><ele>143.0</ele><time>2026-03-24T14:58:38.999Z</time></trkpt><trkpt lat="45.575444757508365" lon="10.156704920801374"><ele>143.0</ele><time>2026-03-24T14:58:40.999Z</time></trkpt><trkpt lat="45.57555649687473" lon="10.156692771044778"><ele>143.0</ele><time>2026-03-24T14:58:42.999Z</time></trkpt><trkpt lat="45.57566971127375" lon="10.15668279196813"><ele>143.0</ele><time>2026-03-24T14:58:45.001Z</time></trkpt><trkpt lat="45.57577928955754" lon="10.15666913808809"><ele>143.0</ele><time>2026-03-24T14:58:47.001Z</time></trkpt><trkpt lat="45.575887278841314" lon="10.156653847128"><ele>143.0</ele><time>2026-03-24T14:58:49.001Z</time></trkpt><trkpt lat="45.57599508513084" lon="10.156668510043279"><ele>143.0</ele><time>2026-03-24T14:58:51.001Z</time></trkpt><trkpt lat="45.57609674811488" lon="10.156695792936594"><ele>143.0</ele><time>2026-03-24T14:58:53.001Z</time></trkpt><trkpt lat="45.57620224771622" lon="10.156644986861533"><ele>143.6</ele><time>2026-03-24T14:58:55.001Z</time></trkpt><trkpt lat="45.576311849943195" lon="10.156641848279731"><ele>144.20000000000002</ele><time>2026-03-24T14:58:57.001Z</time></trkpt><trkpt lat="45.576422587085275" lon="10.15665111951265"><ele>144.8</ele><time>2026-03-24T14:58:59Z</time></trkpt><trkpt lat="45.576532533731914" lon="10.156665546672556"><ele>145.4</ele><time>2026-03-24T14:59:01Z</time></trkpt><trkpt lat="45.57664258277095" lon="10.156677814016328"><ele>146.0</ele><time>2026-03-24T14:59:03Z</time></trkpt><trkpt lat="45.576746813907434" lon="10.156690393969136"><ele>146.0</ele><time>2026-03-24T14:59:05Z</time></trkpt><trkpt lat="45.57685705011742" lon="10.156702962762147"><ele>146.0</ele><time>2026-03-24T14:59:07Z</time></trkpt><trkpt lat="45.576966560327236" lon="10.156713215831312"><ele>146.0</ele><time>2026-03-24T14:59:09Z</time></trkpt><trkpt lat="45.57707500971259" lon="10.156725937938955"><ele>146.0</ele><time>2026-03-24T14:59:11Z</time></trkpt><trkpt lat="45.57718510024042" lon="10.156737327722636"><ele>146.0</ele><time>2026-03-24T14:59:13Z</time></trkpt><trkpt lat="45.577281637844806" lon="10.156752423502525"><ele>146.0</ele><time>2026-03-24T14:59:15Z</time></trkpt><trkpt lat="45.57739404623428" lon="10.156760447285416"><ele>146.0</ele><time>2026-03-24T14:59:17Z</time></trkpt><trkpt lat="45.577499127939376" lon="10.156771897360763"><ele>146.0</ele><time>2026-03-24T14:59:19Z</time></trkpt><trkpt lat="45.57759974227819" lon="10.156784690102635"><ele>146.0</ele><time>2026-03-24T14:59:21Z</time></trkpt><trkpt lat="45.57770244468085" lon="10.156793763108094"><ele>146.0</ele><time>2026-03-24T14:59:23Z</time></trkpt><trkpt lat="45.5778023838256" lon="10.156801691429719"><ele>146.4</ele><time>2026-03-24T14:59:25Z</time></trkpt><trkpt lat="45.57790147834191" lon="10.156817430172747"><ele>146.8</ele><time>2026-03-24T14:59:27Z</time></trkpt><trkpt lat="45.57800457928327" lon="10.156825569184246"><ele>147.20000000000002</ele><time>2026-03-24T14:59:29Z</time></trkpt><trkpt lat="45.57810729008527" lon="10.15684402310989"><ele>147.6</ele><time>2026-03-24T14:59:31Z</time></trkpt><trkpt lat="45.57819589455375" lon="10.15692116378432"><ele>148.0</ele><time>2026-03-24T14:59:33Z</time></trkpt><trkpt lat="45.57829832302205" lon="10.156927888999768"><ele>148.0</ele><time>2026-03-24T14:59:35Z</time></trkpt><trkpt lat="45.5784002829344" lon="10.1568845742994"><ele>148.0</ele><time>2026-03-24T14:59:37Z</time></trkpt><trkpt lat="45.57850375909612" lon="10.156904819105742"><ele>148.0</ele><time>2026-03-24T14:59:39Z</time></trkpt><trkpt lat="45.57860497031249" lon="10.156938773976853"><ele>148.0</ele><time>2026-03-24T14:59:41Z</time></trkpt><trkpt lat="45.57870514312268" lon="10.156970985186943"><ele>148.0</ele><time>2026-03-24T14:59:43Z</time></trkpt><trkpt lat="45.57881027130016" lon="10.157004540882877"><ele>148.0</ele><time>2026-03-24T14:59:45Z</time></trkpt><trkpt lat="45.578912536562086" lon="10.157041033501084"><ele>148.0</ele><time>2026-03-24T14:59:47Z</time></trkpt><trkpt lat="45.579014120294985" lon="10.157088862346658"><ele>148.0</ele><time>2026-03-24T14:59:49Z</time></trkpt><trkpt lat="45.579114617543325" lon="10.157141859640713"><ele>148.0</ele><time>2026-03-24T14:59:51Z</time></trkpt><trkpt lat="45.57921459976499" lon="10.157190752764254"><ele>148.0</ele><time>2026-03-24T14:59:53Z</time></trkpt><trkpt lat="45.57931128973909" lon="10.157236644730705"><ele>148.0</ele><time>2026-03-24T14:59:55Z</time></trkpt><trkpt lat="45.579411178244946" lon="10.157280597264528"><ele>148.0</ele><time>2026-03-24T14:59:57Z</time></trkpt><trkpt lat="45.579513619294254" lon="10.157323027035735"><ele>148.0</ele><time>2026-03-24T14:59:59Z</time></trkpt><trkpt lat="45.57962146056617" lon="10.157355975196374"><ele>148.0</ele><time>2026-03-24T15:00:01Z</time></trkpt><trkpt lat="45.57972772042628" lon="10.157387525810213"><ele>148.0</ele><time>2026-03-24T15:00:03Z</time></trkpt><trkpt lat="45.5798363691921" lon="10.15741699399022"><ele>148.5</ele><time>2026-03-24T15:00:05Z</time></trkpt><trkpt lat="45.57994808121156" lon="10.15744516979218"><ele>149.0</ele><time>2026-03-24T15:00:07Z</time></trkpt><trkpt lat="45.58006229224674" lon="10.157480358140413"><ele>149.5</ele><time>2026-03-24T15:00:09Z</time></trkpt><trkpt lat="45.5801692775395" lon="10.157511527029541"><ele>150.0</ele><time>2026-03-24T15:00:11Z</time></trkpt><trkpt lat="45.58027903366837" lon="10.157539487840264"><ele>150.0</ele><time>2026-03-24T15:00:12.999Z</time></trkpt><trkpt lat="45.580387250094724" lon="10.157564049405588"><ele>150.0</ele><time>2026-03-24T15:00:14.999Z</time></trkpt><trkpt lat="45.580491378664995" lon="10.157599459144986"><ele>150.0</ele><time>2026-03-24T15:00:16.999Z</time></trkpt><trkpt lat="45.580582244458014" lon="10.157650693903358"><ele>150.0</ele><time>2026-03-24T15:00:18.999Z</time></trkpt><trkpt lat="45.58068119597853" lon="10.157666017470108"><ele>150.0</ele><time>2026-03-24T15:00:20.999Z</time></trkpt><trkpt lat="45.58078016306651" lon="10.157690904068808"><ele>150.0</ele><time>2026-03-24T15:00:22.999Z</time></trkpt><trkpt lat="45.5808754631523" lon="10.157709938237282"><ele>150.0</ele><time>2026-03-24T15:00:24.999Z</time></trkpt><trkpt lat="45.58097190162101" lon="10.15771551564087"><ele>150.0</ele><time>2026-03-24T15:00:26.999Z</time></trkpt><trkpt lat="45.581072390878894" lon="10.157713251533654"><ele>150.0</ele><time>2026-03-24T15:00:28.999Z</time></trkpt><trkpt lat="45.5811727600422" lon="10.15774168904038"><ele>150.0</ele><time>2026-03-24T15:00:30.999Z</time></trkpt><trkpt lat="45.581274471028955" lon="10.1577628201346"><ele>150.4</ele><time>2026-03-24T15:00:32.999Z</time></trkpt><trkpt lat="45.581381830324084" lon="10.157785236201835"><ele>150.8</ele><time>2026-03-24T15:00:34.999Z</time></trkpt><trkpt lat="45.58148546242709" lon="10.157811488139654"><ele>151.2</ele><time>2026-03-24T15:00:36.999Z</time></trkpt><trkpt lat="45.58158516121246" lon="10.157835449946145"><ele>151.6</ele><time>2026-03-24T15:00:38.999Z</time></trkpt><trkpt lat="45.581685221765184" lon="10.157856385879363"><ele>152.0</ele><time>2026-03-24T15:00:40.999Z</time></trkpt><trkpt lat="45.581784254277636" lon="10.157880521248456"><ele>152.0</ele><time>2026-03-24T15:00:42.999Z</time></trkpt><trkpt lat="45.581882094284765" lon="10.157903406670902"><ele>152.0</ele><time>2026-03-24T15:00:44.999Z</time></trkpt><trkpt lat="45.58197864973646" lon="10.157928267423221"><ele>152.0</ele><time>2026-03-24T15:00:46.999Z</time></trkpt><trkpt lat="45.5820734888681" lon="10.157950022427807"><ele>152.0</ele><time>2026-03-24T15:00:48.999Z</time></trkpt><trkpt lat="45.582168500151134" lon="10.157969721142956"><ele>152.0</ele><time>2026-03-24T15:00:51Z</time></trkpt><trkpt lat="45.58226087400773" lon="10.157993910728914"><ele>152.6</ele><time>2026-03-24T15:00:53Z</time></trkpt><trkpt lat="45.582351474368195" lon="10.158016680320324"><ele>153.2</ele><time>2026-03-24T15:00:55Z</time></trkpt><trkpt lat="45.582443255182305" lon="10.158034665443779"><ele>153.8</ele><time>2026-03-24T15:00:57Z</time></trkpt><trkpt lat="45.58253386043843" lon="10.158057744691861"><ele>154.4</ele><time>2026-03-24T15:00:59Z</time></trkpt><trkpt lat="45.58262714588507" lon="10.158083707822334"><ele>155.0</ele><time>2026-03-24T15:01:01Z</time></trkpt><trkpt lat="45.58271758920855" lon="10.158109996958574"><ele>155.0</ele><time>2026-03-24T15:01:03Z</time></trkpt><trkpt lat="45.582804457771275" lon="10.158138047142005"><ele>155.0</ele><time>2026-03-24T15:01:05Z</time></trkpt><trkpt lat="45.58288473046136" lon="10.158163598027238"><ele>155.0</ele><time>2026-03-24T15:01:07Z</time></trkpt><trkpt lat="45.58296370555918" lon="10.158185285524004"><ele>155.0</ele><time>2026-03-24T15:01:09Z</time></trkpt><trkpt lat="45.58304341832473" lon="10.158210117359674"><ele>155.0</ele><time>2026-03-24T15:01:11Z</time></trkpt><trkpt lat="45.58311587376553" lon="10.158262789752593"><ele>155.0</ele><time>2026-03-24T15:01:13Z</time></trkpt><trkpt lat="45.58315436482701" lon="10.158375822633321"><ele>155.33333333333331</ele><time>2026-03-24T15:01:15Z</time></trkpt><trkpt lat="45.58316280181845" lon="10.158500989373504"><ele>155.66666666666666</ele><time>2026-03-24T15:01:17Z</time></trkpt><trkpt lat="45.58321038675473" lon="10.158610567934725"><ele>156.0</ele><time>2026-03-24T15:01:19Z</time></trkpt><trkpt lat="45.58329218749302" lon="10.15863806430727"><ele>156.33333333333334</ele><time>2026-03-24T15:01:21Z</time></trkpt><trkpt lat="45.5833609668693" lon="10.158654994455922"><ele>156.66666666666669</ele><time>2026-03-24T15:01:23Z</time></trkpt><trkpt lat="45.58343650448938" lon="10.158629952059107"><ele>157.0</ele><time>2026-03-24T15:01:25Z</time></trkpt><trkpt lat="45.58352742934004" lon="10.158703794524412"><ele>157.0</ele><time>2026-03-24T15:01:27Z</time></trkpt><trkpt lat="45.58360924783404" lon="10.158652695206701"><ele>157.0</ele><time>2026-03-24T15:01:29Z</time></trkpt><trkpt lat="45.58366780774711" lon="10.158545037525352"><ele>157.0</ele><time>2026-03-24T15:01:31Z</time></trkpt><trkpt lat="45.583719296410806" lon="10.15843240134896"><ele>157.0</ele><time>2026-03-24T15:01:33Z</time></trkpt><trkpt lat="45.58376954171824" lon="10.158313510849721"><ele>157.0</ele><time>2026-03-24T15:01:35Z</time></trkpt><trkpt lat="45.58382147641269" lon="10.15819687263599"><ele>157.2</ele><time>2026-03-24T15:01:37Z</time></trkpt><trkpt lat="45.58387730679083" lon="10.158081560243298"><ele>157.39999999999998</ele><time>2026-03-24T15:01:39Z</time></trkpt><trkpt lat="45.58392998636863" lon="10.157963066646928"><ele>157.60000000000002</ele><time>2026-03-24T15:01:41Z</time></trkpt><trkpt lat="45.5839834931006" lon="10.157845225913979"><ele>157.8</ele><time>2026-03-24T15:01:43Z</time></trkpt><trkpt lat="45.58403759197117" lon="10.157726524110217"><ele>158.0</ele><time>2026-03-24T15:01:45Z</time></trkpt><trkpt lat="45.584091346737424" lon="10.157606415398009"><ele>158.0</ele><time>2026-03-24T15:01:47Z</time></trkpt><trkpt lat="45.58414263788559" lon="10.15748624883538"><ele>158.0</ele><time>2026-03-24T15:01:49Z</time></trkpt><trkpt lat="45.58419750220105" lon="10.15736472867055"><ele>158.0</ele><time>2026-03-24T15:01:51Z</time></trkpt><trkpt lat="45.58425040890114" lon="10.157240760361843"><ele>158.0</ele><time>2026-03-24T15:01:53Z</time></trkpt><trkpt lat="45.584307641150666" lon="10.157121397534334"><ele>158.0</ele><time>2026-03-24T15:01:55Z</time></trkpt><trkpt lat="45.584360254040064" lon="10.156994909616543"><ele>158.0</ele><time>2026-03-24T15:01:57Z</time></trkpt><trkpt lat="45.58441429697643" lon="10.156874442846645"><ele>158.0</ele><time>2026-03-24T15:01:59Z</time></trkpt><trkpt lat="45.584466978063155" lon="10.156751080655678"><ele>158.0</ele><time>2026-03-24T15:02:01Z</time></trkpt><trkpt lat="45.5845220247927" lon="10.156629194937851"><ele>158.0</ele><time>2026-03-24T15:02:03Z</time></trkpt><trkpt lat="45.58458188729537" lon="10.156504874259449"><ele>158.0</ele><time>2026-03-24T15:02:05Z</time></trkpt><trkpt lat="45.58464009661257" lon="10.15638109814558"><ele>158.20000000000002</ele><time>2026-03-24T15:02:07Z</time></trkpt><trkpt lat="45.58471822791179" lon="10.15628040428774"><ele>158.4</ele><time>2026-03-24T15:02:09Z</time></trkpt><trkpt lat="45.58481445137526" lon="10.156215395255055"><ele>158.60000000000002</ele><time>2026-03-24T15:02:11Z</time></trkpt><trkpt lat="45.58490238918035" lon="10.156159907534834"><ele>158.8</ele><time>2026-03-24T15:02:13Z</time></trkpt><trkpt lat="45.58496623210839" lon="10.15621311513591"><ele>159.0</ele><time>2026-03-24T15:02:14Z</time></trkpt><trkpt lat="45.58506303861016" lon="10.156214581930222"><ele>159.0</ele><time>2026-03-24T15:02:16Z</time></trkpt><trkpt lat="45.5851601401408" lon="10.156226875950626"><ele>159.0</ele><time>2026-03-24T15:02:18Z</time></trkpt><trkpt lat="45.58525931816255" lon="10.156232672504963"><ele>159.0</ele><time>2026-03-24T15:02:20Z</time></trkpt><trkpt lat="45.58536034749803" lon="10.156232237194777"><ele>159.0</ele><time>2026-03-24T15:02:22Z</time></trkpt><trkpt lat="45.585453457633974" lon="10.156232456996124"><ele>159.0</ele><time>2026-03-24T15:02:23.999Z</time></trkpt><trkpt lat="45.58555051027156" lon="10.156227205630698"><ele>159.4</ele><time>2026-03-24T15:02:25.999Z</time></trkpt><trkpt lat="45.5856495493537" lon="10.156224863691634"><ele>159.8</ele><time>2026-03-24T15:02:27.999Z</time></trkpt><trkpt lat="45.58574910419373" lon="10.15622702998965"><ele>160.20000000000002</ele><time>2026-03-24T15:02:29.999Z</time></trkpt><trkpt lat="45.58583352674734" lon="10.156240373777926"><ele>160.60000000000002</ele><time>2026-03-24T15:02:31.999Z</time></trkpt><trkpt lat="45.58592234141361" lon="10.156220610869557"><ele>161.0</ele><time>2026-03-24T15:02:33.999Z</time></trkpt><trkpt lat="45.58599991306362" lon="10.156244490531444"><ele>161.0</ele><time>2026-03-24T15:02:35.999Z</time></trkpt><trkpt lat="45.58597847268988" lon="10.156407040772145"><ele>161.0</ele><time>2026-03-24T15:02:36.999Z</time></trkpt><trkpt lat="45.58597064929631" lon="10.156523740246731"><ele>161.0</ele><time>2026-03-24T15:02:38.999Z</time></trkpt><trkpt lat="45.58600890327783" lon="10.156628528250591"><ele>161.0</ele><time>2026-03-24T15:02:40.999Z</time></trkpt><trkpt lat="45.58596476718285" lon="10.156698744036206"><ele>161.0</ele><time>2026-03-24T15:02:41.999Z</time></trkpt><trkpt lat="45.585913312505696" lon="10.156794406918113"><ele>161.0</ele><time>2026-03-24T15:02:43.999Z</time></trkpt><trkpt lat="45.58582832635544" lon="10.156841176088818"><ele>161.20000000000002</ele><time>2026-03-24T15:02:45.999Z</time></trkpt><trkpt lat="45.585746344442676" lon="10.156889325934944"><ele>161.4</ele><time>2026-03-24T15:02:47.999Z</time></trkpt><trkpt lat="45.58566622548073" lon="10.156944392940881"><ele>161.6</ele><time>2026-03-24T15:02:49.999Z</time></trkpt><trkpt lat="45.58559134374742" lon="10.157006719748201"><ele>161.8</ele><time>2026-03-24T15:02:51.999Z</time></trkpt><trkpt lat="45.58551014767945" lon="10.157071383771358"><ele>162.0</ele><time>2026-03-24T15:02:53.999Z</time></trkpt><trkpt lat="45.58543061255535" lon="10.157140152914472"><ele>162.0</ele><time>2026-03-24T15:02:56.001Z</time></trkpt><trkpt lat="45.58535781332544" lon="10.157210139103839"><ele>162.0</ele><time>2026-03-24T15:02:58.001Z</time></trkpt><trkpt lat="45.58528334598002" lon="10.157295958012124"><ele>162.0</ele><time>2026-03-24T15:03:00.001Z</time></trkpt><trkpt lat="45.58520320624811" lon="10.157386141519858"><ele>162.0</ele><time>2026-03-24T15:03:02.001Z</time></trkpt><trkpt lat="45.58512394476855" lon="10.157482391945047"><ele>162.0</ele><time>2026-03-24T15:03:04Z</time></trkpt><trkpt lat="45.585042259342416" lon="10.157587906850358"><ele>161.25</ele><time>2026-03-24T15:03:06.001Z</time></trkpt><trkpt lat="45.58496354623185" lon="10.157701209398422"><ele>160.5</ele><time>2026-03-24T15:03:08Z</time></trkpt><trkpt lat="45.58488584264582" lon="10.157822135954707"><ele>159.75</ele><time>2026-03-24T15:03:10Z</time></trkpt><trkpt lat="45.58481646812775" lon="10.15794805849807"><ele>159.0</ele><time>2026-03-24T15:03:12Z</time></trkpt><trkpt lat="45.5847423354856" lon="10.158069979861033"><ele>159.0</ele><time>2026-03-24T15:03:14Z</time></trkpt><trkpt lat="45.58467421478726" lon="10.158190354093584"><ele>159.0</ele><time>2026-03-24T15:03:16Z</time></trkpt><trkpt lat="45.58460548008271" lon="10.158311019146316"><ele>159.0</ele><time>2026-03-24T15:03:18Z</time></trkpt><trkpt lat="45.58453978719112" lon="10.158420689466176"><ele>159.0</ele><time>2026-03-24T15:03:20Z</time></trkpt><trkpt lat="45.5844767577013" lon="10.158537145474634"><ele>159.0</ele><time>2026-03-24T15:03:22Z</time></trkpt><trkpt lat="45.5844117108697" lon="10.158650552547313"><ele>158.8</ele><time>2026-03-24T15:03:24Z</time></trkpt><trkpt lat="45.58434716535376" lon="10.158761964132145"><ele>158.60000000000002</ele><time>2026-03-24T15:03:26Z</time></trkpt><trkpt lat="45.58428933086746" lon="10.158883379777828"><ele>158.4</ele><time>2026-03-24T15:03:28Z</time></trkpt><trkpt lat="45.58422256791322" lon="10.15900411688343"><ele>158.20000000000002</ele><time>2026-03-24T15:03:30Z</time></trkpt><trkpt lat="45.58414531158375" lon="10.159127705853216"><ele>158.0</ele><time>2026-03-24T15:03:32Z</time></trkpt><trkpt lat="45.5840687418376" lon="10.159263325616072"><ele>157.8</ele><time>2026-03-24T15:03:34Z</time></trkpt><trkpt lat="45.58398903220804" lon="10.159398038596844"><ele>157.60000000000002</ele><time>2026-03-24T15:03:36Z</time></trkpt><trkpt lat="45.58395000126131" lon="10.159469796225999"><ele>157.39999999999998</ele><time>2026-03-24T15:03:37Z</time></trkpt><trkpt lat="45.5838669785397" lon="10.159604618027444"><ele>157.2</ele><time>2026-03-24T15:03:39Z</time></trkpt><trkpt lat="45.58382701680958" lon="10.15967453512494"><ele>157.0</ele><time>2026-03-24T15:03:40Z</time></trkpt><trkpt lat="45.58374960691233" lon="10.159810141566515"><ele>157.0</ele><time>2026-03-24T15:03:42Z</time></trkpt><trkpt lat="45.58367132941548" lon="10.159942184874213"><ele>157.0</ele><time>2026-03-24T15:03:44Z</time></trkpt><trkpt lat="45.58362933389242" lon="10.160011841776111"><ele>157.0</ele><time>2026-03-24T15:03:45Z</time></trkpt><trkpt lat="45.58354845994742" lon="10.160149892299035"><ele>157.0</ele><time>2026-03-24T15:03:47Z</time></trkpt><trkpt lat="45.583467059140254" lon="10.160288256111754"><ele>157.0</ele><time>2026-03-24T15:03:49Z</time></trkpt><trkpt lat="45.583424534982576" lon="10.160357411992067"><ele>157.0</ele><time>2026-03-24T15:03:50Z</time></trkpt><trkpt lat="45.583342904563935" lon="10.160490496295767"><ele>157.0</ele><time>2026-03-24T15:03:52Z</time></trkpt><trkpt lat="45.58326407467659" lon="10.160631969654577"><ele>157.0</ele><time>2026-03-24T15:03:54Z</time></trkpt><trkpt lat="45.58318701846294" lon="10.160773903140452"><ele>157.0</ele><time>2026-03-24T15:03:56Z</time></trkpt><trkpt lat="45.5831113504832" lon="10.16091606148544"><ele>156.75</ele><time>2026-03-24T15:03:58Z</time></trkpt><trkpt lat="45.58304075734341" lon="10.161061057662259"><ele>156.5</ele><time>2026-03-24T15:04:00Z</time></trkpt><trkpt lat="45.582972771652784" lon="10.161206363085862"><ele>156.25</ele><time>2026-03-24T15:04:02Z</time></trkpt><trkpt lat="45.582909342312334" lon="10.161357164458275"><ele>156.0</ele><time>2026-03-24T15:04:04Z</time></trkpt><trkpt lat="45.58284518606293" lon="10.161510176654222"><ele>155.25</ele><time>2026-03-24T15:04:06Z</time></trkpt><trkpt lat="45.582780496354545" lon="10.161658388718832"><ele>154.5</ele><time>2026-03-24T15:04:08Z</time></trkpt><trkpt lat="45.582716813609274" lon="10.161813440513647"><ele>153.75</ele><time>2026-03-24T15:04:10Z</time></trkpt><trkpt lat="45.58265390978285" lon="10.161964517299076"><ele>153.0</ele><time>2026-03-24T15:04:12Z</time></trkpt><trkpt lat="45.582590341830795" lon="10.162116281207906"><ele>153.0</ele><time>2026-03-24T15:04:14Z</time></trkpt><trkpt lat="45.58253064688439" lon="10.162264978980268"><ele>153.0</ele><time>2026-03-24T15:04:16Z</time></trkpt><trkpt lat="45.582471061684764" lon="10.16241688850543"><ele>153.0</ele><time>2026-03-24T15:04:18Z</time></trkpt><trkpt lat="45.5824132294571" lon="10.162559557255756"><ele>153.0</ele><time>2026-03-24T15:04:20Z</time></trkpt><trkpt lat="45.58235453216723" lon="10.162688415860634"><ele>153.0</ele><time>2026-03-24T15:04:22Z</time></trkpt><trkpt lat="45.58227644935388" lon="10.16279940229174"><ele>153.0</ele><time>2026-03-24T15:04:23.999Z</time></trkpt><trkpt lat="45.582210656040864" lon="10.162912561914977"><ele>153.0</ele><time>2026-03-24T15:04:25.999Z</time></trkpt><trkpt lat="45.58219659693378" lon="10.163061586969492"><ele>153.0</ele><time>2026-03-24T15:04:27.999Z</time></trkpt><trkpt lat="45.58221349039574" lon="10.163223580723958"><ele>153.0</ele><time>2026-03-24T15:04:29.999Z</time></trkpt><trkpt lat="45.58221941454408" lon="10.163390878582458"><ele>153.0</ele><time>2026-03-24T15:04:31.999Z</time></trkpt><trkpt lat="45.582237418714506" lon="10.163562497568229"><ele>153.0</ele><time>2026-03-24T15:04:33.999Z</time></trkpt><trkpt lat="45.58221593765534" lon="10.163659410158694"><ele>153.0</ele><time>2026-03-24T15:04:34.999Z</time></trkpt><trkpt lat="45.58221375993453" lon="10.163754712140934"><ele>153.0</ele><time>2026-03-24T15:04:35.999Z</time></trkpt><trkpt lat="45.58221361786278" lon="10.163931365672763"><ele>153.0</ele><time>2026-03-24T15:04:37.999Z</time></trkpt><trkpt lat="45.58221677021732" lon="10.164023305690908"><ele>153.0</ele><time>2026-03-24T15:04:38.999Z</time></trkpt><trkpt lat="45.582221952655665" lon="10.16411568858227"><ele>152.8</ele><time>2026-03-24T15:04:39.999Z</time></trkpt><trkpt lat="45.58223067928023" lon="10.164205365782129"><ele>152.60000000000002</ele><time>2026-03-24T15:04:40.999Z</time></trkpt><trkpt lat="45.58225862569669" lon="10.164376750122965"><ele>152.39999999999998</ele><time>2026-03-24T15:04:42.999Z</time></trkpt><trkpt lat="45.5822958413436" lon="10.164549465199588"><ele>152.2</ele><time>2026-03-24T15:04:44.999Z</time></trkpt><trkpt lat="45.58231174223664" lon="10.164638884365996"><ele>152.0</ele><time>2026-03-24T15:04:45.999Z</time></trkpt><trkpt lat="45.58235686940077" lon="10.164809387605453"><ele>151.66666666666666</ele><time>2026-03-24T15:04:47.999Z</time></trkpt><trkpt lat="45.58239713361517" lon="10.164982722971981"><ele>151.33333333333331</ele><time>2026-03-24T15:04:49.999Z</time></trkpt><trkpt lat="45.58243781654581" lon="10.165150102677368"><ele>151.0</ele><time>2026-03-24T15:04:51.999Z</time></trkpt><trkpt lat="45.582454851852376" lon="10.165236949830653"><ele>150.66666666666666</ele><time>2026-03-24T15:04:52.999Z</time></trkpt><trkpt lat="45.582473139750185" lon="10.16532383022383"><ele>150.33333333333334</ele><time>2026-03-24T15:04:53.999Z</time></trkpt><trkpt lat="45.582491067568576" lon="10.165410643669077"><ele>150.0</ele><time>2026-03-24T15:04:54.999Z</time></trkpt><trkpt lat="45.58250550124065" lon="10.16549925944369"><ele>150.0</ele><time>2026-03-24T15:04:55.999Z</time></trkpt><trkpt lat="45.582538619215605" lon="10.165665679082478"><ele>150.0</ele><time>2026-03-24T15:04:57.999Z</time></trkpt><trkpt lat="45.582608993392455" lon="10.165813859523052"><ele>150.0</ele><time>2026-03-24T15:04:59.999Z</time></trkpt><trkpt lat="45.58263923943711" lon="10.165893430772861"><ele>150.0</ele><time>2026-03-24T15:05:00.999Z</time></trkpt><trkpt lat="45.58266005991102" lon="10.165983672889809"><ele>150.0</ele><time>2026-03-24T15:05:02Z</time></trkpt><trkpt lat="45.582674768649554" lon="10.166077192805847"><ele>150.0</ele><time>2026-03-24T15:05:03Z</time></trkpt><trkpt lat="45.58270534390022" lon="10.166157444756887"><ele>150.0</ele><time>2026-03-24T15:05:04Z</time></trkpt><trkpt lat="45.58274562137455" lon="10.166319874233846"><ele>150.0</ele><time>2026-03-24T15:05:06Z</time></trkpt><trkpt lat="45.58268139336725" lon="10.166447201471208"><ele>150.0</ele><time>2026-03-24T15:05:07Z</time></trkpt><trkpt lat="45.5826988139427" lon="10.16653520876719"><ele>150.0</ele><time>2026-03-24T15:05:08Z</time></trkpt><trkpt lat="45.58273430018691" lon="10.166702072803815"><ele>150.0</ele><time>2026-03-24T15:05:10Z</time></trkpt><trkpt lat="45.58276124364651" lon="10.166870979733"><ele>149.83333333333334</ele><time>2026-03-24T15:05:12Z</time></trkpt><trkpt lat="45.58279244469735" lon="10.167045780761562"><ele>149.66666666666666</ele><time>2026-03-24T15:05:14Z</time></trkpt><trkpt lat="45.58279952943322" lon="10.16713868098118"><ele>149.5</ele><time>2026-03-24T15:05:15Z</time></trkpt><trkpt lat="45.58280210287265" lon="10.167228651143148"><ele>149.33333333333331</ele><time>2026-03-24T15:05:16Z</time></trkpt><trkpt lat="45.58281178845522" lon="10.167391481362351"><ele>149.16666666666666</ele><time>2026-03-24T15:05:18Z</time></trkpt><trkpt lat="45.582821540968624" lon="10.167480497956292"><ele>149.0</ele><time>2026-03-24T15:05:19Z</time></trkpt><trkpt lat="45.582829285459646" lon="10.167571128167475"><ele>148.8</ele><time>2026-03-24T15:05:20Z</time></trkpt><trkpt lat="45.58283860915665" lon="10.16775026716694"><ele>148.60000000000002</ele><time>2026-03-24T15:05:22Z</time></trkpt><trkpt lat="45.5828463490805" lon="10.16792528585886"><ele>148.4</ele><time>2026-03-24T15:05:24Z</time></trkpt><trkpt lat="45.58285192426762" lon="10.168015659710838"><ele>148.20000000000002</ele><time>2026-03-24T15:05:25Z</time></trkpt><trkpt lat="45.58285948505983" lon="10.16818725635909"><ele>148.0</ele><time>2026-03-24T15:05:27Z</time></trkpt><trkpt lat="45.58286087235343" lon="10.16827850349278"><ele>148.0</ele><time>2026-03-24T15:05:28Z</time></trkpt><trkpt lat="45.582866171952276" lon="10.168451958383232"><ele>148.0</ele><time>2026-03-24T15:05:30Z</time></trkpt><trkpt lat="45.58286779883332" lon="10.16854285754619"><ele>148.0</ele><time>2026-03-24T15:05:31Z</time></trkpt><trkpt lat="45.58286705115496" lon="10.168711844092208"><ele>148.0</ele><time>2026-03-24T15:05:33Z</time></trkpt><trkpt lat="45.58286456966445" lon="10.168876105848135"><ele>148.0</ele><time>2026-03-24T15:05:35Z</time></trkpt><trkpt lat="45.58287086324505" lon="10.16904276897559"><ele>148.0</ele><time>2026-03-24T15:05:37Z</time></trkpt><trkpt lat="45.58287099010222" lon="10.169205061578513"><ele>148.0</ele><time>2026-03-24T15:05:39Z</time></trkpt><trkpt lat="45.582873869040384" lon="10.16936255847244"><ele>148.0</ele><time>2026-03-24T15:05:41Z</time></trkpt><trkpt lat="45.58288139373014" lon="10.16953083032833"><ele>148.0</ele><time>2026-03-24T15:05:43Z</time></trkpt><trkpt lat="45.58285915519197" lon="10.169699026881881"><ele>148.0</ele><time>2026-03-24T15:05:45Z</time></trkpt><trkpt lat="45.58288114630435" lon="10.169863639568094"><ele>148.0</ele><time>2026-03-24T15:05:47Z</time></trkpt><trkpt lat="45.58288350808597" lon="10.1700296133389"><ele>148.0</ele><time>2026-03-24T15:05:49Z</time></trkpt><trkpt lat="45.582887652695575" lon="10.170190269548248"><ele>148.0</ele><time>2026-03-24T15:05:51Z</time></trkpt><trkpt lat="45.58289238328047" lon="10.170351742770743"><ele>148.0</ele><time>2026-03-24T15:05:53Z</time></trkpt><trkpt lat="45.58289399950345" lon="10.170506308972064"><ele>148.0</ele><time>2026-03-24T15:05:55Z</time></trkpt><trkpt lat="45.58289299437305" lon="10.170670485328479"><ele>148.0</ele><time>2026-03-24T15:05:57Z</time></trkpt><trkpt lat="45.58289208911205" lon="10.17083283728566"><ele>148.0</ele><time>2026-03-24T15:05:59Z</time></trkpt><trkpt lat="45.58288197521836" lon="10.170992112051586"><ele>148.0</ele><time>2026-03-24T15:06:01Z</time></trkpt><trkpt lat="45.582874278627216" lon="10.171147498690152"><ele>148.16666666666669</ele><time>2026-03-24T15:06:03Z</time></trkpt><trkpt lat="45.58286445702512" lon="10.171301197818513"><ele>148.33333333333334</ele><time>2026-03-24T15:06:05Z</time></trkpt><trkpt lat="45.582895043501246" lon="10.17144164003596"><ele>148.5</ele><time>2026-03-24T15:06:07Z</time></trkpt><trkpt lat="45.58292299997396" lon="10.171542628395652"><ele>148.66666666666666</ele><time>2026-03-24T15:06:09Z</time></trkpt><trkpt lat="45.58292878278673" lon="10.171645509030396"><ele>148.83333333333331</ele><time>2026-03-24T15:06:11Z</time></trkpt><trkpt lat="45.58291584496819" lon="10.17175782508412"><ele>149.0</ele><time>2026-03-24T15:06:13Z</time></trkpt><trkpt lat="45.58290664681236" lon="10.171875470895657"><ele>149.0</ele><time>2026-03-24T15:06:15Z</time></trkpt><trkpt lat="45.58280990230253" lon="10.171989608661267"><ele>149.0</ele><time>2026-03-24T15:06:17Z</time></trkpt><trkpt lat="45.58289226478673" lon="10.172063740008907"><ele>149.0</ele><time>2026-03-24T15:06:18Z</time></trkpt><trkpt lat="45.5828849477793" lon="10.172187662612412"><ele>149.0</ele><time>2026-03-24T15:06:20Z</time></trkpt><trkpt lat="45.58289480646249" lon="10.172311580396238"><ele>149.0</ele><time>2026-03-24T15:06:22Z</time></trkpt><trkpt lat="45.58289034272958" lon="10.172431112108434"><ele>148.8</ele><time>2026-03-24T15:06:24Z</time></trkpt><trkpt lat="45.582772097985696" lon="10.172473590680955"><ele>148.60000000000002</ele><time>2026-03-24T15:06:25Z</time></trkpt><trkpt lat="45.582887881674196" lon="10.17255101982896"><ele>148.4</ele><time>2026-03-24T15:06:26Z</time></trkpt><trkpt lat="45.58289522143236" lon="10.172666266568474"><ele>148.20000000000002</ele><time>2026-03-24T15:06:28Z</time></trkpt><trkpt lat="45.58289116807583" lon="10.172783975965793"><ele>148.0</ele><time>2026-03-24T15:06:29.999Z</time></trkpt><trkpt lat="45.582885008009185" lon="10.17290056036045"><ele>148.0</ele><time>2026-03-24T15:06:31.999Z</time></trkpt><trkpt lat="45.58287772894066" lon="10.172992913836291"><ele>148.0</ele><time>2026-03-24T15:06:33.999Z</time></trkpt><trkpt lat="45.582903579933216" lon="10.173076183193874"><ele>148.0</ele><time>2026-03-24T15:06:36.999Z</time></trkpt><trkpt lat="45.58300974521295" lon="10.173094663819741"><ele>148.0</ele><time>2026-03-24T15:06:40.999Z</time></trkpt><trkpt lat="45.58308638274834" lon="10.173105214960046"><ele>148.0</ele><time>2026-03-24T15:06:43.999Z</time></trkpt><trkpt lat="45.583151771244225" lon="10.173111663059435"><ele>148.0</ele><time>2026-03-24T15:06:45.999Z</time></trkpt><trkpt lat="45.58322928342893" lon="10.173106498615489"><ele>148.0</ele><time>2026-03-24T15:06:47.999Z</time></trkpt><trkpt lat="45.58330964296879" lon="10.173104631604655"><ele>148.0</ele><time>2026-03-24T15:06:49.999Z</time></trkpt><trkpt lat="45.58339434019397" lon="10.173090496522688"><ele>148.0</ele><time>2026-03-24T15:06:51.999Z</time></trkpt><trkpt lat="45.583485258312884" lon="10.173067535870594"><ele>148.0</ele><time>2026-03-24T15:06:53.999Z</time></trkpt><trkpt lat="45.58357495472926" lon="10.173030391466593"><ele>148.0</ele><time>2026-03-24T15:06:55.999Z</time></trkpt><trkpt lat="45.583665391629324" lon="10.172979613286833"><ele>148.0</ele><time>2026-03-24T15:06:57.999Z</time></trkpt><trkpt lat="45.583758744869584" lon="10.172933912456005"><ele>148.8</ele><time>2026-03-24T15:06:59.999Z</time></trkpt><trkpt lat="45.58385916331493" lon="10.172892439118383"><ele>149.60000000000002</ele><time>2026-03-24T15:07:01.999Z</time></trkpt><trkpt lat="45.58396336497226" lon="10.17286949750403"><ele>150.39999999999998</ele><time>2026-03-24T15:07:03.999Z</time></trkpt><trkpt lat="45.58407237405802" lon="10.172872823260342"><ele>151.2</ele><time>2026-03-24T15:07:05.999Z</time></trkpt><trkpt lat="45.58417669036774" lon="10.172892938356359"><ele>152.0</ele><time>2026-03-24T15:07:08Z</time></trkpt><trkpt lat="45.5842737492015" lon="10.172953802420603"><ele>152.0</ele><time>2026-03-24T15:07:10Z</time></trkpt><trkpt lat="45.58435812964819" lon="10.173034637250973"><ele>152.0</ele><time>2026-03-24T15:07:12Z</time></trkpt><trkpt lat="45.58443848706504" lon="10.173115025370096"><ele>152.0</ele><time>2026-03-24T15:07:14Z</time></trkpt><trkpt lat="45.58451408303177" lon="10.173199902929975"><ele>152.0</ele><time>2026-03-24T15:07:16Z</time></trkpt><trkpt lat="45.58459190959957" lon="10.173285041015664"><ele>152.0</ele><time>2026-03-24T15:07:18Z</time></trkpt><trkpt lat="45.584662028081084" lon="10.173375848528938"><ele>151.83333333333331</ele><time>2026-03-24T15:07:20Z</time></trkpt><trkpt lat="45.584725144656815" lon="10.173468018543305"><ele>151.66666666666666</ele><time>2026-03-24T15:07:22Z</time></trkpt><trkpt lat="45.58478391981941" lon="10.173563771244272"><ele>151.5</ele><time>2026-03-24T15:07:24Z</time></trkpt><trkpt lat="45.58484454120963" lon="10.173651007233085"><ele>151.33333333333334</ele><time>2026-03-24T15:07:26Z</time></trkpt><trkpt lat="45.584897479832634" lon="10.173740115910933"><ele>151.16666666666669</ele><time>2026-03-24T15:07:28Z</time></trkpt><trkpt lat="45.5849505688551" lon="10.173832229463427"><ele>151.0</ele><time>2026-03-24T15:07:30Z</time></trkpt><trkpt lat="45.58500685446539" lon="10.173902992242592"><ele>151.0</ele><time>2026-03-24T15:07:32Z</time></trkpt><trkpt lat="45.585068984397004" lon="10.173944873844768"><ele>151.0</ele><time>2026-03-24T15:07:34Z</time></trkpt><trkpt lat="45.58514400838655" lon="10.173831931220425"><ele>151.0</ele><time>2026-03-24T15:07:36Z</time></trkpt><trkpt lat="45.58520955016506" lon="10.173730505549834"><ele>151.0</ele><time>2026-03-24T15:07:38Z</time></trkpt><trkpt lat="45.58527384807532" lon="10.173616401911099"><ele>151.0</ele><time>2026-03-24T15:07:40Z</time></trkpt><trkpt lat="45.58531407149601" lon="10.173478764417222"><ele>151.0</ele><time>2026-03-24T15:07:42Z</time></trkpt><trkpt lat="45.585351410567746" lon="10.17333345191342"><ele>151.0</ele><time>2026-03-24T15:07:44Z</time></trkpt><trkpt lat="45.58541125295987" lon="10.173201278809257"><ele>151.0</ele><time>2026-03-24T15:07:46Z</time></trkpt><trkpt lat="45.585492749317666" lon="10.173094722193097"><ele>151.0</ele><time>2026-03-24T15:07:48Z</time></trkpt><trkpt lat="45.585572544319476" lon="10.173003776502009"><ele>151.0</ele><time>2026-03-24T15:07:50Z</time></trkpt><trkpt lat="45.58566142800303" lon="10.172930455507966"><ele>151.0</ele><time>2026-03-24T15:07:52Z</time></trkpt><trkpt lat="45.585759023382685" lon="10.172952988328431"><ele>151.0</ele><time>2026-03-24T15:07:54Z</time></trkpt><trkpt lat="45.58582794564479" lon="10.173056158123684"><ele>151.0</ele><time>2026-03-24T15:07:56Z</time></trkpt><trkpt lat="45.58588870708215" lon="10.173159870450263"><ele>151.0</ele><time>2026-03-24T15:07:58Z</time></trkpt><trkpt lat="45.58594112412795" lon="10.173262714274093"><ele>151.0</ele><time>2026-03-24T15:08:00Z</time></trkpt><trkpt lat="45.5859986921148" lon="10.173346377846375"><ele>151.00000000000003</ele><time>2026-03-24T15:08:02Z</time></trkpt><trkpt lat="45.58605555806501" lon="10.173420152727363"><ele>151.0</ele><time>2026-03-24T15:08:04Z</time></trkpt><trkpt lat="45.586107657380936" lon="10.173484729440258"><ele>151.0</ele><time>2026-03-24T15:08:06Z</time></trkpt><trkpt lat="45.58615751133335" lon="10.173560135902108"><ele>151.0</ele><time>2026-03-24T15:08:08Z</time></trkpt><trkpt lat="45.58619908786499" lon="10.173645000694101"><ele>151.0</ele><time>2026-03-24T15:08:10Z</time></trkpt><trkpt lat="45.586232206297346" lon="10.173733679268118"><ele>151.00000000000003</ele><time>2026-03-24T15:08:12Z</time></trkpt><trkpt lat="45.58627104717593" lon="10.173817561208484"><ele>151.0</ele><time>2026-03-24T15:08:14Z</time></trkpt><trkpt lat="45.58631520653982" lon="10.173902101497838"><ele>152.16666666666669</ele><time>2026-03-24T15:08:16Z</time></trkpt><trkpt lat="45.58636389784962" lon="10.17398332312249"><ele>153.33333333333334</ele><time>2026-03-24T15:08:18Z</time></trkpt><trkpt lat="45.58642026530232" lon="10.174061179300898"><ele>154.5</ele><time>2026-03-24T15:08:20Z</time></trkpt><trkpt lat="45.58647600046128" lon="10.174134265112905"><ele>155.66666666666666</ele><time>2026-03-24T15:08:22Z</time></trkpt><trkpt lat="45.586535646355586" lon="10.174211315800228"><ele>156.83333333333331</ele><time>2026-03-24T15:08:24Z</time></trkpt><trkpt lat="45.586586215085084" lon="10.17430148920455"><ele>158.0</ele><time>2026-03-24T15:08:26Z</time></trkpt><trkpt lat="45.586629797574986" lon="10.17440018699666"><ele>158.5</ele><time>2026-03-24T15:08:28Z</time></trkpt><trkpt lat="45.58667731040993" lon="10.174495274610818"><ele>159.0</ele><time>2026-03-24T15:08:30Z</time></trkpt><trkpt lat="45.58671456894876" lon="10.17459420310084"><ele>159.5</ele><time>2026-03-24T15:08:32Z</time></trkpt><trkpt lat="45.58675405347885" lon="10.174693351686969"><ele>160.0</ele><time>2026-03-24T15:08:34Z</time></trkpt><trkpt lat="45.58678840178673" lon="10.174794416633762"><ele>160.5</ele><time>2026-03-24T15:08:35.999Z</time></trkpt><trkpt lat="45.58681430565272" lon="10.174901349665413"><ele>161.0</ele><time>2026-03-24T15:08:37.999Z</time></trkpt><trkpt lat="45.58682998010953" lon="10.17501037855882"><ele>161.33333333333331</ele><time>2026-03-24T15:08:39.999Z</time></trkpt><trkpt lat="45.58682166623963" lon="10.175123597215746"><ele>161.66666666666666</ele><time>2026-03-24T15:08:41.999Z</time></trkpt><trkpt lat="45.58681053891276" lon="10.175221796326305"><ele>162.0</ele><time>2026-03-24T15:08:43.999Z</time></trkpt><trkpt lat="45.58681075163683" lon="10.17533330772782"><ele>162.33333333333334</ele><time>2026-03-24T15:08:45.999Z</time></trkpt><trkpt lat="45.58681767571859" lon="10.175439149290757"><ele>162.66666666666669</ele><time>2026-03-24T15:08:47.999Z</time></trkpt><trkpt lat="45.58683555604073" lon="10.175547342603025"><ele>163.0</ele><time>2026-03-24T15:08:49.999Z</time></trkpt><trkpt lat="45.58687570685304" lon="10.175630425393333"><ele>163.0</ele><time>2026-03-24T15:08:51.999Z</time></trkpt><trkpt lat="45.58693864312563" lon="10.175595217608622"><ele>163.0</ele><time>2026-03-24T15:08:53.999Z</time></trkpt><trkpt lat="45.58698634731211" lon="10.175527067201607"><ele>163.0</ele><time>2026-03-24T15:08:55.999Z</time></trkpt><trkpt lat="45.58706190546926" lon="10.17546407356846"><ele>163.0</ele><time>2026-03-24T15:08:58.999Z</time></trkpt><trkpt lat="45.587137759184365" lon="10.175397160803085"><ele>163.0</ele><time>2026-03-24T15:09:01.999Z</time></trkpt><trkpt lat="45.58719861604825" lon="10.175320156309766"><ele>163.0</ele><time>2026-03-24T15:09:04.999Z</time></trkpt><trkpt lat="45.58713330174995" lon="10.17539412007238"><ele>163.0</ele><time>2026-03-24T15:09:12.999Z</time></trkpt><trkpt lat="45.58705329548168" lon="10.175453822705247"><ele>163.0</ele><time>2026-03-24T15:09:15Z</time></trkpt><trkpt lat="45.58697300097802" lon="10.175519546819942"><ele>163.0</ele><time>2026-03-24T15:09:17Z</time></trkpt><trkpt lat="45.58690248586753" lon="10.17558261251598"><ele>163.0</ele><time>2026-03-24T15:09:19Z</time></trkpt><trkpt lat="45.58686283956324" lon="10.175664423525603"><ele>163.0</ele><time>2026-03-24T15:09:21Z</time></trkpt><trkpt lat="45.586841108114896" lon="10.175775164308059"><ele>163.0</ele><time>2026-03-24T15:09:23Z</time></trkpt><trkpt lat="45.5868508227988" lon="10.175900690808193"><ele>162.60000000000002</ele><time>2026-03-24T15:09:25Z</time></trkpt><trkpt lat="45.58685131712177" lon="10.17602601413497"><ele>162.20000000000002</ele><time>2026-03-24T15:09:27Z</time></trkpt><trkpt lat="45.586791222917384" lon="10.17612408441057"><ele>161.8</ele><time>2026-03-24T15:09:29Z</time></trkpt><trkpt lat="45.586702713560165" lon="10.176171525332292"><ele>161.4</ele><time>2026-03-24T15:09:31Z</time></trkpt><trkpt lat="45.586614874834936" lon="10.17621366624784"><ele>161.0</ele><time>2026-03-24T15:09:33Z</time></trkpt><trkpt lat="45.58652694364632" lon="10.176249738738653"><ele>161.0</ele><time>2026-03-24T15:09:35Z</time></trkpt><trkpt lat="45.58643922240289" lon="10.176281959815084"><ele>161.0</ele><time>2026-03-24T15:09:37Z</time></trkpt><trkpt lat="45.58635732846831" lon="10.176317991265998"><ele>161.0</ele><time>2026-03-24T15:09:39Z</time></trkpt><trkpt lat="45.586288236789926" lon="10.176357776145949"><ele>161.0</ele><time>2026-03-24T15:09:41Z</time></trkpt><trkpt lat="45.58621847020118" lon="10.176400894462095"><ele>161.0</ele><time>2026-03-24T15:09:43Z</time></trkpt><trkpt lat="45.586136468906595" lon="10.176442316795868"><ele>161.0</ele><time>2026-03-24T15:09:46Z</time></trkpt><trkpt lat="45.58607137981209" lon="10.176460245810388"><ele>161.0</ele><time>2026-03-24T15:09:48Z</time></trkpt><trkpt lat="45.5859618120335" lon="10.176471811247191"><ele>161.0</ele><time>2026-03-24T15:09:50Z</time></trkpt><trkpt lat="45.58583659299173" lon="10.176465215116872"><ele>161.0</ele><time>2026-03-24T15:09:52Z</time></trkpt><trkpt lat="45.58576842652481" lon="10.176454343806267"><ele>161.0</ele><time>2026-03-24T15:09:53Z</time></trkpt><trkpt lat="45.58569795428305" lon="10.176439704275603"><ele>161.0</ele><time>2026-03-24T15:09:54Z</time></trkpt><trkpt lat="45.585635353990334" lon="10.176426789250414"><ele>161.0</ele><time>2026-03-24T15:09:55Z</time></trkpt><trkpt lat="45.58552984423814" lon="10.176412665190876"><ele>161.0</ele><time>2026-03-24T15:09:57Z</time></trkpt><trkpt lat="45.58541644345136" lon="10.176459701628286"><ele>161.0</ele><time>2026-03-24T15:09:59Z</time></trkpt><trkpt lat="45.58530538781644" lon="10.176501043271676"><ele>161.0</ele><time>2026-03-24T15:10:01Z</time></trkpt><trkpt lat="45.585229032482694" lon="10.176563003114534"><ele>161.0</ele><time>2026-03-24T15:10:03Z</time></trkpt><trkpt lat="45.585130998616286" lon="10.17655005997985"><ele>161.0</ele><time>2026-03-24T15:10:06Z</time></trkpt><trkpt lat="45.58504723831745" lon="10.176494290288284"><ele>160.5</ele><time>2026-03-24T15:10:08Z</time></trkpt><trkpt lat="45.58495866669317" lon="10.176433125358917"><ele>160.0</ele><time>2026-03-24T15:10:10Z</time></trkpt><trkpt lat="45.58484841272399" lon="10.176373547339354"><ele>159.5</ele><time>2026-03-24T15:10:12Z</time></trkpt><trkpt lat="45.584730487647576" lon="10.17632717753651"><ele>159.0</ele><time>2026-03-24T15:10:14Z</time></trkpt><trkpt lat="45.584613359052554" lon="10.176297000716849"><ele>159.0</ele><time>2026-03-24T15:10:16Z</time></trkpt><trkpt lat="45.58454364256627" lon="10.17627881069489"><ele>159.0</ele><time>2026-03-24T15:10:17Z</time></trkpt><trkpt lat="45.58442192389619" lon="10.176248157518144"><ele>159.0</ele><time>2026-03-24T15:10:19Z</time></trkpt><trkpt lat="45.58435742230398" lon="10.17623062273913"><ele>159.0</ele><time>2026-03-24T15:10:20Z</time></trkpt><trkpt lat="45.58423966535709" lon="10.176175634643698"><ele>159.0</ele><time>2026-03-24T15:10:22Z</time></trkpt><trkpt lat="45.58418479775884" lon="10.17612930476047"><ele>159.0</ele><time>2026-03-24T15:10:23Z</time></trkpt><trkpt lat="45.58413090229624" lon="10.176076988074747"><ele>158.6</ele><time>2026-03-24T15:10:24Z</time></trkpt><trkpt lat="45.584029871063564" lon="10.17596725488827"><ele>158.2</ele><time>2026-03-24T15:10:26Z</time></trkpt><trkpt lat="45.58398005757859" lon="10.175911901079207"><ele>157.79999999999998</ele><time>2026-03-24T15:10:27Z</time></trkpt><trkpt lat="45.5838914394039" lon="10.175779255000881"><ele>157.4</ele><time>2026-03-24T15:10:29Z</time></trkpt><trkpt lat="45.58381813447583" lon="10.175645271102862"><ele>157.0</ele><time>2026-03-24T15:10:31Z</time></trkpt><trkpt lat="45.58373546228304" lon="10.175520501860015"><ele>156.6</ele><time>2026-03-24T15:10:33Z</time></trkpt><trkpt lat="45.58370885559902" lon="10.175436409401986"><ele>156.2</ele><time>2026-03-24T15:10:34Z</time></trkpt><trkpt lat="45.583617327744065" lon="10.175312751811088"><ele>155.8</ele><time>2026-03-24T15:10:36Z</time></trkpt><trkpt lat="45.583533115854095" lon="10.175172052920283"><ele>155.4</ele><time>2026-03-24T15:10:38Z</time></trkpt><trkpt lat="45.5834596959468" lon="10.175035819647618"><ele>155.0</ele><time>2026-03-24T15:10:39.999Z</time></trkpt><trkpt lat="45.58338689940415" lon="10.174893024472544"><ele>154.75</ele><time>2026-03-24T15:10:41.999Z</time></trkpt><trkpt lat="45.58331100740726" lon="10.174762119985418"><ele>154.5</ele><time>2026-03-24T15:10:43.999Z</time></trkpt><trkpt lat="45.58323814367541" lon="10.17463033071094"><ele>154.25</ele><time>2026-03-24T15:10:45.999Z</time></trkpt><trkpt lat="45.58316423950303" lon="10.17449875814252"><ele>154.0</ele><time>2026-03-24T15:10:47.999Z</time></trkpt><trkpt lat="45.58308765912617" lon="10.174381567261575"><ele>154.0</ele><time>2026-03-24T15:10:49.999Z</time></trkpt><trkpt lat="45.58300553440173" lon="10.174282166474955"><ele>154.0</ele><time>2026-03-24T15:10:51.999Z</time></trkpt><trkpt lat="45.58298887178437" lon="10.174144624888653"><ele>154.0</ele><time>2026-03-24T15:10:53.999Z</time></trkpt><trkpt lat="45.58298539946328" lon="10.1740038597648"><ele>154.0</ele><time>2026-03-24T15:10:55.999Z</time></trkpt><trkpt lat="45.582957551407716" lon="10.17387063844555"><ele>154.0</ele><time>2026-03-24T15:10:57.999Z</time></trkpt><trkpt lat="45.582965556937864" lon="10.17372647523674"><ele>153.4</ele><time>2026-03-24T15:10:59.999Z</time></trkpt><trkpt lat="45.582970482867346" lon="10.173566957959451"><ele>152.8</ele><time>2026-03-24T15:11:01.999Z</time></trkpt><trkpt lat="45.582966746302134" lon="10.173404729609134"><ele>152.2</ele><time>2026-03-24T15:11:03.999Z</time></trkpt><trkpt lat="45.582968482869816" lon="10.173239462628612"><ele>151.6</ele><time>2026-03-24T15:11:05.999Z</time></trkpt><trkpt lat="45.582974519258336" lon="10.173124907276222"><ele>151.0</ele><time>2026-03-24T15:11:07.999Z</time></trkpt><trkpt lat="45.58291818884013" lon="10.17306202101151"><ele>150.4</ele><time>2026-03-24T15:11:10.999Z</time></trkpt><trkpt lat="45.58292232683297" lon="10.172927845005177"><ele>149.8</ele><time>2026-03-24T15:11:13.999Z</time></trkpt><trkpt lat="45.582935008314415" lon="10.17280720711983"><ele>149.20000000000002</ele><time>2026-03-24T15:11:15.999Z</time></trkpt><trkpt lat="45.582947122408875" lon="10.172668763310675"><ele>148.6</ele><time>2026-03-24T15:11:17.999Z</time></trkpt><trkpt lat="45.58295538904064" lon="10.172514109708336"><ele>148.0</ele><time>2026-03-24T15:11:20.001Z</time></trkpt><trkpt lat="45.58296654702276" lon="10.172359783503126"><ele>148.25</ele><time>2026-03-24T15:11:22.001Z</time></trkpt><trkpt lat="45.58297765168626" lon="10.172191293924492"><ele>148.5</ele><time>2026-03-24T15:11:24.001Z</time></trkpt><trkpt lat="45.5829927909176" lon="10.172025508891855"><ele>148.75</ele><time>2026-03-24T15:11:26.001Z</time></trkpt><trkpt lat="45.583007047701244" lon="10.171859522176076"><ele>149.0</ele><time>2026-03-24T15:11:28Z</time></trkpt><trkpt lat="45.583024422726574" lon="10.171698027999064"><ele>149.0</ele><time>2026-03-24T15:11:30.001Z</time></trkpt><trkpt lat="45.58304562856245" lon="10.171544094312235"><ele>149.0</ele><time>2026-03-24T15:11:32Z</time></trkpt><trkpt lat="45.583061222077546" lon="10.171381867608956"><ele>149.0</ele><time>2026-03-24T15:11:34Z</time></trkpt><trkpt lat="45.58307241563227" lon="10.171219080358473"><ele>149.0</ele><time>2026-03-24T15:11:36Z</time></trkpt><trkpt lat="45.58307749273627" lon="10.171053508028626"><ele>149.2</ele><time>2026-03-24T15:11:38Z</time></trkpt><trkpt lat="45.58308505049162" lon="10.170895890432405"><ele>149.4</ele><time>2026-03-24T15:11:40Z</time></trkpt><trkpt lat="45.58309394463707" lon="10.17074124432404"><ele>149.6</ele><time>2026-03-24T15:11:42Z</time></trkpt><trkpt lat="45.583101008504634" lon="10.170594160699123"><ele>149.8</ele><time>2026-03-24T15:11:44Z</time></trkpt><trkpt lat="45.583112824526765" lon="10.170486589549302"><ele>150.0</ele><time>2026-03-24T15:11:46Z</time></trkpt><trkpt lat="45.583191686877306" lon="10.170429812114431"><ele>149.66666666666666</ele><time>2026-03-24T15:11:49Z</time></trkpt><trkpt lat="45.583213513386575" lon="10.170342887242727"><ele>149.33333333333334</ele><time>2026-03-24T15:11:52Z</time></trkpt><trkpt lat="45.58314787713546" lon="10.170304688794603"><ele>149.0</ele><time>2026-03-24T15:11:54Z</time></trkpt><trkpt lat="45.583103092640485" lon="10.17018371366406"><ele>148.66666666666669</ele><time>2026-03-24T15:11:57Z</time></trkpt><trkpt lat="45.5831136797546" lon="10.170060302553345"><ele>148.33333333333334</ele><time>2026-03-24T15:11:59Z</time></trkpt><trkpt lat="45.58310872569304" lon="10.169933638636316"><ele>148.0</ele><time>2026-03-24T15:12:01Z</time></trkpt><trkpt lat="45.58310134936446" lon="10.16979483751052"><ele>148.0</ele><time>2026-03-24T15:12:03Z</time></trkpt><trkpt lat="45.5830980316628" lon="10.169658847653729"><ele>148.0</ele><time>2026-03-24T15:12:05Z</time></trkpt><trkpt lat="45.58308300915574" lon="10.169520378501787"><ele>148.0</ele><time>2026-03-24T15:12:07Z</time></trkpt><trkpt lat="45.583081794860554" lon="10.16937637121189"><ele>148.0</ele><time>2026-03-24T15:12:09Z</time></trkpt><trkpt lat="45.583065985299996" lon="10.169227488156224"><ele>148.0</ele><time>2026-03-24T15:12:11Z</time></trkpt><trkpt lat="45.583056095777806" lon="10.16907349972953"><ele>148.0</ele><time>2026-03-24T15:12:13Z</time></trkpt><trkpt lat="45.5830515574769" lon="10.168916379811437"><ele>148.0</ele><time>2026-03-24T15:12:15Z</time></trkpt><trkpt lat="45.58304892481005" lon="10.16875992443538"><ele>148.0</ele><time>2026-03-24T15:12:17Z</time></trkpt><trkpt lat="45.58304696795249" lon="10.168610762153712"><ele>148.0</ele><time>2026-03-24T15:12:19Z</time></trkpt><trkpt lat="45.58304727692483" lon="10.168462199612277"><ele>148.0</ele><time>2026-03-24T15:12:21Z</time></trkpt><trkpt lat="45.58304424117281" lon="10.168311082982441"><ele>147.8</ele><time>2026-03-24T15:12:23Z</time></trkpt><trkpt lat="45.58304749715009" lon="10.16816448366748"><ele>147.60000000000002</ele><time>2026-03-24T15:12:25Z</time></trkpt><trkpt lat="45.58304114756982" lon="10.168018646897139"><ele>147.39999999999998</ele><time>2026-03-24T15:12:27Z</time></trkpt><trkpt lat="45.58304379480213" lon="10.167873939327118"><ele>147.2</ele><time>2026-03-24T15:12:29Z</time></trkpt><trkpt lat="45.58304602450028" lon="10.167727734870107"><ele>147.0</ele><time>2026-03-24T15:12:31Z</time></trkpt><trkpt lat="45.58303234946421" lon="10.167583659447756"><ele>147.0</ele><time>2026-03-24T15:12:33Z</time></trkpt><trkpt lat="45.58301826272444" lon="10.167439597219298"><ele>147.0</ele><time>2026-03-24T15:12:35Z</time></trkpt><trkpt lat="45.583026387936044" lon="10.16729784707174"><ele>147.0</ele><time>2026-03-24T15:12:37Z</time></trkpt><trkpt lat="45.58301707067385" lon="10.167150600382111"><ele>147.0</ele><time>2026-03-24T15:12:39Z</time></trkpt><trkpt lat="45.58297387988217" lon="10.167007313679898"><ele>147.0</ele><time>2026-03-24T15:12:41Z</time></trkpt><trkpt lat="45.582947972054306" lon="10.166861545157754"><ele>147.0</ele><time>2026-03-24T15:12:43Z</time></trkpt><trkpt lat="45.58292414157125" lon="10.166722655445305"><ele>147.0</ele><time>2026-03-24T15:12:45Z</time></trkpt><trkpt lat="45.58289439384276" lon="10.16658901746799"><ele>147.0</ele><time>2026-03-24T15:12:47Z</time></trkpt><trkpt lat="45.5828614487428" lon="10.166457000060898"><ele>147.0</ele><time>2026-03-24T15:12:48.999Z</time></trkpt><trkpt lat="45.58282694289252" lon="10.16632499222415"><ele>147.0</ele><time>2026-03-24T15:12:50.999Z</time></trkpt><trkpt lat="45.582796263937645" lon="10.166196006154804"><ele>147.6</ele><time>2026-03-24T15:12:52.999Z</time></trkpt><trkpt lat="45.58276151087535" lon="10.166066210355353"><ele>148.2</ele><time>2026-03-24T15:12:54.999Z</time></trkpt><trkpt lat="45.58272984744809" lon="10.165940490112257"><ele>148.8</ele><time>2026-03-24T15:12:56.999Z</time></trkpt><trkpt lat="45.58269892062461" lon="10.165819657342604"><ele>149.4</ele><time>2026-03-24T15:12:58.999Z</time></trkpt><trkpt lat="45.582676955250086" lon="10.165693499693546"><ele>150.0</ele><time>2026-03-24T15:13:00.999Z</time></trkpt><trkpt lat="45.58267049337545" lon="10.165567290841661"><ele>150.0</ele><time>2026-03-24T15:13:02.999Z</time></trkpt><trkpt lat="45.58262623665233" lon="10.165461340581112"><ele>150.0</ele><time>2026-03-24T15:13:04.999Z</time></trkpt><trkpt lat="45.582571377426426" lon="10.165363752689384"><ele>150.0</ele><time>2026-03-24T15:13:06.999Z</time></trkpt><trkpt lat="45.58254043480261" lon="10.165244438207116"><ele>150.0</ele><time>2026-03-24T15:13:08.999Z</time></trkpt><trkpt lat="45.582512514780575" lon="10.16512870998502"><ele>150.0</ele><time>2026-03-24T15:13:10.999Z</time></trkpt><trkpt lat="45.582484779113074" lon="10.165008457889407"><ele>150.0</ele><time>2026-03-24T15:13:12.999Z</time></trkpt><trkpt lat="45.58245373516793" lon="10.164880656819237"><ele>150.4</ele><time>2026-03-24T15:13:14.999Z</time></trkpt><trkpt lat="45.58242091148151" lon="10.164752530567803"><ele>150.8</ele><time>2026-03-24T15:13:16.999Z</time></trkpt><trkpt lat="45.58238872207209" lon="10.164623759510732"><ele>151.2</ele><time>2026-03-24T15:13:18.999Z</time></trkpt><trkpt lat="45.58235502151978" lon="10.1644910534006"><ele>151.6</ele><time>2026-03-24T15:13:20.999Z</time></trkpt><trkpt lat="45.58232147422035" lon="10.164353165193113"><ele>152.0</ele><time>2026-03-24T15:13:22.999Z</time></trkpt><trkpt lat="45.582296296756176" lon="10.164214267271705"><ele>152.0</ele><time>2026-03-24T15:13:24.999Z</time></trkpt><trkpt lat="45.582276790921114" lon="10.164071798514453"><ele>152.0</ele><time>2026-03-24T15:13:27.001Z</time></trkpt><trkpt lat="45.58226964133018" lon="10.16392359202518"><ele>152.0</ele><time>2026-03-24T15:13:29.001Z</time></trkpt><trkpt lat="45.582264450158775" lon="10.163776951717692"><ele>152.0</ele><time>2026-03-24T15:13:31.001Z</time></trkpt><trkpt lat="45.582269003174964" lon="10.163631037812252"><ele>152.0</ele><time>2026-03-24T15:13:33.001Z</time></trkpt><trkpt lat="45.5822929317673" lon="10.163490780012724"><ele>152.0</ele><time>2026-03-24T15:13:35.001Z</time></trkpt><trkpt lat="45.58233489246067" lon="10.163354718619594"><ele>152.0</ele><time>2026-03-24T15:13:37.001Z</time></trkpt><trkpt lat="45.58239015268674" lon="10.163227232424308"><ele>152.0</ele><time>2026-03-24T15:13:39.001Z</time></trkpt><trkpt lat="45.58244690133086" lon="10.163108474731226"><ele>152.0</ele><time>2026-03-24T15:13:41.001Z</time></trkpt><trkpt lat="45.58246033221879" lon="10.162959164524734"><ele>152.0</ele><time>2026-03-24T15:13:43Z</time></trkpt><trkpt lat="45.58244157122273" lon="10.162794898990828"><ele>152.0</ele><time>2026-03-24T15:13:45Z</time></trkpt><trkpt lat="45.58246783105899" lon="10.162625729716021"><ele>152.0</ele><time>2026-03-24T15:13:47Z</time></trkpt><trkpt lat="45.582505347722176" lon="10.162455063916202"><ele>152.0</ele><time>2026-03-24T15:13:49Z</time></trkpt><trkpt lat="45.58253448296918" lon="10.162374098445175"><ele>152.0</ele><time>2026-03-24T15:13:50Z</time></trkpt><trkpt lat="45.58256653338823" lon="10.162296341065854"><ele>152.0</ele><time>2026-03-24T15:13:51Z</time></trkpt><trkpt lat="45.582628526011824" lon="10.162140983091245"><ele>152.2</ele><time>2026-03-24T15:13:53Z</time></trkpt><trkpt lat="45.582659186833446" lon="10.162062343799384"><ele>152.39999999999998</ele><time>2026-03-24T15:13:54Z</time></trkpt><trkpt lat="45.5827246857219" lon="10.16191685408588"><ele>152.60000000000002</ele><time>2026-03-24T15:13:56Z</time></trkpt><trkpt lat="45.58279166598917" lon="10.161762898280776"><ele>152.8</ele><time>2026-03-24T15:13:58Z</time></trkpt><trkpt lat="45.58282458305637" lon="10.16168382495217"><ele>153.0</ele><time>2026-03-24T15:13:59Z</time></trkpt><trkpt lat="45.58289070327193" lon="10.161529416676212"><ele>153.6</ele><time>2026-03-24T15:14:01Z</time></trkpt><trkpt lat="45.582924269137735" lon="10.161452912369672"><ele>154.20000000000002</ele><time>2026-03-24T15:14:02Z</time></trkpt><trkpt lat="45.582999720265995" lon="10.161311256078198"><ele>154.8</ele><time>2026-03-24T15:14:04Z</time></trkpt><trkpt lat="45.58307895031233" lon="10.1611766173404"><ele>155.4</ele><time>2026-03-24T15:14:06Z</time></trkpt><trkpt lat="45.5831532172008" lon="10.161037054653677"><ele>156.0</ele><time>2026-03-24T15:14:08Z</time></trkpt><trkpt lat="45.58322906444276" lon="10.160904350622001"><ele>156.0</ele><time>2026-03-24T15:14:10Z</time></trkpt><trkpt lat="45.58330186149915" lon="10.160774989026043"><ele>156.0</ele><time>2026-03-24T15:14:12Z</time></trkpt><trkpt lat="45.58337517613376" lon="10.160643638828217"><ele>156.0</ele><time>2026-03-24T15:14:14Z</time></trkpt><trkpt lat="45.583447091021355" lon="10.160516482750458"><ele>156.0</ele><time>2026-03-24T15:14:16Z</time></trkpt><trkpt lat="45.5835247203071" lon="10.160383897456223"><ele>156.0</ele><time>2026-03-24T15:14:18Z</time></trkpt><trkpt lat="45.58360065051401" lon="10.160247709033163"><ele>156.0</ele><time>2026-03-24T15:14:20Z</time></trkpt><trkpt lat="45.58367385980731" lon="10.160109034308594"><ele>156.0</ele><time>2026-03-24T15:14:22Z</time></trkpt><trkpt lat="45.58373737626559" lon="10.159960209179502"><ele>156.0</ele><time>2026-03-24T15:14:24Z</time></trkpt><trkpt lat="45.58380094741364" lon="10.159820938390316"><ele>156.25</ele><time>2026-03-24T15:14:26Z</time></trkpt><trkpt lat="45.58388094929522" lon="10.15969075122415"><ele>156.5</ele><time>2026-03-24T15:14:28Z</time></trkpt><trkpt lat="45.58396050600457" lon="10.159556689495151"><ele>156.75</ele><time>2026-03-24T15:14:30Z</time></trkpt><trkpt lat="45.58403515733819" lon="10.159422635893804"><ele>157.0</ele><time>2026-03-24T15:14:32Z</time></trkpt><trkpt lat="45.58411263104078" lon="10.15929256163057"><ele>157.0</ele><time>2026-03-24T15:14:34Z</time></trkpt><trkpt lat="45.58418841693119" lon="10.159158540669708"><ele>157.0</ele><time>2026-03-24T15:14:36Z</time></trkpt><trkpt lat="45.58426404700166" lon="10.15902462724245"><ele>157.0</ele><time>2026-03-24T15:14:38Z</time></trkpt><trkpt lat="45.58434545843011" lon="10.158892020019783"><ele>157.0</ele><time>2026-03-24T15:14:40Z</time></trkpt><trkpt lat="45.584421238954846" lon="10.158764129258591"><ele>157.2</ele><time>2026-03-24T15:14:42Z</time></trkpt><trkpt lat="45.584495931118695" lon="10.15863291998088"><ele>157.39999999999998</ele><time>2026-03-24T15:14:44Z</time></trkpt><trkpt lat="45.584576852898564" lon="10.158522037403419"><ele>157.60000000000002</ele><time>2026-03-24T15:14:46Z</time></trkpt><trkpt lat="45.584654066278404" lon="10.15844048419317"><ele>157.8</ele><time>2026-03-24T15:14:48Z</time></trkpt><trkpt lat="45.58471178118507" lon="10.158330953133898"><ele>158.0</ele><time>2026-03-24T15:14:50Z</time></trkpt><trkpt lat="45.58478097521962" lon="10.158217837100329"><ele>158.20000000000002</ele><time>2026-03-24T15:14:52Z</time></trkpt><trkpt lat="45.584845717452055" lon="10.158103448815268"><ele>158.4</ele><time>2026-03-24T15:14:53.999Z</time></trkpt><trkpt lat="45.58491708704618" lon="10.15798276285721"><ele>158.60000000000002</ele><time>2026-03-24T15:14:55.999Z</time></trkpt><trkpt lat="45.584987715579146" lon="10.157867549589986"><ele>158.8</ele><time>2026-03-24T15:14:57.999Z</time></trkpt><trkpt lat="45.58505982589145" lon="10.157752290326439"><ele>159.0</ele><time>2026-03-24T15:14:59.999Z</time></trkpt><trkpt lat="45.58514147460184" lon="10.15764142137102"><ele>159.0</ele><time>2026-03-24T15:15:01.999Z</time></trkpt><trkpt lat="45.585216069008304" lon="10.157538530442134"><ele>159.0</ele><time>2026-03-24T15:15:03.999Z</time></trkpt><trkpt lat="45.585270862445775" lon="10.157474821838818"><ele>159.0</ele><time>2026-03-24T15:15:05.999Z</time></trkpt><trkpt lat="45.58532662590107" lon="10.157418407546523"><ele>159.0</ele><time>2026-03-24T15:15:08.999Z</time></trkpt><trkpt lat="45.58538034193274" lon="10.157306395678763"><ele>159.0</ele><time>2026-03-24T15:15:11.999Z</time></trkpt><trkpt lat="45.58544697111232" lon="10.157245500704626"><ele>159.0</ele><time>2026-03-24T15:15:13.999Z</time></trkpt><trkpt lat="45.585519877157175" lon="10.15717093513214"><ele>159.6</ele><time>2026-03-24T15:15:15.999Z</time></trkpt><trkpt lat="45.5856039598773" lon="10.157100639407922"><ele>160.2</ele><time>2026-03-24T15:15:17.999Z</time></trkpt><trkpt lat="45.585690733384986" lon="10.157026401348457"><ele>160.79999999999998</ele><time>2026-03-24T15:15:19.999Z</time></trkpt><trkpt lat="45.58578358390046" lon="10.15695846760305"><ele>161.4</ele><time>2026-03-24T15:15:21.999Z</time></trkpt><trkpt lat="45.585878413081645" lon="10.156889901105417"><ele>162.0</ele><time>2026-03-24T15:15:23.999Z</time></trkpt><trkpt lat="45.58596456927484" lon="10.156807240869613"><ele>162.0</ele><time>2026-03-24T15:15:25.999Z</time></trkpt><trkpt lat="45.586036323571804" lon="10.156715851892171"><ele>162.0</ele><time>2026-03-24T15:15:27.999Z</time></trkpt><trkpt lat="45.586108869549456" lon="10.15667985884191"><ele>162.0</ele><time>2026-03-24T15:15:29.999Z</time></trkpt><trkpt lat="45.586191986553686" lon="10.156705819784566"><ele>162.0</ele><time>2026-03-24T15:15:32.001Z</time></trkpt><trkpt lat="45.58627405548237" lon="10.156646788323132"><ele>162.0</ele><time>2026-03-24T15:15:34.001Z</time></trkpt><trkpt lat="45.58631413417005" lon="10.156525817762939"><ele>162.0</ele><time>2026-03-24T15:15:36.001Z</time></trkpt><trkpt lat="45.586313657267624" lon="10.156384307154214"><ele>161.8</ele><time>2026-03-24T15:15:38.001Z</time></trkpt><trkpt lat="45.58627995757709" lon="10.156246776170242"><ele>161.6</ele><time>2026-03-24T15:15:40.001Z</time></trkpt><trkpt lat="45.58620794378092" lon="10.156128130660147"><ele>161.4</ele><time>2026-03-24T15:15:42.001Z</time></trkpt><trkpt lat="45.586147853089514" lon="10.155988638511817"><ele>161.20000000000002</ele><time>2026-03-24T15:15:44.001Z</time></trkpt><trkpt lat="45.58614280632571" lon="10.155898356420716"><ele>161.0</ele><time>2026-03-24T15:15:45.001Z</time></trkpt><trkpt lat="45.5861532018345" lon="10.15572906116564"><ele>160.4</ele><time>2026-03-24T15:15:47.001Z</time></trkpt><trkpt lat="45.58615400122514" lon="10.155553304680408"><ele>159.8</ele><time>2026-03-24T15:15:49Z</time></trkpt><trkpt lat="45.58615817237412" lon="10.155463155609292"><ele>159.20000000000002</ele><time>2026-03-24T15:15:50Z</time></trkpt><trkpt lat="45.5861600102954" lon="10.155289622475491"><ele>158.60000000000002</ele><time>2026-03-24T15:15:52Z</time></trkpt><trkpt lat="45.58616021615033" lon="10.155107935998757"><ele>158.0</ele><time>2026-03-24T15:15:54Z</time></trkpt><trkpt lat="45.586165409941145" lon="10.15492765209735"><ele>158.5</ele><time>2026-03-24T15:15:56Z</time></trkpt><trkpt lat="45.58616394600137" lon="10.154751110708217"><ele>159.0</ele><time>2026-03-24T15:15:58Z</time></trkpt><trkpt lat="45.58616171704499" lon="10.154577919532462"><ele>159.5</ele><time>2026-03-24T15:16:00Z</time></trkpt><trkpt lat="45.5861670381499" lon="10.154425267401821"><ele>160.0</ele><time>2026-03-24T15:16:02Z</time></trkpt><trkpt lat="45.586198442596974" lon="10.154271617419438"><ele>160.0</ele><time>2026-03-24T15:16:04Z</time></trkpt><trkpt lat="45.586237918953735" lon="10.154115475109375"><ele>160.0</ele><time>2026-03-24T15:16:06Z</time></trkpt><trkpt lat="45.586236423688995" lon="10.15395583519021"><ele>160.0</ele><time>2026-03-24T15:16:08Z</time></trkpt><trkpt lat="45.586191687488295" lon="10.153885433633583"><ele>160.0</ele><time>2026-03-24T15:16:09Z</time></trkpt><trkpt lat="45.58612628195496" lon="10.153857817224983"><ele>160.0</ele><time>2026-03-24T15:16:10Z</time></trkpt><trkpt lat="45.58605579321169" lon="10.153866726796387"><ele>160.0</ele><time>2026-03-24T15:16:11Z</time></trkpt><trkpt lat="45.58599348168763" lon="10.15391198983266"><ele>160.0</ele><time>2026-03-24T15:16:12Z</time></trkpt><trkpt lat="45.58593644180493" lon="10.153961641744079"><ele>160.0</ele><time>2026-03-24T15:16:13Z</time></trkpt><trkpt lat="45.58587493537721" lon="10.153996839922248"><ele>160.0</ele><time>2026-03-24T15:16:14Z</time></trkpt><trkpt lat="45.58580961301068" lon="10.154005309595039"><ele>160.0</ele><time>2026-03-24T15:16:15Z</time></trkpt><trkpt lat="45.58574702842713" lon="10.15399473879361"><ele>160.0</ele><time>2026-03-24T15:16:16Z</time></trkpt><trkpt lat="45.58568409155587" lon="10.153985604932819"><ele>160.0</ele><time>2026-03-24T15:16:17Z</time></trkpt><trkpt lat="45.585561104951296" lon="10.153977923043255"><ele>160.0</ele><time>2026-03-24T15:16:19Z</time></trkpt><trkpt lat="45.58549788997988" lon="10.153972666008086"><ele>160.0</ele><time>2026-03-24T15:16:20Z</time></trkpt><trkpt lat="45.5853820734066" lon="10.153957088606052"><ele>160.0</ele><time>2026-03-24T15:16:22Z</time></trkpt><trkpt lat="45.585316656549374" lon="10.15395499045494"><ele>160.0</ele><time>2026-03-24T15:16:23Z</time></trkpt><trkpt lat="45.58519477184512" lon="10.15394751899807"><ele>160.0</ele><time>2026-03-24T15:16:25Z</time></trkpt><trkpt lat="45.58507331355552" lon="10.153932253332048"><ele>160.0</ele><time>2026-03-24T15:16:27Z</time></trkpt><trkpt lat="45.585009855914635" lon="10.153925148510677"><ele>159.8</ele><time>2026-03-24T15:16:28Z</time></trkpt><trkpt lat="45.58488275276868" lon="10.153915996144937"><ele>159.6</ele><time>2026-03-24T15:16:30Z</time></trkpt><trkpt lat="45.58481948371573" lon="10.153910695154499"><ele>159.4</ele><time>2026-03-24T15:16:31Z</time></trkpt><trkpt lat="45.58475412674848" lon="10.153907023073067"><ele>159.2</ele><time>2026-03-24T15:16:32Z</time></trkpt><trkpt lat="45.58462722380832" lon="10.153895336004867"><ele>159.0</ele><time>2026-03-24T15:16:34Z</time></trkpt><trkpt lat="45.584507350293784" lon="10.153886587226923"><ele>158.75</ele><time>2026-03-24T15:16:36Z</time></trkpt><trkpt lat="45.58439210037384" lon="10.153890219882928"><ele>158.5</ele><time>2026-03-24T15:16:38Z</time></trkpt><trkpt lat="45.5842779811156" lon="10.153878823557207"><ele>158.25</ele><time>2026-03-24T15:16:40Z</time></trkpt><trkpt lat="45.58416597663682" lon="10.153880686001576"><ele>158.0</ele><time>2026-03-24T15:16:42Z</time></trkpt><trkpt lat="45.584074101700324" lon="10.153980606858036"><ele>157.75</ele><time>2026-03-24T15:16:44Z</time></trkpt><trkpt lat="45.58397954504657" lon="10.154079009718814"><ele>157.5</ele><time>2026-03-24T15:16:46Z</time></trkpt><trkpt lat="45.58386060787217" lon="10.154117041960392"><ele>157.25</ele><time>2026-03-24T15:16:48Z</time></trkpt><trkpt lat="45.58373853370607" lon="10.154104930774752"><ele>157.0</ele><time>2026-03-24T15:16:50Z</time></trkpt><trkpt lat="45.58362541854344" lon="10.154074442596494"><ele>157.0</ele><time>2026-03-24T15:16:51.999Z</time></trkpt><trkpt lat="45.583512382611744" lon="10.154051034820947"><ele>157.0</ele><time>2026-03-24T15:16:53.999Z</time></trkpt><trkpt lat="45.58339232328916" lon="10.154026979525614"><ele>157.0</ele><time>2026-03-24T15:16:55.999Z</time></trkpt><trkpt lat="45.58327313007208" lon="10.153998315491867"><ele>157.0</ele><time>2026-03-24T15:16:57.999Z</time></trkpt><trkpt lat="45.583161948299875" lon="10.153970955265143"><ele>157.25</ele><time>2026-03-24T15:16:59.999Z</time></trkpt><trkpt lat="45.58306005804662" lon="10.15392064576094"><ele>157.5</ele><time>2026-03-24T15:17:01.999Z</time></trkpt><trkpt lat="45.58297372249787" lon="10.153846434792609"><ele>157.75</ele><time>2026-03-24T15:17:03.999Z</time></trkpt><trkpt lat="45.58296619076833" lon="10.153615456818674"><ele>158.0</ele><time>2026-03-24T15:17:06.999Z</time></trkpt><trkpt lat="45.582956108541175" lon="10.15345723453627"><ele>158.0</ele><time>2026-03-24T15:17:08.999Z</time></trkpt><trkpt lat="45.582985208912056" lon="10.15330245386889"><ele>158.0</ele><time>2026-03-24T15:17:10.999Z</time></trkpt><trkpt lat="45.58300179019838" lon="10.153147560096572"><ele>158.0</ele><time>2026-03-24T15:17:12.999Z</time></trkpt><trkpt lat="45.58301870095924" lon="10.152993014255165"><ele>158.0</ele><time>2026-03-24T15:17:14.999Z</time></trkpt><trkpt lat="45.58303539910018" lon="10.152842287038366"><ele>158.0</ele><time>2026-03-24T15:17:16.999Z</time></trkpt><trkpt lat="45.58304899274681" lon="10.15269226189497"><ele>157.6</ele><time>2026-03-24T15:17:18.999Z</time></trkpt><trkpt lat="45.58306534571746" lon="10.152542358354298"><ele>157.20000000000002</ele><time>2026-03-24T15:17:20.999Z</time></trkpt><trkpt lat="45.5830803573001" lon="10.152392500801428"><ele>156.8</ele><time>2026-03-24T15:17:22.999Z</time></trkpt><trkpt lat="45.583096765126996" lon="10.152245571112063"><ele>156.4</ele><time>2026-03-24T15:17:24.999Z</time></trkpt><trkpt lat="45.58310778773891" lon="10.152099285243033"><ele>156.0</ele><time>2026-03-24T15:17:26.999Z</time></trkpt><trkpt lat="45.58312745031236" lon="10.151941343796375"><ele>156.0</ele><time>2026-03-24T15:17:28.999Z</time></trkpt><trkpt lat="45.58312789915285" lon="10.15176596029231"><ele>156.0</ele><time>2026-03-24T15:17:30.999Z</time></trkpt><trkpt lat="45.58314400586019" lon="10.151621494286282"><ele>156.0</ele><time>2026-03-24T15:17:32.999Z</time></trkpt><trkpt lat="45.58300141387264" lon="10.151562989982907"><ele>156.0</ele><time>2026-03-24T15:17:33.999Z</time></trkpt><trkpt lat="45.58294267017971" lon="10.151526117053495"><ele>156.0</ele><time>2026-03-24T15:17:34.999Z</time></trkpt><trkpt lat="45.5828407950219" lon="10.151434342608738"><ele>155.25</ele><time>2026-03-24T15:17:36.999Z</time></trkpt><trkpt lat="45.58274933829056" lon="10.15134695911987"><ele>154.5</ele><time>2026-03-24T15:17:39Z</time></trkpt><trkpt lat="45.58263870392345" lon="10.15127765094628"><ele>153.75</ele><time>2026-03-24T15:17:41Z</time></trkpt><trkpt lat="45.582532925628854" lon="10.151182670097175"><ele>153.0</ele><time>2026-03-24T15:17:43Z</time></trkpt><trkpt lat="45.58243266249952" lon="10.151078518580292"><ele>153.0</ele><time>2026-03-24T15:17:45Z</time></trkpt><trkpt lat="45.58238096943739" lon="10.151025395642929"><ele>153.0</ele><time>2026-03-24T15:17:46Z</time></trkpt><trkpt lat="45.582329330072454" lon="10.15097094879799"><ele>153.0</ele><time>2026-03-24T15:17:47Z</time></trkpt><trkpt lat="45.582236732471365" lon="10.150858904797111"><ele>153.0</ele><time>2026-03-24T15:17:49Z</time></trkpt><trkpt lat="45.58218522756414" lon="10.15080394804546"><ele>153.0</ele><time>2026-03-24T15:17:50Z</time></trkpt><trkpt lat="45.58209441891791" lon="10.150684718914626"><ele>153.0</ele><time>2026-03-24T15:17:52Z</time></trkpt><trkpt lat="45.58200689254267" lon="10.150560056634623"><ele>152.0</ele><time>2026-03-24T15:17:54Z</time></trkpt><trkpt lat="45.58191829840343" lon="10.150437265555983"><ele>151.0</ele><time>2026-03-24T15:17:56Z</time></trkpt><trkpt lat="45.58182665608154" lon="10.150322790743173"><ele>150.0</ele><time>2026-03-24T15:17:58Z</time></trkpt><trkpt lat="45.58177431919493" lon="10.15026920167161"><ele>149.0</ele><time>2026-03-24T15:17:59Z</time></trkpt><trkpt lat="45.58167729392351" lon="10.150162103275722"><ele>148.0</ele><time>2026-03-24T15:18:01Z</time></trkpt><trkpt lat="45.581625340306125" lon="10.1501088930351"><ele>148.0</ele><time>2026-03-24T15:18:02Z</time></trkpt><trkpt lat="45.58152258335852" lon="10.150017414403663"><ele>148.0</ele><time>2026-03-24T15:18:04Z</time></trkpt><trkpt lat="45.58147006344721" lon="10.149965783450904"><ele>148.0</ele><time>2026-03-24T15:18:05Z</time></trkpt><trkpt lat="45.58137291054836" lon="10.149859147176612"><ele>148.0</ele><time>2026-03-24T15:18:07Z</time></trkpt><trkpt lat="45.58127137810773" lon="10.149757763690733"><ele>148.0</ele><time>2026-03-24T15:18:09Z</time></trkpt><trkpt lat="45.58116936885527" lon="10.149656810021208"><ele>147.8</ele><time>2026-03-24T15:18:11Z</time></trkpt><trkpt lat="45.581117278913396" lon="10.149605627622101"><ele>147.60000000000002</ele><time>2026-03-24T15:18:12Z</time></trkpt><trkpt lat="45.58101316795649" lon="10.149508262559936"><ele>147.39999999999998</ele><time>2026-03-24T15:18:14Z</time></trkpt><trkpt lat="45.58090934898484" lon="10.1494139597857"><ele>147.2</ele><time>2026-03-24T15:18:16Z</time></trkpt><trkpt lat="45.580811039368875" lon="10.149301954459602"><ele>147.0</ele><time>2026-03-24T15:18:18Z</time></trkpt><trkpt lat="45.58074150023833" lon="10.149282154602096"><ele>147.0</ele><time>2026-03-24T15:18:19Z</time></trkpt><trkpt lat="45.5806537224676" lon="10.149171809275865"><ele>147.0</ele><time>2026-03-24T15:18:21Z</time></trkpt><trkpt lat="45.58057361455697" lon="10.149053531306759"><ele>147.0</ele><time>2026-03-24T15:18:23Z</time></trkpt><trkpt lat="45.58049112750171" lon="10.148958876116462"><ele>147.0</ele><time>2026-03-24T15:18:25Z</time></trkpt><trkpt lat="45.58041602937914" lon="10.148806040719819"><ele>147.0</ele><time>2026-03-24T15:18:27Z</time></trkpt><trkpt lat="45.58037252565657" lon="10.148635064726127"><ele>147.0</ele><time>2026-03-24T15:18:29Z</time></trkpt><trkpt lat="45.58033605695735" lon="10.148560892255787"><ele>147.0</ele><time>2026-03-24T15:18:30Z</time></trkpt><trkpt lat="45.580270683511536" lon="10.14842076184243"><ele>147.0</ele><time>2026-03-24T15:18:32Z</time></trkpt><trkpt lat="45.58021151978568" lon="10.148282281150692"><ele>147.0</ele><time>2026-03-24T15:18:34Z</time></trkpt><trkpt lat="45.58016016163294" lon="10.148147789970764"><ele>147.0</ele><time>2026-03-24T15:18:36Z</time></trkpt><trkpt lat="45.58011063495264" lon="10.148001540348693"><ele>147.0</ele><time>2026-03-24T15:18:38Z</time></trkpt><trkpt lat="45.58006668985943" lon="10.147851890214246"><ele>147.0</ele><time>2026-03-24T15:18:40Z</time></trkpt><trkpt lat="45.58002102989936" lon="10.147697343951881"><ele>147.0</ele><time>2026-03-24T15:18:42Z</time></trkpt><trkpt lat="45.579985129390494" lon="10.147536458753644"><ele>147.25</ele><time>2026-03-24T15:18:44Z</time></trkpt><trkpt lat="45.5799511469516" lon="10.147374810251891"><ele>147.5</ele><time>2026-03-24T15:18:46Z</time></trkpt><trkpt lat="45.579916931182254" lon="10.14721744799189"><ele>147.75</ele><time>2026-03-24T15:18:48Z</time></trkpt><trkpt lat="45.57989735935647" lon="10.147061683173279"><ele>148.0</ele><time>2026-03-24T15:18:50Z</time></trkpt><trkpt lat="45.579881832892845" lon="10.146903143076718"><ele>148.0</ele><time>2026-03-24T15:18:52Z</time></trkpt><trkpt lat="45.57986923347218" lon="10.146752816950723"><ele>148.0</ele><time>2026-03-24T15:18:54Z</time></trkpt><trkpt lat="45.57985197044599" lon="10.14659314754126"><ele>148.0</ele><time>2026-03-24T15:18:55.999Z</time></trkpt><trkpt lat="45.57983148579132" lon="10.146438202090087"><ele>148.0</ele><time>2026-03-24T15:18:57.999Z</time></trkpt><trkpt lat="45.57981533880227" lon="10.146314115145538"><ele>148.0</ele><time>2026-03-24T15:18:59.999Z</time></trkpt><trkpt lat="45.57977844762163" lon="10.146230088932446"><ele>147.66666666666669</ele><time>2026-03-24T15:19:01.999Z</time></trkpt><trkpt lat="45.579771786910705" lon="10.146118013429549"><ele>147.33333333333334</ele><time>2026-03-24T15:19:03.999Z</time></trkpt><trkpt lat="45.57978634893325" lon="10.146027200950138"><ele>147.0</ele><time>2026-03-24T15:19:06.999Z</time></trkpt><trkpt lat="45.57980222351032" lon="10.145912335212069"><ele>146.66666666666666</ele><time>2026-03-24T15:19:09.999Z</time></trkpt><trkpt lat="45.57980379602803" lon="10.1458097791047"><ele>146.33333333333331</ele><time>2026-03-24T15:19:11.999Z</time></trkpt><trkpt lat="45.579768511647494" lon="10.145706630907338"><ele>146.0</ele><time>2026-03-24T15:19:13.999Z</time></trkpt><trkpt lat="45.579687733039414" lon="10.145652370374403"><ele>145.8</ele><time>2026-03-24T15:19:15.999Z</time></trkpt><trkpt lat="45.579590816294115" lon="10.145676442260203"><ele>145.6</ele><time>2026-03-24T15:19:17.999Z</time></trkpt><trkpt lat="45.579510542800264" lon="10.145774125193576"><ele>145.4</ele><time>2026-03-24T15:19:19.999Z</time></trkpt><trkpt lat="45.57944978370992" lon="10.14588998488779"><ele>145.2</ele><time>2026-03-24T15:19:21.999Z</time></trkpt><trkpt lat="45.57937365801809" lon="10.145899132093458"><ele>145.0</ele><time>2026-03-24T15:19:22.999Z</time></trkpt><trkpt lat="45.57926288447092" lon="10.145949193535662"><ele>145.0</ele><time>2026-03-24T15:19:24.999Z</time></trkpt><trkpt lat="45.57914435019444" lon="10.145984814839181"><ele>145.0</ele><time>2026-03-24T15:19:26.999Z</time></trkpt><trkpt lat="45.57902494184798" lon="10.146024991863484"><ele>145.0</ele><time>2026-03-24T15:19:28.999Z</time></trkpt><trkpt lat="45.578903877768205" lon="10.14606345832739"><ele>145.0</ele><time>2026-03-24T15:19:30.999Z</time></trkpt><trkpt lat="45.578841331208594" lon="10.146082471244476"><ele>145.0</ele><time>2026-03-24T15:19:31.999Z</time></trkpt><trkpt lat="45.57872162937037" lon="10.146113506828913"><ele>144.4</ele><time>2026-03-24T15:19:33.999Z</time></trkpt><trkpt lat="45.5785975054336" lon="10.146131857243793"><ele>143.8</ele><time>2026-03-24T15:19:35.999Z</time></trkpt><trkpt lat="45.57847415523295" lon="10.146135934380963"><ele>143.2</ele><time>2026-03-24T15:19:37.999Z</time></trkpt><trkpt lat="45.578411104446104" lon="10.14613142133947"><ele>142.6</ele><time>2026-03-24T15:19:38.999Z</time></trkpt><trkpt lat="45.57828630527602" lon="10.146107827154006"><ele>142.0</ele><time>2026-03-24T15:19:40.999Z</time></trkpt><trkpt lat="45.57822331074194" lon="10.146095163388104"><ele>142.0</ele><time>2026-03-24T15:19:41.999Z</time></trkpt><trkpt lat="45.578160543398326" lon="10.146080758827143"><ele>142.0</ele><time>2026-03-24T15:19:43Z</time></trkpt><trkpt lat="45.57803907497383" lon="10.14605553090336"><ele>142.0</ele><time>2026-03-24T15:19:45Z</time></trkpt><trkpt lat="45.57791842805634" lon="10.146032813643094"><ele>142.0</ele><time>2026-03-24T15:19:47Z</time></trkpt><trkpt lat="45.57779906293514" lon="10.146004876488306"><ele>142.0</ele><time>2026-03-24T15:19:49Z</time></trkpt><trkpt lat="45.57767786609466" lon="10.145976173783888"><ele>142.5</ele><time>2026-03-24T15:19:51Z</time></trkpt><trkpt lat="45.577553916966174" lon="10.145949320161808"><ele>143.0</ele><time>2026-03-24T15:19:53Z</time></trkpt><trkpt lat="45.577432004553366" lon="10.145922390089137"><ele>143.5</ele><time>2026-03-24T15:19:55Z</time></trkpt><trkpt lat="45.577311895832146" lon="10.145889103798286"><ele>144.0</ele><time>2026-03-24T15:19:57Z</time></trkpt><trkpt lat="45.57719467720759" lon="10.145852233446877"><ele>144.0</ele><time>2026-03-24T15:19:59Z</time></trkpt><trkpt lat="45.57707765725611" lon="10.145812246108084"><ele>144.0</ele><time>2026-03-24T15:20:01Z</time></trkpt><trkpt lat="45.576961960445" lon="10.145763597135455"><ele>144.0</ele><time>2026-03-24T15:20:03Z</time></trkpt><trkpt lat="45.57684744359125" lon="10.145714444678973"><ele>144.0</ele><time>2026-03-24T15:20:05Z</time></trkpt><trkpt lat="45.57673407553184" lon="10.145660103176276"><ele>143.5</ele><time>2026-03-24T15:20:07Z</time></trkpt><trkpt lat="45.57661828343146" lon="10.145606775925286"><ele>143.0</ele><time>2026-03-24T15:20:09Z</time></trkpt><trkpt lat="45.57650028644444" lon="10.145551565882027"><ele>142.5</ele><time>2026-03-24T15:20:11Z</time></trkpt><trkpt lat="45.57638390007602" lon="10.14549508304819"><ele>142.0</ele><time>2026-03-24T15:20:13Z</time></trkpt><trkpt lat="45.57626759896613" lon="10.145438991059061"><ele>141.75</ele><time>2026-03-24T15:20:15Z</time></trkpt><trkpt lat="45.57615154088655" lon="10.145377416291945"><ele>141.5</ele><time>2026-03-24T15:20:17Z</time></trkpt><trkpt lat="45.57604043731335" lon="10.145309677149573"><ele>141.25</ele><time>2026-03-24T15:20:19Z</time></trkpt><trkpt lat="45.57592680449629" lon="10.145243697160838"><ele>141.0</ele><time>2026-03-24T15:20:21Z</time></trkpt><trkpt lat="45.57581525312712" lon="10.145177724069432"><ele>141.0</ele><time>2026-03-24T15:20:23Z</time></trkpt><trkpt lat="45.57570318509" lon="10.145111955224788"><ele>141.0</ele><time>2026-03-24T15:20:25Z</time></trkpt><trkpt lat="45.575588549251" lon="10.145049923599839"><ele>141.0</ele><time>2026-03-24T15:20:27Z</time></trkpt><trkpt lat="45.57547974995657" lon="10.144973059964675"><ele>141.0</ele><time>2026-03-24T15:20:29Z</time></trkpt><trkpt lat="45.5753934487954" lon="10.144847991858155"><ele>140.6</ele><time>2026-03-24T15:20:31Z</time></trkpt><trkpt lat="45.57537128951407" lon="10.144763393024276"><ele>140.2</ele><time>2026-03-24T15:20:32Z</time></trkpt><trkpt lat="45.575361635273886" lon="10.1445900023788"><ele>139.8</ele><time>2026-03-24T15:20:34Z</time></trkpt><trkpt lat="45.57538722564201" lon="10.144421171304367"><ele>139.4</ele><time>2026-03-24T15:20:36Z</time></trkpt><trkpt lat="45.57539471401239" lon="10.144254545147733"><ele>139.0</ele><time>2026-03-24T15:20:38Z</time></trkpt><trkpt lat="45.5753905998655" lon="10.144092404226614"><ele>139.25</ele><time>2026-03-24T15:20:40Z</time></trkpt><trkpt lat="45.57545681711319" lon="10.143923547843341"><ele>139.5</ele><time>2026-03-24T15:20:42Z</time></trkpt><trkpt lat="45.57547573730621" lon="10.14375834151975"><ele>139.75</ele><time>2026-03-24T15:20:44Z</time></trkpt><trkpt lat="45.57549103860675" lon="10.143596335268521"><ele>140.0</ele><time>2026-03-24T15:20:46Z</time></trkpt><trkpt lat="45.57549985931793" lon="10.14343766110188"><ele>140.0</ele><time>2026-03-24T15:20:48Z</time></trkpt><trkpt lat="45.5755056137512" lon="10.143280969843715"><ele>140.0</ele><time>2026-03-24T15:20:50Z</time></trkpt><trkpt lat="45.575512666558964" lon="10.143122972591582"><ele>140.0</ele><time>2026-03-24T15:20:52Z</time></trkpt><trkpt lat="45.57551458751836" lon="10.142968025131575"><ele>140.0</ele><time>2026-03-24T15:20:54Z</time></trkpt><trkpt lat="45.57551646908681" lon="10.142814667062463"><ele>140.0</ele><time>2026-03-24T15:20:55.999Z</time></trkpt><trkpt lat="45.57551179837488" lon="10.142661568919822"><ele>140.5</ele><time>2026-03-24T15:20:57.999Z</time></trkpt><trkpt lat="45.5755010828593" lon="10.142503602598902"><ele>141.0</ele><time>2026-03-24T15:20:59.999Z</time></trkpt><trkpt lat="45.575484380734544" lon="10.142345116716108"><ele>141.5</ele><time>2026-03-24T15:21:01.999Z</time></trkpt><trkpt lat="45.575463995310926" lon="10.142187327521453"><ele>142.0</ele><time>2026-03-24T15:21:03.999Z</time></trkpt><trkpt lat="45.575440160068794" lon="10.142027412513452"><ele>142.0</ele><time>2026-03-24T15:21:05.999Z</time></trkpt><trkpt lat="45.57541532089999" lon="10.141865898749671"><ele>142.0</ele><time>2026-03-24T15:21:07.999Z</time></trkpt><trkpt lat="45.57539113631986" lon="10.141702341076149"><ele>142.0</ele><time>2026-03-24T15:21:09.999Z</time></trkpt><trkpt lat="45.575367346964455" lon="10.141536682714053"><ele>142.0</ele><time>2026-03-24T15:21:11.999Z</time></trkpt><trkpt lat="45.57534332635875" lon="10.141374043449241"><ele>142.25</ele><time>2026-03-24T15:21:13.999Z</time></trkpt><trkpt lat="45.57531910664728" lon="10.141211682372758"><ele>142.5</ele><time>2026-03-24T15:21:15.999Z</time></trkpt><trkpt lat="45.57529431618864" lon="10.141046751088266"><ele>142.75</ele><time>2026-03-24T15:21:17.999Z</time></trkpt><trkpt lat="45.575268239816324" lon="10.140883572933426"><ele>143.0</ele><time>2026-03-24T15:21:19.999Z</time></trkpt><trkpt lat="45.575235490532904" lon="10.140722081954467"><ele>142.8</ele><time>2026-03-24T15:21:21.999Z</time></trkpt><trkpt lat="45.5751985292889" lon="10.140563734074089"><ele>142.60000000000002</ele><time>2026-03-24T15:21:23.999Z</time></trkpt><trkpt lat="45.57514699488093" lon="10.140409908660027"><ele>142.39999999999998</ele><time>2026-03-24T15:21:25.999Z</time></trkpt><trkpt lat="45.57508227415504" lon="10.1402613264034"><ele>142.2</ele><time>2026-03-24T15:21:27.999Z</time></trkpt><trkpt lat="45.575044405551246" lon="10.140188923681556"><ele>142.0</ele><time>2026-03-24T15:21:28.999Z</time></trkpt><trkpt lat="45.574961348337936" lon="10.14005197108473"><ele>142.0</ele><time>2026-03-24T15:21:30.999Z</time></trkpt><trkpt lat="45.5749204578852" lon="10.139983053290331"><ele>142.0</ele><time>2026-03-24T15:21:31.999Z</time></trkpt><trkpt lat="45.57487773862586" lon="10.139916389205355"><ele>142.0</ele><time>2026-03-24T15:21:32.999Z</time></trkpt><trkpt lat="45.574834325530624" lon="10.139848607091132"><ele>142.0</ele><time>2026-03-24T15:21:33.999Z</time></trkpt><trkpt lat="45.57479122374552" lon="10.139781144685577"><ele>142.0</ele><time>2026-03-24T15:21:34.999Z</time></trkpt><trkpt lat="45.5747056782748" lon="10.139647674939058"><ele>142.0</ele><time>2026-03-24T15:21:36.999Z</time></trkpt><trkpt lat="45.574623552575936" lon="10.139514976188211"><ele>142.0</ele><time>2026-03-24T15:21:38.999Z</time></trkpt><trkpt lat="45.574581068682996" lon="10.139447873090983"><ele>142.0</ele><time>2026-03-24T15:21:39.999Z</time></trkpt><trkpt lat="45.574539784320464" lon="10.1393792588322"><ele>142.0</ele><time>2026-03-24T15:21:40.999Z</time></trkpt><trkpt lat="45.57449974060342" lon="10.139309595124587"><ele>142.0</ele><time>2026-03-24T15:21:41.999Z</time></trkpt><trkpt lat="45.57445989353765" lon="10.139238983332586"><ele>142.0</ele><time>2026-03-24T15:21:42.999Z</time></trkpt><trkpt lat="45.57441997428483" lon="10.139168236703819"><ele>142.0</ele><time>2026-03-24T15:21:43.999Z</time></trkpt><trkpt lat="45.57438117288955" lon="10.13909733362532"><ele>142.0</ele><time>2026-03-24T15:21:44.999Z</time></trkpt><trkpt lat="45.574307730320356" lon="10.138959685143487"><ele>141.5</ele><time>2026-03-24T15:21:46.999Z</time></trkpt><trkpt lat="45.574236947901674" lon="10.13881730375426"><ele>141.0</ele><time>2026-03-24T15:21:49Z</time></trkpt><trkpt lat="45.57416737537905" lon="10.138670692210962"><ele>140.5</ele><time>2026-03-24T15:21:51Z</time></trkpt><trkpt lat="45.574098562524924" lon="10.138523531341836"><ele>140.0</ele><time>2026-03-24T15:21:53Z</time></trkpt><trkpt lat="45.57402986965042" lon="10.138377671546378"><ele>140.0</ele><time>2026-03-24T15:21:55Z</time></trkpt><trkpt lat="45.57396518125524" lon="10.13823086833838"><ele>140.0</ele><time>2026-03-24T15:21:57Z</time></trkpt><trkpt lat="45.573898325970546" lon="10.138080699718705"><ele>140.0</ele><time>2026-03-24T15:21:59Z</time></trkpt><trkpt lat="45.5738643264744" lon="10.138001937454696"><ele>140.0</ele><time>2026-03-24T15:22:00Z</time></trkpt><trkpt lat="45.5737986414266" lon="10.137852476887964"><ele>140.0</ele><time>2026-03-24T15:22:02Z</time></trkpt><trkpt lat="45.57376465961482" lon="10.137773432216827"><ele>140.0</ele><time>2026-03-24T15:22:03Z</time></trkpt><trkpt lat="45.57369972202903" lon="10.13762411745602"><ele>140.0</ele><time>2026-03-24T15:22:05Z</time></trkpt><trkpt lat="45.57363374835355" lon="10.137476804646491"><ele>140.0</ele><time>2026-03-24T15:22:07Z</time></trkpt><trkpt lat="45.57359935480496" lon="10.137401160993232"><ele>140.0</ele><time>2026-03-24T15:22:08Z</time></trkpt><trkpt lat="45.57353250282377" lon="10.137250998251623"><ele>140.0</ele><time>2026-03-24T15:22:10Z</time></trkpt><trkpt lat="45.57346797074236" lon="10.137104790142647"><ele>140.25</ele><time>2026-03-24T15:22:12Z</time></trkpt><trkpt lat="45.57340021102615" lon="10.13695743493819"><ele>140.5</ele><time>2026-03-24T15:22:14Z</time></trkpt><trkpt lat="45.57333594922975" lon="10.136810886435008"><ele>140.75</ele><time>2026-03-24T15:22:16Z</time></trkpt><trkpt lat="45.57327280445407" lon="10.136663885197793"><ele>141.0</ele><time>2026-03-24T15:22:18Z</time></trkpt><trkpt lat="45.573208417734556" lon="10.136518695175978"><ele>141.0</ele><time>2026-03-24T15:22:20Z</time></trkpt><trkpt lat="45.57314436994805" lon="10.136370941000902"><ele>141.0</ele><time>2026-03-24T15:22:22Z</time></trkpt><trkpt lat="45.57307971122911" lon="10.136224784927446"><ele>141.0</ele><time>2026-03-24T15:22:24Z</time></trkpt><trkpt lat="45.5730145246471" lon="10.136080713861825"><ele>141.0</ele><time>2026-03-24T15:22:26Z</time></trkpt><trkpt lat="45.57294827228473" lon="10.13593175969824"><ele>141.0</ele><time>2026-03-24T15:22:28Z</time></trkpt><trkpt lat="45.57288116713228" lon="10.135785461647083"><ele>141.0</ele><time>2026-03-24T15:22:30Z</time></trkpt><trkpt lat="45.57281618036674" lon="10.1356381255161"><ele>141.0</ele><time>2026-03-24T15:22:32Z</time></trkpt><trkpt lat="45.57274938630386" lon="10.135488525612367"><ele>141.0</ele><time>2026-03-24T15:22:34Z</time></trkpt><trkpt lat="45.57271387688893" lon="10.135413891526769"><ele>141.0</ele><time>2026-03-24T15:22:35Z</time></trkpt><trkpt lat="45.57264816077352" lon="10.135263030211172"><ele>141.5</ele><time>2026-03-24T15:22:37Z</time></trkpt><trkpt lat="45.572583226259056" lon="10.135115154996353"><ele>142.0</ele><time>2026-03-24T15:22:39Z</time></trkpt><trkpt lat="45.572516947663104" lon="10.134968890431438"><ele>142.5</ele><time>2026-03-24T15:22:41Z</time></trkpt><trkpt lat="45.57245243518621" lon="10.13481970195716"><ele>143.0</ele><time>2026-03-24T15:22:43Z</time></trkpt><trkpt lat="45.57239051419322" lon="10.13467026351855"><ele>143.0</ele><time>2026-03-24T15:22:45Z</time></trkpt><trkpt lat="45.57233355521512" lon="10.13451977091756"><ele>143.0</ele><time>2026-03-24T15:22:47Z</time></trkpt><trkpt lat="45.57227523584785" lon="10.134368630788888"><ele>143.0</ele><time>2026-03-24T15:22:49Z</time></trkpt><trkpt lat="45.572230739957" lon="10.13422676945664"><ele>143.0</ele><time>2026-03-24T15:22:51Z</time></trkpt><trkpt lat="45.57219667823514" lon="10.134142264790357"><ele>143.0</ele><time>2026-03-24T15:22:52Z</time></trkpt><trkpt lat="45.57214857777651" lon="10.133983049559234"><ele>143.0</ele><time>2026-03-24T15:22:54Z</time></trkpt><trkpt lat="45.57209831904132" lon="10.133827521163923"><ele>143.0</ele><time>2026-03-24T15:22:56Z</time></trkpt><trkpt lat="45.57205387956781" lon="10.133664081777265"><ele>143.0</ele><time>2026-03-24T15:22:57.999Z</time></trkpt><trkpt lat="45.572012751333936" lon="10.133503246107042"><ele>143.0</ele><time>2026-03-24T15:22:59.999Z</time></trkpt><trkpt lat="45.57197365414248" lon="10.133341577117852"><ele>143.25</ele><time>2026-03-24T15:23:01.999Z</time></trkpt><trkpt lat="45.571935634520365" lon="10.133178604191762"><ele>143.5</ele><time>2026-03-24T15:23:03.999Z</time></trkpt><trkpt lat="45.571897001807656" lon="10.133014175210144"><ele>143.75</ele><time>2026-03-24T15:23:05.999Z</time></trkpt><trkpt lat="45.57185787616861" lon="10.13285143676857"><ele>144.0</ele><time>2026-03-24T15:23:07.999Z</time></trkpt><trkpt lat="45.57182095867798" lon="10.132688176297592"><ele>144.0</ele><time>2026-03-24T15:23:09.999Z</time></trkpt><trkpt lat="45.57178534137926" lon="10.132531220875787"><ele>144.0</ele><time>2026-03-24T15:23:11.999Z</time></trkpt><trkpt lat="45.57174961480378" lon="10.132373364570046"><ele>144.0</ele><time>2026-03-24T15:23:13.999Z</time></trkpt><trkpt lat="45.571714517546006" lon="10.13221500987379"><ele>144.0</ele><time>2026-03-24T15:23:15.999Z</time></trkpt><trkpt lat="45.571679429256065" lon="10.132062623697262"><ele>144.0</ele><time>2026-03-24T15:23:17.999Z</time></trkpt><trkpt lat="45.5716439819244" lon="10.131909445697763"><ele>144.0</ele><time>2026-03-24T15:23:19.999Z</time></trkpt><trkpt lat="45.57161022067203" lon="10.131756532956416"><ele>144.0</ele><time>2026-03-24T15:23:21.999Z</time></trkpt><trkpt lat="45.57157434751899" lon="10.131602133252493"><ele>144.0</ele><time>2026-03-24T15:23:23.999Z</time></trkpt><trkpt lat="45.57153832724416" lon="10.131447072636425"><ele>143.75</ele><time>2026-03-24T15:23:25.999Z</time></trkpt><trkpt lat="45.57150336522809" lon="10.131286483483889"><ele>143.5</ele><time>2026-03-24T15:23:27.999Z</time></trkpt><trkpt lat="45.57146580760389" lon="10.131128070492736"><ele>143.25</ele><time>2026-03-24T15:23:29.999Z</time></trkpt><trkpt lat="45.571434493487004" lon="10.130966863582527"><ele>143.0</ele><time>2026-03-24T15:23:31.999Z</time></trkpt><trkpt lat="45.57139974435691" lon="10.130804672759336"><ele>143.25</ele><time>2026-03-24T15:23:33.999Z</time></trkpt><trkpt lat="45.57136518037347" lon="10.130643564873605"><ele>143.5</ele><time>2026-03-24T15:23:35.999Z</time></trkpt><trkpt lat="45.57132722984325" lon="10.130483403995978"><ele>143.75</ele><time>2026-03-24T15:23:37.999Z</time></trkpt><trkpt lat="45.571270190999506" lon="10.130335081643002"><ele>144.0</ele><time>2026-03-24T15:23:39.999Z</time></trkpt><trkpt lat="45.571197262565214" lon="10.130195516441507"><ele>144.0</ele><time>2026-03-24T15:23:41.999Z</time></trkpt><trkpt lat="45.571119229562484" lon="10.130053953767579"><ele>144.0</ele><time>2026-03-24T15:23:43.999Z</time></trkpt><trkpt lat="45.57107558426216" lon="10.12998883237579"><ele>144.0</ele><time>2026-03-24T15:23:44.999Z</time></trkpt><trkpt lat="45.57102933560344" lon="10.129925423827412"><ele>144.0</ele><time>2026-03-24T15:23:45.999Z</time></trkpt><trkpt lat="45.57098391239709" lon="10.129856358016829"><ele>144.0</ele><time>2026-03-24T15:23:46.999Z</time></trkpt><trkpt lat="45.570895233617954" lon="10.129729564042808"><ele>144.0</ele><time>2026-03-24T15:23:48.999Z</time></trkpt><trkpt lat="45.57085052537842" lon="10.129663465600897"><ele>144.0</ele><time>2026-03-24T15:23:49.999Z</time></trkpt><trkpt lat="45.57080398981013" lon="10.12959977242493"><ele>144.0</ele><time>2026-03-24T15:23:50.999Z</time></trkpt><trkpt lat="45.5707571259656" lon="10.129535141560549"><ele>144.0</ele><time>2026-03-24T15:23:51.999Z</time></trkpt><trkpt lat="45.57070915681137" lon="10.129471791636607"><ele>144.0</ele><time>2026-03-24T15:23:52.999Z</time></trkpt><trkpt lat="45.57066371121867" lon="10.129409118044256"><ele>144.0</ele><time>2026-03-24T15:23:53.999Z</time></trkpt><trkpt lat="45.57057602613715" lon="10.129287623567789"><ele>144.0</ele><time>2026-03-24T15:23:56Z</time></trkpt><trkpt lat="45.570486888599746" lon="10.129160080697766"><ele>144.6</ele><time>2026-03-24T15:23:58Z</time></trkpt><trkpt lat="45.570400477709406" lon="10.129030969760796"><ele>145.2</ele><time>2026-03-24T15:24:00Z</time></trkpt><trkpt lat="45.57031626234326" lon="10.12890840434294"><ele>145.79999999999998</ele><time>2026-03-24T15:24:02Z</time></trkpt><trkpt lat="45.570271250234015" lon="10.1288444973438"><ele>146.4</ele><time>2026-03-24T15:24:03Z</time></trkpt><trkpt lat="45.570184629667125" lon="10.12871311270127"><ele>147.0</ele><time>2026-03-24T15:24:05Z</time></trkpt><trkpt lat="45.57013992630036" lon="10.128649607839082"><ele>147.0</ele><time>2026-03-24T15:24:06Z</time></trkpt><trkpt lat="45.57009430646852" lon="10.128587212248908"><ele>147.0</ele><time>2026-03-24T15:24:07Z</time></trkpt><trkpt lat="45.570050793077094" lon="10.128521236921182"><ele>147.0</ele><time>2026-03-24T15:24:08Z</time></trkpt><trkpt lat="45.569962993930055" lon="10.128393306188439"><ele>147.0</ele><time>2026-03-24T15:24:10Z</time></trkpt><trkpt lat="45.56988080259442" lon="10.128264175135374"><ele>147.0</ele><time>2026-03-24T15:24:12Z</time></trkpt><trkpt lat="45.56979739742968" lon="10.12812501312383"><ele>146.79999999999998</ele><time>2026-03-24T15:24:14Z</time></trkpt><trkpt lat="45.56971629739883" lon="10.12799327936167"><ele>146.6</ele><time>2026-03-24T15:24:16Z</time></trkpt><trkpt lat="45.569675862374815" lon="10.127923746826468"><ele>146.39999999999998</ele><time>2026-03-24T15:24:17Z</time></trkpt><trkpt lat="45.56959601787436" lon="10.127797185294494"><ele>146.2</ele><time>2026-03-24T15:24:19Z</time></trkpt><trkpt lat="45.56952511739296" lon="10.127660457414425"><ele>146.0</ele><time>2026-03-24T15:24:21Z</time></trkpt><trkpt lat="45.569460515055646" lon="10.127525250597756"><ele>146.0</ele><time>2026-03-24T15:24:23Z</time></trkpt><trkpt lat="45.56940314792218" lon="10.127404865006728"><ele>146.0</ele><time>2026-03-24T15:24:25Z</time></trkpt><trkpt lat="45.569355705212715" lon="10.127292868264316"><ele>146.0</ele><time>2026-03-24T15:24:27Z</time></trkpt><trkpt lat="45.56930920512148" lon="10.127179493797096"><ele>146.0</ele><time>2026-03-24T15:24:29Z</time></trkpt><trkpt lat="45.56926496742777" lon="10.127067013384819"><ele>146.0</ele><time>2026-03-24T15:24:31Z</time></trkpt><trkpt lat="45.569209389569835" lon="10.126967965805095"><ele>145.83333333333331</ele><time>2026-03-24T15:24:33Z</time></trkpt><trkpt lat="45.569156443182905" lon="10.126869758857998"><ele>145.66666666666666</ele><time>2026-03-24T15:24:35Z</time></trkpt><trkpt lat="45.56910746768779" lon="10.126779068658196"><ele>145.5</ele><time>2026-03-24T15:24:37Z</time></trkpt><trkpt lat="45.56906895757595" lon="10.126702463655288"><ele>145.33333333333334</ele><time>2026-03-24T15:24:39Z</time></trkpt><trkpt lat="45.56903061763171" lon="10.126624085096058"><ele>145.16666666666669</ele><time>2026-03-24T15:24:43Z</time></trkpt><trkpt lat="45.5689963424666" lon="10.126539779768525"><ele>145.0</ele><time>2026-03-24T15:25:53.999Z</time></trkpt><trkpt lat="45.568959057157976" lon="10.12641772599124"><ele>145.0</ele><time>2026-03-24T15:25:56.999Z</time></trkpt><trkpt lat="45.56892786316508" lon="10.126308946635659"><ele>145.0</ele><time>2026-03-24T15:25:58.999Z</time></trkpt><trkpt lat="45.56889269852227" lon="10.12618855104483"><ele>145.0</ele><time>2026-03-24T15:26:01Z</time></trkpt><trkpt lat="45.56886415845367" lon="10.126053222828174"><ele>145.0</ele><time>2026-03-24T15:26:03Z</time></trkpt><trkpt lat="45.56879598615784" lon="10.125905444278645"><ele>145.0</ele><time>2026-03-24T15:26:05Z</time></trkpt><trkpt lat="45.568793975578394" lon="10.125802857866313"><ele>145.0</ele><time>2026-03-24T15:26:06Z</time></trkpt><trkpt lat="45.5687989347297" lon="10.125704198037555"><ele>145.0</ele><time>2026-03-24T15:26:07Z</time></trkpt><trkpt lat="45.56878439461168" lon="10.12561009386431"><ele>145.0</ele><time>2026-03-24T15:26:08Z</time></trkpt><trkpt lat="45.56874493814429" lon="10.125526516985504"><ele>145.0</ele><time>2026-03-24T15:26:09Z</time></trkpt><trkpt lat="45.568692135108925" lon="10.125459625667245"><ele>145.0</ele><time>2026-03-24T15:26:10Z</time></trkpt><trkpt lat="45.56863843095669" lon="10.125401701409668"><ele>145.0</ele><time>2026-03-24T15:26:11Z</time></trkpt><trkpt lat="45.568591584703555" lon="10.125340559385943"><ele>145.0</ele><time>2026-03-24T15:26:12Z</time></trkpt><trkpt lat="45.56853022248533" lon="10.125190824263933"><ele>144.5</ele><time>2026-03-24T15:26:14Z</time></trkpt><trkpt lat="45.56849576044929" lon="10.125045592998344"><ele>144.0</ele><time>2026-03-24T15:26:16Z</time></trkpt><trkpt lat="45.568469428071836" lon="10.124942338884797"><ele>143.5</ele><time>2026-03-24T15:26:18Z</time></trkpt><trkpt lat="45.568438745786246" lon="10.124846304817996"><ele>143.0</ele><time>2026-03-24T15:26:20Z</time></trkpt><trkpt lat="45.56840039429397" lon="10.124744286790088"><ele>142.5</ele><time>2026-03-24T15:26:22Z</time></trkpt><trkpt lat="45.56835606784251" lon="10.124605797788792"><ele>142.0</ele><time>2026-03-24T15:26:24Z</time></trkpt><trkpt lat="45.568311668190205" lon="10.124455005462323"><ele>141.75</ele><time>2026-03-24T15:26:26Z</time></trkpt><trkpt lat="45.56826320414108" lon="10.124298624514811"><ele>141.5</ele><time>2026-03-24T15:26:28Z</time></trkpt><trkpt lat="45.568215892066796" lon="10.124134249613904"><ele>141.25</ele><time>2026-03-24T15:26:30Z</time></trkpt><trkpt lat="45.56816896776572" lon="10.123969916662196"><ele>141.0</ele><time>2026-03-24T15:26:32Z</time></trkpt><trkpt lat="45.56812330817479" lon="10.123805795764744"><ele>140.75</ele><time>2026-03-24T15:26:34Z</time></trkpt><trkpt lat="45.56807928851393" lon="10.123634659544098"><ele>140.5</ele><time>2026-03-24T15:26:36Z</time></trkpt><trkpt lat="45.568031858229205" lon="10.1234686970826"><ele>140.25</ele><time>2026-03-24T15:26:38Z</time></trkpt><trkpt lat="45.56798542354351" lon="10.123307880888177"><ele>140.0</ele><time>2026-03-24T15:26:40Z</time></trkpt><trkpt lat="45.56793976666204" lon="10.123146569662063"><ele>140.0</ele><time>2026-03-24T15:26:42Z</time></trkpt><trkpt lat="45.56789378356087" lon="10.122982650806499"><ele>140.0</ele><time>2026-03-24T15:26:44Z</time></trkpt><trkpt lat="45.567847262298166" lon="10.122819214088619"><ele>140.0</ele><time>2026-03-24T15:26:46Z</time></trkpt><trkpt lat="45.56780135639845" lon="10.122661199062147"><ele>140.0</ele><time>2026-03-24T15:26:48Z</time></trkpt><trkpt lat="45.56775697621667" lon="10.122502982359807"><ele>140.25</ele><time>2026-03-24T15:26:50Z</time></trkpt><trkpt lat="45.56771264108376" lon="10.12234500978533"><ele>140.5</ele><time>2026-03-24T15:26:52Z</time></trkpt><trkpt lat="45.567675569809424" lon="10.122188848879278"><ele>140.75</ele><time>2026-03-24T15:26:54Z</time></trkpt><trkpt lat="45.56764237078983" lon="10.122028577335282"><ele>141.0</ele><time>2026-03-24T15:26:56Z</time></trkpt><trkpt lat="45.567614000949106" lon="10.121867332055603"><ele>141.0</ele><time>2026-03-24T15:26:58Z</time></trkpt><trkpt lat="45.56758567288415" lon="10.121710030433253"><ele>141.0</ele><time>2026-03-24T15:27:00Z</time></trkpt><trkpt lat="45.56755662726379" lon="10.121546494430538"><ele>141.0</ele><time>2026-03-24T15:27:02Z</time></trkpt><trkpt lat="45.56752711760777" lon="10.121382564350151"><ele>141.0</ele><time>2026-03-24T15:27:04Z</time></trkpt><trkpt lat="45.56749712674048" lon="10.121218589373703"><ele>141.0</ele><time>2026-03-24T15:27:06Z</time></trkpt><trkpt lat="45.56747791204882" lon="10.121047607424718"><ele>141.0</ele><time>2026-03-24T15:27:08Z</time></trkpt><trkpt lat="45.567439092178034" lon="10.120884833795756"><ele>141.0</ele><time>2026-03-24T15:27:10Z</time></trkpt><trkpt lat="45.56740790056715" lon="10.120720329466268"><ele>141.0</ele><time>2026-03-24T15:27:11.999Z</time></trkpt><trkpt lat="45.56737835661577" lon="10.120555260567025"><ele>141.25</ele><time>2026-03-24T15:27:13.999Z</time></trkpt><trkpt lat="45.56734874440131" lon="10.1203897891801"><ele>141.5</ele><time>2026-03-24T15:27:15.999Z</time></trkpt><trkpt lat="45.56731991713011" lon="10.12022638656688"><ele>141.75</ele><time>2026-03-24T15:27:17.999Z</time></trkpt><trkpt lat="45.56729301324947" lon="10.120061631049975"><ele>142.0</ele><time>2026-03-24T15:27:19.999Z</time></trkpt><trkpt lat="45.5672637405189" lon="10.119896980659336"><ele>142.25</ele><time>2026-03-24T15:27:21.999Z</time></trkpt><trkpt lat="45.56723111238313" lon="10.119735488150212"><ele>142.5</ele><time>2026-03-24T15:27:23.999Z</time></trkpt><trkpt lat="45.56721496081296" lon="10.119573186563402"><ele>142.75</ele><time>2026-03-24T15:27:25.999Z</time></trkpt><trkpt lat="45.56710547624035" lon="10.119447933387772"><ele>143.0</ele><time>2026-03-24T15:27:27.999Z</time></trkpt><trkpt lat="45.56704087699296" lon="10.11931123992671"><ele>143.0</ele><time>2026-03-24T15:27:29.999Z</time></trkpt><trkpt lat="45.567000751395796" lon="10.119140966070411"><ele>143.0</ele><time>2026-03-24T15:27:31.999Z</time></trkpt><trkpt lat="45.5669878356408" lon="10.119045427863474"><ele>143.0</ele><time>2026-03-24T15:27:32.999Z</time></trkpt><trkpt lat="45.5669777221232" lon="10.11894449087077"><ele>143.0</ele><time>2026-03-24T15:27:33.999Z</time></trkpt><trkpt lat="45.5669744752845" lon="10.118837458055921"><ele>143.0</ele><time>2026-03-24T15:27:34.999Z</time></trkpt><trkpt lat="45.56696880792309" lon="10.118727431097852"><ele>143.0</ele><time>2026-03-24T15:27:35.999Z</time></trkpt><trkpt lat="45.56696127046432" lon="10.11861546029818"><ele>143.0</ele><time>2026-03-24T15:27:36.999Z</time></trkpt><trkpt lat="45.5669567115079" lon="10.11850052679373"><ele>143.0</ele><time>2026-03-24T15:27:37.999Z</time></trkpt><trkpt lat="45.56695201667832" lon="10.118384124529102"><ele>143.0</ele><time>2026-03-24T15:27:38.999Z</time></trkpt><trkpt lat="45.566942779175456" lon="10.11826496521045"><ele>143.0</ele><time>2026-03-24T15:27:39.999Z</time></trkpt><trkpt lat="45.56692473052262" lon="10.118147655809077"><ele>143.0</ele><time>2026-03-24T15:27:40.999Z</time></trkpt><trkpt lat="45.56691355231992" lon="10.11802665160821"><ele>143.0</ele><time>2026-03-24T15:27:41.999Z</time></trkpt><trkpt lat="45.56687492173592" lon="10.117909100125267"><ele>143.0</ele><time>2026-03-24T15:27:42.999Z</time></trkpt><trkpt lat="45.56683597187739" lon="10.117796074234617"><ele>143.0</ele><time>2026-03-24T15:27:43.999Z</time></trkpt><trkpt lat="45.566796393153545" lon="10.11768630960677"><ele>143.0</ele><time>2026-03-24T15:27:44.999Z</time></trkpt><trkpt lat="45.56675732449601" lon="10.117580159495457"><ele>143.0</ele><time>2026-03-24T15:27:45.999Z</time></trkpt><trkpt lat="45.56671432203491" lon="10.117485033597966"><ele>143.0</ele><time>2026-03-24T15:27:46.999Z</time></trkpt><trkpt lat="45.56667428173488" lon="10.117395407068196"><ele>143.0</ele><time>2026-03-24T15:27:47.999Z</time></trkpt><trkpt lat="45.56662482923568" lon="10.117243072654661"><ele>143.16666666666666</ele><time>2026-03-24T15:27:49.999Z</time></trkpt><trkpt lat="45.566571801303745" lon="10.117113371655586"><ele>143.33333333333331</ele><time>2026-03-24T15:27:51.999Z</time></trkpt><trkpt lat="45.56652858800868" lon="10.116988889171225"><ele>143.5</ele><time>2026-03-24T15:27:53.999Z</time></trkpt><trkpt lat="45.56650231206089" lon="10.11686826030221"><ele>143.66666666666666</ele><time>2026-03-24T15:27:55.999Z</time></trkpt><trkpt lat="45.5664758608472" lon="10.116764611056988"><ele>143.83333333333334</ele><time>2026-03-24T15:27:57.999Z</time></trkpt><trkpt lat="45.56644146397457" lon="10.116667218406723"><ele>144.0</ele><time>2026-03-24T15:27:59.999Z</time></trkpt><trkpt lat="45.56642983708477" lon="10.116560292358775"><ele>144.4</ele><time>2026-03-24T15:28:01.999Z</time></trkpt><trkpt lat="45.566427709528035" lon="10.116437899264081"><ele>144.8</ele><time>2026-03-24T15:28:03.999Z</time></trkpt><trkpt lat="45.56648779621085" lon="10.116324232384823"><ele>145.2</ele><time>2026-03-24T15:28:06Z</time></trkpt><trkpt lat="45.56657558367513" lon="10.116255181314148"><ele>145.6</ele><time>2026-03-24T15:28:08Z</time></trkpt><trkpt lat="45.566678370837096" lon="10.116257375346182"><ele>146.0</ele><time>2026-03-24T15:28:10Z</time></trkpt><trkpt lat="45.56677216825073" lon="10.116258952693935"><ele>146.0</ele><time>2026-03-24T15:28:12Z</time></trkpt><trkpt lat="45.566864963288594" lon="10.116264792274967"><ele>146.0</ele><time>2026-03-24T15:28:14Z</time></trkpt><trkpt lat="45.566948977142715" lon="10.116184037442054"><ele>146.0</ele><time>2026-03-24T15:28:16Z</time></trkpt><trkpt lat="45.566979132371245" lon="10.116041232257599"><ele>146.0</ele><time>2026-03-24T15:28:18Z</time></trkpt><trkpt lat="45.566952448640016" lon="10.1158944281327"><ele>146.0</ele><time>2026-03-24T15:28:20Z</time></trkpt><trkpt lat="45.566923073020895" lon="10.115750595535488"><ele>145.6</ele><time>2026-03-24T15:28:22Z</time></trkpt><trkpt lat="45.56688961071559" lon="10.115606256592052"><ele>145.2</ele><time>2026-03-24T15:28:24Z</time></trkpt><trkpt lat="45.56686177254437" lon="10.115470337732125"><ele>144.8</ele><time>2026-03-24T15:28:26Z</time></trkpt><trkpt lat="45.56682555580139" lon="10.115346033242941"><ele>144.4</ele><time>2026-03-24T15:28:28Z</time></trkpt><trkpt lat="45.566796632125644" lon="10.115228369247502"><ele>144.0</ele><time>2026-03-24T15:28:30Z</time></trkpt><trkpt lat="45.56676177512139" lon="10.115111502518218"><ele>144.0</ele><time>2026-03-24T15:28:32Z</time></trkpt><trkpt lat="45.5667135554572" lon="10.114998978934633"><ele>144.0</ele><time>2026-03-24T15:28:34Z</time></trkpt><trkpt lat="45.56666367920771" lon="10.114882965732098"><ele>144.0</ele><time>2026-03-24T15:28:36Z</time></trkpt><trkpt lat="45.56661306807249" lon="10.114769414285924"><ele>144.0</ele><time>2026-03-24T15:28:38Z</time></trkpt><trkpt lat="45.56656177976201" lon="10.114656404635097"><ele>144.0</ele><time>2026-03-24T15:28:40Z</time></trkpt><trkpt lat="45.56650615327282" lon="10.114541212497636"><ele>144.0</ele><time>2026-03-24T15:28:42Z</time></trkpt><trkpt lat="45.5664388788383" lon="10.114430813187978"><ele>144.0</ele><time>2026-03-24T15:28:44Z</time></trkpt><trkpt lat="45.566363099310124" lon="10.114334956868586"><ele>144.0</ele><time>2026-03-24T15:28:46Z</time></trkpt><trkpt lat="45.56628856404386" lon="10.114241056823772"><ele>144.0</ele><time>2026-03-24T15:28:48Z</time></trkpt><trkpt lat="45.56621040664359" lon="10.114145215331517"><ele>144.0</ele><time>2026-03-24T15:28:50Z</time></trkpt><trkpt lat="45.56611102537141" lon="10.114072300352642"><ele>144.5</ele><time>2026-03-24T15:28:52Z</time></trkpt><trkpt lat="45.566014243834594" lon="10.113982080890668"><ele>145.0</ele><time>2026-03-24T15:28:54Z</time></trkpt><trkpt lat="45.56592426092411" lon="10.113888381425786"><ele>145.5</ele><time>2026-03-24T15:28:56Z</time></trkpt><trkpt lat="45.56587586031963" lon="10.113740305968149"><ele>146.0</ele><time>2026-03-24T15:28:58Z</time></trkpt><trkpt lat="45.565897013454304" lon="10.113574874978763"><ele>146.0</ele><time>2026-03-24T15:29:00Z</time></trkpt><trkpt lat="45.56592466103158" lon="10.113416054036316"><ele>146.0</ele><time>2026-03-24T15:29:02Z</time></trkpt><trkpt lat="45.565949062365995" lon="10.113255336976263"><ele>146.0</ele><time>2026-03-24T15:29:04Z</time></trkpt><trkpt lat="45.565962562978875" lon="10.113105137289468"><ele>146.0</ele><time>2026-03-24T15:29:05.999Z</time></trkpt><trkpt lat="45.565983809575755" lon="10.11295208127446"><ele>146.0</ele><time>2026-03-24T15:29:07.999Z</time></trkpt><trkpt lat="45.56601202958506" lon="10.112802841327232"><ele>146.0</ele><time>2026-03-24T15:29:09.999Z</time></trkpt><trkpt lat="45.5660439487207" lon="10.112672071734359"><ele>146.0</ele><time>2026-03-24T15:29:11.999Z</time></trkpt><trkpt lat="45.56608042014743" lon="10.112531689396738"><ele>146.0</ele><time>2026-03-24T15:29:13.999Z</time></trkpt><trkpt lat="45.566116528212184" lon="10.11238607680011"><ele>146.0</ele><time>2026-03-24T15:29:15.999Z</time></trkpt><trkpt lat="45.56615536166638" lon="10.112243902225654"><ele>146.0</ele><time>2026-03-24T15:29:17.999Z</time></trkpt><trkpt lat="45.56620792004742" lon="10.112104082670989"><ele>146.0</ele><time>2026-03-24T15:29:19.999Z</time></trkpt><trkpt lat="45.56627682141684" lon="10.111975204154003"><ele>146.0</ele><time>2026-03-24T15:29:21.999Z</time></trkpt><trkpt lat="45.56634363897263" lon="10.11184603514669"><ele>146.0</ele><time>2026-03-24T15:29:23.999Z</time></trkpt><trkpt lat="45.566403560154946" lon="10.111715844638606"><ele>146.0</ele><time>2026-03-24T15:29:25.999Z</time></trkpt><trkpt lat="45.56647183407799" lon="10.111584557275464"><ele>145.8</ele><time>2026-03-24T15:29:27.999Z</time></trkpt><trkpt lat="45.56654387488779" lon="10.111465061323724"><ele>145.6</ele><time>2026-03-24T15:29:29.999Z</time></trkpt><trkpt lat="45.56661736737072" lon="10.111350008882752"><ele>145.4</ele><time>2026-03-24T15:29:31.999Z</time></trkpt><trkpt lat="45.566682424918234" lon="10.111236574717928"><ele>145.2</ele><time>2026-03-24T15:29:33.999Z</time></trkpt><trkpt lat="45.56675735463592" lon="10.111124783851464"><ele>145.0</ele><time>2026-03-24T15:29:35.999Z</time></trkpt><trkpt lat="45.566835270927335" lon="10.111023217879616"><ele>145.0</ele><time>2026-03-24T15:29:37.999Z</time></trkpt><trkpt lat="45.56690197626667" lon="10.110899086393768"><ele>145.0</ele><time>2026-03-24T15:29:39.999Z</time></trkpt><trkpt lat="45.566963529309234" lon="10.11077204025153"><ele>145.0</ele><time>2026-03-24T15:29:41.999Z</time></trkpt><trkpt lat="45.5670237727739" lon="10.110646910678337"><ele>145.0</ele><time>2026-03-24T15:29:43.999Z</time></trkpt><trkpt lat="45.56708188641478" lon="10.110522548942022"><ele>145.0</ele><time>2026-03-24T15:29:45.999Z</time></trkpt><trkpt lat="45.56714023206126" lon="10.110398351324976"><ele>145.0</ele><time>2026-03-24T15:29:47.999Z</time></trkpt><trkpt lat="45.56719934284198" lon="10.110273641497665"><ele>145.0</ele><time>2026-03-24T15:29:49.999Z</time></trkpt><trkpt lat="45.56725779659495" lon="10.110151886576391"><ele>145.0</ele><time>2026-03-24T15:29:51.999Z</time></trkpt><trkpt lat="45.567318137605035" lon="10.1100344381959"><ele>145.0</ele><time>2026-03-24T15:29:53.999Z</time></trkpt><trkpt lat="45.56738024850264" lon="10.109914064207883"><ele>145.0</ele><time>2026-03-24T15:29:55.999Z</time></trkpt><trkpt lat="45.56744222499177" lon="10.10978923507909"><ele>145.2</ele><time>2026-03-24T15:29:57.999Z</time></trkpt><trkpt lat="45.56751026490173" lon="10.109667832628173"><ele>145.4</ele><time>2026-03-24T15:29:59.999Z</time></trkpt><trkpt lat="45.56757765693784" lon="10.109549296937066"><ele>145.6</ele><time>2026-03-24T15:30:01.999Z</time></trkpt><trkpt lat="45.56764390686585" lon="10.109424835003306"><ele>145.8</ele><time>2026-03-24T15:30:03.999Z</time></trkpt><trkpt lat="45.56771593512886" lon="10.109305915251127"><ele>146.0</ele><time>2026-03-24T15:30:05.999Z</time></trkpt><trkpt lat="45.567787819228464" lon="10.109183492947922"><ele>146.6</ele><time>2026-03-24T15:30:07.999Z</time></trkpt><trkpt lat="45.56785928820631" lon="10.109057241834034"><ele>147.2</ele><time>2026-03-24T15:30:09.998Z</time></trkpt><trkpt lat="45.567932354321194" lon="10.108933740670986"><ele>147.8</ele><time>2026-03-24T15:30:12Z</time></trkpt><trkpt lat="45.567999331787064" lon="10.108804033488731"><ele>148.4</ele><time>2026-03-24T15:30:14Z</time></trkpt><trkpt lat="45.56805158963768" lon="10.108671097213723"><ele>149.0</ele><time>2026-03-24T15:30:16Z</time></trkpt><trkpt lat="45.56809869659153" lon="10.108533059887982"><ele>149.0</ele><time>2026-03-24T15:30:18Z</time></trkpt><trkpt lat="45.56814258910298" lon="10.108394266254288"><ele>149.0</ele><time>2026-03-24T15:30:20Z</time></trkpt><trkpt lat="45.568182493632186" lon="10.108259906411515"><ele>149.0</ele><time>2026-03-24T15:30:22Z</time></trkpt><trkpt lat="45.56822378655339" lon="10.108132577798655"><ele>149.0</ele><time>2026-03-24T15:30:24Z</time></trkpt><trkpt lat="45.568265472760565" lon="10.107996717947428"><ele>149.0</ele><time>2026-03-24T15:30:26Z</time></trkpt><trkpt lat="45.568309361004246" lon="10.107858963334646"><ele>149.2</ele><time>2026-03-24T15:30:28Z</time></trkpt><trkpt lat="45.56835484786772" lon="10.107721053783397"><ele>149.4</ele><time>2026-03-24T15:30:30Z</time></trkpt><trkpt lat="45.56840003911548" lon="10.107587778898118"><ele>149.6</ele><time>2026-03-24T15:30:32Z</time></trkpt><trkpt lat="45.568446899259804" lon="10.107450609063012"><ele>149.8</ele><time>2026-03-24T15:30:34Z</time></trkpt><trkpt lat="45.56849409903194" lon="10.107308250665868"><ele>150.0</ele><time>2026-03-24T15:30:36Z</time></trkpt><trkpt lat="45.56854249489124" lon="10.107171057454782"><ele>150.0</ele><time>2026-03-24T15:30:38Z</time></trkpt><trkpt lat="45.56859974231303" lon="10.10704125282835"><ele>150.0</ele><time>2026-03-24T15:30:40Z</time></trkpt><trkpt lat="45.56865058004668" lon="10.106914811988464"><ele>150.0</ele><time>2026-03-24T15:30:42Z</time></trkpt><trkpt lat="45.56870034445637" lon="10.106789614329708"><ele>150.0</ele><time>2026-03-24T15:30:44Z</time></trkpt><trkpt lat="45.56875649136983" lon="10.106676565986648"><ele>150.0</ele><time>2026-03-24T15:30:46Z</time></trkpt><trkpt lat="45.568824607943874" lon="10.106588107577993"><ele>149.6</ele><time>2026-03-24T15:30:48Z</time></trkpt><trkpt lat="45.56890245215186" lon="10.106511026097188"><ele>149.2</ele><time>2026-03-24T15:30:50Z</time></trkpt><trkpt lat="45.56898145888277" lon="10.106429526993324"><ele>148.8</ele><time>2026-03-24T15:30:52Z</time></trkpt><trkpt lat="45.56906084739639" lon="10.106343656821066"><ele>148.4</ele><time>2026-03-24T15:30:54Z</time></trkpt><trkpt lat="45.56913317746879" lon="10.106247168354448"><ele>148.0</ele><time>2026-03-24T15:30:56Z</time></trkpt><trkpt lat="45.56918503749886" lon="10.106125836183931"><ele>148.0</ele><time>2026-03-24T15:30:58Z</time></trkpt><trkpt lat="45.56921548962087" lon="10.105993093291536"><ele>148.0</ele><time>2026-03-24T15:31:00Z</time></trkpt><trkpt lat="45.5692376995" lon="10.105859443867125"><ele>148.0</ele><time>2026-03-24T15:31:02Z</time></trkpt><trkpt lat="45.569264925509685" lon="10.105720466283616"><ele>148.0</ele><time>2026-03-24T15:31:04Z</time></trkpt><trkpt lat="45.56928908739723" lon="10.105593872939298"><ele>148.0</ele><time>2026-03-24T15:31:06Z</time></trkpt><trkpt lat="45.56932596774575" lon="10.105466535489374"><ele>148.0</ele><time>2026-03-24T15:31:08Z</time></trkpt><trkpt lat="45.56935394726381" lon="10.10532911021542"><ele>148.0</ele><time>2026-03-24T15:31:10Z</time></trkpt><trkpt lat="45.56938311555731" lon="10.105190414231517"><ele>148.0</ele><time>2026-03-24T15:31:11.999Z</time></trkpt><trkpt lat="45.56941168016388" lon="10.105052704395268"><ele>148.0</ele><time>2026-03-24T15:31:13.999Z</time></trkpt><trkpt lat="45.56943863608514" lon="10.104919742114742"><ele>148.0</ele><time>2026-03-24T15:31:15.999Z</time></trkpt><trkpt lat="45.56946258725467" lon="10.10477893290217"><ele>148.0</ele><time>2026-03-24T15:31:17.999Z</time></trkpt><trkpt lat="45.56949669042761" lon="10.104644148656497"><ele>148.0</ele><time>2026-03-24T15:31:19.999Z</time></trkpt><trkpt lat="45.569518719282314" lon="10.10449761028191"><ele>148.0</ele><time>2026-03-24T15:31:21.999Z</time></trkpt><trkpt lat="45.56954411548543" lon="10.104355047687186"><ele>148.0</ele><time>2026-03-24T15:31:23.999Z</time></trkpt><trkpt lat="45.569574389577994" lon="10.104215031044673"><ele>148.0</ele><time>2026-03-24T15:31:25.999Z</time></trkpt><trkpt lat="45.569614940074715" lon="10.104079498010872"><ele>148.20000000000002</ele><time>2026-03-24T15:31:27.999Z</time></trkpt><trkpt lat="45.569668112569914" lon="10.103954084473823"><ele>148.4</ele><time>2026-03-24T15:31:29.999Z</time></trkpt><trkpt lat="45.5697292246689" lon="10.103831474072779"><ele>148.60000000000002</ele><time>2026-03-24T15:31:31.999Z</time></trkpt><trkpt lat="45.56978933257822" lon="10.103710768742067"><ele>148.8</ele><time>2026-03-24T15:31:33.999Z</time></trkpt><trkpt lat="45.56985257290544" lon="10.103591160111133"><ele>149.0</ele><time>2026-03-24T15:31:35.999Z</time></trkpt><trkpt lat="45.56991851040815" lon="10.103475755551798"><ele>149.0</ele><time>2026-03-24T15:31:37.999Z</time></trkpt><trkpt lat="45.5699772121739" lon="10.103356622280847"><ele>149.0</ele><time>2026-03-24T15:31:39.999Z</time></trkpt><trkpt lat="45.57003109678153" lon="10.103230013365422"><ele>149.0</ele><time>2026-03-24T15:31:41.999Z</time></trkpt><trkpt lat="45.57008481065705" lon="10.103106001955368"><ele>149.0</ele><time>2026-03-24T15:31:43.999Z</time></trkpt><trkpt lat="45.57013174809249" lon="10.10297782244469"><ele>149.0</ele><time>2026-03-24T15:31:45.999Z</time></trkpt><trkpt lat="45.57017918378207" lon="10.102848903817188"><ele>149.2</ele><time>2026-03-24T15:31:47.999Z</time></trkpt><trkpt lat="45.57023174813311" lon="10.102728264500303"><ele>149.4</ele><time>2026-03-24T15:31:49.999Z</time></trkpt><trkpt lat="45.570297353618756" lon="10.102615280487438"><ele>149.6</ele><time>2026-03-24T15:31:51.999Z</time></trkpt><trkpt lat="45.57037224797046" lon="10.102512777265156"><ele>149.8</ele><time>2026-03-24T15:31:53.999Z</time></trkpt><trkpt lat="45.570442152542256" lon="10.102404292350684"><ele>150.0</ele><time>2026-03-24T15:31:55.999Z</time></trkpt><trkpt lat="45.57051109771181" lon="10.102302236823963"><ele>150.2</ele><time>2026-03-24T15:31:57.999Z</time></trkpt><trkpt lat="45.57057718973856" lon="10.102197352691553"><ele>150.4</ele><time>2026-03-24T15:31:59.999Z</time></trkpt><trkpt lat="45.57064146132838" lon="10.102092361063828"><ele>150.6</ele><time>2026-03-24T15:32:01.999Z</time></trkpt><trkpt lat="45.57070555733367" lon="10.101989490356454"><ele>150.8</ele><time>2026-03-24T15:32:03.999Z</time></trkpt><trkpt lat="45.57077620359835" lon="10.10189289406163"><ele>151.0</ele><time>2026-03-24T15:32:05.999Z</time></trkpt><trkpt lat="45.57084216156498" lon="10.101797569352586"><ele>151.0</ele><time>2026-03-24T15:32:07.999Z</time></trkpt><trkpt lat="45.5709046087181" lon="10.101691132847163"><ele>151.0</ele><time>2026-03-24T15:32:09.999Z</time></trkpt><trkpt lat="45.570958970062584" lon="10.101582128217887"><ele>151.0</ele><time>2026-03-24T15:32:11.999Z</time></trkpt><trkpt lat="45.571008688317846" lon="10.101469699364609"><ele>151.0</ele><time>2026-03-24T15:32:13.998Z</time></trkpt><trkpt lat="45.5710514161721" lon="10.10134784495627"><ele>151.0</ele><time>2026-03-24T15:32:16Z</time></trkpt><trkpt lat="45.57109003322764" lon="10.101224363847795"><ele>151.0</ele><time>2026-03-24T15:32:18Z</time></trkpt><trkpt lat="45.571128546010954" lon="10.101100587750517"><ele>151.0</ele><time>2026-03-24T15:32:20Z</time></trkpt><trkpt lat="45.57116371630848" lon="10.100978483343244"><ele>151.0</ele><time>2026-03-24T15:32:22Z</time></trkpt><trkpt lat="45.57120145556805" lon="10.100849207135477"><ele>151.0</ele><time>2026-03-24T15:32:24Z</time></trkpt><trkpt lat="45.57123928557651" lon="10.10072257824303"><ele>151.0</ele><time>2026-03-24T15:32:26Z</time></trkpt><trkpt lat="45.57127710498608" lon="10.100594391609981"><ele>151.0</ele><time>2026-03-24T15:32:28Z</time></trkpt><trkpt lat="45.5713180472313" lon="10.100464065693028"><ele>151.0</ele><time>2026-03-24T15:32:30Z</time></trkpt><trkpt lat="45.571357729983994" lon="10.100334261776304"><ele>151.0</ele><time>2026-03-24T15:32:32Z</time></trkpt><trkpt lat="45.57139693633741" lon="10.10020284897891"><ele>151.0</ele><time>2026-03-24T15:32:34Z</time></trkpt><trkpt lat="45.57143598888354" lon="10.10007219996885"><ele>151.0</ele><time>2026-03-24T15:32:36Z</time></trkpt><trkpt lat="45.57147166816193" lon="10.099942864429439"><ele>151.2</ele><time>2026-03-24T15:32:38Z</time></trkpt><trkpt lat="45.57150767145099" lon="10.099812154210841"><ele>151.39999999999998</ele><time>2026-03-24T15:32:40Z</time></trkpt><trkpt lat="45.57154696136366" lon="10.09968577093589"><ele>151.6</ele><time>2026-03-24T15:32:42Z</time></trkpt><trkpt lat="45.57158350408624" lon="10.099557117556946"><ele>151.79999999999998</ele><time>2026-03-24T15:32:44Z</time></trkpt><trkpt lat="45.57161988425286" lon="10.099427224022168"><ele>152.0</ele><time>2026-03-24T15:32:46Z</time></trkpt><trkpt lat="45.571658540646496" lon="10.099298672365094"><ele>152.0</ele><time>2026-03-24T15:32:48Z</time></trkpt><trkpt lat="45.571698099701" lon="10.09916801548458"><ele>152.0</ele><time>2026-03-24T15:32:50Z</time></trkpt><trkpt lat="45.57173654381784" lon="10.099035198701865"><ele>152.0</ele><time>2026-03-24T15:32:52Z</time></trkpt><trkpt lat="45.57177928261964" lon="10.098915343052186"><ele>152.0</ele><time>2026-03-24T15:32:54Z</time></trkpt><trkpt lat="45.5718247773922" lon="10.09879745699273"><ele>152.0</ele><time>2026-03-24T15:32:56Z</time></trkpt><trkpt lat="45.57186935742178" lon="10.0986761818498"><ele>152.2</ele><time>2026-03-24T15:32:58Z</time></trkpt><trkpt lat="45.57191847812482" lon="10.098553114645295"><ele>152.39999999999998</ele><time>2026-03-24T15:33:00Z</time></trkpt><trkpt lat="45.571963556576506" lon="10.098427693679529"><ele>152.60000000000002</ele><time>2026-03-24T15:33:02Z</time></trkpt><trkpt lat="45.572011498270925" lon="10.098303996958654"><ele>152.8</ele><time>2026-03-24T15:33:04Z</time></trkpt><trkpt lat="45.572060540136015" lon="10.09818106299042"><ele>153.0</ele><time>2026-03-24T15:33:06Z</time></trkpt><trkpt lat="45.57211069383969" lon="10.098060346443033"><ele>153.20000000000002</ele><time>2026-03-24T15:33:08Z</time></trkpt><trkpt lat="45.57216073425147" lon="10.097935610415728"><ele>153.4</ele><time>2026-03-24T15:33:09.999Z</time></trkpt><trkpt lat="45.57221217539442" lon="10.09781473271386"><ele>153.60000000000002</ele><time>2026-03-24T15:33:11.999Z</time></trkpt><trkpt lat="45.572261501895376" lon="10.097693924096548"><ele>153.8</ele><time>2026-03-24T15:33:13.999Z</time></trkpt><trkpt lat="45.572313933280654" lon="10.0975703550213"><ele>154.0</ele><time>2026-03-24T15:33:15.999Z</time></trkpt><trkpt lat="45.57236853954791" lon="10.097450717447296"><ele>154.0</ele><time>2026-03-24T15:33:17.999Z</time></trkpt><trkpt lat="45.57242197167385" lon="10.09733101321554"><ele>154.0</ele><time>2026-03-24T15:33:19.999Z</time></trkpt><trkpt lat="45.57247850908238" lon="10.097207673149265"><ele>154.0</ele><time>2026-03-24T15:33:21.999Z</time></trkpt><trkpt lat="45.57253466236891" lon="10.097085464329426"><ele>154.0</ele><time>2026-03-24T15:33:23.999Z</time></trkpt><trkpt lat="45.57259071077532" lon="10.096964199096549"><ele>154.0</ele><time>2026-03-24T15:33:25.999Z</time></trkpt><trkpt lat="45.57264356134415" lon="10.096835508031218"><ele>154.0</ele><time>2026-03-24T15:33:27.999Z</time></trkpt><trkpt lat="45.57270050530936" lon="10.096712497665067"><ele>154.0</ele><time>2026-03-24T15:33:29.999Z</time></trkpt><trkpt lat="45.57275586774044" lon="10.096585745528198"><ele>154.0</ele><time>2026-03-24T15:33:31.999Z</time></trkpt><trkpt lat="45.57281044431358" lon="10.09646376749278"><ele>154.0</ele><time>2026-03-24T15:33:33.999Z</time></trkpt><trkpt lat="45.57286210053189" lon="10.096338460830118"><ele>154.0</ele><time>2026-03-24T15:33:35.999Z</time></trkpt><trkpt lat="45.57291531840884" lon="10.096209859434342"><ele>154.0</ele><time>2026-03-24T15:33:37.999Z</time></trkpt><trkpt lat="45.57297050032613" lon="10.096080804817435"><ele>154.0</ele><time>2026-03-24T15:33:39.999Z</time></trkpt><trkpt lat="45.573025168525035" lon="10.09594861384967"><ele>154.0</ele><time>2026-03-24T15:33:41.999Z</time></trkpt><trkpt lat="45.573086861530676" lon="10.095816487964036"><ele>154.0</ele><time>2026-03-24T15:33:43.999Z</time></trkpt><trkpt lat="45.57314234864361" lon="10.095681117210168"><ele>154.0</ele><time>2026-03-24T15:33:45.999Z</time></trkpt><trkpt lat="45.573199265037736" lon="10.09555294775406"><ele>154.6</ele><time>2026-03-24T15:33:47.999Z</time></trkpt><trkpt lat="45.57325500542682" lon="10.095419990421126"><ele>155.2</ele><time>2026-03-24T15:33:49.999Z</time></trkpt><trkpt lat="45.57331379505661" lon="10.095289421990145"><ele>155.79999999999998</ele><time>2026-03-24T15:33:51.999Z</time></trkpt><trkpt lat="45.573368436346584" lon="10.095161124109678"><ele>156.4</ele><time>2026-03-24T15:33:53.999Z</time></trkpt><trkpt lat="45.57342185138225" lon="10.095032263314408"><ele>157.0</ele><time>2026-03-24T15:33:55.999Z</time></trkpt><trkpt lat="45.57347872233304" lon="10.09490565117319"><ele>157.4</ele><time>2026-03-24T15:33:57.999Z</time></trkpt><trkpt lat="45.573531555029106" lon="10.094777726280828"><ele>157.79999999999998</ele><time>2026-03-24T15:33:59.999Z</time></trkpt><trkpt lat="45.57358684410334" lon="10.094648233061163"><ele>158.2</ele><time>2026-03-24T15:34:01.999Z</time></trkpt><trkpt lat="45.573644868539965" lon="10.09452339997831"><ele>158.6</ele><time>2026-03-24T15:34:03.999Z</time></trkpt><trkpt lat="45.57370045747106" lon="10.09439767838554"><ele>159.0</ele><time>2026-03-24T15:34:05.999Z</time></trkpt><trkpt lat="45.57375463103857" lon="10.09427185328545"><ele>159.0</ele><time>2026-03-24T15:34:07.999Z</time></trkpt><trkpt lat="45.57380712616097" lon="10.094146762823378"><ele>159.0</ele><time>2026-03-24T15:34:09.999Z</time></trkpt><trkpt lat="45.57386609576419" lon="10.09401663589729"><ele>159.0</ele><time>2026-03-24T15:34:11.998Z</time></trkpt><trkpt lat="45.573922578067894" lon="10.093888306229234"><ele>159.0</ele><time>2026-03-24T15:34:13.998Z</time></trkpt><trkpt lat="45.57397860710593" lon="10.093763821938351"><ele>159.0</ele><time>2026-03-24T15:34:15.998Z</time></trkpt><trkpt lat="45.57403996399621" lon="10.09364294784731"><ele>159.0</ele><time>2026-03-24T15:34:17.998Z</time></trkpt><trkpt lat="45.57410295106785" lon="10.09352373917039"><ele>159.0</ele><time>2026-03-24T15:34:19.998Z</time></trkpt><trkpt lat="45.57417338886045" lon="10.093409395251543"><ele>159.0</ele><time>2026-03-24T15:34:22Z</time></trkpt><trkpt lat="45.574250005995694" lon="10.093303693336102"><ele>159.0</ele><time>2026-03-24T15:34:24Z</time></trkpt><trkpt lat="45.57432406707092" lon="10.093200306919414"><ele>159.0</ele><time>2026-03-24T15:34:26Z</time></trkpt><trkpt lat="45.574402265097895" lon="10.093101666220326"><ele>158.8</ele><time>2026-03-24T15:34:28Z</time></trkpt><trkpt lat="45.574478982404635" lon="10.093001624581557"><ele>158.60000000000002</ele><time>2026-03-24T15:34:30Z</time></trkpt><trkpt lat="45.57455899234849" lon="10.092905829981856"><ele>158.4</ele><time>2026-03-24T15:34:32Z</time></trkpt><trkpt lat="45.574631910371814" lon="10.092803111561992"><ele>158.20000000000002</ele><time>2026-03-24T15:34:34Z</time></trkpt><trkpt lat="45.57470841795449" lon="10.092704483683226"><ele>158.0</ele><time>2026-03-24T15:34:36Z</time></trkpt><trkpt lat="45.574788959770835" lon="10.09261555983449"><ele>158.0</ele><time>2026-03-24T15:34:38Z</time></trkpt><trkpt lat="45.574862148408236" lon="10.092515078328502"><ele>158.0</ele><time>2026-03-24T15:34:40Z</time></trkpt><trkpt lat="45.574941698381004" lon="10.092419658410844"><ele>158.0</ele><time>2026-03-24T15:34:42Z</time></trkpt><trkpt lat="45.575021985042596" lon="10.092323905123045"><ele>158.0</ele><time>2026-03-24T15:34:44Z</time></trkpt><trkpt lat="45.575101119340815" lon="10.092226662763192"><ele>158.0</ele><time>2026-03-24T15:34:46Z</time></trkpt><trkpt lat="45.575184815500066" lon="10.09213351082221"><ele>158.0</ele><time>2026-03-24T15:34:48Z</time></trkpt><trkpt lat="45.57526780830835" lon="10.092038953119898"><ele>158.0</ele><time>2026-03-24T15:34:50Z</time></trkpt><trkpt lat="45.57534916433294" lon="10.091943660357254"><ele>158.0</ele><time>2026-03-24T15:34:52Z</time></trkpt><trkpt lat="45.57542647713952" lon="10.091846497830705"><ele>158.0</ele><time>2026-03-24T15:34:54Z</time></trkpt><trkpt lat="45.57550064510986" lon="10.091745624404455"><ele>158.0</ele><time>2026-03-24T15:34:56Z</time></trkpt><trkpt lat="45.575575739052994" lon="10.091644525989354"><ele>158.4</ele><time>2026-03-24T15:34:58Z</time></trkpt><trkpt lat="45.57564749270127" lon="10.091542612145243"><ele>158.8</ele><time>2026-03-24T15:35:00Z</time></trkpt><trkpt lat="45.5757180816613" lon="10.091438130400492"><ele>159.2</ele><time>2026-03-24T15:35:02Z</time></trkpt><trkpt lat="45.57578765942162" lon="10.09133543931267"><ele>159.6</ele><time>2026-03-24T15:35:04Z</time></trkpt><trkpt lat="45.57585390810673" lon="10.091233522177113"><ele>160.0</ele><time>2026-03-24T15:35:06Z</time></trkpt><trkpt lat="45.575918657196716" lon="10.091126506071321"><ele>160.0</ele><time>2026-03-24T15:35:08Z</time></trkpt><trkpt lat="45.5759793638535" lon="10.091018918079852"><ele>160.0</ele><time>2026-03-24T15:35:10Z</time></trkpt><trkpt lat="45.57603668164805" lon="10.09091136200843"><ele>160.0</ele><time>2026-03-24T15:35:12Z</time></trkpt><trkpt lat="45.57609363341222" lon="10.090801302294311"><ele>160.0</ele><time>2026-03-24T15:35:14Z</time></trkpt><trkpt lat="45.576151000795136" lon="10.090687497444732"><ele>160.0</ele><time>2026-03-24T15:35:15.999Z</time></trkpt><trkpt lat="45.57620997421826" lon="10.090571434923817"><ele>160.2</ele><time>2026-03-24T15:35:17.999Z</time></trkpt><trkpt lat="45.57627149962611" lon="10.090458733919855"><ele>160.4</ele><time>2026-03-24T15:35:19.999Z</time></trkpt><trkpt lat="45.57633987424342" lon="10.09035330308015"><ele>160.60000000000002</ele><time>2026-03-24T15:35:21.999Z</time></trkpt><trkpt lat="45.576412697999785" lon="10.090252098549769"><ele>160.8</ele><time>2026-03-24T15:35:23.999Z</time></trkpt><trkpt lat="45.57649076033925" lon="10.090157095194163"><ele>161.0</ele><time>2026-03-24T15:35:25.999Z</time></trkpt><trkpt lat="45.57657244810314" lon="10.090061772418874"><ele>161.0</ele><time>2026-03-24T15:35:27.999Z</time></trkpt><trkpt lat="45.57665970866115" lon="10.089978059175317"><ele>161.0</ele><time>2026-03-24T15:35:29.999Z</time></trkpt><trkpt lat="45.57674782441919" lon="10.089882116434575"><ele>161.0</ele><time>2026-03-24T15:35:31.999Z</time></trkpt><trkpt lat="45.576839741790074" lon="10.08978735949898"><ele>161.0</ele><time>2026-03-24T15:35:33.999Z</time></trkpt><trkpt lat="45.576935270097174" lon="10.089696171886908"><ele>161.0</ele><time>2026-03-24T15:35:35.999Z</time></trkpt><trkpt lat="45.577026999031304" lon="10.089601363871902"><ele>161.60000000000002</ele><time>2026-03-24T15:35:37.999Z</time></trkpt><trkpt lat="45.5771219339761" lon="10.089503477585211"><ele>162.2</ele><time>2026-03-24T15:35:39.999Z</time></trkpt><trkpt lat="45.57721318297337" lon="10.089409441327295"><ele>162.8</ele><time>2026-03-24T15:35:41.999Z</time></trkpt><trkpt lat="45.577298757819754" lon="10.089324805819667"><ele>163.39999999999998</ele><time>2026-03-24T15:35:43.999Z</time></trkpt><trkpt lat="45.57738286584348" lon="10.089240492524931"><ele>164.0</ele><time>2026-03-24T15:35:45.999Z</time></trkpt><trkpt lat="45.577463653753355" lon="10.089155439714265"><ele>164.0</ele><time>2026-03-24T15:35:47.999Z</time></trkpt><trkpt lat="45.57754515651904" lon="10.089067503508884"><ele>164.0</ele><time>2026-03-24T15:35:49.999Z</time></trkpt><trkpt lat="45.577629371050655" lon="10.088984804320598"><ele>164.0</ele><time>2026-03-24T15:35:51.999Z</time></trkpt><trkpt lat="45.57771042250254" lon="10.088890638007486"><ele>164.0</ele><time>2026-03-24T15:35:53.999Z</time></trkpt><trkpt lat="45.57779290231326" lon="10.088794304079292"><ele>164.0</ele><time>2026-03-24T15:35:55.999Z</time></trkpt><trkpt lat="45.57787426800597" lon="10.088686009360508"><ele>164.0</ele><time>2026-03-24T15:35:57.999Z</time></trkpt><trkpt lat="45.57794743648384" lon="10.088571981299921"><ele>164.0</ele><time>2026-03-24T15:35:59.999Z</time></trkpt><trkpt lat="45.57801661122829" lon="10.088449367648627"><ele>164.0</ele><time>2026-03-24T15:36:01.999Z</time></trkpt><trkpt lat="45.57808331790341" lon="10.088321395061207"><ele>164.0</ele><time>2026-03-24T15:36:03.999Z</time></trkpt><trkpt lat="45.57814427086242" lon="10.088187638381028"><ele>164.0</ele><time>2026-03-24T15:36:05.999Z</time></trkpt><trkpt lat="45.5782027340047" lon="10.08804823839152"><ele>164.0</ele><time>2026-03-24T15:36:07.999Z</time></trkpt><trkpt lat="45.57825859504032" lon="10.087901456543706"><ele>164.0</ele><time>2026-03-24T15:36:09.999Z</time></trkpt><trkpt lat="45.57831201916807" lon="10.08774948288433"><ele>164.0</ele><time>2026-03-24T15:36:11.999Z</time></trkpt><trkpt lat="45.5783652162678" lon="10.087591936471506"><ele>164.0</ele><time>2026-03-24T15:36:13.999Z</time></trkpt><trkpt lat="45.57841990819334" lon="10.087435826621121"><ele>164.0</ele><time>2026-03-24T15:36:15.999Z</time></trkpt><trkpt lat="45.578485623092554" lon="10.087289988764017"><ele>164.0</ele><time>2026-03-24T15:36:17.998Z</time></trkpt><trkpt lat="45.578564200692604" lon="10.087158802742197"><ele>164.0</ele><time>2026-03-24T15:36:19.998Z</time></trkpt><trkpt lat="45.578652029785076" lon="10.087040064152761"><ele>164.0</ele><time>2026-03-24T15:36:21.998Z</time></trkpt><trkpt lat="45.57874371289422" lon="10.086926269156217"><ele>164.0</ele><time>2026-03-24T15:36:23.998Z</time></trkpt><trkpt lat="45.57884189889309" lon="10.086827681584133"><ele>164.0</ele><time>2026-03-24T15:36:25.998Z</time></trkpt><trkpt lat="45.57894720518848" lon="10.086735240721028"><ele>164.0</ele><time>2026-03-24T15:36:28Z</time></trkpt><trkpt lat="45.57905070698215" lon="10.086643174404026"><ele>164.0</ele><time>2026-03-24T15:36:30Z</time></trkpt><trkpt lat="45.579150245592054" lon="10.086549217507198"><ele>164.25</ele><time>2026-03-24T15:36:32Z</time></trkpt><trkpt lat="45.57924473306874" lon="10.086442990068846"><ele>164.5</ele><time>2026-03-24T15:36:34Z</time></trkpt><trkpt lat="45.579333621851845" lon="10.086333089650259"><ele>164.75</ele><time>2026-03-24T15:36:36Z</time></trkpt><trkpt lat="45.579419148457625" lon="10.086217078522036"><ele>165.0</ele><time>2026-03-24T15:36:38Z</time></trkpt><trkpt lat="45.57950292192812" lon="10.086093031664372"><ele>165.0</ele><time>2026-03-24T15:36:40Z</time></trkpt><trkpt lat="45.57958166842843" lon="10.085965208404838"><ele>165.0</ele><time>2026-03-24T15:36:42Z</time></trkpt><trkpt lat="45.57966241324809" lon="10.085836950469936"><ele>165.0</ele><time>2026-03-24T15:36:44Z</time></trkpt><trkpt lat="45.579741730515586" lon="10.085707916843047"><ele>165.0</ele><time>2026-03-24T15:36:46Z</time></trkpt><trkpt lat="45.57981829202334" lon="10.0855845809727"><ele>165.5</ele><time>2026-03-24T15:36:48Z</time></trkpt><trkpt lat="45.57989816194678" lon="10.085461095493244"><ele>166.0</ele><time>2026-03-24T15:36:50Z</time></trkpt><trkpt lat="45.579975692799536" lon="10.085337655903727"><ele>166.5</ele><time>2026-03-24T15:36:52Z</time></trkpt><trkpt lat="45.58005368202173" lon="10.085208754190866"><ele>167.0</ele><time>2026-03-24T15:36:54Z</time></trkpt><trkpt lat="45.58013373651703" lon="10.085079928460251"><ele>167.0</ele><time>2026-03-24T15:36:56Z</time></trkpt><trkpt lat="45.580213621658466" lon="10.084954604759657"><ele>167.0</ele><time>2026-03-24T15:36:58Z</time></trkpt><trkpt lat="45.5802928840777" lon="10.084829388718333"><ele>167.0</ele><time>2026-03-24T15:37:00Z</time></trkpt><trkpt lat="45.58037244352562" lon="10.084730581925314"><ele>167.0</ele><time>2026-03-24T15:37:02Z</time></trkpt><trkpt lat="45.58046328480046" lon="10.08462764317739"><ele>167.0</ele><time>2026-03-24T15:37:04Z</time></trkpt><trkpt lat="45.58055944224254" lon="10.084534516061023"><ele>167.0</ele><time>2026-03-24T15:37:06Z</time></trkpt><trkpt lat="45.580661645544495" lon="10.084452882474093"><ele>167.0</ele><time>2026-03-24T15:37:08Z</time></trkpt><trkpt lat="45.58076192768829" lon="10.08436294805728"><ele>167.0</ele><time>2026-03-24T15:37:10Z</time></trkpt><trkpt lat="45.58086091203043" lon="10.084279334999435"><ele>167.0</ele><time>2026-03-24T15:37:12Z</time></trkpt><trkpt lat="45.58095760070804" lon="10.084196108660953"><ele>167.0</ele><time>2026-03-24T15:37:14Z</time></trkpt><trkpt lat="45.58105343874662" lon="10.084101582364848"><ele>167.0</ele><time>2026-03-24T15:37:15.999Z</time></trkpt><trkpt lat="45.58111578811754" lon="10.083957842806718"><ele>167.0</ele><time>2026-03-24T15:37:17.999Z</time></trkpt><trkpt lat="45.581196653628815" lon="10.083849682232271"><ele>167.25</ele><time>2026-03-24T15:37:19.999Z</time></trkpt><trkpt lat="45.581294065294394" lon="10.08377519153612"><ele>167.5</ele><time>2026-03-24T15:37:21.999Z</time></trkpt><trkpt lat="45.58139100824031" lon="10.083687884646313"><ele>167.75</ele><time>2026-03-24T15:37:23.999Z</time></trkpt><trkpt lat="45.58148929939538" lon="10.083604849823876"><ele>168.0</ele><time>2026-03-24T15:37:25.999Z</time></trkpt><trkpt lat="45.581587219927975" lon="10.083526485319847"><ele>168.0</ele><time>2026-03-24T15:37:27.999Z</time></trkpt><trkpt lat="45.58168840940248" lon="10.083446190131978"><ele>168.0</ele><time>2026-03-24T15:37:29.999Z</time></trkpt><trkpt lat="45.58177841171023" lon="10.083367326489164"><ele>168.0</ele><time>2026-03-24T15:37:31.999Z</time></trkpt><trkpt lat="45.58186397512011" lon="10.083301915962428"><ele>168.0</ele><time>2026-03-24T15:37:33.999Z</time></trkpt><trkpt lat="45.58194617171075" lon="10.083238014671045"><ele>168.0</ele><time>2026-03-24T15:37:35.999Z</time></trkpt><trkpt lat="45.58203861720619" lon="10.083166878367138"><ele>168.0</ele><time>2026-03-24T15:37:37.999Z</time></trkpt><trkpt lat="45.58213913342984" lon="10.083094440851733"><ele>168.0</ele><time>2026-03-24T15:37:39.999Z</time></trkpt><trkpt lat="45.582243880029765" lon="10.083011280514604"><ele>168.0</ele><time>2026-03-24T15:37:41.999Z</time></trkpt><trkpt lat="45.58234728752181" lon="10.082931459169373"><ele>168.0</ele><time>2026-03-24T15:37:43.999Z</time></trkpt><trkpt lat="45.5824493731463" lon="10.082851213963556"><ele>168.0</ele><time>2026-03-24T15:37:45.999Z</time></trkpt><trkpt lat="45.58255056420107" lon="10.082767763746823"><ele>168.0</ele><time>2026-03-24T15:37:47.999Z</time></trkpt><trkpt lat="45.58265653652454" lon="10.082685226680908"><ele>168.0</ele><time>2026-03-24T15:37:49.999Z</time></trkpt><trkpt lat="45.58276427301161" lon="10.082604655276581"><ele>168.0</ele><time>2026-03-24T15:37:51.999Z</time></trkpt><trkpt lat="45.58286874461547" lon="10.08251598937421"><ele>168.4</ele><time>2026-03-24T15:37:53.999Z</time></trkpt><trkpt lat="45.58297565905537" lon="10.082432421009587"><ele>168.8</ele><time>2026-03-24T15:37:55.999Z</time></trkpt><trkpt lat="45.58308371104696" lon="10.082328784290691"><ele>169.2</ele><time>2026-03-24T15:37:57.999Z</time></trkpt><trkpt lat="45.58315166977829" lon="10.082282126914066"><ele>169.6</ele><time>2026-03-24T15:37:58.999Z</time></trkpt><trkpt lat="45.58322029651236" lon="10.082235254632723"><ele>170.0</ele><time>2026-03-24T15:37:59.999Z</time></trkpt><trkpt lat="45.5833141424624" lon="10.082166131628085"><ele>170.0</ele><time>2026-03-24T15:38:01.999Z</time></trkpt><trkpt lat="45.5834229778929" lon="10.082087315343815"><ele>170.0</ele><time>2026-03-24T15:38:03.999Z</time></trkpt><trkpt lat="45.58352877962994" lon="10.082008039160906"><ele>170.0</ele><time>2026-03-24T15:38:05.999Z</time></trkpt><trkpt lat="45.58362647688662" lon="10.081927422637618"><ele>170.0</ele><time>2026-03-24T15:38:07.999Z</time></trkpt><trkpt lat="45.58372517505551" lon="10.081851016155552"><ele>170.2</ele><time>2026-03-24T15:38:09.999Z</time></trkpt><trkpt lat="45.58382126666343" lon="10.081776693479094"><ele>170.4</ele><time>2026-03-24T15:38:11.999Z</time></trkpt><trkpt lat="45.5839093397643" lon="10.08170486706803"><ele>170.60000000000002</ele><time>2026-03-24T15:38:13.999Z</time></trkpt><trkpt lat="45.583982336169115" lon="10.081634483702418"><ele>170.8</ele><time>2026-03-24T15:38:15.999Z</time></trkpt><trkpt lat="45.58399387910948" lon="10.081507360025915"><ele>171.0</ele><time>2026-03-24T15:38:17.999Z</time></trkpt><trkpt lat="45.58398742252071" lon="10.081399268270541"><ele>171.0</ele><time>2026-03-24T15:38:19.998Z</time></trkpt><trkpt lat="45.5840655112846" lon="10.081377475002183"><ele>171.0</ele><time>2026-03-24T15:38:21.998Z</time></trkpt><trkpt lat="45.584128304487386" lon="10.081472846610119"><ele>171.0</ele><time>2026-03-24T15:38:23.998Z</time></trkpt><trkpt lat="45.58419918825166" lon="10.081417263115739"><ele>171.0</ele><time>2026-03-24T15:38:25.998Z</time></trkpt><trkpt lat="45.58427346820636" lon="10.081365522815293"><ele>171.0</ele><time>2026-03-24T15:38:27.998Z</time></trkpt><trkpt lat="45.5843600315259" lon="10.081337477555016"><ele>171.0</ele><time>2026-03-24T15:38:29.998Z</time></trkpt><trkpt lat="45.5844452924324" lon="10.081270563977096"><ele>171.8</ele><time>2026-03-24T15:38:31.998Z</time></trkpt><trkpt lat="45.58453207701055" lon="10.081196141281996"><ele>172.60000000000002</ele><time>2026-03-24T15:38:34Z</time></trkpt><trkpt lat="45.5846232818353" lon="10.081118295101495"><ele>173.4</ele><time>2026-03-24T15:38:36Z</time></trkpt><trkpt lat="45.58471644491846" lon="10.081042431917231"><ele>174.2</ele><time>2026-03-24T15:38:38Z</time></trkpt><trkpt lat="45.5848198139587" lon="10.080987223772711"><ele>175.0</ele><time>2026-03-24T15:38:40Z</time></trkpt><trkpt lat="45.58493186701641" lon="10.080956792988303"><ele>175.0</ele><time>2026-03-24T15:38:42Z</time></trkpt><trkpt lat="45.58503280135584" lon="10.080872265614493"><ele>175.0</ele><time>2026-03-24T15:38:44Z</time></trkpt><trkpt lat="45.58513553136189" lon="10.080800013074299"><ele>175.0</ele><time>2026-03-24T15:38:46Z</time></trkpt><trkpt lat="45.585237336685545" lon="10.0807117111098"><ele>175.0</ele><time>2026-03-24T15:38:48Z</time></trkpt><trkpt lat="45.58534490725425" lon="10.08062652356996"><ele>175.0</ele><time>2026-03-24T15:38:50Z</time></trkpt><trkpt lat="45.58544712283206" lon="10.080536406252751"><ele>175.0</ele><time>2026-03-24T15:38:52Z</time></trkpt><trkpt lat="45.585553279786645" lon="10.080448133981891"><ele>175.0</ele><time>2026-03-24T15:38:54Z</time></trkpt><trkpt lat="45.585663569912796" lon="10.08036376798601"><ele>175.0</ele><time>2026-03-24T15:38:56Z</time></trkpt><trkpt lat="45.585777188062444" lon="10.08029073562728"><ele>175.0</ele><time>2026-03-24T15:38:58Z</time></trkpt><trkpt lat="45.58589271507694" lon="10.080222538412864"><ele>175.0</ele><time>2026-03-24T15:39:00Z</time></trkpt><trkpt lat="45.58601252471335" lon="10.080187549343776"><ele>175.0</ele><time>2026-03-24T15:39:02Z</time></trkpt><trkpt lat="45.58613131218469" lon="10.08014260469935"><ele>175.0</ele><time>2026-03-24T15:39:04Z</time></trkpt><trkpt lat="45.58624755134098" lon="10.080081648457998"><ele>175.5</ele><time>2026-03-24T15:39:06Z</time></trkpt><trkpt lat="45.58636526215391" lon="10.080031736542075"><ele>176.0</ele><time>2026-03-24T15:39:08Z</time></trkpt><trkpt lat="45.58648187220652" lon="10.079973846780725"><ele>176.5</ele><time>2026-03-24T15:39:10Z</time></trkpt><trkpt lat="45.58659781942183" lon="10.079911431885892"><ele>177.0</ele><time>2026-03-24T15:39:12Z</time></trkpt><trkpt lat="45.58671219485519" lon="10.079858190331356"><ele>177.2</ele><time>2026-03-24T15:39:14Z</time></trkpt><trkpt lat="45.58682918992487" lon="10.079814548941494"><ele>177.39999999999998</ele><time>2026-03-24T15:39:16Z</time></trkpt><trkpt lat="45.58694235802867" lon="10.079763464765238"><ele>177.60000000000002</ele><time>2026-03-24T15:39:18Z</time></trkpt><trkpt lat="45.587050006345635" lon="10.079725763855672"><ele>177.8</ele><time>2026-03-24T15:39:19.999Z</time></trkpt><trkpt lat="45.587126869660175" lon="10.079688096312514"><ele>178.0</ele><time>2026-03-24T15:39:22.999Z</time></trkpt><trkpt lat="45.58719299829057" lon="10.079643130630217"><ele>178.0</ele><time>2026-03-24T15:39:25.999Z</time></trkpt><trkpt lat="45.58723251685593" lon="10.079566793424076"><ele>178.0</ele><time>2026-03-24T15:39:27.999Z</time></trkpt><trkpt lat="45.58721828518454" lon="10.079443606852548"><ele>178.0</ele><time>2026-03-24T15:39:29.999Z</time></trkpt><trkpt lat="45.58717997973467" lon="10.079320393112505"><ele>178.0</ele><time>2026-03-24T15:39:31.999Z</time></trkpt><trkpt lat="45.58714314191722" lon="10.079183737651448"><ele>178.0</ele><time>2026-03-24T15:39:33.999Z</time></trkpt><trkpt lat="45.587107699331014" lon="10.079037923487782"><ele>177.75</ele><time>2026-03-24T15:39:35.999Z</time></trkpt><trkpt lat="45.587068310502524" lon="10.078884114804707"><ele>177.5</ele><time>2026-03-24T15:39:37.999Z</time></trkpt><trkpt lat="45.5870271034231" lon="10.078724972194363"><ele>177.25</ele><time>2026-03-24T15:39:39.999Z</time></trkpt><trkpt lat="45.58698526124602" lon="10.078559617147194"><ele>177.0</ele><time>2026-03-24T15:39:41.999Z</time></trkpt><trkpt lat="45.58694013785345" lon="10.078396418551547"><ele>176.5</ele><time>2026-03-24T15:39:43.999Z</time></trkpt><trkpt lat="45.58690088823278" lon="10.0782378789668"><ele>176.0</ele><time>2026-03-24T15:39:45.999Z</time></trkpt><trkpt lat="45.58685259793865" lon="10.078072543772864"><ele>175.5</ele><time>2026-03-24T15:39:47.999Z</time></trkpt><trkpt lat="45.58680884780185" lon="10.077903116725677"><ele>175.0</ele><time>2026-03-24T15:39:49.999Z</time></trkpt><trkpt lat="45.58677432005886" lon="10.077729374113462"><ele>175.0</ele><time>2026-03-24T15:39:51.999Z</time></trkpt><trkpt lat="45.586758117216505" lon="10.077558159820663"><ele>175.0</ele><time>2026-03-24T15:39:53.999Z</time></trkpt><trkpt lat="45.58676228343199" lon="10.077466254256576"><ele>175.0</ele><time>2026-03-24T15:39:54.999Z</time></trkpt><trkpt lat="45.58676148863889" lon="10.077371294193604"><ele>175.0</ele><time>2026-03-24T15:39:55.999Z</time></trkpt><trkpt lat="45.5867674495518" lon="10.077199630537121"><ele>175.0</ele><time>2026-03-24T15:39:57.999Z</time></trkpt><trkpt lat="45.5867711445088" lon="10.077023890985181"><ele>175.25</ele><time>2026-03-24T15:39:59.999Z</time></trkpt><trkpt lat="45.586776819371856" lon="10.076851472685863"><ele>175.5</ele><time>2026-03-24T15:40:01.999Z</time></trkpt><trkpt lat="45.58678296725431" lon="10.076680385440365"><ele>175.75</ele><time>2026-03-24T15:40:03.999Z</time></trkpt><trkpt lat="45.58678978277277" lon="10.076511614996848"><ele>176.0</ele><time>2026-03-24T15:40:05.999Z</time></trkpt><trkpt lat="45.58680110669001" lon="10.076351855408163"><ele>176.4</ele><time>2026-03-24T15:40:07.999Z</time></trkpt><trkpt lat="45.58681686100913" lon="10.076192588624073"><ele>176.8</ele><time>2026-03-24T15:40:09.999Z</time></trkpt><trkpt lat="45.58684384902625" lon="10.076036226878381"><ele>177.20000000000002</ele><time>2026-03-24T15:40:11.999Z</time></trkpt><trkpt lat="45.58689120369559" lon="10.075899975612739"><ele>177.60000000000002</ele><time>2026-03-24T15:40:13.999Z</time></trkpt><trkpt lat="45.58691279708376" lon="10.075759202863857"><ele>178.0</ele><time>2026-03-24T15:40:15.999Z</time></trkpt><trkpt lat="45.58687875160375" lon="10.07562299437053"><ele>178.4</ele><time>2026-03-24T15:40:17.999Z</time></trkpt><trkpt lat="45.58684692047833" lon="10.075484024329771"><ele>178.8</ele><time>2026-03-24T15:40:19.999Z</time></trkpt><trkpt lat="45.58684168294354" lon="10.075353171667015"><ele>179.2</ele><time>2026-03-24T15:40:21.999Z</time></trkpt><trkpt lat="45.586838422941625" lon="10.07522671516752"><ele>179.6</ele><time>2026-03-24T15:40:23.998Z</time></trkpt><trkpt lat="45.58683875436202" lon="10.07509875930118"><ele>180.0</ele><time>2026-03-24T15:40:25.998Z</time></trkpt><trkpt lat="45.58685085006808" lon="10.07496415948171"><ele>180.4</ele><time>2026-03-24T15:40:27.998Z</time></trkpt><trkpt lat="45.58687697387457" lon="10.07483272753207"><ele>180.8</ele><time>2026-03-24T15:40:29.998Z</time></trkpt><trkpt lat="45.58690265602306" lon="10.074696383423646"><ele>181.2</ele><time>2026-03-24T15:40:31.998Z</time></trkpt><trkpt lat="45.5869310934925" lon="10.074560271382346"><ele>181.6</ele><time>2026-03-24T15:40:33.998Z</time></trkpt><trkpt lat="45.58695225525627" lon="10.074423791635432"><ele>182.0</ele><time>2026-03-24T15:40:35.998Z</time></trkpt><trkpt lat="45.58694198665038" lon="10.074288144461242"><ele>182.0</ele><time>2026-03-24T15:40:37.998Z</time></trkpt><trkpt lat="45.586878652637225" lon="10.074179906566366"><ele>182.0</ele><time>2026-03-24T15:40:40Z</time></trkpt><trkpt lat="45.586782097413995" lon="10.074109354529226"><ele>182.0</ele><time>2026-03-24T15:40:42Z</time></trkpt><trkpt lat="45.586674754504166" lon="10.07405180786778"><ele>182.0</ele><time>2026-03-24T15:40:44Z</time></trkpt><trkpt lat="45.58656707871032" lon="10.073977338191945"><ele>182.0</ele><time>2026-03-24T15:40:46Z</time></trkpt><trkpt lat="45.58649043276967" lon="10.073837922417178"><ele>182.0</ele><time>2026-03-24T15:40:48Z</time></trkpt><trkpt lat="45.58645379460844" lon="10.073673614089033"><ele>182.0</ele><time>2026-03-24T15:40:50Z</time></trkpt><trkpt lat="45.586455401677995" lon="10.073518361592361"><ele>182.0</ele><time>2026-03-24T15:40:52Z</time></trkpt><trkpt lat="45.58646385677527" lon="10.073362878023575"><ele>182.0</ele><time>2026-03-24T15:40:54Z</time></trkpt><trkpt lat="45.58647604282823" lon="10.073210097418688"><ele>182.0</ele><time>2026-03-24T15:40:56Z</time></trkpt><trkpt lat="45.58648875053256" lon="10.073057510235174"><ele>181.8</ele><time>2026-03-24T15:40:58Z</time></trkpt><trkpt lat="45.58649648130195" lon="10.072916379174888"><ele>181.6</ele><time>2026-03-24T15:41:00Z</time></trkpt><trkpt lat="45.58650639937417" lon="10.072782939842273"><ele>181.4</ele><time>2026-03-24T15:41:02Z</time></trkpt><trkpt lat="45.586515976979946" lon="10.072630668719258"><ele>181.20000000000002</ele><time>2026-03-24T15:41:04Z</time></trkpt><trkpt lat="45.586524375069914" lon="10.072471350140866"><ele>181.0</ele><time>2026-03-24T15:41:06Z</time></trkpt><trkpt lat="45.58653501500252" lon="10.072308300689565"><ele>181.0</ele><time>2026-03-24T15:41:08Z</time></trkpt><trkpt lat="45.5865455518032" lon="10.072145621525944"><ele>181.0</ele><time>2026-03-24T15:41:10Z</time></trkpt><trkpt lat="45.586556872860555" lon="10.071985762724974"><ele>181.0</ele><time>2026-03-24T15:41:12Z</time></trkpt><trkpt lat="45.58656965166802" lon="10.071825964858556"><ele>181.0</ele><time>2026-03-24T15:41:14Z</time></trkpt><trkpt lat="45.58658256460588" lon="10.071671432620217"><ele>181.0</ele><time>2026-03-24T15:41:16Z</time></trkpt><trkpt lat="45.586597908429525" lon="10.07151801885498"><ele>180.75</ele><time>2026-03-24T15:41:18Z</time></trkpt><trkpt lat="45.58662779151004" lon="10.071364561186142"><ele>180.5</ele><time>2026-03-24T15:41:20Z</time></trkpt><trkpt lat="45.58667311342298" lon="10.071215519449177"><ele>180.25</ele><time>2026-03-24T15:41:22Z</time></trkpt><trkpt lat="45.58674399878584" lon="10.07107153752539"><ele>180.0</ele><time>2026-03-24T15:41:23.999Z</time></trkpt><trkpt lat="45.58682968673277" lon="10.070935655574692"><ele>180.0</ele><time>2026-03-24T15:41:25.999Z</time></trkpt><trkpt lat="45.58687180038981" lon="10.070868115743602"><ele>180.0</ele><time>2026-03-24T15:41:26.999Z</time></trkpt><trkpt lat="45.5869520027335" lon="10.07073981201919"><ele>180.0</ele><time>2026-03-24T15:41:28.999Z</time></trkpt><trkpt lat="45.587032570508526" lon="10.07060855640759"><ele>180.0</ele><time>2026-03-24T15:41:30.999Z</time></trkpt><trkpt lat="45.58710388342785" lon="10.070482953831467"><ele>180.0</ele><time>2026-03-24T15:41:32.999Z</time></trkpt><trkpt lat="45.587175517419034" lon="10.070362674360153"><ele>180.0</ele><time>2026-03-24T15:41:34.999Z</time></trkpt><trkpt lat="45.58724728664465" lon="10.070238509750695"><ele>180.0</ele><time>2026-03-24T15:41:36.999Z</time></trkpt><trkpt lat="45.58731728423889" lon="10.070116933578573"><ele>180.0</ele><time>2026-03-24T15:41:38.999Z</time></trkpt><trkpt lat="45.58737865735505" lon="10.069992672337149"><ele>180.0</ele><time>2026-03-24T15:41:40.999Z</time></trkpt><trkpt lat="45.58743654468944" lon="10.06986553934865"><ele>180.0</ele><time>2026-03-24T15:41:42.999Z</time></trkpt><trkpt lat="45.58748443852983" lon="10.069736527645452"><ele>179.8</ele><time>2026-03-24T15:41:44.999Z</time></trkpt><trkpt lat="45.58752335442286" lon="10.069600237068054"><ele>179.6</ele><time>2026-03-24T15:41:46.999Z</time></trkpt><trkpt lat="45.587560950878206" lon="10.069461581930097"><ele>179.39999999999998</ele><time>2026-03-24T15:41:48.999Z</time></trkpt><trkpt lat="45.5875920056774" lon="10.069320043102259"><ele>179.2</ele><time>2026-03-24T15:41:50.999Z</time></trkpt><trkpt lat="45.587613153780524" lon="10.069175261740241"><ele>179.0</ele><time>2026-03-24T15:41:52.999Z</time></trkpt><trkpt lat="45.587633817199446" lon="10.069029679761693"><ele>179.0</ele><time>2026-03-24T15:41:54.999Z</time></trkpt><trkpt lat="45.58765426156094" lon="10.06888031597269"><ele>179.0</ele><time>2026-03-24T15:41:56.999Z</time></trkpt><trkpt lat="45.58767227427475" lon="10.068733033905648"><ele>179.0</ele><time>2026-03-24T15:41:58.999Z</time></trkpt><trkpt lat="45.5876867247945" lon="10.068581992507237"><ele>179.0</ele><time>2026-03-24T15:42:00.999Z</time></trkpt><trkpt lat="45.587705980596866" lon="10.068435223211656"><ele>179.0</ele><time>2026-03-24T15:42:02.999Z</time></trkpt><trkpt lat="45.587720576620846" lon="10.068293208443405"><ele>179.0</ele><time>2026-03-24T15:42:04.999Z</time></trkpt><trkpt lat="45.58773793491538" lon="10.068146709228374"><ele>179.0</ele><time>2026-03-24T15:42:06.999Z</time></trkpt><trkpt lat="45.587754392704056" lon="10.06800006688177"><ele>179.0</ele><time>2026-03-24T15:42:08.999Z</time></trkpt><trkpt lat="45.58777413890395" lon="10.067851638564859"><ele>179.0</ele><time>2026-03-24T15:42:10.999Z</time></trkpt><trkpt lat="45.58779655841405" lon="10.067699070511468"><ele>179.0</ele><time>2026-03-24T15:42:12.999Z</time></trkpt><trkpt lat="45.58782034676752" lon="10.067546571739395"><ele>179.6</ele><time>2026-03-24T15:42:14.999Z</time></trkpt><trkpt lat="45.58784389397142" lon="10.067400477873466"><ele>180.2</ele><time>2026-03-24T15:42:16.999Z</time></trkpt><trkpt lat="45.58787398939951" lon="10.06725271878646"><ele>180.79999999999998</ele><time>2026-03-24T15:42:18.999Z</time></trkpt><trkpt lat="45.58790660076673" lon="10.067109063284148"><ele>181.39999999999998</ele><time>2026-03-24T15:42:20.999Z</time></trkpt><trkpt lat="45.58793982136022" lon="10.066969364763063"><ele>182.0</ele><time>2026-03-24T15:42:22.999Z</time></trkpt><trkpt lat="45.58797213473902" lon="10.06682969067256"><ele>182.0</ele><time>2026-03-24T15:42:24.999Z</time></trkpt><trkpt lat="45.58800690394844" lon="10.066691904886254"><ele>182.0</ele><time>2026-03-24T15:42:26.998Z</time></trkpt><trkpt lat="45.58803966463228" lon="10.06655636764658"><ele>182.0</ele><time>2026-03-24T15:42:28.998Z</time></trkpt><trkpt lat="45.58807152336597" lon="10.066419975335304"><ele>182.0</ele><time>2026-03-24T15:42:30.998Z</time></trkpt><trkpt lat="45.588105549745606" lon="10.066284723439534"><ele>182.0</ele><time>2026-03-24T15:42:32.998Z</time></trkpt><trkpt lat="45.588135943952246" lon="10.066144779759368"><ele>182.0</ele><time>2026-03-24T15:42:34.998Z</time></trkpt><trkpt lat="45.58817165144349" lon="10.066010970430124"><ele>182.0</ele><time>2026-03-24T15:42:36.998Z</time></trkpt><trkpt lat="45.58821372427544" lon="10.065884945009431"><ele>182.0</ele><time>2026-03-24T15:42:38.998Z</time></trkpt><trkpt lat="45.58827572356268" lon="10.065780678511985"><ele>182.0</ele><time>2026-03-24T15:42:40.998Z</time></trkpt><trkpt lat="45.5883523819905" lon="10.06570121530222"><ele>182.0</ele><time>2026-03-24T15:42:42.998Z</time></trkpt><trkpt lat="45.58842080810695" lon="10.065629181714307"><ele>182.5</ele><time>2026-03-24T15:42:45Z</time></trkpt><trkpt lat="45.58848751088841" lon="10.065572535547258"><ele>183.0</ele><time>2026-03-24T15:42:47Z</time></trkpt><trkpt lat="45.58854516108786" lon="10.065500067234511"><ele>183.5</ele><time>2026-03-24T15:42:49Z</time></trkpt><trkpt lat="45.58858986005739" lon="10.065406361238702"><ele>184.0</ele><time>2026-03-24T15:42:51Z</time></trkpt><trkpt lat="45.58862159644906" lon="10.065298287578084"><ele>184.5</ele><time>2026-03-24T15:42:53Z</time></trkpt><trkpt lat="45.58864412411507" lon="10.06518873681212"><ele>185.0</ele><time>2026-03-24T15:42:55Z</time></trkpt><trkpt lat="45.588661748522824" lon="10.065078817071743"><ele>185.0</ele><time>2026-03-24T15:42:57Z</time></trkpt><trkpt lat="45.588677827186274" lon="10.064965671402268"><ele>185.0</ele><time>2026-03-24T15:42:59Z</time></trkpt><trkpt lat="45.58869397805868" lon="10.0648543913515"><ele>185.0</ele><time>2026-03-24T15:43:01Z</time></trkpt><trkpt lat="45.58870900636824" lon="10.064739964236905"><ele>185.0</ele><time>2026-03-24T15:43:03Z</time></trkpt><trkpt lat="45.58872390007299" lon="10.06462781388105"><ele>185.0</ele><time>2026-03-24T15:43:05Z</time></trkpt><trkpt lat="45.58874001321016" lon="10.064516546152433"><ele>185.0</ele><time>2026-03-24T15:43:07Z</time></trkpt><trkpt lat="45.58875203326185" lon="10.064405151950645"><ele>185.33333333333331</ele><time>2026-03-24T15:43:09Z</time></trkpt><trkpt lat="45.58876594719829" lon="10.064294104276593"><ele>185.66666666666666</ele><time>2026-03-24T15:43:11Z</time></trkpt><trkpt lat="45.58877717503069" lon="10.064185785245225"><ele>186.0</ele><time>2026-03-24T15:43:13Z</time></trkpt><trkpt lat="45.58878470194514" lon="10.06407374218833"><ele>186.33333333333334</ele><time>2026-03-24T15:43:15Z</time></trkpt><trkpt lat="45.58880052466186" lon="10.063963652412584"><ele>186.66666666666669</ele><time>2026-03-24T15:43:17Z</time></trkpt><trkpt lat="45.58881283178905" lon="10.063850758973087"><ele>187.0</ele><time>2026-03-24T15:43:19Z</time></trkpt><trkpt lat="45.58882037306832" lon="10.063725594839923"><ele>187.2</ele><time>2026-03-24T15:43:21Z</time></trkpt><trkpt lat="45.588812806122405" lon="10.063589051823083"><ele>187.39999999999998</ele><time>2026-03-24T15:43:23Z</time></trkpt><trkpt lat="45.58878687155898" lon="10.063441138988596"><ele>187.60000000000002</ele><time>2026-03-24T15:43:25Z</time></trkpt><trkpt lat="45.58874794623914" lon="10.063296052882107"><ele>187.8</ele><time>2026-03-24T15:43:27Z</time></trkpt><trkpt lat="45.5887121536465" lon="10.063162832404391"><ele>188.0</ele><time>2026-03-24T15:43:28.999Z</time></trkpt><trkpt lat="45.588683304700695" lon="10.063069595371053"><ele>187.8</ele><time>2026-03-24T15:43:30.999Z</time></trkpt><trkpt lat="45.588641038885356" lon="10.063000118145595"><ele>187.60000000000002</ele><time>2026-03-24T15:43:32.999Z</time></trkpt><trkpt lat="45.58854539734616" lon="10.063025739577526"><ele>187.39999999999998</ele><time>2026-03-24T15:43:34.999Z</time></trkpt><trkpt lat="45.588456070034695" lon="10.063103163222559"><ele>187.2</ele><time>2026-03-24T15:43:36.999Z</time></trkpt><trkpt lat="45.588353096777084" lon="10.063168227757009"><ele>187.0</ele><time>2026-03-24T15:43:38.999Z</time></trkpt><trkpt lat="45.58823920075019" lon="10.063225264782485"><ele>187.0</ele><time>2026-03-24T15:43:40.999Z</time></trkpt><trkpt lat="45.588178074867706" lon="10.063247482341735"><ele>187.0</ele><time>2026-03-24T15:43:41.999Z</time></trkpt><trkpt lat="45.58811304856386" lon="10.063259261674055"><ele>187.0</ele><time>2026-03-24T15:43:42.999Z</time></trkpt><trkpt lat="45.587991857674005" lon="10.063261541602893"><ele>187.0</ele><time>2026-03-24T15:43:44.999Z</time></trkpt><trkpt lat="45.587870180604945" lon="10.063252354264723"><ele>187.0</ele><time>2026-03-24T15:43:46.999Z</time></trkpt><trkpt lat="45.58774903694503" lon="10.063230952089778"><ele>186.8</ele><time>2026-03-24T15:43:48.999Z</time></trkpt><trkpt lat="45.587686747358255" lon="10.063217365870692"><ele>186.6</ele><time>2026-03-24T15:43:49.999Z</time></trkpt><trkpt lat="45.58756513495182" lon="10.063189510267069"><ele>186.4</ele><time>2026-03-24T15:43:51.999Z</time></trkpt><trkpt lat="45.587502911420046" lon="10.063172940701229"><ele>186.20000000000002</ele><time>2026-03-24T15:43:52.999Z</time></trkpt><trkpt lat="45.587382810219346" lon="10.063142066959474"><ele>186.0</ele><time>2026-03-24T15:43:54.999Z</time></trkpt><trkpt lat="45.587259544655005" lon="10.063114299436704"><ele>186.0</ele><time>2026-03-24T15:43:56.999Z</time></trkpt><trkpt lat="45.58714247933138" lon="10.0630854003081"><ele>186.0</ele><time>2026-03-24T15:43:58.999Z</time></trkpt><trkpt lat="45.58702182995539" lon="10.063057311013054"><ele>186.0</ele><time>2026-03-24T15:44:00.999Z</time></trkpt><trkpt lat="45.58695706840818" lon="10.063044637538532"><ele>186.0</ele><time>2026-03-24T15:44:01.999Z</time></trkpt><trkpt lat="45.586837006859135" lon="10.063017757217459"><ele>186.0</ele><time>2026-03-24T15:44:03.999Z</time></trkpt><trkpt lat="45.58671519663277" lon="10.063000869193946"><ele>185.4</ele><time>2026-03-24T15:44:05.999Z</time></trkpt><trkpt lat="45.58659125423241" lon="10.0629926454124"><ele>184.8</ele><time>2026-03-24T15:44:07.999Z</time></trkpt><trkpt lat="45.58652818363619" lon="10.062994859428299"><ele>184.20000000000002</ele><time>2026-03-24T15:44:08.999Z</time></trkpt><trkpt lat="45.58640645865821" lon="10.063009583019623"><ele>183.60000000000002</ele><time>2026-03-24T15:44:10.999Z</time></trkpt><trkpt lat="45.586285496016" lon="10.063036711058043"><ele>183.0</ele><time>2026-03-24T15:44:12.999Z</time></trkpt><trkpt lat="45.586164444612926" lon="10.063079274000282"><ele>181.75</ele><time>2026-03-24T15:44:14.999Z</time></trkpt><trkpt lat="45.58604741328503" lon="10.06312954238245"><ele>180.5</ele><time>2026-03-24T15:44:16.999Z</time></trkpt><trkpt lat="45.585929827667506" lon="10.063185812019281"><ele>179.25</ele><time>2026-03-24T15:44:18.999Z</time></trkpt><trkpt lat="45.58581212967538" lon="10.063246058553071"><ele>178.0</ele><time>2026-03-24T15:44:20.999Z</time></trkpt><trkpt lat="45.585697350311676" lon="10.063311210968564"><ele>178.0</ele><time>2026-03-24T15:44:22.999Z</time></trkpt><trkpt lat="45.58558679404906" lon="10.06338593445217"><ele>178.0</ele><time>2026-03-24T15:44:24.999Z</time></trkpt><trkpt lat="45.58547925621012" lon="10.06347055537507"><ele>178.0</ele><time>2026-03-24T15:44:26.999Z</time></trkpt><trkpt lat="45.58537813174043" lon="10.063567183373817"><ele>178.0</ele><time>2026-03-24T15:44:28.999Z</time></trkpt><trkpt lat="45.58533151374064" lon="10.063627989979041"><ele>178.0</ele><time>2026-03-24T15:44:29.999Z</time></trkpt><trkpt lat="45.585243938041366" lon="10.06374415925557"><ele>178.0</ele><time>2026-03-24T15:44:31.998Z</time></trkpt><trkpt lat="45.5851670976351" lon="10.063880509127282"><ele>178.0</ele><time>2026-03-24T15:44:33.998Z</time></trkpt><trkpt lat="45.58509816174684" lon="10.064025696300819"><ele>178.0</ele><time>2026-03-24T15:44:35.998Z</time></trkpt><trkpt lat="45.58503198757161" lon="10.064175577820896"><ele>178.0</ele><time>2026-03-24T15:44:37.998Z</time></trkpt><trkpt lat="45.5849681735447" lon="10.064331005926046"><ele>178.60000000000002</ele><time>2026-03-24T15:44:39.998Z</time></trkpt><trkpt lat="45.584932777903" lon="10.064405842825009"><ele>179.20000000000002</ele><time>2026-03-24T15:44:40.998Z</time></trkpt><trkpt lat="45.584897783297826" lon="10.064481591863467"><ele>179.8</ele><time>2026-03-24T15:44:41.998Z</time></trkpt><trkpt lat="45.584825665619796" lon="10.064624983896762"><ele>180.4</ele><time>2026-03-24T15:44:43.998Z</time></trkpt><trkpt lat="45.58474515835629" lon="10.064761169244697"><ele>181.0</ele><time>2026-03-24T15:44:45.998Z</time></trkpt><trkpt lat="45.58466078767812" lon="10.064894840465833"><ele>180.75</ele><time>2026-03-24T15:44:47.998Z</time></trkpt><trkpt lat="45.584567189256475" lon="10.065011477852167"><ele>180.5</ele><time>2026-03-24T15:44:49.998Z</time></trkpt><trkpt lat="45.5844727980703" lon="10.06512894179334"><ele>180.25</ele><time>2026-03-24T15:44:52Z</time></trkpt><trkpt lat="45.58436769944283" lon="10.065228357383953"><ele>180.0</ele><time>2026-03-24T15:44:54Z</time></trkpt><trkpt lat="45.58426207895676" lon="10.065325077332444"><ele>179.6</ele><time>2026-03-24T15:44:56Z</time></trkpt><trkpt lat="45.58420594438078" lon="10.065366444444987"><ele>179.2</ele><time>2026-03-24T15:44:57Z</time></trkpt><trkpt lat="45.58409342273498" lon="10.065446643401957"><ele>178.8</ele><time>2026-03-24T15:44:59Z</time></trkpt><trkpt lat="45.583979241341176" lon="10.065519422547684"><ele>178.4</ele><time>2026-03-24T15:45:01Z</time></trkpt><trkpt lat="45.583859832976344" lon="10.065574115823225"><ele>178.0</ele><time>2026-03-24T15:45:03Z</time></trkpt><trkpt lat="45.583740546650496" lon="10.065620619842992"><ele>178.25</ele><time>2026-03-24T15:45:05Z</time></trkpt><trkpt lat="45.58362048210833" lon="10.065653947251413"><ele>178.5</ele><time>2026-03-24T15:45:07Z</time></trkpt><trkpt lat="45.58349983087096" lon="10.065679867554037"><ele>178.75</ele><time>2026-03-24T15:45:09Z</time></trkpt><trkpt lat="45.58337789401915" lon="10.065710897131328"><ele>179.0</ele><time>2026-03-24T15:45:11Z</time></trkpt><trkpt lat="45.58326190054526" lon="10.065742267787682"><ele>179.0</ele><time>2026-03-24T15:45:13Z</time></trkpt><trkpt lat="45.58314279205797" lon="10.065767328082076"><ele>179.0</ele><time>2026-03-24T15:45:15Z</time></trkpt><trkpt lat="45.583024207254404" lon="10.065795515220476"><ele>179.0</ele><time>2026-03-24T15:45:17Z</time></trkpt><trkpt lat="45.582905219934915" lon="10.065826301764988"><ele>179.0</ele><time>2026-03-24T15:45:19Z</time></trkpt><trkpt lat="45.58278630705807" lon="10.065851798597528"><ele>178.6</ele><time>2026-03-24T15:45:21Z</time></trkpt><trkpt lat="45.58266689590915" lon="10.065893708310837"><ele>178.2</ele><time>2026-03-24T15:45:23Z</time></trkpt><trkpt lat="45.58254849261886" lon="10.065931146676883"><ele>177.79999999999998</ele><time>2026-03-24T15:45:25Z</time></trkpt><trkpt lat="45.5824283091947" lon="10.065980184338882"><ele>177.39999999999998</ele><time>2026-03-24T15:45:27Z</time></trkpt><trkpt lat="45.582367279895394" lon="10.06600699330021"><ele>177.0</ele><time>2026-03-24T15:45:28Z</time></trkpt><trkpt lat="45.58230704985939" lon="10.066035683162665"><ele>177.0</ele><time>2026-03-24T15:45:29Z</time></trkpt><trkpt lat="45.58218608271274" lon="10.066088818806486"><ele>177.0</ele><time>2026-03-24T15:45:31Z</time></trkpt><trkpt lat="45.582069953208645" lon="10.066131733464442"><ele>177.0</ele><time>2026-03-24T15:45:33Z</time></trkpt><trkpt lat="45.58195127409365" lon="10.066184027237341"><ele>177.0</ele><time>2026-03-24T15:45:35Z</time></trkpt><trkpt lat="45.58183168801391" lon="10.066231863115924"><ele>177.5</ele><time>2026-03-24T15:45:37Z</time></trkpt><trkpt lat="45.58171541275311" lon="10.066283006456334"><ele>178.0</ele><time>2026-03-24T15:45:39Z</time></trkpt><trkpt lat="45.58159623966888" lon="10.066333614993244"><ele>178.5</ele><time>2026-03-24T15:45:41Z</time></trkpt><trkpt lat="45.58147895972165" lon="10.066381066355573"><ele>179.0</ele><time>2026-03-24T15:45:43Z</time></trkpt><trkpt lat="45.581361245335955" lon="10.066430138006655"><ele>179.0</ele><time>2026-03-24T15:45:44.999Z</time></trkpt><trkpt lat="45.58124288644731" lon="10.066477973897802"><ele>179.0</ele><time>2026-03-24T15:45:46.999Z</time></trkpt><trkpt lat="45.581125151882816" lon="10.066527314516538"><ele>179.0</ele><time>2026-03-24T15:45:48.999Z</time></trkpt><trkpt lat="45.58100901703094" lon="10.066577380456408"><ele>179.0</ele><time>2026-03-24T15:45:50.999Z</time></trkpt><trkpt lat="45.5808891891778" lon="10.066625447510702"><ele>178.25</ele><time>2026-03-24T15:45:52.999Z</time></trkpt><trkpt lat="45.580771971518544" lon="10.066674989536642"><ele>177.5</ele><time>2026-03-24T15:45:54.999Z</time></trkpt><trkpt lat="45.58065379825936" lon="10.066726532247936"><ele>176.75</ele><time>2026-03-24T15:45:56.999Z</time></trkpt><trkpt lat="45.580535584046814" lon="10.066775346109448"><ele>176.0</ele><time>2026-03-24T15:45:58.999Z</time></trkpt><trkpt lat="45.58041634147064" lon="10.066822606136977"><ele>175.5</ele><time>2026-03-24T15:46:00.999Z</time></trkpt><trkpt lat="45.58029991988034" lon="10.066874973292474"><ele>175.0</ele><time>2026-03-24T15:46:02.999Z</time></trkpt><trkpt lat="45.58019649874594" lon="10.066917475264226"><ele>174.5</ele><time>2026-03-24T15:46:04.999Z</time></trkpt><trkpt lat="45.58008304278084" lon="10.06696869824451"><ele>174.0</ele><time>2026-03-24T15:46:06.999Z</time></trkpt><trkpt lat="45.57996808533406" lon="10.067020369255973"><ele>174.0</ele><time>2026-03-24T15:46:08.999Z</time></trkpt><trkpt lat="45.57985420366232" lon="10.067078358652386"><ele>174.0</ele><time>2026-03-24T15:46:10.999Z</time></trkpt><trkpt lat="45.579740658865425" lon="10.067135924415902"><ele>174.0</ele><time>2026-03-24T15:46:12.999Z</time></trkpt><trkpt lat="45.579680668004805" lon="10.067165384318436"><ele>174.0</ele><time>2026-03-24T15:46:13.999Z</time></trkpt><trkpt lat="45.579564339015434" lon="10.067225407000612"><ele>174.0</ele><time>2026-03-24T15:46:15.999Z</time></trkpt><trkpt lat="45.5794496654261" lon="10.06728524602309"><ele>174.5</ele><time>2026-03-24T15:46:17.999Z</time></trkpt><trkpt lat="45.57933293585434" lon="10.067343919207124"><ele>175.0</ele><time>2026-03-24T15:46:19.999Z</time></trkpt><trkpt lat="45.57921620494056" lon="10.06740229593683"><ele>175.5</ele><time>2026-03-24T15:46:21.999Z</time></trkpt><trkpt lat="45.579100328817326" lon="10.067462622935809"><ele>176.0</ele><time>2026-03-24T15:46:23.999Z</time></trkpt><trkpt lat="45.57898265034546" lon="10.067520825059265"><ele>176.20000000000002</ele><time>2026-03-24T15:46:25.999Z</time></trkpt><trkpt lat="45.57892239081608" lon="10.067550914894523"><ele>176.4</ele><time>2026-03-24T15:46:26.999Z</time></trkpt><trkpt lat="45.57880432810879" lon="10.067609134769315"><ele>176.6</ele><time>2026-03-24T15:46:28.999Z</time></trkpt><trkpt lat="45.57868527940667" lon="10.067661473507611"><ele>176.8</ele><time>2026-03-24T15:46:30.999Z</time></trkpt><trkpt lat="45.57862546947175" lon="10.067689799398115"><ele>177.0</ele><time>2026-03-24T15:46:31.999Z</time></trkpt><trkpt lat="45.57850639714876" lon="10.067736839753598"><ele>177.0</ele><time>2026-03-24T15:46:33.999Z</time></trkpt><trkpt lat="45.578382621250014" lon="10.067767909696464"><ele>177.0</ele><time>2026-03-24T15:46:35.999Z</time></trkpt><trkpt lat="45.57825863014637" lon="10.067778678559614"><ele>177.0</ele><time>2026-03-24T15:46:37.999Z</time></trkpt><trkpt lat="45.57813549856603" lon="10.067771831114854"><ele>177.0</ele><time>2026-03-24T15:46:39.999Z</time></trkpt><trkpt lat="45.578013010285495" lon="10.06774290351179"><ele>177.0</ele><time>2026-03-24T15:46:41.999Z</time></trkpt><trkpt lat="45.57789316170105" lon="10.067694801574563"><ele>177.0</ele><time>2026-03-24T15:46:43.999Z</time></trkpt><trkpt lat="45.5777770435283" lon="10.067644200282354"><ele>177.0</ele><time>2026-03-24T15:46:45.998Z</time></trkpt><trkpt lat="45.577663221589376" lon="10.067588720621757"><ele>177.0</ele><time>2026-03-24T15:46:47.998Z</time></trkpt><trkpt lat="45.57754609152432" lon="10.067529895211704"><ele>176.57142857142858</ele><time>2026-03-24T15:46:49.998Z</time></trkpt><trkpt lat="45.577425254898465" lon="10.067488404577434"><ele>176.14285714285714</ele><time>2026-03-24T15:46:51.998Z</time></trkpt><trkpt lat="45.57736291471291" lon="10.06747073739337"><ele>175.71428571428572</ele><time>2026-03-24T15:46:52.998Z</time></trkpt><trkpt lat="45.57729985974524" lon="10.067453993137375"><ele>175.28571428571428</ele><time>2026-03-24T15:46:53.998Z</time></trkpt><trkpt lat="45.577235484530796" lon="10.06744258270674"><ele>174.85714285714286</ele><time>2026-03-24T15:46:54.998Z</time></trkpt><trkpt lat="45.57717176554301" lon="10.067433946839664"><ele>174.42857142857142</ele><time>2026-03-24T15:46:55.998Z</time></trkpt><trkpt lat="45.5771068929912" lon="10.06742816513066"><ele>174.0</ele><time>2026-03-24T15:46:57Z</time></trkpt><trkpt lat="45.57704011282556" lon="10.06742966682016"><ele>173.71428571428572</ele><time>2026-03-24T15:46:58Z</time></trkpt><trkpt lat="45.57697247314956" lon="10.067434154326582"><ele>173.42857142857144</ele><time>2026-03-24T15:46:59Z</time></trkpt><trkpt lat="45.5769052068935" lon="10.067440800477812"><ele>173.14285714285717</ele><time>2026-03-24T15:47:00Z</time></trkpt><trkpt lat="45.576839797001405" lon="10.067448214235089"><ele>172.85714285714286</ele><time>2026-03-24T15:47:01Z</time></trkpt><trkpt lat="45.57677076950162" lon="10.06746441352832"><ele>172.57142857142858</ele><time>2026-03-24T15:47:02Z</time></trkpt><trkpt lat="45.57670375785887" lon="10.06747590430442"><ele>172.2857142857143</ele><time>2026-03-24T15:47:03Z</time></trkpt><trkpt lat="45.576637020411084" lon="10.06748606448463"><ele>172.0</ele><time>2026-03-24T15:47:04Z</time></trkpt><trkpt lat="45.576568754135586" lon="10.067497767760608"><ele>172.00000000000003</ele><time>2026-03-24T15:47:05Z</time></trkpt><trkpt lat="45.57650206874034" lon="10.067507959745377"><ele>172.0</ele><time>2026-03-24T15:47:06Z</time></trkpt><trkpt lat="45.57643515624607" lon="10.067523038409561"><ele>172.0</ele><time>2026-03-24T15:47:07Z</time></trkpt><trkpt lat="45.576370733066256" lon="10.067539439683285"><ele>172.0</ele><time>2026-03-24T15:47:08Z</time></trkpt><trkpt lat="45.576307490822074" lon="10.067551067476984"><ele>172.0</ele><time>2026-03-24T15:47:09Z</time></trkpt><trkpt lat="45.57624356375163" lon="10.067562084896402"><ele>172.00000000000003</ele><time>2026-03-24T15:47:10Z</time></trkpt><trkpt lat="45.57617968707691" lon="10.067568245452968"><ele>172.0</ele><time>2026-03-24T15:47:11Z</time></trkpt><trkpt lat="45.57611560151332" lon="10.067576583928178"><ele>171.33333333333334</ele><time>2026-03-24T15:47:12Z</time></trkpt><trkpt lat="45.576052514462866" lon="10.067588307302747"><ele>170.66666666666669</ele><time>2026-03-24T15:47:13Z</time></trkpt><trkpt lat="45.575988175255944" lon="10.067602767701858"><ele>170.0</ele><time>2026-03-24T15:47:14Z</time></trkpt><trkpt lat="45.57586285676869" lon="10.06762819365825"><ele>169.33333333333334</ele><time>2026-03-24T15:47:16Z</time></trkpt><trkpt lat="45.575738990980206" lon="10.067646245168861"><ele>168.66666666666666</ele><time>2026-03-24T15:47:18Z</time></trkpt><trkpt lat="45.57567610407133" lon="10.067653488118525"><ele>168.0</ele><time>2026-03-24T15:47:19Z</time></trkpt><trkpt lat="45.575552519973584" lon="10.067679530591013"><ele>168.0</ele><time>2026-03-24T15:47:21Z</time></trkpt><trkpt lat="45.57543023148279" lon="10.06769913096295"><ele>168.0</ele><time>2026-03-24T15:47:23Z</time></trkpt><trkpt lat="45.5753067375241" lon="10.067722652454476"><ele>168.0</ele><time>2026-03-24T15:47:25Z</time></trkpt><trkpt lat="45.57518503571657" lon="10.06774310282891"><ele>168.0</ele><time>2026-03-24T15:47:27Z</time></trkpt><trkpt lat="45.57506303505534" lon="10.067759943146463"><ele>167.75</ele><time>2026-03-24T15:47:29Z</time></trkpt><trkpt lat="45.5749407868171" lon="10.067771210117236"><ele>167.5</ele><time>2026-03-24T15:47:31Z</time></trkpt><trkpt lat="45.57481902772154" lon="10.067780545025444"><ele>167.25</ele><time>2026-03-24T15:47:33Z</time></trkpt><trkpt lat="45.57469840372615" lon="10.067786882325427"><ele>167.0</ele><time>2026-03-24T15:47:35Z</time></trkpt><trkpt lat="45.574581115967966" lon="10.067780073977898"><ele>167.0</ele><time>2026-03-24T15:47:37Z</time></trkpt><trkpt lat="45.57446259282644" lon="10.06777507110298"><ele>167.0</ele><time>2026-03-24T15:47:39Z</time></trkpt><trkpt lat="45.57434436406555" lon="10.067768087005197"><ele>167.0</ele><time>2026-03-24T15:47:41Z</time></trkpt><trkpt lat="45.57422398800656" lon="10.06775863137544"><ele>167.0</ele><time>2026-03-24T15:47:43Z</time></trkpt><trkpt lat="45.57410572649577" lon="10.067744051216454"><ele>167.0</ele><time>2026-03-24T15:47:45Z</time></trkpt><trkpt lat="45.57398813778674" lon="10.067723288743327"><ele>167.0</ele><time>2026-03-24T15:47:46.999Z</time></trkpt><trkpt lat="45.57387183995263" lon="10.067698238336803"><ele>167.0</ele><time>2026-03-24T15:47:48.999Z</time></trkpt><trkpt lat="45.57375540854405" lon="10.067668530836315"><ele>167.0</ele><time>2026-03-24T15:47:50.999Z</time></trkpt><trkpt lat="45.57363987505432" lon="10.067631503288787"><ele>166.83333333333331</ele><time>2026-03-24T15:47:52.999Z</time></trkpt><trkpt lat="45.5735782246065" lon="10.06761190862388"><ele>166.66666666666666</ele><time>2026-03-24T15:47:53.999Z</time></trkpt><trkpt lat="45.573459364448524" lon="10.06756731295739"><ele>166.5</ele><time>2026-03-24T15:47:55.999Z</time></trkpt><trkpt lat="45.573341889180895" lon="10.06752024402694"><ele>166.33333333333334</ele><time>2026-03-24T15:47:57.999Z</time></trkpt><trkpt lat="45.57328106688157" lon="10.067495867762721"><ele>166.16666666666669</ele><time>2026-03-24T15:47:58.999Z</time></trkpt><trkpt lat="45.573219298561085" lon="10.067469507738261"><ele>166.0</ele><time>2026-03-24T15:47:59.999Z</time></trkpt><trkpt lat="45.57310392727641" lon="10.067413772338023"><ele>166.20000000000002</ele><time>2026-03-24T15:48:01.999Z</time></trkpt><trkpt lat="45.57298480177532" lon="10.067360042297253"><ele>166.4</ele><time>2026-03-24T15:48:03.999Z</time></trkpt><trkpt lat="45.57286797469477" lon="10.067304778927717"><ele>166.6</ele><time>2026-03-24T15:48:05.999Z</time></trkpt><trkpt lat="45.57280710871895" lon="10.067278802291135"><ele>166.8</ele><time>2026-03-24T15:48:06.999Z</time></trkpt><trkpt lat="45.57268858963393" lon="10.067225250515552"><ele>167.0</ele><time>2026-03-24T15:48:08.999Z</time></trkpt><trkpt lat="45.57257065988233" lon="10.067179753898749"><ele>167.0</ele><time>2026-03-24T15:48:10.999Z</time></trkpt><trkpt lat="45.572452002784075" lon="10.067137135875338"><ele>167.0</ele><time>2026-03-24T15:48:12.999Z</time></trkpt><trkpt lat="45.572336816179806" lon="10.067092529975291"><ele>167.0</ele><time>2026-03-24T15:48:14.999Z</time></trkpt><trkpt lat="45.57221540727159" lon="10.06704983298688"><ele>167.0</ele><time>2026-03-24T15:48:16.999Z</time></trkpt><trkpt lat="45.572153958756665" lon="10.067030214702724"><ele>167.0</ele><time>2026-03-24T15:48:17.999Z</time></trkpt><trkpt lat="45.572034659883904" lon="10.066986409878528"><ele>167.0</ele><time>2026-03-24T15:48:19.999Z</time></trkpt><trkpt lat="45.57197253084943" lon="10.066966698810837"><ele>167.0</ele><time>2026-03-24T15:48:20.999Z</time></trkpt><trkpt lat="45.57185630330017" lon="10.06692380574056"><ele>167.0</ele><time>2026-03-24T15:48:22.999Z</time></trkpt><trkpt lat="45.57173553443508" lon="10.066882410977374"><ele>167.0</ele><time>2026-03-24T15:48:24.999Z</time></trkpt><trkpt lat="45.571619115039944" lon="10.066839113813472"><ele>167.0</ele><time>2026-03-24T15:48:26.999Z</time></trkpt><trkpt lat="45.57150078929316" lon="10.066798042401853"><ele>167.0</ele><time>2026-03-24T15:48:28.999Z</time></trkpt><trkpt lat="45.571383668927986" lon="10.066758461514556"><ele>167.0</ele><time>2026-03-24T15:48:30.999Z</time></trkpt><trkpt lat="45.571267798211714" lon="10.066718332200052"><ele>167.0</ele><time>2026-03-24T15:48:32.999Z</time></trkpt><trkpt lat="45.571148981224226" lon="10.066681963054561"><ele>167.0</ele><time>2026-03-24T15:48:34.999Z</time></trkpt><trkpt lat="45.57103395843002" lon="10.066644074769776"><ele>166.25</ele><time>2026-03-24T15:48:36.999Z</time></trkpt><trkpt lat="45.57091786940263" lon="10.066602367125249"><ele>165.5</ele><time>2026-03-24T15:48:38.999Z</time></trkpt><trkpt lat="45.57079749275851" lon="10.066567248621718"><ele>164.75</ele><time>2026-03-24T15:48:40.999Z</time></trkpt><trkpt lat="45.57067789844436" lon="10.06652745002769"><ele>164.0</ele><time>2026-03-24T15:48:42.999Z</time></trkpt><trkpt lat="45.57055909766414" lon="10.06648767383781"><ele>164.0</ele><time>2026-03-24T15:48:44.998Z</time></trkpt><trkpt lat="45.570436940090616" lon="10.066449085685713"><ele>164.0</ele><time>2026-03-24T15:48:46.998Z</time></trkpt><trkpt lat="45.57031889222373" lon="10.066407902785809"><ele>164.0</ele><time>2026-03-24T15:48:48.998Z</time></trkpt><trkpt lat="45.570199262592666" lon="10.066367157193385"><ele>164.0</ele><time>2026-03-24T15:48:50.998Z</time></trkpt><trkpt lat="45.570138069681484" lon="10.066345979118498"><ele>164.0</ele><time>2026-03-24T15:48:51.998Z</time></trkpt><trkpt lat="45.57001855589564" lon="10.066308492792727"><ele>164.0</ele><time>2026-03-24T15:48:53.998Z</time></trkpt><trkpt lat="45.56990232366072" lon="10.066264500460484"><ele>164.0</ele><time>2026-03-24T15:48:55.998Z</time></trkpt><trkpt lat="45.56978241419368" lon="10.06622353355028"><ele>164.0</ele><time>2026-03-24T15:48:57.998Z</time></trkpt><trkpt lat="45.56966502357851" lon="10.066186480620953"><ele>164.0</ele><time>2026-03-24T15:48:59.998Z</time></trkpt><trkpt lat="45.569546797701435" lon="10.066145375110837"><ele>163.75</ele><time>2026-03-24T15:49:02Z</time></trkpt><trkpt lat="45.56942759510061" lon="10.066101886834064"><ele>163.5</ele><time>2026-03-24T15:49:04Z</time></trkpt><trkpt lat="45.56930653067556" lon="10.06606185377425"><ele>163.25</ele><time>2026-03-24T15:49:06Z</time></trkpt><trkpt lat="45.56919044603243" lon="10.066023697644061"><ele>163.0</ele><time>2026-03-24T15:49:08Z</time></trkpt><trkpt lat="45.56907112002932" lon="10.06599086602787"><ele>163.0</ele><time>2026-03-24T15:49:10Z</time></trkpt><trkpt lat="45.56895206535489" lon="10.065980114712849"><ele>163.0</ele><time>2026-03-24T15:49:12Z</time></trkpt><trkpt lat="45.56888978110646" lon="10.065993476571997"><ele>163.0</ele><time>2026-03-24T15:49:13Z</time></trkpt><trkpt lat="45.568828845229184" lon="10.066016468682646"><ele>163.0</ele><time>2026-03-24T15:49:14Z</time></trkpt><trkpt lat="45.568768690485356" lon="10.06604741778491"><ele>163.0</ele><time>2026-03-24T15:49:15Z</time></trkpt><trkpt lat="45.56871137296656" lon="10.06608682786855"><ele>163.0</ele><time>2026-03-24T15:49:16Z</time></trkpt><trkpt lat="45.56865990620152" lon="10.066139551260559"><ele>163.0</ele><time>2026-03-24T15:49:17Z</time></trkpt><trkpt lat="45.568610836558435" lon="10.066196141668103"><ele>163.0</ele><time>2026-03-24T15:49:18Z</time></trkpt><trkpt lat="45.56856379418066" lon="10.066265652823676"><ele>163.0</ele><time>2026-03-24T15:49:19Z</time></trkpt><trkpt lat="45.568526979634015" lon="10.066344822314592"><ele>163.0</ele><time>2026-03-24T15:49:20Z</time></trkpt><trkpt lat="45.56849422851987" lon="10.066427910350923"><ele>163.0</ele><time>2026-03-24T15:49:21Z</time></trkpt><trkpt lat="45.56846363285912" lon="10.066511302630765"><ele>163.0</ele><time>2026-03-24T15:49:22Z</time></trkpt><trkpt lat="45.568432154312895" lon="10.066595259673054"><ele>163.0</ele><time>2026-03-24T15:49:23Z</time></trkpt><trkpt lat="45.568406072520666" lon="10.066681687239193"><ele>163.0</ele><time>2026-03-24T15:49:24Z</time></trkpt><trkpt lat="45.56837272969223" lon="10.066772768539392"><ele>163.33333333333334</ele><time>2026-03-24T15:49:25Z</time></trkpt><trkpt lat="45.56833962278531" lon="10.066858870292165"><ele>163.66666666666669</ele><time>2026-03-24T15:49:26Z</time></trkpt><trkpt lat="45.5683111669803" lon="10.066945632999317"><ele>164.0</ele><time>2026-03-24T15:49:27Z</time></trkpt><trkpt lat="45.56828340659916" lon="10.067032247992964"><ele>164.33333333333334</ele><time>2026-03-24T15:49:28Z</time></trkpt><trkpt lat="45.56825656662555" lon="10.067114671169197"><ele>164.66666666666666</ele><time>2026-03-24T15:49:29Z</time></trkpt><trkpt lat="45.56822271078423" lon="10.067199375986647"><ele>165.0</ele><time>2026-03-24T15:49:30Z</time></trkpt><trkpt lat="45.5681675557511" lon="10.067347113469834"><ele>165.0</ele><time>2026-03-24T15:49:32Z</time></trkpt><trkpt lat="45.56812179587396" lon="10.067490120801162"><ele>165.0</ele><time>2026-03-24T15:49:34Z</time></trkpt><trkpt lat="45.56808324138925" lon="10.067631202237354"><ele>165.0</ele><time>2026-03-24T15:49:36Z</time></trkpt><trkpt lat="45.568067408151514" lon="10.067778674758328"><ele>165.0</ele><time>2026-03-24T15:49:38Z</time></trkpt><trkpt lat="45.56806488004381" lon="10.067931959954079"><ele>165.0</ele><time>2026-03-24T15:49:40Z</time></trkpt><trkpt lat="45.568071115686855" lon="10.068089961747686"><ele>165.0</ele><time>2026-03-24T15:49:42Z</time></trkpt><trkpt lat="45.568083713612815" lon="10.068251814549681"><ele>165.0</ele><time>2026-03-24T15:49:44Z</time></trkpt><trkpt lat="45.56809867168066" lon="10.06841983135554"><ele>165.0</ele><time>2026-03-24T15:49:46Z</time></trkpt><trkpt lat="45.56810854342433" lon="10.068509298107683"><ele>165.0</ele><time>2026-03-24T15:49:47Z</time></trkpt><trkpt lat="45.56811431782092" lon="10.068599155721955"><ele>165.0</ele><time>2026-03-24T15:49:48Z</time></trkpt><trkpt lat="45.568136290398186" lon="10.068771185918822"><ele>164.5</ele><time>2026-03-24T15:49:50Z</time></trkpt><trkpt lat="45.56815523840736" lon="10.068944617490619"><ele>164.0</ele><time>2026-03-24T15:49:51.999Z</time></trkpt><trkpt lat="45.56816606723933" lon="10.069113165487861"><ele>163.5</ele><time>2026-03-24T15:49:53.999Z</time></trkpt><trkpt lat="45.568177888165636" lon="10.069274616457362"><ele>163.0</ele><time>2026-03-24T15:49:55.999Z</time></trkpt><trkpt lat="45.568188573052176" lon="10.069429066272763"><ele>162.8</ele><time>2026-03-24T15:49:57.999Z</time></trkpt><trkpt lat="45.56819592134233" lon="10.069585974967797"><ele>162.60000000000002</ele><time>2026-03-24T15:49:59.999Z</time></trkpt><trkpt lat="45.568199104705556" lon="10.069756237983412"><ele>162.39999999999998</ele><time>2026-03-24T15:50:01.999Z</time></trkpt><trkpt lat="45.56818114656004" lon="10.069936964950106"><ele>162.2</ele><time>2026-03-24T15:50:03.999Z</time></trkpt><trkpt lat="45.5681587155902" lon="10.070025300592803"><ele>162.0</ele><time>2026-03-24T15:50:04.999Z</time></trkpt><trkpt lat="45.5681311363031" lon="10.070111632504478"><ele>162.16666666666666</ele><time>2026-03-24T15:50:05.999Z</time></trkpt><trkpt lat="45.56810402576731" lon="10.070194479425641"><ele>162.33333333333334</ele><time>2026-03-24T15:50:06.999Z</time></trkpt><trkpt lat="45.56807917575141" lon="10.070278553825895"><ele>162.5</ele><time>2026-03-24T15:50:07.999Z</time></trkpt><trkpt lat="45.5680427955991" lon="10.070441395768615"><ele>162.66666666666669</ele><time>2026-03-24T15:50:09.999Z</time></trkpt><trkpt lat="45.56805765051094" lon="10.070613518957458"><ele>162.83333333333334</ele><time>2026-03-24T15:50:11.999Z</time></trkpt><trkpt lat="45.56808571903665" lon="10.070698358230258"><ele>163.0</ele><time>2026-03-24T15:50:12.999Z</time></trkpt><trkpt lat="45.56814640082887" lon="10.070856702879627"><ele>163.0</ele><time>2026-03-24T15:50:14.999Z</time></trkpt><trkpt lat="45.568177899170585" lon="10.070938066723453"><ele>163.0</ele><time>2026-03-24T15:50:15.999Z</time></trkpt><trkpt lat="45.568203211705715" lon="10.071024736920668"><ele>163.0</ele><time>2026-03-24T15:50:16.999Z</time></trkpt><trkpt lat="45.568216077315256" lon="10.07111340945268"><ele>163.0</ele><time>2026-03-24T15:50:17.999Z</time></trkpt><trkpt lat="45.568228234251386" lon="10.071206249364819"><ele>163.0</ele><time>2026-03-24T15:50:18.999Z</time></trkpt><trkpt lat="45.56823431668429" lon="10.071297038377649"><ele>163.0</ele><time>2026-03-24T15:50:19.999Z</time></trkpt><trkpt lat="45.568234069045616" lon="10.071388701469113"><ele>163.0</ele><time>2026-03-24T15:50:20.999Z</time></trkpt><trkpt lat="45.5682369579717" lon="10.071569975455548"><ele>162.60000000000002</ele><time>2026-03-24T15:50:22.999Z</time></trkpt><trkpt lat="45.56823921419886" lon="10.071748288994945"><ele>162.20000000000002</ele><time>2026-03-24T15:50:24.999Z</time></trkpt><trkpt lat="45.56823985073591" lon="10.071925613282263"><ele>161.8</ele><time>2026-03-24T15:50:26.999Z</time></trkpt><trkpt lat="45.56824096299364" lon="10.07201676773127"><ele>161.4</ele><time>2026-03-24T15:50:27.999Z</time></trkpt><trkpt lat="45.56824563275457" lon="10.072191896524641"><ele>161.0</ele><time>2026-03-24T15:50:29.999Z</time></trkpt><trkpt lat="45.568246269827995" lon="10.07236872921452"><ele>161.20000000000002</ele><time>2026-03-24T15:50:31.999Z</time></trkpt><trkpt lat="45.56824670853911" lon="10.072546562318468"><ele>161.4</ele><time>2026-03-24T15:50:33.999Z</time></trkpt><trkpt lat="45.568250346506986" lon="10.072719865083808"><ele>161.6</ele><time>2026-03-24T15:50:35.999Z</time></trkpt><trkpt lat="45.56825311657138" lon="10.072814739704521"><ele>161.8</ele><time>2026-03-24T15:50:36.999Z</time></trkpt><trkpt lat="45.568251251432024" lon="10.0729877706088"><ele>162.0</ele><time>2026-03-24T15:50:38.999Z</time></trkpt><trkpt lat="45.56825454050904" lon="10.073078720955717"><ele>162.0</ele><time>2026-03-24T15:50:39.999Z</time></trkpt><trkpt lat="45.56825582270414" lon="10.073254868668908"><ele>162.0</ele><time>2026-03-24T15:50:41.999Z</time></trkpt><trkpt lat="45.568254568432394" lon="10.07343141124197"><ele>162.0</ele><time>2026-03-24T15:50:43.999Z</time></trkpt><trkpt lat="45.56821564244442" lon="10.073604642659506"><ele>162.0</ele><time>2026-03-24T15:50:45.999Z</time></trkpt><trkpt lat="45.5681658252928" lon="10.073669295298926"><ele>162.0</ele><time>2026-03-24T15:50:46.999Z</time></trkpt><trkpt lat="45.5681036945923" lon="10.073706038309803"><ele>161.8</ele><time>2026-03-24T15:50:47.998Z</time></trkpt><trkpt lat="45.56803980075961" lon="10.073718437406532"><ele>161.6</ele><time>2026-03-24T15:50:48.998Z</time></trkpt><trkpt lat="45.56797392213249" lon="10.073718063345925"><ele>161.4</ele><time>2026-03-24T15:50:49.998Z</time></trkpt><trkpt lat="45.56785282487724" lon="10.073715340018797"><ele>161.20000000000002</ele><time>2026-03-24T15:50:51.998Z</time></trkpt><trkpt lat="45.56773226610795" lon="10.073708320415465"><ele>161.0</ele><time>2026-03-24T15:50:53.998Z</time></trkpt><trkpt lat="45.56761335051301" lon="10.073693306901488"><ele>160.75</ele><time>2026-03-24T15:50:55.998Z</time></trkpt><trkpt lat="45.56749410769947" lon="10.073680743592123"><ele>160.5</ele><time>2026-03-24T15:50:57.998Z</time></trkpt><trkpt lat="45.56738053484717" lon="10.073662482349066"><ele>160.25</ele><time>2026-03-24T15:50:59.998Z</time></trkpt><trkpt lat="45.567263504209876" lon="10.07363380971449"><ele>160.0</ele><time>2026-03-24T15:51:01.998Z</time></trkpt><trkpt lat="45.56714528187217" lon="10.073605751863205"><ele>160.25</ele><time>2026-03-24T15:51:03.998Z</time></trkpt><trkpt lat="45.567026879773515" lon="10.073585214244067"><ele>160.5</ele><time>2026-03-24T15:51:05.998Z</time></trkpt><trkpt lat="45.56691222182839" lon="10.073565336081963"><ele>160.75</ele><time>2026-03-24T15:51:08Z</time></trkpt><trkpt lat="45.566788471091684" lon="10.073542198489879"><ele>161.0</ele><time>2026-03-24T15:51:10Z</time></trkpt><trkpt lat="45.56666652317246" lon="10.073525281549077"><ele>161.0</ele><time>2026-03-24T15:51:12Z</time></trkpt><trkpt lat="45.566551561855384" lon="10.073516493099433"><ele>161.0</ele><time>2026-03-24T15:51:14Z</time></trkpt><trkpt lat="45.56643543784547" lon="10.073498497164612"><ele>161.0</ele><time>2026-03-24T15:51:16Z</time></trkpt><trkpt lat="45.566313784204134" lon="10.07346815856217"><ele>161.0</ele><time>2026-03-24T15:51:18Z</time></trkpt><trkpt lat="45.56624753550669" lon="10.073455429333213"><ele>161.0</ele><time>2026-03-24T15:51:19Z</time></trkpt><trkpt lat="45.56611779358819" lon="10.07344772114099"><ele>161.0</ele><time>2026-03-24T15:51:21Z</time></trkpt><trkpt lat="45.566052271313005" lon="10.073440921793228"><ele>161.0</ele><time>2026-03-24T15:51:22Z</time></trkpt><trkpt lat="45.56592751258358" lon="10.07340830384483"><ele>161.0</ele><time>2026-03-24T15:51:24Z</time></trkpt><trkpt lat="45.56579921686917" lon="10.073398231689655"><ele>161.0</ele><time>2026-03-24T15:51:26Z</time></trkpt><trkpt lat="45.56573510029218" lon="10.073386081059196"><ele>161.0</ele><time>2026-03-24T15:51:27Z</time></trkpt><trkpt lat="45.56566901218535" lon="10.073374165636313"><ele>161.0</ele><time>2026-03-24T15:51:28Z</time></trkpt><trkpt lat="45.565603034528145" lon="10.073361914131548"><ele>161.0</ele><time>2026-03-24T15:51:29Z</time></trkpt><trkpt lat="45.56553596198431" lon="10.073352005439368"><ele>161.0</ele><time>2026-03-24T15:51:30Z</time></trkpt><trkpt lat="45.56546768231224" lon="10.07334071432362"><ele>161.0</ele><time>2026-03-24T15:51:31Z</time></trkpt><trkpt lat="45.565399345900566" lon="10.073329951057133"><ele>161.0</ele><time>2026-03-24T15:51:32Z</time></trkpt><trkpt lat="45.5653281521083" lon="10.073323362206288"><ele>161.0</ele><time>2026-03-24T15:51:33Z</time></trkpt><trkpt lat="45.5652512397988" lon="10.07331252850325"><ele>161.0</ele><time>2026-03-24T15:51:34Z</time></trkpt><trkpt lat="45.565183859157834" lon="10.073309717352162"><ele>161.0</ele><time>2026-03-24T15:51:35Z</time></trkpt><trkpt lat="45.56511098287305" lon="10.073305010159542"><ele>161.0</ele><time>2026-03-24T15:51:36Z</time></trkpt><trkpt lat="45.56503689308181" lon="10.073297264234794"><ele>161.0</ele><time>2026-03-24T15:51:37Z</time></trkpt><trkpt lat="45.56496053027636" lon="10.073287642848026"><ele>161.0</ele><time>2026-03-24T15:51:38Z</time></trkpt><trkpt lat="45.56488282779884" lon="10.07327741123857"><ele>161.0</ele><time>2026-03-24T15:51:39Z</time></trkpt><trkpt lat="45.564816824257434" lon="10.073233789631788"><ele>161.0</ele><time>2026-03-24T15:51:40Z</time></trkpt><trkpt lat="45.564758530631494" lon="10.073198005044622"><ele>161.0</ele><time>2026-03-24T15:51:41Z</time></trkpt><trkpt lat="45.56466243662309" lon="10.073180927814843"><ele>161.0</ele><time>2026-03-24T15:51:42Z</time></trkpt><trkpt lat="45.56459229206069" lon="10.073186496054774"><ele>161.0</ele><time>2026-03-24T15:51:43Z</time></trkpt><trkpt lat="45.56447362703243" lon="10.07318337953571"><ele>161.0</ele><time>2026-03-24T15:51:45Z</time></trkpt><trkpt lat="45.56435874236233" lon="10.073167266484303"><ele>161.0</ele><time>2026-03-24T15:51:47Z</time></trkpt><trkpt lat="45.564240582523524" lon="10.073147793245836"><ele>161.0</ele><time>2026-03-24T15:51:49Z</time></trkpt><trkpt lat="45.564123922875446" lon="10.07312979528985"><ele>161.0</ele><time>2026-03-24T15:51:51Z</time></trkpt><trkpt lat="45.56400753365992" lon="10.073115087784272"><ele>161.0</ele><time>2026-03-24T15:51:52.999Z</time></trkpt><trkpt lat="45.56389223857656" lon="10.07309033497124"><ele>161.0</ele><time>2026-03-24T15:51:54.999Z</time></trkpt><trkpt lat="45.56379749183475" lon="10.072999010897577"><ele>161.0</ele><time>2026-03-24T15:51:56.999Z</time></trkpt><trkpt lat="45.56372606166203" lon="10.072877165936314"><ele>161.0</ele><time>2026-03-24T15:51:58.999Z</time></trkpt><trkpt lat="45.56370543867323" lon="10.07279061349958"><ele>161.0</ele><time>2026-03-24T15:51:59.999Z</time></trkpt><trkpt lat="45.56377205065706" lon="10.072637171630518"><ele>161.0</ele><time>2026-03-24T15:52:01.999Z</time></trkpt><trkpt lat="45.56381869926422" lon="10.072574013414194"><ele>161.0</ele><time>2026-03-24T15:52:02.999Z</time></trkpt><trkpt lat="45.56388465972018" lon="10.072438804509122"><ele>161.0</ele><time>2026-03-24T15:52:04.999Z</time></trkpt><trkpt lat="45.56392719781004" lon="10.072292417145698"><ele>161.25</ele><time>2026-03-24T15:52:06.999Z</time></trkpt><trkpt lat="45.56396168227561" lon="10.072131785293102"><ele>161.5</ele><time>2026-03-24T15:52:08.999Z</time></trkpt><trkpt lat="45.56398770091227" lon="10.07196759073783"><ele>161.75</ele><time>2026-03-24T15:52:10.999Z</time></trkpt><trkpt lat="45.56401367863882" lon="10.071807438924475"><ele>162.0</ele><time>2026-03-24T15:52:12.999Z</time></trkpt><trkpt lat="45.56403823980272" lon="10.071643689573945"><ele>162.0</ele><time>2026-03-24T15:52:14.999Z</time></trkpt><trkpt lat="45.56405921461847" lon="10.07148534102164"><ele>162.0</ele><time>2026-03-24T15:52:16.999Z</time></trkpt><trkpt lat="45.56407827752593" lon="10.07132276471172"><ele>162.0</ele><time>2026-03-24T15:52:18.999Z</time></trkpt><trkpt lat="45.564091210304206" lon="10.07116164108687"><ele>162.0</ele><time>2026-03-24T15:52:20.999Z</time></trkpt><trkpt lat="45.56409716966072" lon="10.070999822842525"><ele>162.0</ele><time>2026-03-24T15:52:22.999Z</time></trkpt><trkpt lat="45.56409095455147" lon="10.07082764113854"><ele>162.0</ele><time>2026-03-24T15:52:24.999Z</time></trkpt><trkpt lat="45.564095484099376" lon="10.070644602862187"><ele>162.0</ele><time>2026-03-24T15:52:26.999Z</time></trkpt><trkpt lat="45.56409646364356" lon="10.070550412833711"><ele>162.0</ele><time>2026-03-24T15:52:27.999Z</time></trkpt><trkpt lat="45.56409973916022" lon="10.070459460815457"><ele>162.0</ele><time>2026-03-24T15:52:28.999Z</time></trkpt><trkpt lat="45.56409945449057" lon="10.070281934472245"><ele>162.25</ele><time>2026-03-24T15:52:30.999Z</time></trkpt><trkpt lat="45.56409469929567" lon="10.070112184945792"><ele>162.5</ele><time>2026-03-24T15:52:32.999Z</time></trkpt><trkpt lat="45.56409625191715" lon="10.069945187945635"><ele>162.75</ele><time>2026-03-24T15:52:34.999Z</time></trkpt><trkpt lat="45.56409692148227" lon="10.06977880744559"><ele>163.0</ele><time>2026-03-24T15:52:36.999Z</time></trkpt><trkpt lat="45.564092401484714" lon="10.069617237185822"><ele>162.8</ele><time>2026-03-24T15:52:38.999Z</time></trkpt><trkpt lat="45.564093898859674" lon="10.069459302016938"><ele>162.60000000000002</ele><time>2026-03-24T15:52:40.999Z</time></trkpt><trkpt lat="45.564093391408996" lon="10.069305423553947"><ele>162.39999999999998</ele><time>2026-03-24T15:52:42.999Z</time></trkpt><trkpt lat="45.56409024639012" lon="10.069158116198713"><ele>162.2</ele><time>2026-03-24T15:52:44.999Z</time></trkpt><trkpt lat="45.56408888828672" lon="10.06901360405326"><ele>162.0</ele><time>2026-03-24T15:52:46.998Z</time></trkpt><trkpt lat="45.564089101128005" lon="10.068870545366657"><ele>162.0</ele><time>2026-03-24T15:52:48.998Z</time></trkpt><trkpt lat="45.564089254773" lon="10.0687240378574"><ele>162.0</ele><time>2026-03-24T15:52:50.998Z</time></trkpt><trkpt lat="45.56410283124344" lon="10.068577918763514"><ele>162.0</ele><time>2026-03-24T15:52:52.998Z</time></trkpt><trkpt lat="45.56411616568272" lon="10.068426430537679"><ele>162.0</ele><time>2026-03-24T15:52:54.998Z</time></trkpt><trkpt lat="45.564126535953726" lon="10.068277640653637"><ele>162.0</ele><time>2026-03-24T15:52:56.998Z</time></trkpt><trkpt lat="45.56412364518531" lon="10.068128277339877"><ele>162.0</ele><time>2026-03-24T15:52:58.998Z</time></trkpt><trkpt lat="45.56411348167661" lon="10.06798530762182"><ele>162.0</ele><time>2026-03-24T15:53:00.998Z</time></trkpt><trkpt lat="45.56410121461192" lon="10.067838912220198"><ele>162.0</ele><time>2026-03-24T15:53:02.998Z</time></trkpt><trkpt lat="45.56410374760974" lon="10.067699497997209"><ele>162.0</ele><time>2026-03-24T15:53:04.998Z</time></trkpt><trkpt lat="45.56410722033006" lon="10.067549311909895"><ele>162.0</ele><time>2026-03-24T15:53:06.998Z</time></trkpt><trkpt lat="45.56412529463997" lon="10.06740744034131"><ele>162.2</ele><time>2026-03-24T15:53:08.998Z</time></trkpt><trkpt lat="45.56413677290298" lon="10.067258007368443"><ele>162.39999999999998</ele><time>2026-03-24T15:53:10.998Z</time></trkpt><trkpt lat="45.56413213641141" lon="10.067111321276187"><ele>162.60000000000002</ele><time>2026-03-24T15:53:12.998Z</time></trkpt><trkpt lat="45.56412732911605" lon="10.066967600071115"><ele>162.8</ele><time>2026-03-24T15:53:15Z</time></trkpt><trkpt lat="45.56412148754639" lon="10.066823503610998"><ele>163.0</ele><time>2026-03-24T15:53:17Z</time></trkpt><trkpt lat="45.56411206741801" lon="10.066678940267696"><ele>162.8</ele><time>2026-03-24T15:53:19Z</time></trkpt><trkpt lat="45.56410309161533" lon="10.066531642926876"><ele>162.60000000000002</ele><time>2026-03-24T15:53:21Z</time></trkpt><trkpt lat="45.564096526189736" lon="10.06638194867987"><ele>162.39999999999998</ele><time>2026-03-24T15:53:23Z</time></trkpt><trkpt lat="45.564085023766246" lon="10.066232829741388"><ele>162.2</ele><time>2026-03-24T15:53:25Z</time></trkpt><trkpt lat="45.564073060700174" lon="10.066077917121774"><ele>162.0</ele><time>2026-03-24T15:53:27Z</time></trkpt><trkpt lat="45.564062664118474" lon="10.065919536248787"><ele>162.0</ele><time>2026-03-24T15:53:29Z</time></trkpt><trkpt lat="45.56405500470947" lon="10.065753189067818"><ele>162.0</ele><time>2026-03-24T15:53:31Z</time></trkpt><trkpt lat="45.564042430570694" lon="10.065592404714451"><ele>162.0</ele><time>2026-03-24T15:53:33Z</time></trkpt><trkpt lat="45.564033518972195" lon="10.06542755771999"><ele>162.0</ele><time>2026-03-24T15:53:35Z</time></trkpt><trkpt lat="45.564082319459814" lon="10.065289920928787"><ele>162.0</ele><time>2026-03-24T15:53:37Z</time></trkpt><trkpt lat="45.56417256933753" lon="10.065199262561967"><ele>162.0</ele><time>2026-03-24T15:53:39Z</time></trkpt><trkpt lat="45.56427599659615" lon="10.065158957414873"><ele>162.0</ele><time>2026-03-24T15:53:41Z</time></trkpt><trkpt lat="45.5643783988268" lon="10.065115418549924"><ele>162.0</ele><time>2026-03-24T15:53:43Z</time></trkpt><trkpt lat="45.56447903853817" lon="10.065068889868806"><ele>162.0</ele><time>2026-03-24T15:53:45Z</time></trkpt><trkpt lat="45.56458140106609" lon="10.065014280244142"><ele>162.39999999999998</ele><time>2026-03-24T15:53:47Z</time></trkpt><trkpt lat="45.56467978849771" lon="10.064961105622421"><ele>162.79999999999998</ele><time>2026-03-24T15:53:48.999Z</time></trkpt><trkpt lat="45.56478257697196" lon="10.064948818338033"><ele>163.2</ele><time>2026-03-24T15:53:50.999Z</time></trkpt><trkpt lat="45.564877030046745" lon="10.065019867869019"><ele>163.6</ele><time>2026-03-24T15:53:52.999Z</time></trkpt><trkpt lat="45.56497041599211" lon="10.065095063349212"><ele>164.0</ele><time>2026-03-24T15:53:54.999Z</time></trkpt><trkpt lat="45.56506552506933" lon="10.06516237769999"><ele>164.0</ele><time>2026-03-24T15:53:56.999Z</time></trkpt><trkpt lat="45.565160665177046" lon="10.065229916053058"><ele>164.0</ele><time>2026-03-24T15:53:58.999Z</time></trkpt><trkpt lat="45.56525504093164" lon="10.065295202047615"><ele>164.0</ele><time>2026-03-24T15:54:00.999Z</time></trkpt><trkpt lat="45.56535352286788" lon="10.065357104848792"><ele>164.0</ele><time>2026-03-24T15:54:02.999Z</time></trkpt><trkpt lat="45.56545555918676" lon="10.065412437633881"><ele>164.0</ele><time>2026-03-24T15:54:04.999Z</time></trkpt><trkpt lat="45.56556239302282" lon="10.0653963250447"><ele>164.0</ele><time>2026-03-24T15:54:06.999Z</time></trkpt><trkpt lat="45.5656418125883" lon="10.065296875460401"><ele>164.0</ele><time>2026-03-24T15:54:08.999Z</time></trkpt><trkpt lat="45.56567001156772" lon="10.065154704125591"><ele>164.0</ele><time>2026-03-24T15:54:10.999Z</time></trkpt><trkpt lat="45.56568659412206" lon="10.065025988064948"><ele>164.0</ele><time>2026-03-24T15:54:12.999Z</time></trkpt><trkpt lat="45.56571238343212" lon="10.064901909576877"><ele>164.0</ele><time>2026-03-24T15:54:14.999Z</time></trkpt><trkpt lat="45.56576180809538" lon="10.064802004640258"><ele>164.0</ele><time>2026-03-24T15:54:16.999Z</time></trkpt><trkpt lat="45.56577062623518" lon="10.064711658508783"><ele>164.0</ele><time>2026-03-24T15:54:18.999Z</time></trkpt><trkpt lat="45.56569253794353" lon="10.064741058135388"><ele>164.0</ele><time>2026-03-24T15:54:21.999Z</time></trkpt><trkpt lat="45.56568684581472" lon="10.064847900845152"><ele>164.0</ele><time>2026-03-24T15:54:23.999Z</time></trkpt><trkpt lat="45.56568829675451" lon="10.064956230630388"><ele>164.0</ele><time>2026-03-24T15:54:25.999Z</time></trkpt><trkpt lat="45.56564680801189" lon="10.06508432518866"><ele>164.0</ele><time>2026-03-24T15:54:27.999Z</time></trkpt><trkpt lat="45.565630664749435" lon="10.065233772327995"><ele>164.0</ele><time>2026-03-24T15:54:29.999Z</time></trkpt><trkpt lat="45.565580053952495" lon="10.065368888212328"><ele>164.0</ele><time>2026-03-24T15:54:31.999Z</time></trkpt><trkpt lat="45.56546703391944" lon="10.065404017362924"><ele>164.0</ele><time>2026-03-24T15:54:33.999Z</time></trkpt><trkpt lat="45.56540740017537" lon="10.065367541337215"><ele>164.0</ele><time>2026-03-24T15:54:34.999Z</time></trkpt><trkpt lat="45.56530641140876" lon="10.065274648455135"><ele>164.0</ele><time>2026-03-24T15:54:36.999Z</time></trkpt><trkpt lat="45.56520640228454" lon="10.065198411194634"><ele>164.0</ele><time>2026-03-24T15:54:38.999Z</time></trkpt><trkpt lat="45.5651091364676" lon="10.065118878616325"><ele>164.0</ele><time>2026-03-24T15:54:40.999Z</time></trkpt><trkpt lat="45.56500398655131" lon="10.06504579911258"><ele>164.0</ele><time>2026-03-24T15:54:42.998Z</time></trkpt><trkpt lat="45.56489647025314" lon="10.06497444060925"><ele>164.0</ele><time>2026-03-24T15:54:44.998Z</time></trkpt><trkpt lat="45.56478774013964" lon="10.064927999646295"><ele>164.0</ele><time>2026-03-24T15:54:46.998Z</time></trkpt><trkpt lat="45.56466881436686" lon="10.064951091697957"><ele>164.0</ele><time>2026-03-24T15:54:48.998Z</time></trkpt><trkpt lat="45.564555859417034" lon="10.065002738801832"><ele>164.0</ele><time>2026-03-24T15:54:50.998Z</time></trkpt><trkpt lat="45.56444105830752" lon="10.065049748880808"><ele>164.0</ele><time>2026-03-24T15:54:52.998Z</time></trkpt><trkpt lat="45.56432574057026" lon="10.065107128088005"><ele>163.6</ele><time>2026-03-24T15:54:54.998Z</time></trkpt><trkpt lat="45.56426556708674" lon="10.065133580840756"><ele>163.2</ele><time>2026-03-24T15:54:55.998Z</time></trkpt><trkpt lat="45.56415333631587" lon="10.065184492664176"><ele>162.79999999999998</ele><time>2026-03-24T15:54:57.998Z</time></trkpt><trkpt lat="45.56405885982394" lon="10.065278176787961"><ele>162.39999999999998</ele><time>2026-03-24T15:54:59.998Z</time></trkpt><trkpt lat="45.56400983104943" lon="10.065423760221684"><ele>162.0</ele><time>2026-03-24T15:55:01.998Z</time></trkpt><trkpt lat="45.56401268522915" lon="10.065593144247174"><ele>162.0</ele><time>2026-03-24T15:55:03.998Z</time></trkpt><trkpt lat="45.56402857859423" lon="10.06576238725874"><ele>162.0</ele><time>2026-03-24T15:55:05.998Z</time></trkpt><trkpt lat="45.56403745145041" lon="10.065853418055411"><ele>162.0</ele><time>2026-03-24T15:55:06.998Z</time></trkpt><trkpt lat="45.56404710972716" lon="10.066019730670668"><ele>162.0</ele><time>2026-03-24T15:55:08.998Z</time></trkpt><trkpt lat="45.56405898878415" lon="10.06619028288508"><ele>162.0</ele><time>2026-03-24T15:55:10.998Z</time></trkpt><trkpt lat="45.5640712250556" lon="10.066360816651056"><ele>162.0</ele><time>2026-03-24T15:55:12.998Z</time></trkpt><trkpt lat="45.56408060198202" lon="10.066521660515837"><ele>162.0</ele><time>2026-03-24T15:55:14.998Z</time></trkpt><trkpt lat="45.56409452019174" lon="10.066694946454126"><ele>162.0</ele><time>2026-03-24T15:55:16.998Z</time></trkpt><trkpt lat="45.56410674779866" lon="10.066863734558138"><ele>162.0</ele><time>2026-03-24T15:55:19Z</time></trkpt><trkpt lat="45.5641144746699" lon="10.066954759248247"><ele>162.0</ele><time>2026-03-24T15:55:20Z</time></trkpt><trkpt lat="45.56413002673343" lon="10.067127140978814"><ele>162.0</ele><time>2026-03-24T15:55:22Z</time></trkpt><trkpt lat="45.56412574978988" lon="10.067286528294218"><ele>162.0</ele><time>2026-03-24T15:55:24Z</time></trkpt><trkpt lat="45.56412391469809" lon="10.067380149910214"><ele>162.0</ele><time>2026-03-24T15:55:25Z</time></trkpt><trkpt lat="45.56406676200051" lon="10.067530802164145"><ele>162.0</ele><time>2026-03-24T15:55:27Z</time></trkpt><trkpt lat="45.56397875283678" lon="10.06765321738399"><ele>162.0</ele><time>2026-03-24T15:55:29Z</time></trkpt><trkpt lat="45.56394640103313" lon="10.067732225958906"><ele>162.0</ele><time>2026-03-24T15:55:30Z</time></trkpt><trkpt lat="45.56387846254436" lon="10.067876276371285"><ele>162.0</ele><time>2026-03-24T15:55:32Z</time></trkpt><trkpt lat="45.563770623912916" lon="10.067973237007635"><ele>162.0</ele><time>2026-03-24T15:55:34Z</time></trkpt><trkpt lat="45.56365787799291" lon="10.068047059561104"><ele>162.0</ele><time>2026-03-24T15:55:36Z</time></trkpt><trkpt lat="45.563547185548316" lon="10.068123927173977"><ele>161.8</ele><time>2026-03-24T15:55:38Z</time></trkpt><trkpt lat="45.56349030559471" lon="10.068162510896135"><ele>161.6</ele><time>2026-03-24T15:55:39Z</time></trkpt><trkpt lat="45.56337798798676" lon="10.068237452138904"><ele>161.4</ele><time>2026-03-24T15:55:41Z</time></trkpt><trkpt lat="45.56326313215722" lon="10.068305974334105"><ele>161.20000000000002</ele><time>2026-03-24T15:55:43Z</time></trkpt><trkpt lat="45.56314774061818" lon="10.068375612650481"><ele>161.0</ele><time>2026-03-24T15:55:45Z</time></trkpt><trkpt lat="45.5630305252262" lon="10.068428300808597"><ele>161.0</ele><time>2026-03-24T15:55:47Z</time></trkpt><trkpt lat="45.562915033850174" lon="10.068476796791726"><ele>161.0</ele><time>2026-03-24T15:55:48.999Z</time></trkpt><trkpt lat="45.56280895546507" lon="10.068524958815908"><ele>161.0</ele><time>2026-03-24T15:55:50.999Z</time></trkpt><trkpt lat="45.56270985516046" lon="10.068601963982466"><ele>161.0</ele><time>2026-03-24T15:55:52.999Z</time></trkpt><trkpt lat="45.56260835113539" lon="10.068625833766138"><ele>161.0</ele><time>2026-03-24T15:55:54.999Z</time></trkpt><trkpt lat="45.56251662462207" lon="10.068658019727282"><ele>161.0</ele><time>2026-03-24T15:55:56.999Z</time></trkpt><trkpt lat="45.56241679372982" lon="10.068687192288772"><ele>161.0</ele><time>2026-03-24T15:55:58.999Z</time></trkpt><trkpt lat="45.56231131196607" lon="10.0687077666072"><ele>161.0</ele><time>2026-03-24T15:56:00.999Z</time></trkpt><trkpt lat="45.56220644103908" lon="10.06867259373318"><ele>161.0</ele><time>2026-03-24T15:56:02.999Z</time></trkpt><trkpt lat="45.562111121573125" lon="10.068590227604343"><ele>161.0</ele><time>2026-03-24T15:56:04.999Z</time></trkpt><trkpt lat="45.562016397709776" lon="10.068537798909977"><ele>160.4</ele><time>2026-03-24T15:56:06.999Z</time></trkpt><trkpt lat="45.56192555142128" lon="10.068595564626975"><ele>159.8</ele><time>2026-03-24T15:56:08.999Z</time></trkpt><trkpt lat="45.56185492061937" lon="10.068706446997359"><ele>159.20000000000002</ele><time>2026-03-24T15:56:10.999Z</time></trkpt><trkpt lat="45.56174883122022" lon="10.06877406095509"><ele>158.60000000000002</ele><time>2026-03-24T15:56:12.999Z</time></trkpt><trkpt lat="45.561683496185665" lon="10.068788596558514"><ele>158.0</ele><time>2026-03-24T15:56:13.999Z</time></trkpt><trkpt lat="45.56156889171444" lon="10.068800405046623"><ele>158.0</ele><time>2026-03-24T15:56:15.999Z</time></trkpt><trkpt lat="45.561454215202225" lon="10.068802677486824"><ele>158.0</ele><time>2026-03-24T15:56:17.999Z</time></trkpt><trkpt lat="45.56133785069575" lon="10.068803959200263"><ele>158.0</ele><time>2026-03-24T15:56:19.999Z</time></trkpt><trkpt lat="45.56122497617955" lon="10.068807304562913"><ele>158.0</ele><time>2026-03-24T15:56:21.999Z</time></trkpt><trkpt lat="45.56111338046987" lon="10.068811813804981"><ele>158.25</ele><time>2026-03-24T15:56:23.999Z</time></trkpt><trkpt lat="45.561000847731805" lon="10.06881611165825"><ele>158.5</ele><time>2026-03-24T15:56:25.999Z</time></trkpt><trkpt lat="45.560889345726224" lon="10.068812695998929"><ele>158.75</ele><time>2026-03-24T15:56:27.999Z</time></trkpt><trkpt lat="45.560778572788564" lon="10.068802003993122"><ele>159.0</ele><time>2026-03-24T15:56:29.999Z</time></trkpt><trkpt lat="45.560663435880194" lon="10.068805136321737"><ele>159.0</ele><time>2026-03-24T15:56:31.999Z</time></trkpt><trkpt lat="45.560550196057214" lon="10.068810697768132"><ele>159.0</ele><time>2026-03-24T15:56:33.999Z</time></trkpt><trkpt lat="45.56043539770968" lon="10.068813058035998"><ele>159.0</ele><time>2026-03-24T15:56:35.999Z</time></trkpt><trkpt lat="45.56032391115363" lon="10.068824003426336"><ele>159.0</ele><time>2026-03-24T15:56:37.999Z</time></trkpt><trkpt lat="45.56020600075649" lon="10.068828780518935"><ele>158.75</ele><time>2026-03-24T15:56:39.999Z</time></trkpt><trkpt lat="45.56008524322203" lon="10.06882016809051"><ele>158.5</ele><time>2026-03-24T15:56:41.999Z</time></trkpt><trkpt lat="45.559964371948375" lon="10.068822738930667"><ele>158.25</ele><time>2026-03-24T15:56:43.999Z</time></trkpt><trkpt lat="45.559841262876965" lon="10.068824263622385"><ele>158.0</ele><time>2026-03-24T15:56:45.998Z</time></trkpt><trkpt lat="45.55971877402636" lon="10.068819408357838"><ele>158.0</ele><time>2026-03-24T15:56:47.998Z</time></trkpt><trkpt lat="45.559597335939934" lon="10.068815921655583"><ele>158.0</ele><time>2026-03-24T15:56:49.998Z</time></trkpt><trkpt lat="45.55947228366468" lon="10.068817297412412"><ele>158.0</ele><time>2026-03-24T15:56:51.998Z</time></trkpt><trkpt lat="45.55934832948107" lon="10.068813808282556"><ele>158.0</ele><time>2026-03-24T15:56:53.998Z</time></trkpt><trkpt lat="45.5592262273563" lon="10.068815148691163"><ele>158.0</ele><time>2026-03-24T15:56:55.998Z</time></trkpt><trkpt lat="45.55910493403124" lon="10.068816031087586"><ele>158.0</ele><time>2026-03-24T15:56:57.998Z</time></trkpt><trkpt lat="45.55898353019637" lon="10.068818577143947"><ele>158.0</ele><time>2026-03-24T15:56:59.998Z</time></trkpt><trkpt lat="45.55886142605329" lon="10.068817994203265"><ele>158.0</ele><time>2026-03-24T15:57:01.998Z</time></trkpt><trkpt lat="45.55873827087118" lon="10.068816606530183"><ele>158.0</ele><time>2026-03-24T15:57:03.998Z</time></trkpt><trkpt lat="45.558614786920835" lon="10.068826511694851"><ele>158.0</ele><time>2026-03-24T15:57:05.998Z</time></trkpt><trkpt lat="45.55850692344683" lon="10.068899465558866"><ele>158.0</ele><time>2026-03-24T15:57:07.998Z</time></trkpt><trkpt lat="45.55843389541646" lon="10.069038575862567"><ele>158.0</ele><time>2026-03-24T15:57:09.998Z</time></trkpt><trkpt lat="45.558397116179364" lon="10.06920752435774"><ele>157.75</ele><time>2026-03-24T15:57:11.998Z</time></trkpt><trkpt lat="45.5583683938014" lon="10.069378592392848"><ele>157.5</ele><time>2026-03-24T15:57:13.998Z</time></trkpt><trkpt lat="45.55834652781413" lon="10.069547890913862"><ele>157.25</ele><time>2026-03-24T15:57:15.998Z</time></trkpt><trkpt lat="45.55833361318195" lon="10.069710285700454"><ele>157.0</ele><time>2026-03-24T15:57:17.998Z</time></trkpt><trkpt lat="45.55832113838467" lon="10.069868049685832"><ele>157.0</ele><time>2026-03-24T15:57:19.998Z</time></trkpt><trkpt lat="45.55829758065699" lon="10.07002184326353"><ele>157.0</ele><time>2026-03-24T15:57:21.998Z</time></trkpt><trkpt lat="45.55828127060957" lon="10.07016966526363"><ele>157.0</ele><time>2026-03-24T15:57:23.998Z</time></trkpt><trkpt lat="45.55826428356186" lon="10.070313755358836"><ele>157.0</ele><time>2026-03-24T15:57:26Z</time></trkpt><trkpt lat="45.558245034363885" lon="10.070453652137772"><ele>157.0</ele><time>2026-03-24T15:57:28Z</time></trkpt><trkpt lat="45.558231061711716" lon="10.070594657687892"><ele>157.0</ele><time>2026-03-24T15:57:30Z</time></trkpt><trkpt lat="45.55821928105803" lon="10.070738050814011"><ele>157.0</ele><time>2026-03-24T15:57:32Z</time></trkpt><trkpt lat="45.5582059213298" lon="10.070871542861234"><ele>157.0</ele><time>2026-03-24T15:57:34Z</time></trkpt><trkpt lat="45.55819272223817" lon="10.070978544187334"><ele>157.0</ele><time>2026-03-24T15:57:36Z</time></trkpt><trkpt lat="45.5581398867936" lon="10.071058776509163"><ele>157.0</ele><time>2026-03-24T15:57:39Z</time></trkpt><trkpt lat="45.55805620126557" lon="10.071046898245415"><ele>157.0</ele><time>2026-03-24T15:57:41Z</time></trkpt><trkpt lat="45.55797060732696" lon="10.071049429331907"><ele>157.0</ele><time>2026-03-24T15:57:43Z</time></trkpt><trkpt lat="45.55787777721738" lon="10.071054001330445"><ele>157.0</ele><time>2026-03-24T15:57:45Z</time></trkpt><trkpt lat="45.55778220540957" lon="10.07104862504219"><ele>157.0</ele><time>2026-03-24T15:57:47Z</time></trkpt><trkpt lat="45.5576882603697" lon="10.071042412952579"><ele>157.0</ele><time>2026-03-24T15:57:49Z</time></trkpt><trkpt lat="45.55759977967298" lon="10.071046832992087"><ele>157.0</ele><time>2026-03-24T15:57:51Z</time></trkpt><trkpt lat="45.55751835676739" lon="10.071038693900087"><ele>156.0</ele><time>2026-03-24T15:57:53Z</time></trkpt></trkseg></trk></gpx>